<?xml version="1.0" encoding="UTF-8" standalone="no" ?>
<gpx xmlns="http://www.topografix.com/GPX/1/1" xmlns:xsi="http://www.w3.org/2001/XMLSchema-instance" xsi:schemaLocation="http://www.topografix.com/GPX/1/1 http://www.topografix.com/GPX/1/1/gpx.xsd" version="1.1" creator="VisuGPX - https://www.visugpx.com">
  <metadata>
    <name>Entre St Cannat et Coudoux</name>
    <desc><![CDATA[Boucle de 14.3km, dénivelé cumulé 90 m au départ de St Cannat]]></desc>
  </metadata>
  <trk>
    <name><![CDATA[St Cannat_2 nov. 2018]]></name>
    <trkseg>
      <trkpt lat="43.61319" lon="5.29211">
        <ele>209.94268360005</ele>
        <time>2018-11-02T08:43:45Z</time>
      </trkpt>
      <trkpt lat="43.61323" lon="5.29212">
        <ele>210.58415030691</ele>
        <time>2018-11-02T08:44:05Z</time>
      </trkpt>
      <trkpt lat="43.61326" lon="5.29208">
        <ele>210.73999204922</ele>
        <time>2018-11-02T08:44:08Z</time>
      </trkpt>
      <trkpt lat="43.61328" lon="5.29204">
        <ele>210.78345159237</ele>
        <time>2018-11-02T08:44:12Z</time>
      </trkpt>
      <trkpt lat="43.6133" lon="5.29199">
        <ele>210.63705140944</ele>
        <time>2018-11-02T08:44:16Z</time>
      </trkpt>
      <trkpt lat="43.61326" lon="5.29201">
        <ele>210.08145068795</ele>
        <time>2018-11-02T08:44:57Z</time>
      </trkpt>
      <trkpt lat="43.61324" lon="5.29205">
        <ele>208.85497977721</ele>
        <time>2018-11-02T08:46:35Z</time>
      </trkpt>
      <trkpt lat="43.61322" lon="5.29209">
        <ele>208.53047495664</ele>
        <time>2018-11-02T08:46:42Z</time>
      </trkpt>
      <trkpt lat="43.6132" lon="5.29215">
        <ele>208.00929087328</ele>
        <time>2018-11-02T08:46:56Z</time>
      </trkpt>
      <trkpt lat="43.61318" lon="5.2922">
        <ele>207.50439411042</ele>
        <time>2018-11-02T08:47:03Z</time>
      </trkpt>
      <trkpt lat="43.61317" lon="5.29224">
        <ele>207.22003416016</ele>
        <time>2018-11-02T08:47:07Z</time>
      </trkpt>
      <trkpt lat="43.61315" lon="5.29228">
        <ele>206.97618265148</ele>
        <time>2018-11-02T08:47:15Z</time>
      </trkpt>
      <trkpt lat="43.61313" lon="5.29233">
        <ele>206.81951147368</ele>
        <time>2018-11-02T08:47:21Z</time>
      </trkpt>
      <trkpt lat="43.6131" lon="5.29237">
        <ele>206.59247952507</ele>
        <time>2018-11-02T08:47:28Z</time>
      </trkpt>
      <trkpt lat="43.61306" lon="5.29237">
        <ele>206.37695578859</ele>
        <time>2018-11-02T08:47:35Z</time>
      </trkpt>
      <trkpt lat="43.61303" lon="5.29234">
        <ele>206.31179143952</ele>
        <time>2018-11-02T08:47:41Z</time>
      </trkpt>
      <trkpt lat="43.61297" lon="5.29232">
        <ele>206.26217615866</ele>
        <time>2018-11-02T08:47:46Z</time>
      </trkpt>
      <trkpt lat="43.61294" lon="5.2923">
        <ele>206.24994504672</ele>
        <time>2018-11-02T08:47:49Z</time>
      </trkpt>
      <trkpt lat="43.61288" lon="5.29226">
        <ele>206.36698546415</ele>
        <time>2018-11-02T08:47:54Z</time>
      </trkpt>
      <trkpt lat="43.61285" lon="5.29224">
        <ele>206.48935209087</ele>
        <time>2018-11-02T08:47:57Z</time>
      </trkpt>
      <trkpt lat="43.6128" lon="5.29221">
        <ele>206.70130985724</ele>
        <time>2018-11-02T08:48:02Z</time>
      </trkpt>
      <trkpt lat="43.61277" lon="5.29217">
        <ele>206.92495868884</ele>
        <time>2018-11-02T08:48:07Z</time>
      </trkpt>
      <trkpt lat="43.61273" lon="5.29215">
        <ele>207.10520634583</ele>
        <time>2018-11-02T08:48:11Z</time>
      </trkpt>
      <trkpt lat="43.61268" lon="5.29212">
        <ele>207.32969402566</ele>
        <time>2018-11-02T08:48:16Z</time>
      </trkpt>
      <trkpt lat="43.61264" lon="5.29209">
        <ele>207.56152264817</ele>
        <time>2018-11-02T08:48:21Z</time>
      </trkpt>
      <trkpt lat="43.61261" lon="5.29206">
        <ele>207.74162053249</ele>
        <time>2018-11-02T08:48:25Z</time>
      </trkpt>
      <trkpt lat="43.61258" lon="5.29205">
        <ele>207.86041352027</ele>
        <time>2018-11-02T08:48:28Z</time>
      </trkpt>
      <trkpt lat="43.61255" lon="5.29202">
        <ele>208.0043622535</ele>
        <time>2018-11-02T08:48:32Z</time>
      </trkpt>
      <trkpt lat="43.61252" lon="5.29199">
        <ele>208.12842267927</ele>
        <time>2018-11-02T08:48:36Z</time>
      </trkpt>
      <trkpt lat="43.61249" lon="5.29196">
        <ele>208.19594088872</ele>
        <time>2018-11-02T08:48:39Z</time>
      </trkpt>
      <trkpt lat="43.61246" lon="5.29193">
        <ele>208.25507981851</ele>
        <time>2018-11-02T08:48:43Z</time>
      </trkpt>
      <trkpt lat="43.61242" lon="5.29191">
        <ele>208.28642769793</ele>
        <time>2018-11-02T08:48:47Z</time>
      </trkpt>
      <trkpt lat="43.61239" lon="5.29188">
        <ele>208.31103475858</ele>
        <time>2018-11-02T08:48:51Z</time>
      </trkpt>
      <trkpt lat="43.61236" lon="5.29184">
        <ele>208.33794255721</ele>
        <time>2018-11-02T08:48:55Z</time>
      </trkpt>
      <trkpt lat="43.61232" lon="5.2918">
        <ele>208.36870265191</ele>
        <time>2018-11-02T08:49:00Z</time>
      </trkpt>
      <trkpt lat="43.6123" lon="5.29177">
        <ele>208.38277196181</ele>
        <time>2018-11-02T08:49:03Z</time>
      </trkpt>
      <trkpt lat="43.61226" lon="5.29172">
        <ele>208.39297322712</ele>
        <time>2018-11-02T08:49:08Z</time>
      </trkpt>
      <trkpt lat="43.61221" lon="5.29167">
        <ele>208.40098317701</ele>
        <time>2018-11-02T08:49:13Z</time>
      </trkpt>
      <trkpt lat="43.61218" lon="5.29164">
        <ele>208.41161326789</ele>
        <time>2018-11-02T08:49:17Z</time>
      </trkpt>
      <trkpt lat="43.61214" lon="5.29161">
        <ele>208.42197509994</ele>
        <time>2018-11-02T08:49:21Z</time>
      </trkpt>
      <trkpt lat="43.6121" lon="5.29157">
        <ele>208.43238907549</ele>
        <time>2018-11-02T08:49:25Z</time>
      </trkpt>
      <trkpt lat="43.61206" lon="5.29153">
        <ele>208.44721323637</ele>
        <time>2018-11-02T08:49:29Z</time>
      </trkpt>
      <trkpt lat="43.61201" lon="5.29149">
        <ele>208.47405054849</ele>
        <time>2018-11-02T08:49:34Z</time>
      </trkpt>
      <trkpt lat="43.61197" lon="5.29145">
        <ele>208.50464229651</ele>
        <time>2018-11-02T08:49:39Z</time>
      </trkpt>
      <trkpt lat="43.61193" lon="5.29141">
        <ele>208.53241659094</ele>
        <time>2018-11-02T08:49:44Z</time>
      </trkpt>
      <trkpt lat="43.61188" lon="5.29138">
        <ele>208.57406406195</ele>
        <time>2018-11-02T08:49:49Z</time>
      </trkpt>
      <trkpt lat="43.61183" lon="5.29136">
        <ele>208.6207712114</ele>
        <time>2018-11-02T08:49:53Z</time>
      </trkpt>
      <trkpt lat="43.61179" lon="5.29134">
        <ele>208.67349544722</ele>
        <time>2018-11-02T08:49:57Z</time>
      </trkpt>
      <trkpt lat="43.61175" lon="5.29132">
        <ele>208.73079823069</ele>
        <time>2018-11-02T08:50:01Z</time>
      </trkpt>
      <trkpt lat="43.61171" lon="5.2913">
        <ele>208.79098492767</ele>
        <time>2018-11-02T08:50:05Z</time>
      </trkpt>
      <trkpt lat="43.61167" lon="5.29128">
        <ele>208.85053151964</ele>
        <time>2018-11-02T08:50:09Z</time>
      </trkpt>
      <trkpt lat="43.61163" lon="5.29126">
        <ele>208.90942765169</ele>
        <time>2018-11-02T08:50:13Z</time>
      </trkpt>
      <trkpt lat="43.6116" lon="5.29124">
        <ele>208.95203928699</ele>
        <time>2018-11-02T08:50:16Z</time>
      </trkpt>
      <trkpt lat="43.61157" lon="5.29122">
        <ele>209.00521385025</ele>
        <time>2018-11-02T08:50:20Z</time>
      </trkpt>
      <trkpt lat="43.61153" lon="5.29118">
        <ele>209.07021218001</ele>
        <time>2018-11-02T08:50:25Z</time>
      </trkpt>
      <trkpt lat="43.61149" lon="5.29114">
        <ele>209.11968169204</ele>
        <time>2018-11-02T08:50:29Z</time>
      </trkpt>
      <trkpt lat="43.61144" lon="5.29111">
        <ele>209.18032368373</ele>
        <time>2018-11-02T08:50:34Z</time>
      </trkpt>
      <trkpt lat="43.6114" lon="5.29108">
        <ele>209.23566987206</ele>
        <time>2018-11-02T08:50:38Z</time>
      </trkpt>
      <trkpt lat="43.61134" lon="5.29103">
        <ele>209.30139969725</ele>
        <time>2018-11-02T08:50:43Z</time>
      </trkpt>
      <trkpt lat="43.6113" lon="5.291">
        <ele>209.35273078147</ele>
        <time>2018-11-02T08:50:47Z</time>
      </trkpt>
      <trkpt lat="43.61124" lon="5.29096">
        <ele>209.4151566965</ele>
        <time>2018-11-02T08:50:52Z</time>
      </trkpt>
      <trkpt lat="43.61119" lon="5.29094">
        <ele>209.47365543853</ele>
        <time>2018-11-02T08:50:57Z</time>
      </trkpt>
      <trkpt lat="43.61114" lon="5.29091">
        <ele>209.52034295043</ele>
        <time>2018-11-02T08:51:01Z</time>
      </trkpt>
      <trkpt lat="43.6111" lon="5.29089">
        <ele>209.5695563871</ele>
        <time>2018-11-02T08:51:05Z</time>
      </trkpt>
      <trkpt lat="43.61105" lon="5.29088">
        <ele>209.63140151024</ele>
        <time>2018-11-02T08:51:10Z</time>
      </trkpt>
      <trkpt lat="43.61102" lon="5.29086">
        <ele>209.6685342178</ele>
        <time>2018-11-02T08:51:13Z</time>
      </trkpt>
      <trkpt lat="43.61096" lon="5.29085">
        <ele>209.72259462445</ele>
        <time>2018-11-02T08:51:17Z</time>
      </trkpt>
      <trkpt lat="43.61091" lon="5.29084">
        <ele>209.77682332216</ele>
        <time>2018-11-02T08:51:21Z</time>
      </trkpt>
      <trkpt lat="43.61086" lon="5.29082">
        <ele>209.84067427652</ele>
        <time>2018-11-02T08:51:26Z</time>
      </trkpt>
      <trkpt lat="43.61083" lon="5.29081">
        <ele>209.87515014263</ele>
        <time>2018-11-02T08:51:29Z</time>
      </trkpt>
      <trkpt lat="43.61079" lon="5.29079">
        <ele>209.92683398614</ele>
        <time>2018-11-02T08:51:34Z</time>
      </trkpt>
      <trkpt lat="43.61074" lon="5.29076">
        <ele>209.96366421997</ele>
        <time>2018-11-02T08:51:38Z</time>
      </trkpt>
      <trkpt lat="43.61067" lon="5.29074">
        <ele>210.00973374367</ele>
        <time>2018-11-02T08:51:43Z</time>
      </trkpt>
      <trkpt lat="43.61064" lon="5.29072">
        <ele>210.0529647521</ele>
        <time>2018-11-02T08:51:48Z</time>
      </trkpt>
      <trkpt lat="43.61061" lon="5.29071">
        <ele>210.07652619687</ele>
        <time>2018-11-02T08:51:51Z</time>
      </trkpt>
      <trkpt lat="43.61057" lon="5.29068">
        <ele>210.10491835971</ele>
        <time>2018-11-02T08:51:55Z</time>
      </trkpt>
      <trkpt lat="43.61052" lon="5.29065">
        <ele>210.12749387504</ele>
        <time>2018-11-02T08:51:59Z</time>
      </trkpt>
      <trkpt lat="43.61047" lon="5.29063">
        <ele>210.15155489785</ele>
        <time>2018-11-02T08:52:04Z</time>
      </trkpt>
      <trkpt lat="43.61042" lon="5.2906">
        <ele>210.17344759519</ele>
        <time>2018-11-02T08:52:08Z</time>
      </trkpt>
      <trkpt lat="43.61038" lon="5.29057">
        <ele>210.1912095524</ele>
        <time>2018-11-02T08:52:11Z</time>
      </trkpt>
      <trkpt lat="43.61034" lon="5.29054">
        <ele>210.21638928108</ele>
        <time>2018-11-02T08:52:15Z</time>
      </trkpt>
      <trkpt lat="43.6103" lon="5.29051">
        <ele>210.25384384605</ele>
        <time>2018-11-02T08:52:20Z</time>
      </trkpt>
      <trkpt lat="43.61027" lon="5.29049">
        <ele>210.27856990789</ele>
        <time>2018-11-02T08:52:23Z</time>
      </trkpt>
      <trkpt lat="43.61022" lon="5.29045">
        <ele>210.32659805262</ele>
        <time>2018-11-02T08:52:28Z</time>
      </trkpt>
      <trkpt lat="43.61017" lon="5.29043">
        <ele>210.37402125752</ele>
        <time>2018-11-02T08:52:32Z</time>
      </trkpt>
      <trkpt lat="43.61013" lon="5.29042">
        <ele>210.42349290655</ele>
        <time>2018-11-02T08:52:36Z</time>
      </trkpt>
      <trkpt lat="43.61009" lon="5.29038">
        <ele>210.47282396476</ele>
        <time>2018-11-02T08:52:40Z</time>
      </trkpt>
      <trkpt lat="43.61006" lon="5.29034">
        <ele>210.5508697856</ele>
        <time>2018-11-02T08:52:50Z</time>
      </trkpt>
      <trkpt lat="43.61002" lon="5.29033">
        <ele>210.62864142444</ele>
        <time>2018-11-02T08:52:57Z</time>
      </trkpt>
      <trkpt lat="43.60999" lon="5.29031">
        <ele>210.68386119151</ele>
        <time>2018-11-02T08:53:02Z</time>
      </trkpt>
      <trkpt lat="43.60995" lon="5.29029">
        <ele>210.733259355</ele>
        <time>2018-11-02T08:53:06Z</time>
      </trkpt>
      <trkpt lat="43.6099" lon="5.29028">
        <ele>210.80386303537</ele>
        <time>2018-11-02T08:53:11Z</time>
      </trkpt>
      <trkpt lat="43.60985" lon="5.29027">
        <ele>210.86922495454</ele>
        <time>2018-11-02T08:53:15Z</time>
      </trkpt>
      <trkpt lat="43.60981" lon="5.29025">
        <ele>210.93879330952</ele>
        <time>2018-11-02T08:53:19Z</time>
      </trkpt>
      <trkpt lat="43.60976" lon="5.29024">
        <ele>211.01095683628</ele>
        <time>2018-11-02T08:53:23Z</time>
      </trkpt>
      <trkpt lat="43.60973" lon="5.29024">
        <ele>211.06333486514</ele>
        <time>2018-11-02T08:53:26Z</time>
      </trkpt>
      <trkpt lat="43.60969" lon="5.29024">
        <ele>211.16268561123</ele>
        <time>2018-11-02T08:53:36Z</time>
      </trkpt>
      <trkpt lat="43.60965" lon="5.29022">
        <ele>211.2233828301</ele>
        <time>2018-11-02T08:53:40Z</time>
      </trkpt>
      <trkpt lat="43.6096" lon="5.29021">
        <ele>211.30195757781</ele>
        <time>2018-11-02T08:53:45Z</time>
      </trkpt>
      <trkpt lat="43.60956" lon="5.29019">
        <ele>211.37836027183</ele>
        <time>2018-11-02T08:53:50Z</time>
      </trkpt>
      <trkpt lat="43.60952" lon="5.29017">
        <ele>211.43768535099</ele>
        <time>2018-11-02T08:53:54Z</time>
      </trkpt>
      <trkpt lat="43.60946" lon="5.29015">
        <ele>211.5104498583</ele>
        <time>2018-11-02T08:53:59Z</time>
      </trkpt>
      <trkpt lat="43.6094" lon="5.29013">
        <ele>211.57863487508</ele>
        <time>2018-11-02T08:54:04Z</time>
      </trkpt>
      <trkpt lat="43.60936" lon="5.29011">
        <ele>211.62771863333</ele>
        <time>2018-11-02T08:54:08Z</time>
      </trkpt>
      <trkpt lat="43.60932" lon="5.29009">
        <ele>211.67656400289</ele>
        <time>2018-11-02T08:54:12Z</time>
      </trkpt>
      <trkpt lat="43.60924" lon="5.29009">
        <ele>211.7410146048</ele>
        <time>2018-11-02T08:54:17Z</time>
      </trkpt>
      <trkpt lat="43.6092" lon="5.29007">
        <ele>211.7895778274</ele>
        <time>2018-11-02T08:54:21Z</time>
      </trkpt>
      <trkpt lat="43.60915" lon="5.29007">
        <ele>211.83715597294</ele>
        <time>2018-11-02T08:54:25Z</time>
      </trkpt>
      <trkpt lat="43.60911" lon="5.29006">
        <ele>211.8812093352</ele>
        <time>2018-11-02T08:54:29Z</time>
      </trkpt>
      <trkpt lat="43.60908" lon="5.29006">
        <ele>211.92134384485</ele>
        <time>2018-11-02T08:54:33Z</time>
      </trkpt>
      <trkpt lat="43.60903" lon="5.29006">
        <ele>211.96006717004</ele>
        <time>2018-11-02T08:54:37Z</time>
      </trkpt>
      <trkpt lat="43.60894" lon="5.29005">
        <ele>212.00995432044</ele>
        <time>2018-11-02T08:54:42Z</time>
      </trkpt>
      <trkpt lat="43.6089" lon="5.29005">
        <ele>212.03878460237</ele>
        <time>2018-11-02T08:54:45Z</time>
      </trkpt>
      <trkpt lat="43.60887" lon="5.29005">
        <ele>212.06618766447</ele>
        <time>2018-11-02T08:54:48Z</time>
      </trkpt>
      <trkpt lat="43.60882" lon="5.29004">
        <ele>212.10141646229</ele>
        <time>2018-11-02T08:54:52Z</time>
      </trkpt>
      <trkpt lat="43.60878" lon="5.29003">
        <ele>212.12867188074</ele>
        <time>2018-11-02T08:54:55Z</time>
      </trkpt>
      <trkpt lat="43.60875" lon="5.29002">
        <ele>212.16855592084</ele>
        <time>2018-11-02T08:54:59Z</time>
      </trkpt>
      <trkpt lat="43.60872" lon="5.29002">
        <ele>212.21364130777</ele>
        <time>2018-11-02T08:55:04Z</time>
      </trkpt>
      <trkpt lat="43.60868" lon="5.29002">
        <ele>212.26651017737</ele>
        <time>2018-11-02T08:55:09Z</time>
      </trkpt>
      <trkpt lat="43.60865" lon="5.29002">
        <ele>212.29496389047</ele>
        <time>2018-11-02T08:55:12Z</time>
      </trkpt>
      <trkpt lat="43.60859" lon="5.28998">
        <ele>212.33698986855</ele>
        <time>2018-11-02T08:55:17Z</time>
      </trkpt>
      <trkpt lat="43.60851" lon="5.28995">
        <ele>212.37549105589</ele>
        <time>2018-11-02T08:55:22Z</time>
      </trkpt>
      <trkpt lat="43.60847" lon="5.28995">
        <ele>212.40300675596</ele>
        <time>2018-11-02T08:55:26Z</time>
      </trkpt>
      <trkpt lat="43.60844" lon="5.28994">
        <ele>212.42060601612</ele>
        <time>2018-11-02T08:55:29Z</time>
      </trkpt>
      <trkpt lat="43.60839" lon="5.28993">
        <ele>212.44351461873</ele>
        <time>2018-11-02T08:55:33Z</time>
      </trkpt>
      <trkpt lat="43.60835" lon="5.28991">
        <ele>212.46478869651</ele>
        <time>2018-11-02T08:55:37Z</time>
      </trkpt>
      <trkpt lat="43.60829" lon="5.28989">
        <ele>212.49252212227</ele>
        <time>2018-11-02T08:55:42Z</time>
      </trkpt>
      <trkpt lat="43.60825" lon="5.28987">
        <ele>212.51530845326</ele>
        <time>2018-11-02T08:55:46Z</time>
      </trkpt>
      <trkpt lat="43.60821" lon="5.28986">
        <ele>212.53874276177</ele>
        <time>2018-11-02T08:55:50Z</time>
      </trkpt>
      <trkpt lat="43.60815" lon="5.28986">
        <ele>212.57014021599</ele>
        <time>2018-11-02T08:55:55Z</time>
      </trkpt>
      <trkpt lat="43.60808" lon="5.28985">
        <ele>212.60175936851</ele>
        <time>2018-11-02T08:56:00Z</time>
      </trkpt>
      <trkpt lat="43.60804" lon="5.28985">
        <ele>212.62102269951</ele>
        <time>2018-11-02T08:56:03Z</time>
      </trkpt>
      <trkpt lat="43.608" lon="5.28985">
        <ele>212.64579486283</ele>
        <time>2018-11-02T08:56:07Z</time>
      </trkpt>
      <trkpt lat="43.60795" lon="5.28983">
        <ele>212.66970872561</ele>
        <time>2018-11-02T08:56:11Z</time>
      </trkpt>
      <trkpt lat="43.60789" lon="5.28982">
        <ele>212.69533992893</ele>
        <time>2018-11-02T08:56:16Z</time>
      </trkpt>
      <trkpt lat="43.60783" lon="5.2898">
        <ele>212.72088574783</ele>
        <time>2018-11-02T08:56:21Z</time>
      </trkpt>
      <trkpt lat="43.60779" lon="5.28978">
        <ele>212.73658933215</ele>
        <time>2018-11-02T08:56:24Z</time>
      </trkpt>
      <trkpt lat="43.60773" lon="5.28976">
        <ele>212.7551411574</ele>
        <time>2018-11-02T08:56:28Z</time>
      </trkpt>
      <trkpt lat="43.60767" lon="5.28974">
        <ele>212.77590165103</ele>
        <time>2018-11-02T08:56:33Z</time>
      </trkpt>
      <trkpt lat="43.60764" lon="5.28974">
        <ele>212.78973197687</ele>
        <time>2018-11-02T08:56:36Z</time>
      </trkpt>
      <trkpt lat="43.60759" lon="5.28975">
        <ele>212.81492995626</ele>
        <time>2018-11-02T08:56:41Z</time>
      </trkpt>
      <trkpt lat="43.60756" lon="5.28975">
        <ele>212.8282238395</ele>
        <time>2018-11-02T08:56:44Z</time>
      </trkpt>
      <trkpt lat="43.60749" lon="5.28976">
        <ele>212.8462009456</ele>
        <time>2018-11-02T08:56:49Z</time>
      </trkpt>
      <trkpt lat="43.60744" lon="5.28976">
        <ele>212.85778904471</ele>
        <time>2018-11-02T08:56:53Z</time>
      </trkpt>
      <trkpt lat="43.60738" lon="5.28974">
        <ele>212.86898825478</ele>
        <time>2018-11-02T08:56:58Z</time>
      </trkpt>
      <trkpt lat="43.60734" lon="5.28973">
        <ele>212.8749985489</ele>
        <time>2018-11-02T08:57:01Z</time>
      </trkpt>
      <trkpt lat="43.6073" lon="5.28972">
        <ele>212.88218328832</ele>
        <time>2018-11-02T08:57:04Z</time>
      </trkpt>
      <trkpt lat="43.60726" lon="5.2897">
        <ele>212.89582696096</ele>
        <time>2018-11-02T08:57:09Z</time>
      </trkpt>
      <trkpt lat="43.60721" lon="5.28968">
        <ele>212.90956339511</ele>
        <time>2018-11-02T08:57:13Z</time>
      </trkpt>
      <trkpt lat="43.60716" lon="5.28967">
        <ele>212.92903873638</ele>
        <time>2018-11-02T08:57:17Z</time>
      </trkpt>
      <trkpt lat="43.60711" lon="5.28966">
        <ele>212.95519988209</ele>
        <time>2018-11-02T08:57:22Z</time>
      </trkpt>
      <trkpt lat="43.60708" lon="5.28965">
        <ele>212.97540727225</ele>
        <time>2018-11-02T08:57:26Z</time>
      </trkpt>
      <trkpt lat="43.60705" lon="5.28965">
        <ele>212.99090625608</ele>
        <time>2018-11-02T08:57:29Z</time>
      </trkpt>
      <trkpt lat="43.607" lon="5.28962">
        <ele>213.01638399223</ele>
        <time>2018-11-02T08:57:34Z</time>
      </trkpt>
      <trkpt lat="43.60698" lon="5.2896">
        <ele>213.05648483356</ele>
        <time>2018-11-02T08:57:39Z</time>
      </trkpt>
      <trkpt lat="43.60694" lon="5.28956">
        <ele>213.09787369427</ele>
        <time>2018-11-02T08:57:44Z</time>
      </trkpt>
      <trkpt lat="43.60689" lon="5.28957">
        <ele>213.14845814409</ele>
        <time>2018-11-02T08:57:53Z</time>
      </trkpt>
      <trkpt lat="43.60685" lon="5.28958">
        <ele>213.19756677045</ele>
        <time>2018-11-02T08:58:00Z</time>
      </trkpt>
      <trkpt lat="43.6068" lon="5.28957">
        <ele>213.22256268799</ele>
        <time>2018-11-02T08:58:04Z</time>
      </trkpt>
      <trkpt lat="43.60678" lon="5.28954">
        <ele>213.24495377415</ele>
        <time>2018-11-02T08:58:08Z</time>
      </trkpt>
      <trkpt lat="43.60674" lon="5.28953">
        <ele>213.27950070769</ele>
        <time>2018-11-02T08:58:14Z</time>
      </trkpt>
      <trkpt lat="43.6067" lon="5.28955">
        <ele>213.30078247921</ele>
        <time>2018-11-02T08:58:18Z</time>
      </trkpt>
      <trkpt lat="43.60666" lon="5.28955">
        <ele>213.31966520677</ele>
        <time>2018-11-02T08:58:22Z</time>
      </trkpt>
      <trkpt lat="43.60663" lon="5.28956">
        <ele>213.33743412374</ele>
        <time>2018-11-02T08:58:26Z</time>
      </trkpt>
      <trkpt lat="43.60658" lon="5.28954">
        <ele>213.35889567694</ele>
        <time>2018-11-02T08:58:31Z</time>
      </trkpt>
      <trkpt lat="43.60654" lon="5.28956">
        <ele>213.38379208044</ele>
        <time>2018-11-02T08:58:37Z</time>
      </trkpt>
      <trkpt lat="43.6065" lon="5.28958">
        <ele>213.39870316602</ele>
        <time>2018-11-02T08:58:40Z</time>
      </trkpt>
      <trkpt lat="43.60646" lon="5.28958">
        <ele>213.4179687211</ele>
        <time>2018-11-02T08:58:44Z</time>
      </trkpt>
      <trkpt lat="43.6064" lon="5.28958">
        <ele>213.43964425811</ele>
        <time>2018-11-02T08:58:49Z</time>
      </trkpt>
      <trkpt lat="43.60635" lon="5.28958">
        <ele>213.45332392327</ele>
        <time>2018-11-02T08:58:53Z</time>
      </trkpt>
      <trkpt lat="43.60633" lon="5.28956">
        <ele>213.46093895262</ele>
        <time>2018-11-02T08:58:57Z</time>
      </trkpt>
      <trkpt lat="43.60629" lon="5.28954">
        <ele>213.46919789733</ele>
        <time>2018-11-02T08:59:04Z</time>
      </trkpt>
      <trkpt lat="43.60625" lon="5.28953">
        <ele>213.47320194031</ele>
        <time>2018-11-02T08:59:13Z</time>
      </trkpt>
      <trkpt lat="43.60621" lon="5.28951">
        <ele>213.4775567684</ele>
        <time>2018-11-02T08:59:19Z</time>
      </trkpt>
      <trkpt lat="43.60617" lon="5.2895">
        <ele>213.50513341069</ele>
        <time>2018-11-02T08:59:32Z</time>
      </trkpt>
      <trkpt lat="43.60613" lon="5.2895">
        <ele>213.51871541166</ele>
        <time>2018-11-02T08:59:37Z</time>
      </trkpt>
      <trkpt lat="43.60607" lon="5.28949">
        <ele>213.52898776817</ele>
        <time>2018-11-02T08:59:42Z</time>
      </trkpt>
      <trkpt lat="43.60603" lon="5.28947">
        <ele>213.53452477819</ele>
        <time>2018-11-02T08:59:46Z</time>
      </trkpt>
      <trkpt lat="43.606" lon="5.28943">
        <ele>213.53829209642</ele>
        <time>2018-11-02T08:59:50Z</time>
      </trkpt>
      <trkpt lat="43.60597" lon="5.28939">
        <ele>213.54011598449</ele>
        <time>2018-11-02T08:59:54Z</time>
      </trkpt>
      <trkpt lat="43.60594" lon="5.28936">
        <ele>213.54190650257</ele>
        <time>2018-11-02T08:59:58Z</time>
      </trkpt>
      <trkpt lat="43.60592" lon="5.28932">
        <ele>213.54300008839</ele>
        <time>2018-11-02T09:00:02Z</time>
      </trkpt>
      <trkpt lat="43.60589" lon="5.28929">
        <ele>213.5428596817</ele>
        <time>2018-11-02T09:00:06Z</time>
      </trkpt>
      <trkpt lat="43.60587" lon="5.28925">
        <ele>213.54028740519</ele>
        <time>2018-11-02T09:00:10Z</time>
      </trkpt>
      <trkpt lat="43.60584" lon="5.28922">
        <ele>213.53638137953</ele>
        <time>2018-11-02T09:00:14Z</time>
      </trkpt>
      <trkpt lat="43.60581" lon="5.28918">
        <ele>213.53315292305</ele>
        <time>2018-11-02T09:00:18Z</time>
      </trkpt>
      <trkpt lat="43.60576" lon="5.28914">
        <ele>213.52602269248</ele>
        <time>2018-11-02T09:00:23Z</time>
      </trkpt>
      <trkpt lat="43.60573" lon="5.28911">
        <ele>213.52124278917</ele>
        <time>2018-11-02T09:00:26Z</time>
      </trkpt>
      <trkpt lat="43.60569" lon="5.28907">
        <ele>213.51360122594</ele>
        <time>2018-11-02T09:00:30Z</time>
      </trkpt>
      <trkpt lat="43.60565" lon="5.28902">
        <ele>213.50381262118</ele>
        <time>2018-11-02T09:00:35Z</time>
      </trkpt>
      <trkpt lat="43.60561" lon="5.28899">
        <ele>213.49421823995</ele>
        <time>2018-11-02T09:00:40Z</time>
      </trkpt>
      <trkpt lat="43.60557" lon="5.28897">
        <ele>213.4868103781</ele>
        <time>2018-11-02T09:00:44Z</time>
      </trkpt>
      <trkpt lat="43.60553" lon="5.28895">
        <ele>213.47649889528</ele>
        <time>2018-11-02T09:00:49Z</time>
      </trkpt>
      <trkpt lat="43.60549" lon="5.28894">
        <ele>213.46318746517</ele>
        <time>2018-11-02T09:00:53Z</time>
      </trkpt>
      <trkpt lat="43.60545" lon="5.28893">
        <ele>213.44672331024</ele>
        <time>2018-11-02T09:00:57Z</time>
      </trkpt>
      <trkpt lat="43.60542" lon="5.28892">
        <ele>213.43230908699</ele>
        <time>2018-11-02T09:01:00Z</time>
      </trkpt>
      <trkpt lat="43.60538" lon="5.28892">
        <ele>213.41016581268</ele>
        <time>2018-11-02T09:01:04Z</time>
      </trkpt>
      <trkpt lat="43.60535" lon="5.28892">
        <ele>213.39104307696</ele>
        <time>2018-11-02T09:01:07Z</time>
      </trkpt>
      <trkpt lat="43.6053" lon="5.28892">
        <ele>213.35571001037</ele>
        <time>2018-11-02T09:01:12Z</time>
      </trkpt>
      <trkpt lat="43.60527" lon="5.28892">
        <ele>213.32385410305</ele>
        <time>2018-11-02T09:01:16Z</time>
      </trkpt>
      <trkpt lat="43.60524" lon="5.28891">
        <ele>213.29833182485</ele>
        <time>2018-11-02T09:01:19Z</time>
      </trkpt>
      <trkpt lat="43.60519" lon="5.28891">
        <ele>213.24991064085</ele>
        <time>2018-11-02T09:01:24Z</time>
      </trkpt>
      <trkpt lat="43.60515" lon="5.28893">
        <ele>213.19444650111</ele>
        <time>2018-11-02T09:01:29Z</time>
      </trkpt>
      <trkpt lat="43.60511" lon="5.28893">
        <ele>213.13370614618</ele>
        <time>2018-11-02T09:01:34Z</time>
      </trkpt>
      <trkpt lat="43.60506" lon="5.28891">
        <ele>213.08373247653</ele>
        <time>2018-11-02T09:01:38Z</time>
      </trkpt>
      <trkpt lat="43.60502" lon="5.28889">
        <ele>213.03075819973</ele>
        <time>2018-11-02T09:01:42Z</time>
      </trkpt>
      <trkpt lat="43.60496" lon="5.28886">
        <ele>212.96035477313</ele>
        <time>2018-11-02T09:01:47Z</time>
      </trkpt>
      <trkpt lat="43.60492" lon="5.2888">
        <ele>212.88944852937</ele>
        <time>2018-11-02T09:01:52Z</time>
      </trkpt>
      <trkpt lat="43.6049" lon="5.28877">
        <ele>212.81992063287</ele>
        <time>2018-11-02T09:01:57Z</time>
      </trkpt>
      <trkpt lat="43.60487" lon="5.28872">
        <ele>212.7513516076</ele>
        <time>2018-11-02T09:02:02Z</time>
      </trkpt>
      <trkpt lat="43.60484" lon="5.28869">
        <ele>212.69426315939</ele>
        <time>2018-11-02T09:02:06Z</time>
      </trkpt>
      <trkpt lat="43.60481" lon="5.28866">
        <ele>212.63427182966</ele>
        <time>2018-11-02T09:02:10Z</time>
      </trkpt>
      <trkpt lat="43.60477" lon="5.28862">
        <ele>212.55707612434</ele>
        <time>2018-11-02T09:02:15Z</time>
      </trkpt>
      <trkpt lat="43.60475" lon="5.28861">
        <ele>212.51167941671</ele>
        <time>2018-11-02T09:02:18Z</time>
      </trkpt>
      <trkpt lat="43.60469" lon="5.28857">
        <ele>212.43221620552</ele>
        <time>2018-11-02T09:02:23Z</time>
      </trkpt>
      <trkpt lat="43.60465" lon="5.28853">
        <ele>212.34893620922</ele>
        <time>2018-11-02T09:02:28Z</time>
      </trkpt>
      <trkpt lat="43.60461" lon="5.2885">
        <ele>212.2496624178</ele>
        <time>2018-11-02T09:02:34Z</time>
      </trkpt>
      <trkpt lat="43.60458" lon="5.28845">
        <ele>212.18509737134</ele>
        <time>2018-11-02T09:02:38Z</time>
      </trkpt>
      <trkpt lat="43.60455" lon="5.28838">
        <ele>212.09743133543</ele>
        <time>2018-11-02T09:02:43Z</time>
      </trkpt>
      <trkpt lat="43.60452" lon="5.28833">
        <ele>212.02634376013</ele>
        <time>2018-11-02T09:02:47Z</time>
      </trkpt>
      <trkpt lat="43.6045" lon="5.28829">
        <ele>211.96888952819</ele>
        <time>2018-11-02T09:02:50Z</time>
      </trkpt>
      <trkpt lat="43.60448" lon="5.28825">
        <ele>211.85213984959</ele>
        <time>2018-11-02T09:02:56Z</time>
      </trkpt>
      <trkpt lat="43.60445" lon="5.2882">
        <ele>211.77490751617</ele>
        <time>2018-11-02T09:03:00Z</time>
      </trkpt>
      <trkpt lat="43.60443" lon="5.28817">
        <ele>211.7177520324</ele>
        <time>2018-11-02T09:03:03Z</time>
      </trkpt>
      <trkpt lat="43.60439" lon="5.28813">
        <ele>211.63992096717</ele>
        <time>2018-11-02T09:03:07Z</time>
      </trkpt>
      <trkpt lat="43.60436" lon="5.28809">
        <ele>211.58181417967</ele>
        <time>2018-11-02T09:03:10Z</time>
      </trkpt>
      <trkpt lat="43.60432" lon="5.28805">
        <ele>211.48782739951</ele>
        <time>2018-11-02T09:03:15Z</time>
      </trkpt>
      <trkpt lat="43.60428" lon="5.288">
        <ele>211.39586421493</ele>
        <time>2018-11-02T09:03:20Z</time>
      </trkpt>
      <trkpt lat="43.60425" lon="5.28797">
        <ele>211.32341433371</ele>
        <time>2018-11-02T09:03:24Z</time>
      </trkpt>
      <trkpt lat="43.60422" lon="5.28794">
        <ele>211.27050867777</ele>
        <time>2018-11-02T09:03:27Z</time>
      </trkpt>
      <trkpt lat="43.60418" lon="5.2879">
        <ele>211.20062763896</ele>
        <time>2018-11-02T09:03:31Z</time>
      </trkpt>
      <trkpt lat="43.60412" lon="5.28787">
        <ele>211.11288599305</ele>
        <time>2018-11-02T09:03:36Z</time>
      </trkpt>
      <trkpt lat="43.60409" lon="5.28784">
        <ele>211.05977292917</ele>
        <time>2018-11-02T09:03:39Z</time>
      </trkpt>
      <trkpt lat="43.60403" lon="5.28779">
        <ele>210.96629463963</ele>
        <time>2018-11-02T09:03:44Z</time>
      </trkpt>
      <trkpt lat="43.604" lon="5.28776">
        <ele>210.90689235742</ele>
        <time>2018-11-02T09:03:47Z</time>
      </trkpt>
      <trkpt lat="43.60395" lon="5.28774">
        <ele>210.82583058626</ele>
        <time>2018-11-02T09:03:51Z</time>
      </trkpt>
      <trkpt lat="43.60391" lon="5.28772">
        <ele>210.74488656303</ele>
        <time>2018-11-02T09:03:55Z</time>
      </trkpt>
      <trkpt lat="43.60387" lon="5.28771">
        <ele>210.68189678101</ele>
        <time>2018-11-02T09:03:58Z</time>
      </trkpt>
      <trkpt lat="43.60382" lon="5.2877">
        <ele>210.59447491899</ele>
        <time>2018-11-02T09:04:02Z</time>
      </trkpt>
      <trkpt lat="43.60378" lon="5.2877">
        <ele>210.50664604158</ele>
        <time>2018-11-02T09:04:06Z</time>
      </trkpt>
      <trkpt lat="43.60373" lon="5.28768">
        <ele>210.41896963144</ele>
        <time>2018-11-02T09:04:10Z</time>
      </trkpt>
      <trkpt lat="43.60368" lon="5.28766">
        <ele>210.33138173008</ele>
        <time>2018-11-02T09:04:14Z</time>
      </trkpt>
      <trkpt lat="43.60365" lon="5.28766">
        <ele>210.26809049321</ele>
        <time>2018-11-02T09:04:17Z</time>
      </trkpt>
      <trkpt lat="43.60361" lon="5.28765">
        <ele>210.20528845774</ele>
        <time>2018-11-02T09:04:20Z</time>
      </trkpt>
      <trkpt lat="43.60356" lon="5.28765">
        <ele>210.11802596981</ele>
        <time>2018-11-02T09:04:24Z</time>
      </trkpt>
      <trkpt lat="43.6035" lon="5.28765">
        <ele>210.02877146015</ele>
        <time>2018-11-02T09:04:28Z</time>
      </trkpt>
      <trkpt lat="43.60344" lon="5.28765">
        <ele>209.91232672491</ele>
        <time>2018-11-02T09:04:33Z</time>
      </trkpt>
      <trkpt lat="43.60341" lon="5.28765">
        <ele>209.84102096749</ele>
        <time>2018-11-02T09:04:36Z</time>
      </trkpt>
      <trkpt lat="43.60336" lon="5.28764">
        <ele>209.74292597228</ele>
        <time>2018-11-02T09:04:40Z</time>
      </trkpt>
      <trkpt lat="43.60331" lon="5.28763">
        <ele>209.62452107517</ele>
        <time>2018-11-02T09:04:45Z</time>
      </trkpt>
      <trkpt lat="43.60327" lon="5.28761">
        <ele>209.53290765506</ele>
        <time>2018-11-02T09:04:49Z</time>
      </trkpt>
      <trkpt lat="43.60322" lon="5.2876">
        <ele>209.42084273454</ele>
        <time>2018-11-02T09:04:54Z</time>
      </trkpt>
      <trkpt lat="43.60315" lon="5.28759">
        <ele>209.3097898098</ele>
        <time>2018-11-02T09:04:59Z</time>
      </trkpt>
      <trkpt lat="43.6031" lon="5.28758">
        <ele>209.22070118132</ele>
        <time>2018-11-02T09:05:03Z</time>
      </trkpt>
      <trkpt lat="43.60306" lon="5.28756">
        <ele>209.15501075411</ele>
        <time>2018-11-02T09:05:06Z</time>
      </trkpt>
      <trkpt lat="43.60303" lon="5.28755">
        <ele>209.08967085009</ele>
        <time>2018-11-02T09:05:09Z</time>
      </trkpt>
      <trkpt lat="43.60298" lon="5.28753">
        <ele>209.00024547997</ele>
        <time>2018-11-02T09:05:13Z</time>
      </trkpt>
      <trkpt lat="43.60295" lon="5.2875">
        <ele>208.90268556155</ele>
        <time>2018-11-02T09:05:17Z</time>
      </trkpt>
      <trkpt lat="43.60292" lon="5.28748">
        <ele>208.79755006552</ele>
        <time>2018-11-02T09:05:21Z</time>
      </trkpt>
      <trkpt lat="43.60288" lon="5.28746">
        <ele>208.68812750125</ele>
        <time>2018-11-02T09:05:25Z</time>
      </trkpt>
      <trkpt lat="43.60284" lon="5.28744">
        <ele>208.57327991749</ele>
        <time>2018-11-02T09:05:29Z</time>
      </trkpt>
      <trkpt lat="43.6028" lon="5.28742">
        <ele>208.45359917279</ele>
        <time>2018-11-02T09:05:33Z</time>
      </trkpt>
      <trkpt lat="43.60274" lon="5.28742">
        <ele>208.33136376058</ele>
        <time>2018-11-02T09:05:37Z</time>
      </trkpt>
      <trkpt lat="43.60269" lon="5.28741">
        <ele>208.17820483405</ele>
        <time>2018-11-02T09:05:42Z</time>
      </trkpt>
      <trkpt lat="43.60263" lon="5.28738">
        <ele>208.01993477299</ele>
        <time>2018-11-02T09:05:47Z</time>
      </trkpt>
      <trkpt lat="43.60257" lon="5.28735">
        <ele>207.88718509983</ele>
        <time>2018-11-02T09:05:51Z</time>
      </trkpt>
      <trkpt lat="43.60252" lon="5.28732">
        <ele>207.75169347096</ele>
        <time>2018-11-02T09:05:55Z</time>
      </trkpt>
      <trkpt lat="43.60248" lon="5.2873">
        <ele>207.61524553253</ele>
        <time>2018-11-02T09:05:59Z</time>
      </trkpt>
      <trkpt lat="43.60245" lon="5.28729">
        <ele>207.51188136168</ele>
        <time>2018-11-02T09:06:02Z</time>
      </trkpt>
      <trkpt lat="43.60241" lon="5.28729">
        <ele>207.37426533329</ele>
        <time>2018-11-02T09:06:06Z</time>
      </trkpt>
      <trkpt lat="43.60238" lon="5.28728">
        <ele>207.27516634157</ele>
        <time>2018-11-02T09:06:09Z</time>
      </trkpt>
      <trkpt lat="43.60231" lon="5.28726">
        <ele>207.11634193376</ele>
        <time>2018-11-02T09:06:14Z</time>
      </trkpt>
      <trkpt lat="43.60226" lon="5.28724">
        <ele>206.99358359495</ele>
        <time>2018-11-02T09:06:18Z</time>
      </trkpt>
      <trkpt lat="43.60221" lon="5.2872">
        <ele>206.8746770026</ele>
        <time>2018-11-02T09:06:22Z</time>
      </trkpt>
      <trkpt lat="43.60218" lon="5.28717">
        <ele>206.75936169942</ele>
        <time>2018-11-02T09:06:26Z</time>
      </trkpt>
      <trkpt lat="43.60214" lon="5.28711">
        <ele>206.618454773</ele>
        <time>2018-11-02T09:06:31Z</time>
      </trkpt>
      <trkpt lat="43.60208" lon="5.28705">
        <ele>206.48089049787</ele>
        <time>2018-11-02T09:06:36Z</time>
      </trkpt>
      <trkpt lat="43.60205" lon="5.287">
        <ele>206.34736958256</ele>
        <time>2018-11-02T09:06:41Z</time>
      </trkpt>
      <trkpt lat="43.60204" lon="5.28694">
        <ele>206.24526710388</ele>
        <time>2018-11-02T09:06:45Z</time>
      </trkpt>
      <trkpt lat="43.60204" lon="5.28686">
        <ele>206.14660034212</ele>
        <time>2018-11-02T09:06:49Z</time>
      </trkpt>
      <trkpt lat="43.60203" lon="5.28679">
        <ele>206.05001746327</ele>
        <time>2018-11-02T09:06:53Z</time>
      </trkpt>
      <trkpt lat="43.60203" lon="5.28672">
        <ele>205.95719420034</ele>
        <time>2018-11-02T09:06:57Z</time>
      </trkpt>
      <trkpt lat="43.60203" lon="5.28665">
        <ele>205.86803434967</ele>
        <time>2018-11-02T09:07:01Z</time>
      </trkpt>
      <trkpt lat="43.60204" lon="5.28659">
        <ele>205.77956510265</ele>
        <time>2018-11-02T09:07:05Z</time>
      </trkpt>
      <trkpt lat="43.60205" lon="5.28652">
        <ele>205.66718429484</ele>
        <time>2018-11-02T09:07:10Z</time>
      </trkpt>
      <trkpt lat="43.60205" lon="5.28644">
        <ele>205.54829385276</ele>
        <time>2018-11-02T09:07:15Z</time>
      </trkpt>
      <trkpt lat="43.60205" lon="5.28635">
        <ele>205.42056523233</ele>
        <time>2018-11-02T09:07:20Z</time>
      </trkpt>
      <trkpt lat="43.60205" lon="5.28627">
        <ele>205.31418835835</ele>
        <time>2018-11-02T09:07:24Z</time>
      </trkpt>
      <trkpt lat="43.60206" lon="5.28621">
        <ele>205.20423451838</ele>
        <time>2018-11-02T09:07:28Z</time>
      </trkpt>
      <trkpt lat="43.60206" lon="5.28614">
        <ele>205.09270177097</ele>
        <time>2018-11-02T09:07:32Z</time>
      </trkpt>
      <trkpt lat="43.60206" lon="5.28608">
        <ele>204.97898286766</ele>
        <time>2018-11-02T09:07:36Z</time>
      </trkpt>
      <trkpt lat="43.60205" lon="5.28602">
        <ele>204.8643898674</ele>
        <time>2018-11-02T09:07:40Z</time>
      </trkpt>
      <trkpt lat="43.60203" lon="5.28596">
        <ele>204.7216102636</ele>
        <time>2018-11-02T09:07:45Z</time>
      </trkpt>
      <trkpt lat="43.602" lon="5.28591">
        <ele>204.57669830674</ele>
        <time>2018-11-02T09:07:50Z</time>
      </trkpt>
      <trkpt lat="43.60197" lon="5.28589">
        <ele>204.45716302193</ele>
        <time>2018-11-02T09:07:54Z</time>
      </trkpt>
      <trkpt lat="43.60193" lon="5.28587">
        <ele>204.26628691725</ele>
        <time>2018-11-02T09:08:00Z</time>
      </trkpt>
      <trkpt lat="43.60189" lon="5.28586">
        <ele>204.10141322984</ele>
        <time>2018-11-02T09:08:05Z</time>
      </trkpt>
      <trkpt lat="43.60185" lon="5.28586">
        <ele>203.9702794867</ele>
        <time>2018-11-02T09:08:09Z</time>
      </trkpt>
      <trkpt lat="43.60181" lon="5.28588">
        <ele>203.80874972572</ele>
        <time>2018-11-02T09:08:14Z</time>
      </trkpt>
      <trkpt lat="43.60177" lon="5.28589">
        <ele>203.65040370915</ele>
        <time>2018-11-02T09:08:19Z</time>
      </trkpt>
      <trkpt lat="43.60174" lon="5.2859">
        <ele>203.55506829018</ele>
        <time>2018-11-02T09:08:22Z</time>
      </trkpt>
      <trkpt lat="43.6017" lon="5.28588">
        <ele>203.42925966472</ele>
        <time>2018-11-02T09:08:26Z</time>
      </trkpt>
      <trkpt lat="43.60164" lon="5.28587">
        <ele>203.27117365445</ele>
        <time>2018-11-02T09:08:31Z</time>
      </trkpt>
      <trkpt lat="43.60159" lon="5.28587">
        <ele>203.15168409691</ele>
        <time>2018-11-02T09:08:35Z</time>
      </trkpt>
      <trkpt lat="43.60156" lon="5.28585">
        <ele>203.03883894859</ele>
        <time>2018-11-02T09:08:39Z</time>
      </trkpt>
      <trkpt lat="43.60151" lon="5.28583">
        <ele>202.92854907932</ele>
        <time>2018-11-02T09:08:43Z</time>
      </trkpt>
      <trkpt lat="43.60145" lon="5.28583">
        <ele>202.78856279642</ele>
        <time>2018-11-02T09:08:48Z</time>
      </trkpt>
      <trkpt lat="43.6014" lon="5.28582">
        <ele>202.67229277872</ele>
        <time>2018-11-02T09:08:52Z</time>
      </trkpt>
      <trkpt lat="43.60137" lon="5.2858">
        <ele>202.52773667294</ele>
        <time>2018-11-02T09:08:57Z</time>
      </trkpt>
      <trkpt lat="43.60133" lon="5.28578">
        <ele>202.35657961995</ele>
        <time>2018-11-02T09:09:03Z</time>
      </trkpt>
      <trkpt lat="43.60129" lon="5.28576">
        <ele>202.24282199256</ele>
        <time>2018-11-02T09:09:07Z</time>
      </trkpt>
      <trkpt lat="43.60122" lon="5.28575">
        <ele>202.09406838937</ele>
        <time>2018-11-02T09:09:12Z</time>
      </trkpt>
      <trkpt lat="43.60117" lon="5.28574">
        <ele>201.94604855349</ele>
        <time>2018-11-02T09:09:17Z</time>
      </trkpt>
      <trkpt lat="43.60113" lon="5.28573">
        <ele>201.80415673405</ele>
        <time>2018-11-02T09:09:22Z</time>
      </trkpt>
      <trkpt lat="43.60111" lon="5.28572">
        <ele>201.71942228125</ele>
        <time>2018-11-02T09:09:25Z</time>
      </trkpt>
      <trkpt lat="43.60106" lon="5.28572">
        <ele>201.60220061252</ele>
        <time>2018-11-02T09:09:29Z</time>
      </trkpt>
      <trkpt lat="43.60102" lon="5.28569">
        <ele>201.46194060319</ele>
        <time>2018-11-02T09:09:34Z</time>
      </trkpt>
      <trkpt lat="43.60097" lon="5.28567">
        <ele>201.32174038148</ele>
        <time>2018-11-02T09:09:39Z</time>
      </trkpt>
      <trkpt lat="43.60093" lon="5.28563">
        <ele>201.21152574085</ele>
        <time>2018-11-02T09:09:43Z</time>
      </trkpt>
      <trkpt lat="43.6009" lon="5.28559">
        <ele>201.05280573538</ele>
        <time>2018-11-02T09:09:49Z</time>
      </trkpt>
      <trkpt lat="43.60087" lon="5.28557">
        <ele>200.95023804901</ele>
        <time>2018-11-02T09:09:53Z</time>
      </trkpt>
      <trkpt lat="43.60085" lon="5.28552">
        <ele>200.82698436263</ele>
        <time>2018-11-02T09:09:58Z</time>
      </trkpt>
      <trkpt lat="43.60084" lon="5.28548">
        <ele>200.70534913613</ele>
        <time>2018-11-02T09:10:03Z</time>
      </trkpt>
      <trkpt lat="43.60079" lon="5.28545">
        <ele>200.58789497331</ele>
        <time>2018-11-02T09:10:08Z</time>
      </trkpt>
      <trkpt lat="43.60079" lon="5.28539">
        <ele>200.47412871025</ele>
        <time>2018-11-02T09:10:13Z</time>
      </trkpt>
      <trkpt lat="43.60078" lon="5.28532">
        <ele>200.36261661369</ele>
        <time>2018-11-02T09:10:18Z</time>
      </trkpt>
      <trkpt lat="43.60077" lon="5.28524">
        <ele>200.25559527684</ele>
        <time>2018-11-02T09:10:23Z</time>
      </trkpt>
      <trkpt lat="43.60076" lon="5.28518">
        <ele>200.13178081323</ele>
        <time>2018-11-02T09:10:29Z</time>
      </trkpt>
      <trkpt lat="43.60074" lon="5.28515">
        <ele>200.01524658405</ele>
        <time>2018-11-02T09:10:35Z</time>
      </trkpt>
      <trkpt lat="43.60071" lon="5.2851">
        <ele>199.90151156282</ele>
        <time>2018-11-02T09:10:41Z</time>
      </trkpt>
      <trkpt lat="43.6007" lon="5.28504">
        <ele>199.79157062309</ele>
        <time>2018-11-02T09:10:47Z</time>
      </trkpt>
      <trkpt lat="43.60067" lon="5.28499">
        <ele>199.70439443483</ele>
        <time>2018-11-02T09:10:52Z</time>
      </trkpt>
      <trkpt lat="43.60064" lon="5.28496">
        <ele>199.62165007041</ele>
        <time>2018-11-02T09:10:57Z</time>
      </trkpt>
      <trkpt lat="43.60061" lon="5.28493">
        <ele>199.55673619239</ele>
        <time>2018-11-02T09:11:01Z</time>
      </trkpt>
      <trkpt lat="43.60059" lon="5.28488">
        <ele>199.47445091573</ele>
        <time>2018-11-02T09:11:06Z</time>
      </trkpt>
      <trkpt lat="43.60056" lon="5.28485">
        <ele>199.40841588936</ele>
        <time>2018-11-02T09:11:10Z</time>
      </trkpt>
      <trkpt lat="43.60053" lon="5.28482">
        <ele>199.3260943085</ele>
        <time>2018-11-02T09:11:15Z</time>
      </trkpt>
      <trkpt lat="43.60049" lon="5.28479">
        <ele>199.23458121426</ele>
        <time>2018-11-02T09:11:21Z</time>
      </trkpt>
      <trkpt lat="43.60046" lon="5.28474">
        <ele>199.16632894133</ele>
        <time>2018-11-02T09:11:26Z</time>
      </trkpt>
      <trkpt lat="43.60044" lon="5.28472">
        <ele>199.1162633917</ele>
        <time>2018-11-02T09:11:30Z</time>
      </trkpt>
      <trkpt lat="43.6004" lon="5.28468">
        <ele>199.06962988829</ele>
        <time>2018-11-02T09:11:34Z</time>
      </trkpt>
      <trkpt lat="43.60034" lon="5.28463">
        <ele>199.01484102635</ele>
        <time>2018-11-02T09:11:39Z</time>
      </trkpt>
      <trkpt lat="43.60031" lon="5.2846">
        <ele>198.98289688414</ele>
        <time>2018-11-02T09:11:42Z</time>
      </trkpt>
      <trkpt lat="43.60029" lon="5.28454">
        <ele>198.93445166258</ele>
        <time>2018-11-02T09:11:47Z</time>
      </trkpt>
      <trkpt lat="43.60029" lon="5.28449">
        <ele>198.89842412869</ele>
        <time>2018-11-02T09:11:51Z</time>
      </trkpt>
      <trkpt lat="43.60028" lon="5.28444">
        <ele>198.85504785616</ele>
        <time>2018-11-02T09:11:56Z</time>
      </trkpt>
      <trkpt lat="43.60027" lon="5.28438">
        <ele>198.82252980174</ele>
        <time>2018-11-02T09:12:00Z</time>
      </trkpt>
      <trkpt lat="43.60027" lon="5.28431">
        <ele>198.78551652528</ele>
        <time>2018-11-02T09:12:05Z</time>
      </trkpt>
      <trkpt lat="43.60027" lon="5.28425">
        <ele>198.75195866557</ele>
        <time>2018-11-02T09:12:10Z</time>
      </trkpt>
      <trkpt lat="43.60026" lon="5.28422">
        <ele>198.72528081339</ele>
        <time>2018-11-02T09:12:14Z</time>
      </trkpt>
      <trkpt lat="43.60026" lon="5.28416">
        <ele>198.70079692817</ele>
        <time>2018-11-02T09:12:18Z</time>
      </trkpt>
      <trkpt lat="43.60025" lon="5.28411">
        <ele>198.67328700263</ele>
        <time>2018-11-02T09:12:23Z</time>
      </trkpt>
      <trkpt lat="43.60025" lon="5.28405">
        <ele>198.64820615954</ele>
        <time>2018-11-02T09:12:28Z</time>
      </trkpt>
      <trkpt lat="43.60025" lon="5.284">
        <ele>198.63431706393</ele>
        <time>2018-11-02T09:12:39Z</time>
      </trkpt>
      <trkpt lat="43.60026" lon="5.28394">
        <ele>198.62402992262</ele>
        <time>2018-11-02T09:12:46Z</time>
      </trkpt>
      <trkpt lat="43.60027" lon="5.28389">
        <ele>198.62389880571</ele>
        <time>2018-11-02T09:12:50Z</time>
      </trkpt>
      <trkpt lat="43.60026" lon="5.28384">
        <ele>198.62683943736</ele>
        <time>2018-11-02T09:12:54Z</time>
      </trkpt>
      <trkpt lat="43.60025" lon="5.2838">
        <ele>198.63087309277</ele>
        <time>2018-11-02T09:12:58Z</time>
      </trkpt>
      <trkpt lat="43.60023" lon="5.28376">
        <ele>198.63752710114</ele>
        <time>2018-11-02T09:13:02Z</time>
      </trkpt>
      <trkpt lat="43.60021" lon="5.28371">
        <ele>198.64880407681</ele>
        <time>2018-11-02T09:13:07Z</time>
      </trkpt>
      <trkpt lat="43.60019" lon="5.28367">
        <ele>198.66229123937</ele>
        <time>2018-11-02T09:13:11Z</time>
      </trkpt>
      <trkpt lat="43.60017" lon="5.28363">
        <ele>198.67970071031</ele>
        <time>2018-11-02T09:13:15Z</time>
      </trkpt>
      <trkpt lat="43.60015" lon="5.28359">
        <ele>198.70255088772</ele>
        <time>2018-11-02T09:13:19Z</time>
      </trkpt>
      <trkpt lat="43.60013" lon="5.28354">
        <ele>198.75434744718</ele>
        <time>2018-11-02T09:13:27Z</time>
      </trkpt>
      <trkpt lat="43.6001" lon="5.28349">
        <ele>198.79166412742</ele>
        <time>2018-11-02T09:13:32Z</time>
      </trkpt>
      <trkpt lat="43.60007" lon="5.28346">
        <ele>198.8245671042</ele>
        <time>2018-11-02T09:13:36Z</time>
      </trkpt>
      <trkpt lat="43.60005" lon="5.28343">
        <ele>198.85739298926</ele>
        <time>2018-11-02T09:13:40Z</time>
      </trkpt>
      <trkpt lat="43.60002" lon="5.2834">
        <ele>198.88064356705</ele>
        <time>2018-11-02T09:13:43Z</time>
      </trkpt>
      <trkpt lat="43.59999" lon="5.28337">
        <ele>198.91044398103</ele>
        <time>2018-11-02T09:13:47Z</time>
      </trkpt>
      <trkpt lat="43.59995" lon="5.28332">
        <ele>198.94153687819</ele>
        <time>2018-11-02T09:13:51Z</time>
      </trkpt>
      <trkpt lat="43.5999" lon="5.28329">
        <ele>198.98095034025</ele>
        <time>2018-11-02T09:13:56Z</time>
      </trkpt>
      <trkpt lat="43.59987" lon="5.28326">
        <ele>199.01476430139</ele>
        <time>2018-11-02T09:14:00Z</time>
      </trkpt>
      <trkpt lat="43.59983" lon="5.28324">
        <ele>199.05996394971</ele>
        <time>2018-11-02T09:14:05Z</time>
      </trkpt>
      <trkpt lat="43.59979" lon="5.28321">
        <ele>199.10736160751</ele>
        <time>2018-11-02T09:14:10Z</time>
      </trkpt>
      <trkpt lat="43.59972" lon="5.2832">
        <ele>199.15480268579</ele>
        <time>2018-11-02T09:14:15Z</time>
      </trkpt>
      <trkpt lat="43.59965" lon="5.2832">
        <ele>199.20434384815</ele>
        <time>2018-11-02T09:14:20Z</time>
      </trkpt>
      <trkpt lat="43.59961" lon="5.28319">
        <ele>199.24736728907</ele>
        <time>2018-11-02T09:14:24Z</time>
      </trkpt>
      <trkpt lat="43.59957" lon="5.28318">
        <ele>199.28045949964</ele>
        <time>2018-11-02T09:14:27Z</time>
      </trkpt>
      <trkpt lat="43.59954" lon="5.28317">
        <ele>199.32424158597</ele>
        <time>2018-11-02T09:14:31Z</time>
      </trkpt>
      <trkpt lat="43.5995" lon="5.28315">
        <ele>199.37040919888</ele>
        <time>2018-11-02T09:14:35Z</time>
      </trkpt>
      <trkpt lat="43.59945" lon="5.28313">
        <ele>199.42968420133</ele>
        <time>2018-11-02T09:14:40Z</time>
      </trkpt>
      <trkpt lat="43.5994" lon="5.2831">
        <ele>199.47766567741</ele>
        <time>2018-11-02T09:14:44Z</time>
      </trkpt>
      <trkpt lat="43.59935" lon="5.28308">
        <ele>199.52566267535</ele>
        <time>2018-11-02T09:14:48Z</time>
      </trkpt>
      <trkpt lat="43.59929" lon="5.28306">
        <ele>199.58776064051</ele>
        <time>2018-11-02T09:14:53Z</time>
      </trkpt>
      <trkpt lat="43.59924" lon="5.28304">
        <ele>199.65217939639</ele>
        <time>2018-11-02T09:14:58Z</time>
      </trkpt>
      <trkpt lat="43.5992" lon="5.28303">
        <ele>199.70483581156</ele>
        <time>2018-11-02T09:15:02Z</time>
      </trkpt>
      <trkpt lat="43.59916" lon="5.28302">
        <ele>199.76070991142</ele>
        <time>2018-11-02T09:15:06Z</time>
      </trkpt>
      <trkpt lat="43.59914" lon="5.283">
        <ele>199.80379042611</ele>
        <time>2018-11-02T09:15:09Z</time>
      </trkpt>
      <trkpt lat="43.5991" lon="5.28297">
        <ele>199.86353217716</ele>
        <time>2018-11-02T09:15:13Z</time>
      </trkpt>
      <trkpt lat="43.59906" lon="5.28295">
        <ele>199.92274199565</ele>
        <time>2018-11-02T09:15:17Z</time>
      </trkpt>
      <trkpt lat="43.59902" lon="5.28293">
        <ele>199.97965061939</ele>
        <time>2018-11-02T09:15:21Z</time>
      </trkpt>
      <trkpt lat="43.59897" lon="5.28292">
        <ele>200.03480046457</ele>
        <time>2018-11-02T09:15:25Z</time>
      </trkpt>
      <trkpt lat="43.59893" lon="5.28291">
        <ele>200.08860307848</ele>
        <time>2018-11-02T09:15:29Z</time>
      </trkpt>
      <trkpt lat="43.59888" lon="5.2829">
        <ele>200.15162244987</ele>
        <time>2018-11-02T09:15:34Z</time>
      </trkpt>
      <trkpt lat="43.59884" lon="5.2829">
        <ele>200.18851301961</ele>
        <time>2018-11-02T09:15:37Z</time>
      </trkpt>
      <trkpt lat="43.59878" lon="5.28288">
        <ele>200.24945338891</ele>
        <time>2018-11-02T09:15:42Z</time>
      </trkpt>
      <trkpt lat="43.59873" lon="5.28287">
        <ele>200.31117191232</ele>
        <time>2018-11-02T09:15:47Z</time>
      </trkpt>
      <trkpt lat="43.5987" lon="5.28286">
        <ele>200.35021945323</ele>
        <time>2018-11-02T09:15:50Z</time>
      </trkpt>
      <trkpt lat="43.59864" lon="5.28285">
        <ele>200.41752108489</ele>
        <time>2018-11-02T09:15:55Z</time>
      </trkpt>
      <trkpt lat="43.5986" lon="5.28284">
        <ele>200.47395549844</ele>
        <time>2018-11-02T09:15:59Z</time>
      </trkpt>
      <trkpt lat="43.59855" lon="5.28283">
        <ele>200.54802222918</ele>
        <time>2018-11-02T09:16:04Z</time>
      </trkpt>
      <trkpt lat="43.59851" lon="5.28282">
        <ele>200.60926530831</ele>
        <time>2018-11-02T09:16:08Z</time>
      </trkpt>
      <trkpt lat="43.59848" lon="5.2828">
        <ele>200.69525912621</ele>
        <time>2018-11-02T09:16:14Z</time>
      </trkpt>
      <trkpt lat="43.59844" lon="5.28278">
        <ele>200.74748201272</ele>
        <time>2018-11-02T09:16:18Z</time>
      </trkpt>
      <trkpt lat="43.59841" lon="5.28276">
        <ele>200.79590768191</ele>
        <time>2018-11-02T09:16:22Z</time>
      </trkpt>
      <trkpt lat="43.59835" lon="5.28274">
        <ele>200.85154470718</ele>
        <time>2018-11-02T09:16:27Z</time>
      </trkpt>
      <trkpt lat="43.5983" lon="5.28271">
        <ele>200.89821557726</ele>
        <time>2018-11-02T09:16:31Z</time>
      </trkpt>
      <trkpt lat="43.59823" lon="5.28267">
        <ele>200.96210769503</ele>
        <time>2018-11-02T09:16:36Z</time>
      </trkpt>
      <trkpt lat="43.59818" lon="5.28265">
        <ele>201.01325401487</ele>
        <time>2018-11-02T09:16:40Z</time>
      </trkpt>
      <trkpt lat="43.59814" lon="5.28263">
        <ele>201.06429161736</ele>
        <time>2018-11-02T09:16:44Z</time>
      </trkpt>
      <trkpt lat="43.5981" lon="5.28261">
        <ele>201.12746644343</ele>
        <time>2018-11-02T09:16:49Z</time>
      </trkpt>
      <trkpt lat="43.59805" lon="5.28259">
        <ele>201.17918831394</ele>
        <time>2018-11-02T09:16:53Z</time>
      </trkpt>
      <trkpt lat="43.59799" lon="5.28255">
        <ele>201.24460742736</ele>
        <time>2018-11-02T09:16:58Z</time>
      </trkpt>
      <trkpt lat="43.59796" lon="5.28254">
        <ele>201.29840523003</ele>
        <time>2018-11-02T09:17:02Z</time>
      </trkpt>
      <trkpt lat="43.59793" lon="5.28251">
        <ele>201.34048216891</ele>
        <time>2018-11-02T09:17:05Z</time>
      </trkpt>
      <trkpt lat="43.59789" lon="5.28248">
        <ele>201.4100005415</ele>
        <time>2018-11-02T09:17:10Z</time>
      </trkpt>
      <trkpt lat="43.59784" lon="5.28245">
        <ele>201.47717844996</ele>
        <time>2018-11-02T09:17:15Z</time>
      </trkpt>
      <trkpt lat="43.5978" lon="5.28243">
        <ele>201.53047130701</ele>
        <time>2018-11-02T09:17:19Z</time>
      </trkpt>
      <trkpt lat="43.59776" lon="5.28241">
        <ele>201.58377291125</ele>
        <time>2018-11-02T09:17:23Z</time>
      </trkpt>
      <trkpt lat="43.5977" lon="5.28236">
        <ele>201.654337934</ele>
        <time>2018-11-02T09:17:28Z</time>
      </trkpt>
      <trkpt lat="43.59768" lon="5.28233">
        <ele>201.69881326491</ele>
        <time>2018-11-02T09:17:31Z</time>
      </trkpt>
      <trkpt lat="43.59764" lon="5.28231">
        <ele>201.74437825931</ele>
        <time>2018-11-02T09:17:34Z</time>
      </trkpt>
      <trkpt lat="43.59759" lon="5.28229">
        <ele>201.82145738331</ele>
        <time>2018-11-02T09:17:39Z</time>
      </trkpt>
      <trkpt lat="43.59754" lon="5.28227">
        <ele>201.88222912029</ele>
        <time>2018-11-02T09:17:43Z</time>
      </trkpt>
      <trkpt lat="43.59748" lon="5.28222">
        <ele>201.96062448286</ele>
        <time>2018-11-02T09:17:48Z</time>
      </trkpt>
      <trkpt lat="43.59743" lon="5.28218">
        <ele>202.02821251336</ele>
        <time>2018-11-02T09:17:52Z</time>
      </trkpt>
      <trkpt lat="43.5974" lon="5.28215">
        <ele>202.09854538265</ele>
        <time>2018-11-02T09:17:56Z</time>
      </trkpt>
      <trkpt lat="43.59736" lon="5.28212">
        <ele>202.17135173409</ele>
        <time>2018-11-02T09:18:00Z</time>
      </trkpt>
      <trkpt lat="43.59732" lon="5.28208">
        <ele>202.26696571365</ele>
        <time>2018-11-02T09:18:05Z</time>
      </trkpt>
      <trkpt lat="43.59728" lon="5.28205">
        <ele>202.34540718756</ele>
        <time>2018-11-02T09:18:09Z</time>
      </trkpt>
      <trkpt lat="43.59725" lon="5.28203">
        <ele>202.40291055683</ele>
        <time>2018-11-02T09:18:12Z</time>
      </trkpt>
      <trkpt lat="43.59722" lon="5.28201">
        <ele>202.49731626085</ele>
        <time>2018-11-02T09:18:17Z</time>
      </trkpt>
      <trkpt lat="43.59716" lon="5.28199">
        <ele>202.59218575263</ele>
        <time>2018-11-02T09:18:22Z</time>
      </trkpt>
      <trkpt lat="43.59713" lon="5.28199">
        <ele>202.64714954791</ele>
        <time>2018-11-02T09:18:25Z</time>
      </trkpt>
      <trkpt lat="43.59707" lon="5.28198">
        <ele>202.73831100867</ele>
        <time>2018-11-02T09:18:30Z</time>
      </trkpt>
      <trkpt lat="43.59702" lon="5.28197">
        <ele>202.81322520756</ele>
        <time>2018-11-02T09:18:34Z</time>
      </trkpt>
      <trkpt lat="43.59698" lon="5.28198">
        <ele>202.88281543854</ele>
        <time>2018-11-02T09:18:38Z</time>
      </trkpt>
      <trkpt lat="43.59695" lon="5.28197">
        <ele>202.93241230763</ele>
        <time>2018-11-02T09:18:41Z</time>
      </trkpt>
      <trkpt lat="43.59691" lon="5.28196">
        <ele>203.01040837886</ele>
        <time>2018-11-02T09:18:46Z</time>
      </trkpt>
      <trkpt lat="43.59687" lon="5.28194">
        <ele>203.06939213478</ele>
        <time>2018-11-02T09:18:50Z</time>
      </trkpt>
      <trkpt lat="43.59685" lon="5.28193">
        <ele>203.11274776976</ele>
        <time>2018-11-02T09:18:53Z</time>
      </trkpt>
      <trkpt lat="43.5968" lon="5.28189">
        <ele>203.18494647127</ele>
        <time>2018-11-02T09:18:58Z</time>
      </trkpt>
      <trkpt lat="43.59675" lon="5.28187">
        <ele>203.24494004774</ele>
        <time>2018-11-02T09:19:02Z</time>
      </trkpt>
      <trkpt lat="43.59671" lon="5.28185">
        <ele>203.30272016287</ele>
        <time>2018-11-02T09:19:06Z</time>
      </trkpt>
      <trkpt lat="43.59667" lon="5.28184">
        <ele>203.35796503927</ele>
        <time>2018-11-02T09:19:10Z</time>
      </trkpt>
      <trkpt lat="43.59663" lon="5.28183">
        <ele>203.42208169755</ele>
        <time>2018-11-02T09:19:15Z</time>
      </trkpt>
      <trkpt lat="43.5966" lon="5.2818">
        <ele>203.47095481497</ele>
        <time>2018-11-02T09:19:19Z</time>
      </trkpt>
      <trkpt lat="43.59656" lon="5.28178">
        <ele>203.51741023248</ele>
        <time>2018-11-02T09:19:23Z</time>
      </trkpt>
      <trkpt lat="43.59653" lon="5.28177">
        <ele>203.55201805107</ele>
        <time>2018-11-02T09:19:26Z</time>
      </trkpt>
      <trkpt lat="43.59648" lon="5.28175">
        <ele>203.61142161545</ele>
        <time>2018-11-02T09:19:31Z</time>
      </trkpt>
      <trkpt lat="43.59642" lon="5.28176">
        <ele>203.66181858466</ele>
        <time>2018-11-02T09:19:35Z</time>
      </trkpt>
      <trkpt lat="43.59638" lon="5.28176">
        <ele>203.72517897723</ele>
        <time>2018-11-02T09:19:40Z</time>
      </trkpt>
      <trkpt lat="43.59634" lon="5.28176">
        <ele>203.776687397</ele>
        <time>2018-11-02T09:19:44Z</time>
      </trkpt>
      <trkpt lat="43.5963" lon="5.28176">
        <ele>203.826174804</ele>
        <time>2018-11-02T09:19:48Z</time>
      </trkpt>
      <trkpt lat="43.59624" lon="5.28175">
        <ele>203.88616571713</ele>
        <time>2018-11-02T09:19:53Z</time>
      </trkpt>
      <trkpt lat="43.5962" lon="5.28175">
        <ele>203.93278676512</ele>
        <time>2018-11-02T09:19:57Z</time>
      </trkpt>
      <trkpt lat="43.59615" lon="5.28176">
        <ele>203.99346450916</ele>
        <time>2018-11-02T09:20:02Z</time>
      </trkpt>
      <trkpt lat="43.5961" lon="5.28176">
        <ele>204.04383141571</ele>
        <time>2018-11-02T09:20:06Z</time>
      </trkpt>
      <trkpt lat="43.59606" lon="5.28176">
        <ele>204.08216517026</ele>
        <time>2018-11-02T09:20:09Z</time>
      </trkpt>
      <trkpt lat="43.59602" lon="5.28176">
        <ele>204.13453594406</ele>
        <time>2018-11-02T09:20:13Z</time>
      </trkpt>
      <trkpt lat="43.59596" lon="5.28177">
        <ele>204.20634243808</ele>
        <time>2018-11-02T09:20:18Z</time>
      </trkpt>
      <trkpt lat="43.59592" lon="5.28177">
        <ele>204.2808583058</ele>
        <time>2018-11-02T09:20:23Z</time>
      </trkpt>
      <trkpt lat="43.59587" lon="5.28177">
        <ele>204.33861149695</ele>
        <time>2018-11-02T09:20:27Z</time>
      </trkpt>
      <trkpt lat="43.59582" lon="5.28177">
        <ele>204.40761811756</ele>
        <time>2018-11-02T09:20:32Z</time>
      </trkpt>
      <trkpt lat="43.59576" lon="5.28177">
        <ele>204.47611345305</ele>
        <time>2018-11-02T09:20:37Z</time>
      </trkpt>
      <trkpt lat="43.59569" lon="5.28177">
        <ele>204.54507508327</ele>
        <time>2018-11-02T09:20:42Z</time>
      </trkpt>
      <trkpt lat="43.59566" lon="5.28177">
        <ele>204.58741869322</ele>
        <time>2018-11-02T09:20:45Z</time>
      </trkpt>
      <trkpt lat="43.59562" lon="5.28178">
        <ele>204.64431858828</ele>
        <time>2018-11-02T09:20:49Z</time>
      </trkpt>
      <trkpt lat="43.59556" lon="5.2818">
        <ele>204.71675587499</ele>
        <time>2018-11-02T09:20:54Z</time>
      </trkpt>
      <trkpt lat="43.5955" lon="5.28181">
        <ele>204.77758211824</ele>
        <time>2018-11-02T09:20:58Z</time>
      </trkpt>
      <trkpt lat="43.59545" lon="5.28184">
        <ele>204.85193707656</ele>
        <time>2018-11-02T09:21:03Z</time>
      </trkpt>
      <trkpt lat="43.59542" lon="5.28184">
        <ele>204.91089365454</ele>
        <time>2018-11-02T09:21:07Z</time>
      </trkpt>
      <trkpt lat="43.59537" lon="5.28185">
        <ele>204.98402244641</ele>
        <time>2018-11-02T09:21:12Z</time>
      </trkpt>
      <trkpt lat="43.59533" lon="5.28185">
        <ele>205.04050588582</ele>
        <time>2018-11-02T09:21:16Z</time>
      </trkpt>
      <trkpt lat="43.59529" lon="5.28186">
        <ele>205.0940924172</ele>
        <time>2018-11-02T09:21:20Z</time>
      </trkpt>
      <trkpt lat="43.59525" lon="5.28187">
        <ele>205.14502490697</ele>
        <time>2018-11-02T09:21:24Z</time>
      </trkpt>
      <trkpt lat="43.5952" lon="5.28188">
        <ele>205.19395509131</ele>
        <time>2018-11-02T09:21:28Z</time>
      </trkpt>
      <trkpt lat="43.59514" lon="5.2819">
        <ele>205.25131462794</ele>
        <time>2018-11-02T09:21:33Z</time>
      </trkpt>
      <trkpt lat="43.59511" lon="5.28192">
        <ele>205.28384528078</ele>
        <time>2018-11-02T09:21:36Z</time>
      </trkpt>
      <trkpt lat="43.59505" lon="5.28194">
        <ele>205.33731330539</ele>
        <time>2018-11-02T09:21:41Z</time>
      </trkpt>
      <trkpt lat="43.59501" lon="5.28196">
        <ele>205.38119191874</ele>
        <time>2018-11-02T09:21:45Z</time>
      </trkpt>
      <trkpt lat="43.59496" lon="5.28198">
        <ele>205.42673710164</ele>
        <time>2018-11-02T09:21:49Z</time>
      </trkpt>
      <trkpt lat="43.59492" lon="5.282">
        <ele>205.49042074574</ele>
        <time>2018-11-02T09:21:54Z</time>
      </trkpt>
      <trkpt lat="43.59487" lon="5.28201">
        <ele>205.54121629697</ele>
        <time>2018-11-02T09:21:58Z</time>
      </trkpt>
      <trkpt lat="43.59482" lon="5.28203">
        <ele>205.60565026909</ele>
        <time>2018-11-02T09:22:03Z</time>
      </trkpt>
      <trkpt lat="43.59477" lon="5.28206">
        <ele>205.67358823831</ele>
        <time>2018-11-02T09:22:08Z</time>
      </trkpt>
      <trkpt lat="43.59472" lon="5.28209">
        <ele>205.74109036629</ele>
        <time>2018-11-02T09:22:13Z</time>
      </trkpt>
      <trkpt lat="43.59467" lon="5.2821">
        <ele>205.79383871829</ele>
        <time>2018-11-02T09:22:17Z</time>
      </trkpt>
      <trkpt lat="43.59463" lon="5.28211">
        <ele>205.83561738111</ele>
        <time>2018-11-02T09:22:20Z</time>
      </trkpt>
      <trkpt lat="43.59458" lon="5.28214">
        <ele>205.8966821984</ele>
        <time>2018-11-02T09:22:24Z</time>
      </trkpt>
      <trkpt lat="43.59454" lon="5.28217">
        <ele>205.94552629196</ele>
        <time>2018-11-02T09:22:27Z</time>
      </trkpt>
      <trkpt lat="43.5945" lon="5.2822">
        <ele>206.01451877918</ele>
        <time>2018-11-02T09:22:31Z</time>
      </trkpt>
      <trkpt lat="43.59447" lon="5.28224">
        <ele>206.08822378607</ele>
        <time>2018-11-02T09:22:35Z</time>
      </trkpt>
      <trkpt lat="43.59444" lon="5.28227">
        <ele>206.16510994994</ele>
        <time>2018-11-02T09:22:39Z</time>
      </trkpt>
      <trkpt lat="43.59441" lon="5.2823">
        <ele>206.2453495419</ele>
        <time>2018-11-02T09:22:43Z</time>
      </trkpt>
      <trkpt lat="43.59437" lon="5.28234">
        <ele>206.35076154692</ele>
        <time>2018-11-02T09:22:48Z</time>
      </trkpt>
      <trkpt lat="43.59433" lon="5.28238">
        <ele>206.44056243508</ele>
        <time>2018-11-02T09:22:52Z</time>
      </trkpt>
      <trkpt lat="43.59429" lon="5.28243">
        <ele>206.53279607507</ele>
        <time>2018-11-02T09:22:56Z</time>
      </trkpt>
      <trkpt lat="43.59425" lon="5.28247">
        <ele>206.64300607968</ele>
        <time>2018-11-02T09:23:01Z</time>
      </trkpt>
      <trkpt lat="43.5942" lon="5.28248">
        <ele>206.75283126</ele>
        <time>2018-11-02T09:23:06Z</time>
      </trkpt>
      <trkpt lat="43.59416" lon="5.2825">
        <ele>206.8427821031</ele>
        <time>2018-11-02T09:23:10Z</time>
      </trkpt>
      <trkpt lat="43.59412" lon="5.28253">
        <ele>206.95637658543</ele>
        <time>2018-11-02T09:23:15Z</time>
      </trkpt>
      <trkpt lat="43.59408" lon="5.28256">
        <ele>207.04710529644</ele>
        <time>2018-11-02T09:23:19Z</time>
      </trkpt>
      <trkpt lat="43.59404" lon="5.28259">
        <ele>207.13769744109</ele>
        <time>2018-11-02T09:23:23Z</time>
      </trkpt>
      <trkpt lat="43.594" lon="5.28262">
        <ele>207.22853590559</ele>
        <time>2018-11-02T09:23:27Z</time>
      </trkpt>
      <trkpt lat="43.59395" lon="5.28267">
        <ele>207.34449581588</ele>
        <time>2018-11-02T09:23:32Z</time>
      </trkpt>
      <trkpt lat="43.59391" lon="5.28271">
        <ele>207.46186170164</ele>
        <time>2018-11-02T09:23:37Z</time>
      </trkpt>
      <trkpt lat="43.59388" lon="5.28272">
        <ele>207.53092714385</ele>
        <time>2018-11-02T09:23:40Z</time>
      </trkpt>
      <trkpt lat="43.59385" lon="5.28275">
        <ele>207.62022624849</ele>
        <time>2018-11-02T09:23:44Z</time>
      </trkpt>
      <trkpt lat="43.59381" lon="5.28277">
        <ele>207.68568916226</ele>
        <time>2018-11-02T09:23:47Z</time>
      </trkpt>
      <trkpt lat="43.59376" lon="5.28282">
        <ele>207.77495418098</ele>
        <time>2018-11-02T09:23:51Z</time>
      </trkpt>
      <trkpt lat="43.59373" lon="5.28286">
        <ele>207.8686228496</ele>
        <time>2018-11-02T09:23:55Z</time>
      </trkpt>
      <trkpt lat="43.59369" lon="5.2829">
        <ele>207.9897191168</ele>
        <time>2018-11-02T09:24:00Z</time>
      </trkpt>
      <trkpt lat="43.59366" lon="5.28294">
        <ele>208.08765070187</ele>
        <time>2018-11-02T09:24:04Z</time>
      </trkpt>
      <trkpt lat="43.59363" lon="5.28297">
        <ele>208.16202163068</ele>
        <time>2018-11-02T09:24:07Z</time>
      </trkpt>
      <trkpt lat="43.5936" lon="5.28301">
        <ele>208.26181408253</ele>
        <time>2018-11-02T09:24:11Z</time>
      </trkpt>
      <trkpt lat="43.59355" lon="5.28306">
        <ele>208.38654033168</ele>
        <time>2018-11-02T09:24:16Z</time>
      </trkpt>
      <trkpt lat="43.59352" lon="5.28308">
        <ele>208.48671830738</ele>
        <time>2018-11-02T09:24:20Z</time>
      </trkpt>
      <trkpt lat="43.59348" lon="5.28311">
        <ele>208.61299501128</ele>
        <time>2018-11-02T09:24:25Z</time>
      </trkpt>
      <trkpt lat="43.59345" lon="5.28314">
        <ele>208.68834909767</ele>
        <time>2018-11-02T09:24:28Z</time>
      </trkpt>
      <trkpt lat="43.59342" lon="5.28317">
        <ele>208.76352318955</ele>
        <time>2018-11-02T09:24:31Z</time>
      </trkpt>
      <trkpt lat="43.59338" lon="5.28321">
        <ele>208.88655642425</ele>
        <time>2018-11-02T09:24:36Z</time>
      </trkpt>
      <trkpt lat="43.59334" lon="5.28324">
        <ele>208.98242160505</ele>
        <time>2018-11-02T09:24:40Z</time>
      </trkpt>
      <trkpt lat="43.59328" lon="5.28328">
        <ele>209.10256085284</ele>
        <time>2018-11-02T09:24:45Z</time>
      </trkpt>
      <trkpt lat="43.59326" lon="5.2833">
        <ele>209.17525290072</ele>
        <time>2018-11-02T09:24:48Z</time>
      </trkpt>
      <trkpt lat="43.59322" lon="5.28333">
        <ele>209.27426035351</ele>
        <time>2018-11-02T09:24:52Z</time>
      </trkpt>
      <trkpt lat="43.59319" lon="5.28335">
        <ele>209.35071448593</ele>
        <time>2018-11-02T09:24:55Z</time>
      </trkpt>
      <trkpt lat="43.59314" lon="5.28337">
        <ele>209.48095510504</ele>
        <time>2018-11-02T09:25:00Z</time>
      </trkpt>
      <trkpt lat="43.5931" lon="5.28338">
        <ele>209.58583544173</ele>
        <time>2018-11-02T09:25:04Z</time>
      </trkpt>
      <trkpt lat="43.59306" lon="5.28338">
        <ele>209.66477618928</ele>
        <time>2018-11-02T09:25:07Z</time>
      </trkpt>
      <trkpt lat="43.59303" lon="5.28338">
        <ele>209.76709744688</ele>
        <time>2018-11-02T09:25:11Z</time>
      </trkpt>
      <trkpt lat="43.59297" lon="5.28338">
        <ele>209.89163198522</ele>
        <time>2018-11-02T09:25:16Z</time>
      </trkpt>
      <trkpt lat="43.59294" lon="5.28339">
        <ele>209.96459116849</ele>
        <time>2018-11-02T09:25:19Z</time>
      </trkpt>
      <trkpt lat="43.59288" lon="5.2834">
        <ele>210.08381796196</ele>
        <time>2018-11-02T09:25:24Z</time>
      </trkpt>
      <trkpt lat="43.59284" lon="5.28342">
        <ele>210.17284369429</ele>
        <time>2018-11-02T09:25:28Z</time>
      </trkpt>
      <trkpt lat="43.59279" lon="5.28345">
        <ele>210.27587408792</ele>
        <time>2018-11-02T09:25:33Z</time>
      </trkpt>
      <trkpt lat="43.59274" lon="5.28346">
        <ele>210.3553037015</ele>
        <time>2018-11-02T09:25:37Z</time>
      </trkpt>
      <trkpt lat="43.59269" lon="5.28347">
        <ele>210.43502510342</ele>
        <time>2018-11-02T09:25:41Z</time>
      </trkpt>
      <trkpt lat="43.59263" lon="5.28348">
        <ele>210.53337983563</ele>
        <time>2018-11-02T09:25:46Z</time>
      </trkpt>
      <trkpt lat="43.59257" lon="5.28351">
        <ele>210.63264902969</ele>
        <time>2018-11-02T09:25:51Z</time>
      </trkpt>
      <trkpt lat="43.59252" lon="5.28354">
        <ele>210.7348430188</ele>
        <time>2018-11-02T09:25:56Z</time>
      </trkpt>
      <trkpt lat="43.59248" lon="5.28356">
        <ele>210.82068575591</ele>
        <time>2018-11-02T09:26:00Z</time>
      </trkpt>
      <trkpt lat="43.59245" lon="5.28357">
        <ele>210.88851787593</ele>
        <time>2018-11-02T09:26:03Z</time>
      </trkpt>
      <trkpt lat="43.59239" lon="5.28359">
        <ele>211.00837878594</ele>
        <time>2018-11-02T09:26:08Z</time>
      </trkpt>
      <trkpt lat="43.59234" lon="5.28361">
        <ele>211.10908986043</ele>
        <time>2018-11-02T09:26:12Z</time>
      </trkpt>
      <trkpt lat="43.5923" lon="5.28362">
        <ele>211.21389415058</ele>
        <time>2018-11-02T09:26:16Z</time>
      </trkpt>
      <trkpt lat="43.59224" lon="5.28362">
        <ele>211.35092096882</ele>
        <time>2018-11-02T09:26:21Z</time>
      </trkpt>
      <trkpt lat="43.59221" lon="5.28362">
        <ele>211.43432588454</ele>
        <time>2018-11-02T09:26:24Z</time>
      </trkpt>
      <trkpt lat="43.59217" lon="5.28362">
        <ele>211.56811959877</ele>
        <time>2018-11-02T09:26:29Z</time>
      </trkpt>
      <trkpt lat="43.59212" lon="5.28361">
        <ele>211.66905400473</ele>
        <time>2018-11-02T09:26:33Z</time>
      </trkpt>
      <trkpt lat="43.59209" lon="5.28361">
        <ele>211.74218818961</ele>
        <time>2018-11-02T09:26:36Z</time>
      </trkpt>
      <trkpt lat="43.59203" lon="5.2836">
        <ele>211.8585992816</ele>
        <time>2018-11-02T09:26:41Z</time>
      </trkpt>
      <trkpt lat="43.592" lon="5.2836">
        <ele>211.92609301818</ele>
        <time>2018-11-02T09:26:44Z</time>
      </trkpt>
      <trkpt lat="43.59194" lon="5.28359">
        <ele>212.03324710169</ele>
        <time>2018-11-02T09:26:49Z</time>
      </trkpt>
      <trkpt lat="43.5919" lon="5.28358">
        <ele>212.11350425369</ele>
        <time>2018-11-02T09:26:53Z</time>
      </trkpt>
      <trkpt lat="43.59185" lon="5.28358">
        <ele>212.20884467535</ele>
        <time>2018-11-02T09:26:58Z</time>
      </trkpt>
      <trkpt lat="43.59181" lon="5.28358">
        <ele>212.26441905226</ele>
        <time>2018-11-02T09:27:01Z</time>
      </trkpt>
      <trkpt lat="43.59176" lon="5.28358">
        <ele>212.33573915682</ele>
        <time>2018-11-02T09:27:05Z</time>
      </trkpt>
      <trkpt lat="43.5917" lon="5.28358">
        <ele>212.41853057313</ele>
        <time>2018-11-02T09:27:10Z</time>
      </trkpt>
      <trkpt lat="43.59165" lon="5.28357">
        <ele>212.48232773594</ele>
        <time>2018-11-02T09:27:14Z</time>
      </trkpt>
      <trkpt lat="43.59161" lon="5.28358">
        <ele>212.53012409009</ele>
        <time>2018-11-02T09:27:17Z</time>
      </trkpt>
      <trkpt lat="43.59156" lon="5.28358">
        <ele>212.59000485609</ele>
        <time>2018-11-02T09:27:21Z</time>
      </trkpt>
      <trkpt lat="43.59153" lon="5.28358">
        <ele>212.63299859371</ele>
        <time>2018-11-02T09:27:24Z</time>
      </trkpt>
      <trkpt lat="43.59147" lon="5.28353">
        <ele>212.70453920056</ele>
        <time>2018-11-02T09:27:29Z</time>
      </trkpt>
      <trkpt lat="43.59142" lon="5.28353">
        <ele>212.75987985613</ele>
        <time>2018-11-02T09:27:33Z</time>
      </trkpt>
      <trkpt lat="43.59138" lon="5.28353">
        <ele>212.80059103726</ele>
        <time>2018-11-02T09:27:36Z</time>
      </trkpt>
      <trkpt lat="43.59133" lon="5.28353">
        <ele>212.854141958</ele>
        <time>2018-11-02T09:27:40Z</time>
      </trkpt>
      <trkpt lat="43.59129" lon="5.28352">
        <ele>212.90647642801</ele>
        <time>2018-11-02T09:27:44Z</time>
      </trkpt>
      <trkpt lat="43.59126" lon="5.28349">
        <ele>212.95553949909</ele>
        <time>2018-11-02T09:27:48Z</time>
      </trkpt>
      <trkpt lat="43.59123" lon="5.28346">
        <ele>213.0016228546</ele>
        <time>2018-11-02T09:27:52Z</time>
      </trkpt>
      <trkpt lat="43.59118" lon="5.28342">
        <ele>213.05913897932</ele>
        <time>2018-11-02T09:27:57Z</time>
      </trkpt>
      <trkpt lat="43.59114" lon="5.2834">
        <ele>213.1555269699</ele>
        <time>2018-11-02T09:28:05Z</time>
      </trkpt>
      <trkpt lat="43.5911" lon="5.2834">
        <ele>213.32493601708</ele>
        <time>2018-11-02T09:28:56Z</time>
      </trkpt>
      <trkpt lat="43.59106" lon="5.28341">
        <ele>214.0818934077</ele>
        <time>2018-11-02T09:30:35Z</time>
      </trkpt>
      <trkpt lat="43.59105" lon="5.28336">
        <ele>214.42357824107</ele>
        <time>2018-11-02T09:31:03Z</time>
      </trkpt>
      <trkpt lat="43.59102" lon="5.28331">
        <ele>214.51828567157</ele>
        <time>2018-11-02T09:31:08Z</time>
      </trkpt>
      <trkpt lat="43.59098" lon="5.28329">
        <ele>214.60255816762</ele>
        <time>2018-11-02T09:31:13Z</time>
      </trkpt>
      <trkpt lat="43.59095" lon="5.28331">
        <ele>214.64829535803</ele>
        <time>2018-11-02T09:31:16Z</time>
      </trkpt>
      <trkpt lat="43.59087" lon="5.28336">
        <ele>214.72039384941</ele>
        <time>2018-11-02T09:31:21Z</time>
      </trkpt>
      <trkpt lat="43.59083" lon="5.28338">
        <ele>214.77666524729</ele>
        <time>2018-11-02T09:31:25Z</time>
      </trkpt>
      <trkpt lat="43.59079" lon="5.28339">
        <ele>214.83268495784</ele>
        <time>2018-11-02T09:31:29Z</time>
      </trkpt>
      <trkpt lat="43.59075" lon="5.28339">
        <ele>214.90227339679</ele>
        <time>2018-11-02T09:31:34Z</time>
      </trkpt>
      <trkpt lat="43.5907" lon="5.28338">
        <ele>214.96745910058</ele>
        <time>2018-11-02T09:31:39Z</time>
      </trkpt>
      <trkpt lat="43.59066" lon="5.28339">
        <ele>215.01869987145</ele>
        <time>2018-11-02T09:31:43Z</time>
      </trkpt>
      <trkpt lat="43.59062" lon="5.2834">
        <ele>215.07251606435</ele>
        <time>2018-11-02T09:31:47Z</time>
      </trkpt>
      <trkpt lat="43.59058" lon="5.28342">
        <ele>215.11551809511</ele>
        <time>2018-11-02T09:31:50Z</time>
      </trkpt>
      <trkpt lat="43.59055" lon="5.28339">
        <ele>215.18842599026</ele>
        <time>2018-11-02T09:32:03Z</time>
      </trkpt>
      <trkpt lat="43.59052" lon="5.28342">
        <ele>215.27759679674</ele>
        <time>2018-11-02T09:32:18Z</time>
      </trkpt>
      <trkpt lat="43.59048" lon="5.28344">
        <ele>215.31150376926</ele>
        <time>2018-11-02T09:32:21Z</time>
      </trkpt>
      <trkpt lat="43.59043" lon="5.28344">
        <ele>215.35664691842</ele>
        <time>2018-11-02T09:32:25Z</time>
      </trkpt>
      <trkpt lat="43.59039" lon="5.28344">
        <ele>215.43092919152</ele>
        <time>2018-11-02T09:32:32Z</time>
      </trkpt>
      <trkpt lat="43.59035" lon="5.28344">
        <ele>215.47721618303</ele>
        <time>2018-11-02T09:32:37Z</time>
      </trkpt>
      <trkpt lat="43.59031" lon="5.28344">
        <ele>215.54536944766</ele>
        <time>2018-11-02T09:32:46Z</time>
      </trkpt>
      <trkpt lat="43.59026" lon="5.28344">
        <ele>215.58152450625</ele>
        <time>2018-11-02T09:32:52Z</time>
      </trkpt>
      <trkpt lat="43.59022" lon="5.28343">
        <ele>215.60304636124</ele>
        <time>2018-11-02T09:32:56Z</time>
      </trkpt>
      <trkpt lat="43.59018" lon="5.28342">
        <ele>215.62663173124</ele>
        <time>2018-11-02T09:33:01Z</time>
      </trkpt>
      <trkpt lat="43.59014" lon="5.28341">
        <ele>215.64789388437</ele>
        <time>2018-11-02T09:33:06Z</time>
      </trkpt>
      <trkpt lat="43.59011" lon="5.28341">
        <ele>215.66315599632</ele>
        <time>2018-11-02T09:33:10Z</time>
      </trkpt>
      <trkpt lat="43.59006" lon="5.2834">
        <ele>215.6810729478</ele>
        <time>2018-11-02T09:33:15Z</time>
      </trkpt>
      <trkpt lat="43.59" lon="5.2834">
        <ele>215.69928366211</ele>
        <time>2018-11-02T09:33:20Z</time>
      </trkpt>
      <trkpt lat="43.58996" lon="5.28338">
        <ele>215.72271832004</ele>
        <time>2018-11-02T09:33:25Z</time>
      </trkpt>
      <trkpt lat="43.58993" lon="5.28335">
        <ele>215.7927405762</ele>
        <time>2018-11-02T09:33:36Z</time>
      </trkpt>
      <trkpt lat="43.58989" lon="5.28336">
        <ele>215.82089914917</ele>
        <time>2018-11-02T09:33:40Z</time>
      </trkpt>
      <trkpt lat="43.58985" lon="5.28339">
        <ele>215.85658622118</ele>
        <time>2018-11-02T09:33:45Z</time>
      </trkpt>
      <trkpt lat="43.58981" lon="5.28339">
        <ele>215.89755499344</ele>
        <time>2018-11-02T09:33:51Z</time>
      </trkpt>
      <trkpt lat="43.58977" lon="5.28338">
        <ele>215.92523010787</ele>
        <time>2018-11-02T09:33:55Z</time>
      </trkpt>
      <trkpt lat="43.58973" lon="5.28339">
        <ele>215.9739946216</ele>
        <time>2018-11-02T09:34:01Z</time>
      </trkpt>
      <trkpt lat="43.58969" lon="5.2834">
        <ele>216.01481419339</ele>
        <time>2018-11-02T09:34:06Z</time>
      </trkpt>
      <trkpt lat="43.58967" lon="5.2834">
        <ele>216.04622393734</ele>
        <time>2018-11-02T09:34:10Z</time>
      </trkpt>
      <trkpt lat="43.58963" lon="5.28339">
        <ele>216.07718311908</ele>
        <time>2018-11-02T09:34:14Z</time>
      </trkpt>
      <trkpt lat="43.58959" lon="5.28338">
        <ele>216.10718419454</ele>
        <time>2018-11-02T09:34:18Z</time>
      </trkpt>
      <trkpt lat="43.58955" lon="5.28337">
        <ele>216.13629767181</ele>
        <time>2018-11-02T09:34:22Z</time>
      </trkpt>
      <trkpt lat="43.5895" lon="5.28336">
        <ele>216.17119380227</ele>
        <time>2018-11-02T09:34:28Z</time>
      </trkpt>
      <trkpt lat="43.58947" lon="5.28336">
        <ele>216.19518954752</ele>
        <time>2018-11-02T09:34:32Z</time>
      </trkpt>
      <trkpt lat="43.58942" lon="5.28335">
        <ele>216.2171371531</ele>
        <time>2018-11-02T09:34:36Z</time>
      </trkpt>
      <trkpt lat="43.58938" lon="5.28334">
        <ele>216.25189581753</ele>
        <time>2018-11-02T09:34:43Z</time>
      </trkpt>
      <trkpt lat="43.58935" lon="5.28333">
        <ele>216.26541749449</ele>
        <time>2018-11-02T09:34:46Z</time>
      </trkpt>
      <trkpt lat="43.58928" lon="5.28334">
        <ele>216.28792213313</ele>
        <time>2018-11-02T09:34:51Z</time>
      </trkpt>
      <trkpt lat="43.58924" lon="5.28334">
        <ele>216.30486716602</ele>
        <time>2018-11-02T09:34:55Z</time>
      </trkpt>
      <trkpt lat="43.58919" lon="5.28333">
        <ele>216.32191203358</ele>
        <time>2018-11-02T09:34:59Z</time>
      </trkpt>
      <trkpt lat="43.58917" lon="5.28333">
        <ele>216.33517277267</ele>
        <time>2018-11-02T09:35:02Z</time>
      </trkpt>
      <trkpt lat="43.58911" lon="5.28333">
        <ele>216.35887454226</ele>
        <time>2018-11-02T09:35:07Z</time>
      </trkpt>
      <trkpt lat="43.58908" lon="5.28333">
        <ele>216.37302227207</ele>
        <time>2018-11-02T09:35:10Z</time>
      </trkpt>
      <trkpt lat="43.58904" lon="5.28332">
        <ele>216.37679696315</ele>
        <time>2018-11-02T09:35:16Z</time>
      </trkpt>
      <trkpt lat="43.58901" lon="5.28332">
        <ele>216.39997135209</ele>
        <time>2018-11-02T09:35:26Z</time>
      </trkpt>
      <trkpt lat="43.58897" lon="5.28333">
        <ele>216.42546893135</ele>
        <time>2018-11-02T09:35:30Z</time>
      </trkpt>
      <trkpt lat="43.58892" lon="5.28335">
        <ele>216.45943033065</ele>
        <time>2018-11-02T09:35:35Z</time>
      </trkpt>
      <trkpt lat="43.58888" lon="5.28337">
        <ele>216.49374759105</ele>
        <time>2018-11-02T09:35:40Z</time>
      </trkpt>
      <trkpt lat="43.58885" lon="5.28337">
        <ele>216.52076456103</ele>
        <time>2018-11-02T09:35:44Z</time>
      </trkpt>
      <trkpt lat="43.58882" lon="5.28337">
        <ele>216.5465539501</ele>
        <time>2018-11-02T09:35:48Z</time>
      </trkpt>
      <trkpt lat="43.58877" lon="5.28335">
        <ele>216.57965617287</ele>
        <time>2018-11-02T09:35:53Z</time>
      </trkpt>
      <trkpt lat="43.58872" lon="5.28336">
        <ele>216.60616278962</ele>
        <time>2018-11-02T09:35:57Z</time>
      </trkpt>
      <trkpt lat="43.58868" lon="5.28336">
        <ele>216.62923658305</ele>
        <time>2018-11-02T09:36:01Z</time>
      </trkpt>
      <trkpt lat="43.58864" lon="5.28338">
        <ele>216.65373005315</ele>
        <time>2018-11-02T09:36:06Z</time>
      </trkpt>
      <trkpt lat="43.58859" lon="5.28338">
        <ele>216.6735115641</ele>
        <time>2018-11-02T09:36:10Z</time>
      </trkpt>
      <trkpt lat="43.58852" lon="5.28338">
        <ele>216.70087095723</ele>
        <time>2018-11-02T09:36:15Z</time>
      </trkpt>
      <trkpt lat="43.58847" lon="5.28338">
        <ele>216.71864420852</ele>
        <time>2018-11-02T09:36:19Z</time>
      </trkpt>
      <trkpt lat="43.58843" lon="5.28339">
        <ele>216.73953562048</ele>
        <time>2018-11-02T09:36:24Z</time>
      </trkpt>
      <trkpt lat="43.5884" lon="5.28341">
        <ele>216.76020292452</ele>
        <time>2018-11-02T09:36:29Z</time>
      </trkpt>
      <trkpt lat="43.58835" lon="5.28343">
        <ele>216.77696948549</ele>
        <time>2018-11-02T09:36:33Z</time>
      </trkpt>
      <trkpt lat="43.5883" lon="5.28343">
        <ele>216.79511628436</ele>
        <time>2018-11-02T09:36:38Z</time>
      </trkpt>
      <trkpt lat="43.58827" lon="5.28344">
        <ele>216.808667629</ele>
        <time>2018-11-02T09:36:42Z</time>
      </trkpt>
      <trkpt lat="43.58822" lon="5.28344">
        <ele>216.8235312085</ele>
        <time>2018-11-02T09:36:46Z</time>
      </trkpt>
      <trkpt lat="43.58817" lon="5.28345">
        <ele>216.84301777454</ele>
        <time>2018-11-02T09:36:51Z</time>
      </trkpt>
      <trkpt lat="43.58813" lon="5.28344">
        <ele>216.88080714948</ele>
        <time>2018-11-02T09:36:58Z</time>
      </trkpt>
      <trkpt lat="43.5881" lon="5.28342">
        <ele>216.94068819009</ele>
        <time>2018-11-02T09:37:04Z</time>
      </trkpt>
      <trkpt lat="43.58806" lon="5.28342">
        <ele>217.00799907388</ele>
        <time>2018-11-02T09:37:08Z</time>
      </trkpt>
      <trkpt lat="43.58801" lon="5.28341">
        <ele>217.10219630419</ele>
        <time>2018-11-02T09:37:13Z</time>
      </trkpt>
      <trkpt lat="43.58798" lon="5.2834">
        <ele>217.20955695772</ele>
        <time>2018-11-02T09:37:19Z</time>
      </trkpt>
      <trkpt lat="43.58795" lon="5.2834">
        <ele>217.28096913126</ele>
        <time>2018-11-02T09:37:23Z</time>
      </trkpt>
      <trkpt lat="43.58791" lon="5.28341">
        <ele>217.35568520444</ele>
        <time>2018-11-02T09:37:27Z</time>
      </trkpt>
      <trkpt lat="43.58786" lon="5.28342">
        <ele>217.46083085008</ele>
        <time>2018-11-02T09:37:32Z</time>
      </trkpt>
      <trkpt lat="43.58784" lon="5.28344">
        <ele>217.54591242349</ele>
        <time>2018-11-02T09:37:36Z</time>
      </trkpt>
      <trkpt lat="43.58779" lon="5.28347">
        <ele>217.64706917988</ele>
        <time>2018-11-02T09:37:41Z</time>
      </trkpt>
      <trkpt lat="43.58776" lon="5.28348">
        <ele>217.72700305166</ele>
        <time>2018-11-02T09:37:45Z</time>
      </trkpt>
      <trkpt lat="43.58772" lon="5.2835">
        <ele>217.84332609454</ele>
        <time>2018-11-02T09:37:51Z</time>
      </trkpt>
      <trkpt lat="43.58768" lon="5.28351">
        <ele>217.93871027998</ele>
        <time>2018-11-02T09:37:56Z</time>
      </trkpt>
      <trkpt lat="43.58764" lon="5.28354">
        <ele>218.01903389124</ele>
        <time>2018-11-02T09:38:00Z</time>
      </trkpt>
      <trkpt lat="43.58761" lon="5.28356">
        <ele>218.07879424725</ele>
        <time>2018-11-02T09:38:03Z</time>
      </trkpt>
      <trkpt lat="43.58758" lon="5.28357">
        <ele>218.17522068408</ele>
        <time>2018-11-02T09:38:08Z</time>
      </trkpt>
      <trkpt lat="43.58753" lon="5.28358">
        <ele>218.27113632285</ele>
        <time>2018-11-02T09:38:13Z</time>
      </trkpt>
      <trkpt lat="43.58751" lon="5.2836">
        <ele>218.327695915</ele>
        <time>2018-11-02T09:38:16Z</time>
      </trkpt>
      <trkpt lat="43.58746" lon="5.28363">
        <ele>218.4194651465</ele>
        <time>2018-11-02T09:38:21Z</time>
      </trkpt>
      <trkpt lat="43.58741" lon="5.28363">
        <ele>218.49897152138</ele>
        <time>2018-11-02T09:38:25Z</time>
      </trkpt>
      <trkpt lat="43.58738" lon="5.28363">
        <ele>218.58600832868</ele>
        <time>2018-11-02T09:38:29Z</time>
      </trkpt>
      <trkpt lat="43.58733" lon="5.28362">
        <ele>218.69934735134</ele>
        <time>2018-11-02T09:38:33Z</time>
      </trkpt>
      <trkpt lat="43.58729" lon="5.28363">
        <ele>218.88593345925</ele>
        <time>2018-11-02T09:38:39Z</time>
      </trkpt>
      <trkpt lat="43.58726" lon="5.28364">
        <ele>219.01909299119</ele>
        <time>2018-11-02T09:38:43Z</time>
      </trkpt>
      <trkpt lat="43.58721" lon="5.28364">
        <ele>219.1831716127</ele>
        <time>2018-11-02T09:38:48Z</time>
      </trkpt>
      <trkpt lat="43.58716" lon="5.28365">
        <ele>219.30915632986</ele>
        <time>2018-11-02T09:38:52Z</time>
      </trkpt>
      <trkpt lat="43.58712" lon="5.28363">
        <ele>219.43066762577</ele>
        <time>2018-11-02T09:38:56Z</time>
      </trkpt>
      <trkpt lat="43.58709" lon="5.2836">
        <ele>219.63145435422</ele>
        <time>2018-11-02T09:39:03Z</time>
      </trkpt>
      <trkpt lat="43.58703" lon="5.2836">
        <ele>219.76666978734</ele>
        <time>2018-11-02T09:39:08Z</time>
      </trkpt>
      <trkpt lat="43.58697" lon="5.2836">
        <ele>219.88113639931</ele>
        <time>2018-11-02T09:39:12Z</time>
      </trkpt>
      <trkpt lat="43.58693" lon="5.28362">
        <ele>219.99188710343</ele>
        <time>2018-11-02T09:39:16Z</time>
      </trkpt>
      <trkpt lat="43.58689" lon="5.28364">
        <ele>220.14950984464</ele>
        <time>2018-11-02T09:39:22Z</time>
      </trkpt>
      <trkpt lat="43.58682" lon="5.28364">
        <ele>220.2481960563</ele>
        <time>2018-11-02T09:39:26Z</time>
      </trkpt>
      <trkpt lat="43.58676" lon="5.28363">
        <ele>220.34029749588</ele>
        <time>2018-11-02T09:39:30Z</time>
      </trkpt>
      <trkpt lat="43.5867" lon="5.28362">
        <ele>220.42541868367</ele>
        <time>2018-11-02T09:39:34Z</time>
      </trkpt>
      <trkpt lat="43.58666" lon="5.2836">
        <ele>220.53870898314</ele>
        <time>2018-11-02T09:39:40Z</time>
      </trkpt>
      <trkpt lat="43.58662" lon="5.28357">
        <ele>220.62227559347</ele>
        <time>2018-11-02T09:39:45Z</time>
      </trkpt>
      <trkpt lat="43.58656" lon="5.28355">
        <ele>220.70293210196</ele>
        <time>2018-11-02T09:39:50Z</time>
      </trkpt>
      <trkpt lat="43.58653" lon="5.28356">
        <ele>220.75635652671</ele>
        <time>2018-11-02T09:39:53Z</time>
      </trkpt>
      <trkpt lat="43.58647" lon="5.28354">
        <ele>220.8562131638</ele>
        <time>2018-11-02T09:39:58Z</time>
      </trkpt>
      <trkpt lat="43.58642" lon="5.28351">
        <ele>220.94029081294</ele>
        <time>2018-11-02T09:40:02Z</time>
      </trkpt>
      <trkpt lat="43.58639" lon="5.28351">
        <ele>221.02699036064</ele>
        <time>2018-11-02T09:40:06Z</time>
      </trkpt>
      <trkpt lat="43.58634" lon="5.28351">
        <ele>221.11743620603</ele>
        <time>2018-11-02T09:40:10Z</time>
      </trkpt>
      <trkpt lat="43.5863" lon="5.28352">
        <ele>221.2288814554</ele>
        <time>2018-11-02T09:40:15Z</time>
      </trkpt>
      <trkpt lat="43.58627" lon="5.28354">
        <ele>221.33921058552</ele>
        <time>2018-11-02T09:40:20Z</time>
      </trkpt>
      <trkpt lat="43.58623" lon="5.28355">
        <ele>221.42916851381</ele>
        <time>2018-11-02T09:40:24Z</time>
      </trkpt>
      <trkpt lat="43.58619" lon="5.28358">
        <ele>221.54258304043</ele>
        <time>2018-11-02T09:40:29Z</time>
      </trkpt>
      <trkpt lat="43.58616" lon="5.28359">
        <ele>221.60784267675</ele>
        <time>2018-11-02T09:40:32Z</time>
      </trkpt>
      <trkpt lat="43.58612" lon="5.28362">
        <ele>221.7161632119</ele>
        <time>2018-11-02T09:40:37Z</time>
      </trkpt>
      <trkpt lat="43.58608" lon="5.28364">
        <ele>221.78972710921</ele>
        <time>2018-11-02T09:40:42Z</time>
      </trkpt>
      <trkpt lat="43.58605" lon="5.28368">
        <ele>221.86383228753</ele>
        <time>2018-11-02T09:40:46Z</time>
      </trkpt>
      <trkpt lat="43.58599" lon="5.28372">
        <ele>221.97035120011</ele>
        <time>2018-11-02T09:40:51Z</time>
      </trkpt>
      <trkpt lat="43.58595" lon="5.28373">
        <ele>222.03279266125</ele>
        <time>2018-11-02T09:40:55Z</time>
      </trkpt>
      <trkpt lat="43.58587" lon="5.28372">
        <ele>222.09286488998</ele>
        <time>2018-11-02T09:41:00Z</time>
      </trkpt>
      <trkpt lat="43.58582" lon="5.28373">
        <ele>222.13216100554</ele>
        <time>2018-11-02T09:41:04Z</time>
      </trkpt>
      <trkpt lat="43.58575" lon="5.28373">
        <ele>222.20078793583</ele>
        <time>2018-11-02T09:41:09Z</time>
      </trkpt>
      <trkpt lat="43.58572" lon="5.28373">
        <ele>222.25772406466</ele>
        <time>2018-11-02T09:41:12Z</time>
      </trkpt>
      <trkpt lat="43.58567" lon="5.28375">
        <ele>222.34715444628</ele>
        <time>2018-11-02T09:41:16Z</time>
      </trkpt>
      <trkpt lat="43.58562" lon="5.28376">
        <ele>222.48073004777</ele>
        <time>2018-11-02T09:41:21Z</time>
      </trkpt>
      <trkpt lat="43.58557" lon="5.28374">
        <ele>222.66167940267</ele>
        <time>2018-11-02T09:41:27Z</time>
      </trkpt>
      <trkpt lat="43.58555" lon="5.28373">
        <ele>222.79633653234</ele>
        <time>2018-11-02T09:41:31Z</time>
      </trkpt>
      <trkpt lat="43.58549" lon="5.28374">
        <ele>222.96932280399</ele>
        <time>2018-11-02T09:41:36Z</time>
      </trkpt>
      <trkpt lat="43.58545" lon="5.28374">
        <ele>223.15943986556</ele>
        <time>2018-11-02T09:41:41Z</time>
      </trkpt>
      <trkpt lat="43.58542" lon="5.28374">
        <ele>223.28225325334</ele>
        <time>2018-11-02T09:41:44Z</time>
      </trkpt>
      <trkpt lat="43.58538" lon="5.28376">
        <ele>223.45708999577</ele>
        <time>2018-11-02T09:41:48Z</time>
      </trkpt>
      <trkpt lat="43.58532" lon="5.28374">
        <ele>223.65311340907</ele>
        <time>2018-11-02T09:41:52Z</time>
      </trkpt>
      <trkpt lat="43.58527" lon="5.28373">
        <ele>223.86793196757</ele>
        <time>2018-11-02T09:41:56Z</time>
      </trkpt>
      <trkpt lat="43.5852" lon="5.28374">
        <ele>224.07984905186</ele>
        <time>2018-11-02T09:42:00Z</time>
      </trkpt>
      <trkpt lat="43.58515" lon="5.28376">
        <ele>224.23521331074</ele>
        <time>2018-11-02T09:42:03Z</time>
      </trkpt>
      <trkpt lat="43.5851" lon="5.28378">
        <ele>224.43634318715</ele>
        <time>2018-11-02T09:42:07Z</time>
      </trkpt>
      <trkpt lat="43.58506" lon="5.28378">
        <ele>224.69221616618</ele>
        <time>2018-11-02T09:42:12Z</time>
      </trkpt>
      <trkpt lat="43.58503" lon="5.28378">
        <ele>224.89511164621</ele>
        <time>2018-11-02T09:42:16Z</time>
      </trkpt>
      <trkpt lat="43.585" lon="5.28378">
        <ele>225.09761938</ele>
        <time>2018-11-02T09:42:20Z</time>
      </trkpt>
      <trkpt lat="43.58496" lon="5.28377">
        <ele>225.33966327163</ele>
        <time>2018-11-02T09:42:25Z</time>
      </trkpt>
      <trkpt lat="43.58493" lon="5.28377">
        <ele>225.52494829726</ele>
        <time>2018-11-02T09:42:29Z</time>
      </trkpt>
      <trkpt lat="43.58488" lon="5.28378">
        <ele>225.75960895087</ele>
        <time>2018-11-02T09:42:34Z</time>
      </trkpt>
      <trkpt lat="43.58484" lon="5.28377">
        <ele>225.95142205142</ele>
        <time>2018-11-02T09:42:38Z</time>
      </trkpt>
      <trkpt lat="43.5848" lon="5.28376">
        <ele>226.13315580423</ele>
        <time>2018-11-02T09:42:42Z</time>
      </trkpt>
      <trkpt lat="43.58476" lon="5.28375">
        <ele>226.34950885885</ele>
        <time>2018-11-02T09:42:47Z</time>
      </trkpt>
      <trkpt lat="43.58472" lon="5.28374">
        <ele>226.48034933052</ele>
        <time>2018-11-02T09:42:50Z</time>
      </trkpt>
      <trkpt lat="43.58467" lon="5.28373">
        <ele>226.67128174826</ele>
        <time>2018-11-02T09:42:54Z</time>
      </trkpt>
      <trkpt lat="43.58459" lon="5.28371">
        <ele>226.9244401506</ele>
        <time>2018-11-02T09:42:59Z</time>
      </trkpt>
      <trkpt lat="43.58454" lon="5.2837">
        <ele>227.15130235848</ele>
        <time>2018-11-02T09:43:03Z</time>
      </trkpt>
      <trkpt lat="43.58448" lon="5.2837">
        <ele>227.46243431537</ele>
        <time>2018-11-02T09:43:08Z</time>
      </trkpt>
      <trkpt lat="43.58443" lon="5.28368">
        <ele>227.80791818206</ele>
        <time>2018-11-02T09:43:13Z</time>
      </trkpt>
      <trkpt lat="43.58439" lon="5.28368">
        <ele>228.40404583055</ele>
        <time>2018-11-02T09:43:21Z</time>
      </trkpt>
      <trkpt lat="43.58436" lon="5.28367">
        <ele>228.79887885389</ele>
        <time>2018-11-02T09:43:26Z</time>
      </trkpt>
      <trkpt lat="43.58431" lon="5.28365">
        <ele>229.2213505922</ele>
        <time>2018-11-02T09:43:31Z</time>
      </trkpt>
      <trkpt lat="43.58427" lon="5.28364">
        <ele>229.55013925614</ele>
        <time>2018-11-02T09:43:35Z</time>
      </trkpt>
      <trkpt lat="43.58423" lon="5.28363">
        <ele>229.86441375466</ele>
        <time>2018-11-02T09:43:39Z</time>
      </trkpt>
      <trkpt lat="43.58418" lon="5.28361">
        <ele>230.17436353862</ele>
        <time>2018-11-02T09:43:43Z</time>
      </trkpt>
      <trkpt lat="43.58416" lon="5.28359">
        <ele>230.4795857755</ele>
        <time>2018-11-02T09:43:47Z</time>
      </trkpt>
      <trkpt lat="43.58411" lon="5.28355">
        <ele>230.77076823065</ele>
        <time>2018-11-02T09:43:51Z</time>
      </trkpt>
      <trkpt lat="43.58409" lon="5.2835">
        <ele>231.0505324375</ele>
        <time>2018-11-02T09:43:55Z</time>
      </trkpt>
      <trkpt lat="43.58406" lon="5.28346">
        <ele>231.33289973408</ele>
        <time>2018-11-02T09:43:59Z</time>
      </trkpt>
      <trkpt lat="43.58404" lon="5.28342">
        <ele>231.62689348936</ele>
        <time>2018-11-02T09:44:03Z</time>
      </trkpt>
      <trkpt lat="43.58402" lon="5.28336">
        <ele>232.00238414958</ele>
        <time>2018-11-02T09:44:08Z</time>
      </trkpt>
      <trkpt lat="43.58399" lon="5.28331">
        <ele>232.30930052342</ele>
        <time>2018-11-02T09:44:12Z</time>
      </trkpt>
      <trkpt lat="43.58396" lon="5.28327">
        <ele>232.69520639487</ele>
        <time>2018-11-02T09:44:17Z</time>
      </trkpt>
      <trkpt lat="43.58392" lon="5.2832">
        <ele>233.07338759108</ele>
        <time>2018-11-02T09:44:22Z</time>
      </trkpt>
      <trkpt lat="43.5839" lon="5.28317">
        <ele>233.29983682635</ele>
        <time>2018-11-02T09:44:25Z</time>
      </trkpt>
      <trkpt lat="43.58388" lon="5.28314">
        <ele>233.52645319465</ele>
        <time>2018-11-02T09:44:28Z</time>
      </trkpt>
      <trkpt lat="43.58385" lon="5.28309">
        <ele>233.83081120836</ele>
        <time>2018-11-02T09:44:32Z</time>
      </trkpt>
      <trkpt lat="43.58383" lon="5.28305">
        <ele>234.13511293046</ele>
        <time>2018-11-02T09:44:36Z</time>
      </trkpt>
      <trkpt lat="43.5838" lon="5.28297">
        <ele>234.50991778236</ele>
        <time>2018-11-02T09:44:41Z</time>
      </trkpt>
      <trkpt lat="43.58378" lon="5.28292">
        <ele>234.72713044266</ele>
        <time>2018-11-02T09:44:44Z</time>
      </trkpt>
      <trkpt lat="43.58376" lon="5.28289">
        <ele>235.00629768515</ele>
        <time>2018-11-02T09:44:48Z</time>
      </trkpt>
      <trkpt lat="43.58372" lon="5.28284">
        <ele>235.35517743216</ele>
        <time>2018-11-02T09:44:53Z</time>
      </trkpt>
      <trkpt lat="43.58369" lon="5.2828">
        <ele>235.70138459222</ele>
        <time>2018-11-02T09:44:58Z</time>
      </trkpt>
      <trkpt lat="43.58367" lon="5.28277">
        <ele>235.98364472005</ele>
        <time>2018-11-02T09:45:02Z</time>
      </trkpt>
      <trkpt lat="43.58365" lon="5.28272">
        <ele>236.26814373056</ele>
        <time>2018-11-02T09:45:06Z</time>
      </trkpt>
      <trkpt lat="43.58363" lon="5.28265">
        <ele>236.62234930048</ele>
        <time>2018-11-02T09:45:11Z</time>
      </trkpt>
      <trkpt lat="43.58361" lon="5.28261">
        <ele>236.90554437367</ele>
        <time>2018-11-02T09:45:15Z</time>
      </trkpt>
      <trkpt lat="43.58358" lon="5.28257">
        <ele>237.1806523063</ele>
        <time>2018-11-02T09:45:19Z</time>
      </trkpt>
      <trkpt lat="43.58355" lon="5.28253">
        <ele>240.1708329365</ele>
        <time>2018-11-02T09:45:34Z</time>
      </trkpt>
      <trkpt lat="43.58349" lon="5.28245">
        <ele>240.27016260526</ele>
        <time>2018-11-02T09:45:38Z</time>
      </trkpt>
      <trkpt lat="43.58341" lon="5.28224">
        <ele>240.28250816112</ele>
        <time>2018-11-02T09:45:42Z</time>
      </trkpt>
      <trkpt lat="43.58338" lon="5.28219">
        <ele>240.34938638397</ele>
        <time>2018-11-02T09:45:49Z</time>
      </trkpt>
      <trkpt lat="43.58334" lon="5.28217">
        <ele>240.45646938555</ele>
        <time>2018-11-02T09:45:55Z</time>
      </trkpt>
      <trkpt lat="43.58331" lon="5.28215">
        <ele>240.54129319274</ele>
        <time>2018-11-02T09:45:59Z</time>
      </trkpt>
      <trkpt lat="43.58328" lon="5.28214">
        <ele>240.63285023888</ele>
        <time>2018-11-02T09:46:03Z</time>
      </trkpt>
      <trkpt lat="43.58323" lon="5.28213">
        <ele>240.76458632413</ele>
        <time>2018-11-02T09:46:08Z</time>
      </trkpt>
      <trkpt lat="43.58319" lon="5.28212">
        <ele>240.90675136041</ele>
        <time>2018-11-02T09:46:13Z</time>
      </trkpt>
      <trkpt lat="43.58311" lon="5.28212">
        <ele>241.06808148235</ele>
        <time>2018-11-02T09:46:18Z</time>
      </trkpt>
      <trkpt lat="43.58305" lon="5.28213">
        <ele>241.27603576112</ele>
        <time>2018-11-02T09:46:23Z</time>
      </trkpt>
      <trkpt lat="43.58301" lon="5.28216">
        <ele>241.45361003391</ele>
        <time>2018-11-02T09:46:27Z</time>
      </trkpt>
      <trkpt lat="43.58296" lon="5.28222">
        <ele>241.67993178599</ele>
        <time>2018-11-02T09:46:32Z</time>
      </trkpt>
      <trkpt lat="43.58293" lon="5.28226">
        <ele>241.86693938944</ele>
        <time>2018-11-02T09:46:36Z</time>
      </trkpt>
      <trkpt lat="43.58288" lon="5.2823">
        <ele>242.10585504874</ele>
        <time>2018-11-02T09:46:41Z</time>
      </trkpt>
      <trkpt lat="43.58284" lon="5.28234">
        <ele>242.30710007804</ele>
        <time>2018-11-02T09:46:45Z</time>
      </trkpt>
      <trkpt lat="43.58281" lon="5.28237">
        <ele>242.46131906788</ele>
        <time>2018-11-02T09:46:48Z</time>
      </trkpt>
      <trkpt lat="43.58278" lon="5.2824">
        <ele>242.67620709283</ele>
        <time>2018-11-02T09:46:52Z</time>
      </trkpt>
      <trkpt lat="43.58274" lon="5.28243">
        <ele>242.95501478766</ele>
        <time>2018-11-02T09:46:57Z</time>
      </trkpt>
      <trkpt lat="43.5827" lon="5.28247">
        <ele>243.18229551662</ele>
        <time>2018-11-02T09:47:01Z</time>
      </trkpt>
      <trkpt lat="43.58265" lon="5.28252">
        <ele>243.47141947667</ele>
        <time>2018-11-02T09:47:06Z</time>
      </trkpt>
      <trkpt lat="43.5826" lon="5.28256">
        <ele>243.71263228787</ele>
        <time>2018-11-02T09:47:10Z</time>
      </trkpt>
      <trkpt lat="43.58257" lon="5.28257">
        <ele>243.89952529535</ele>
        <time>2018-11-02T09:47:13Z</time>
      </trkpt>
      <trkpt lat="43.58254" lon="5.2826">
        <ele>244.09089160997</ele>
        <time>2018-11-02T09:47:16Z</time>
      </trkpt>
      <trkpt lat="43.5825" lon="5.28265">
        <ele>244.41653766992</ele>
        <time>2018-11-02T09:47:21Z</time>
      </trkpt>
      <trkpt lat="43.58246" lon="5.28269">
        <ele>244.68370242938</ele>
        <time>2018-11-02T09:47:25Z</time>
      </trkpt>
      <trkpt lat="43.58243" lon="5.28273">
        <ele>244.95157968105</ele>
        <time>2018-11-02T09:47:29Z</time>
      </trkpt>
      <trkpt lat="43.58237" lon="5.28278">
        <ele>245.2827807974</ele>
        <time>2018-11-02T09:47:34Z</time>
      </trkpt>
      <trkpt lat="43.58235" lon="5.2828">
        <ele>245.48030587382</ele>
        <time>2018-11-02T09:47:37Z</time>
      </trkpt>
      <trkpt lat="43.58231" lon="5.28284">
        <ele>245.74767602751</ele>
        <time>2018-11-02T09:47:41Z</time>
      </trkpt>
      <trkpt lat="43.58228" lon="5.28288">
        <ele>246.01827233601</ele>
        <time>2018-11-02T09:47:45Z</time>
      </trkpt>
      <trkpt lat="43.58224" lon="5.28292">
        <ele>246.28931739998</ele>
        <time>2018-11-02T09:47:49Z</time>
      </trkpt>
      <trkpt lat="43.58221" lon="5.28296">
        <ele>246.55819289031</ele>
        <time>2018-11-02T09:47:53Z</time>
      </trkpt>
      <trkpt lat="43.58218" lon="5.28299">
        <ele>246.90832036725</ele>
        <time>2018-11-02T09:48:00Z</time>
      </trkpt>
      <trkpt lat="43.58216" lon="5.28303">
        <ele>247.18308531116</ele>
        <time>2018-11-02T09:48:04Z</time>
      </trkpt>
      <trkpt lat="43.58213" lon="5.28308">
        <ele>247.45213131136</ele>
        <time>2018-11-02T09:48:08Z</time>
      </trkpt>
      <trkpt lat="43.5821" lon="5.28313">
        <ele>247.71050039623</ele>
        <time>2018-11-02T09:48:12Z</time>
      </trkpt>
      <trkpt lat="43.58208" lon="5.28317">
        <ele>247.96099053069</ele>
        <time>2018-11-02T09:48:16Z</time>
      </trkpt>
      <trkpt lat="43.58204" lon="5.2832">
        <ele>248.25940360684</ele>
        <time>2018-11-02T09:48:21Z</time>
      </trkpt>
      <trkpt lat="43.58201" lon="5.28324">
        <ele>248.54001447657</ele>
        <time>2018-11-02T09:48:26Z</time>
      </trkpt>
      <trkpt lat="43.58197" lon="5.28327">
        <ele>248.80551108016</ele>
        <time>2018-11-02T09:48:31Z</time>
      </trkpt>
      <trkpt lat="43.58192" lon="5.28331">
        <ele>249.07231537064</ele>
        <time>2018-11-02T09:48:36Z</time>
      </trkpt>
      <trkpt lat="43.58188" lon="5.28332">
        <ele>249.23386377242</ele>
        <time>2018-11-02T09:48:39Z</time>
      </trkpt>
      <trkpt lat="43.58183" lon="5.28333">
        <ele>249.5059013323</ele>
        <time>2018-11-02T09:48:44Z</time>
      </trkpt>
      <trkpt lat="43.5818" lon="5.28334">
        <ele>249.72854493033</ele>
        <time>2018-11-02T09:48:48Z</time>
      </trkpt>
      <trkpt lat="43.58176" lon="5.28334">
        <ele>249.95560059987</ele>
        <time>2018-11-02T09:48:52Z</time>
      </trkpt>
      <trkpt lat="43.58171" lon="5.28334">
        <ele>250.24366020947</ele>
        <time>2018-11-02T09:48:57Z</time>
      </trkpt>
      <trkpt lat="43.58167" lon="5.28334">
        <ele>250.41753002493</ele>
        <time>2018-11-02T09:49:00Z</time>
      </trkpt>
      <trkpt lat="43.58164" lon="5.28332">
        <ele>250.71024766696</ele>
        <time>2018-11-02T09:49:05Z</time>
      </trkpt>
      <trkpt lat="43.5816" lon="5.28333">
        <ele>250.93208847159</ele>
        <time>2018-11-02T09:49:09Z</time>
      </trkpt>
      <trkpt lat="43.58155" lon="5.28333">
        <ele>251.18402174704</ele>
        <time>2018-11-02T09:49:14Z</time>
      </trkpt>
      <trkpt lat="43.5815" lon="5.28333">
        <ele>251.40751468836</ele>
        <time>2018-11-02T09:49:19Z</time>
      </trkpt>
      <trkpt lat="43.58145" lon="5.28333">
        <ele>251.56968210314</ele>
        <time>2018-11-02T09:49:23Z</time>
      </trkpt>
      <trkpt lat="43.5814" lon="5.28334">
        <ele>251.72120079214</ele>
        <time>2018-11-02T09:49:27Z</time>
      </trkpt>
      <trkpt lat="43.58135" lon="5.28334">
        <ele>251.90071232355</ele>
        <time>2018-11-02T09:49:32Z</time>
      </trkpt>
      <trkpt lat="43.58132" lon="5.28334">
        <ele>252.10118451361</ele>
        <time>2018-11-02T09:49:38Z</time>
      </trkpt>
      <trkpt lat="43.58126" lon="5.28335">
        <ele>252.24967708145</ele>
        <time>2018-11-02T09:49:43Z</time>
      </trkpt>
      <trkpt lat="43.58122" lon="5.28334">
        <ele>252.35973471696</ele>
        <time>2018-11-02T09:49:47Z</time>
      </trkpt>
      <trkpt lat="43.58117" lon="5.28335">
        <ele>252.46236280516</ele>
        <time>2018-11-02T09:49:51Z</time>
      </trkpt>
      <trkpt lat="43.58113" lon="5.28334">
        <ele>252.57997112778</ele>
        <time>2018-11-02T09:49:56Z</time>
      </trkpt>
      <trkpt lat="43.58109" lon="5.28333">
        <ele>252.66553347607</ele>
        <time>2018-11-02T09:50:00Z</time>
      </trkpt>
      <trkpt lat="43.58106" lon="5.28331">
        <ele>252.74343901636</ele>
        <time>2018-11-02T09:50:04Z</time>
      </trkpt>
      <trkpt lat="43.581" lon="5.28328">
        <ele>252.833288421</ele>
        <time>2018-11-02T09:50:09Z</time>
      </trkpt>
      <trkpt lat="43.58096" lon="5.28325">
        <ele>252.90252021842</ele>
        <time>2018-11-02T09:50:13Z</time>
      </trkpt>
      <trkpt lat="43.58092" lon="5.28323">
        <ele>252.9689759082</ele>
        <time>2018-11-02T09:50:17Z</time>
      </trkpt>
      <trkpt lat="43.58088" lon="5.28321">
        <ele>253.03353990958</ele>
        <time>2018-11-02T09:50:21Z</time>
      </trkpt>
      <trkpt lat="43.58083" lon="5.28318">
        <ele>253.09494821312</ele>
        <time>2018-11-02T09:50:25Z</time>
      </trkpt>
      <trkpt lat="43.58078" lon="5.28315">
        <ele>253.1645476253</ele>
        <time>2018-11-02T09:50:30Z</time>
      </trkpt>
      <trkpt lat="43.58074" lon="5.28313">
        <ele>253.21717397197</ele>
        <time>2018-11-02T09:50:34Z</time>
      </trkpt>
      <trkpt lat="43.5807" lon="5.28311">
        <ele>253.2711538529</ele>
        <time>2018-11-02T09:50:38Z</time>
      </trkpt>
      <trkpt lat="43.58065" lon="5.28309">
        <ele>253.33758203225</ele>
        <time>2018-11-02T09:50:43Z</time>
      </trkpt>
      <trkpt lat="43.58061" lon="5.28306">
        <ele>253.3980836118</ele>
        <time>2018-11-02T09:50:48Z</time>
      </trkpt>
      <trkpt lat="43.58057" lon="5.28304">
        <ele>253.443622747</ele>
        <time>2018-11-02T09:50:52Z</time>
      </trkpt>
      <trkpt lat="43.58052" lon="5.28303">
        <ele>253.49669139857</ele>
        <time>2018-11-02T09:50:57Z</time>
      </trkpt>
      <trkpt lat="43.58048" lon="5.28301">
        <ele>253.53817392839</ele>
        <time>2018-11-02T09:51:01Z</time>
      </trkpt>
      <trkpt lat="43.58045" lon="5.28299">
        <ele>253.56948585151</ele>
        <time>2018-11-02T09:51:04Z</time>
      </trkpt>
      <trkpt lat="43.58041" lon="5.28297">
        <ele>253.65004639514</ele>
        <time>2018-11-02T09:51:12Z</time>
      </trkpt>
      <trkpt lat="43.58039" lon="5.28293">
        <ele>253.69129052345</ele>
        <time>2018-11-02T09:51:16Z</time>
      </trkpt>
      <trkpt lat="43.58036" lon="5.28289">
        <ele>253.7238066433</ele>
        <time>2018-11-02T09:51:19Z</time>
      </trkpt>
      <trkpt lat="43.58032" lon="5.28285">
        <ele>253.7664471976</ele>
        <time>2018-11-02T09:51:23Z</time>
      </trkpt>
      <trkpt lat="43.58029" lon="5.28281">
        <ele>253.81523765904</ele>
        <time>2018-11-02T09:51:28Z</time>
      </trkpt>
      <trkpt lat="43.58024" lon="5.28278">
        <ele>253.86345360566</ele>
        <time>2018-11-02T09:51:33Z</time>
      </trkpt>
      <trkpt lat="43.58021" lon="5.28274">
        <ele>253.9165498267</ele>
        <time>2018-11-02T09:51:38Z</time>
      </trkpt>
      <trkpt lat="43.58018" lon="5.2827">
        <ele>253.96019548012</ele>
        <time>2018-11-02T09:51:42Z</time>
      </trkpt>
      <trkpt lat="43.58015" lon="5.28265">
        <ele>254.00109920862</ele>
        <time>2018-11-02T09:51:46Z</time>
      </trkpt>
      <trkpt lat="43.58012" lon="5.28262">
        <ele>254.04089890678</ele>
        <time>2018-11-02T09:51:50Z</time>
      </trkpt>
      <trkpt lat="43.58009" lon="5.28257">
        <ele>254.07970637956</ele>
        <time>2018-11-02T09:51:54Z</time>
      </trkpt>
      <trkpt lat="43.58005" lon="5.28253">
        <ele>254.11995805197</ele>
        <time>2018-11-02T09:51:58Z</time>
      </trkpt>
      <trkpt lat="43.58002" lon="5.28248">
        <ele>254.15854400632</ele>
        <time>2018-11-02T09:52:02Z</time>
      </trkpt>
      <trkpt lat="43.57999" lon="5.28244">
        <ele>254.20327061841</ele>
        <time>2018-11-02T09:52:07Z</time>
      </trkpt>
      <trkpt lat="43.57995" lon="5.28239">
        <ele>254.24190891153</ele>
        <time>2018-11-02T09:52:11Z</time>
      </trkpt>
      <trkpt lat="43.57991" lon="5.28236">
        <ele>254.2743948861</ele>
        <time>2018-11-02T09:52:14Z</time>
      </trkpt>
      <trkpt lat="43.57987" lon="5.28233">
        <ele>254.31999741118</ele>
        <time>2018-11-02T09:52:18Z</time>
      </trkpt>
      <trkpt lat="43.57983" lon="5.2823">
        <ele>254.3645101271</ele>
        <time>2018-11-02T09:52:22Z</time>
      </trkpt>
      <trkpt lat="43.57978" lon="5.28226">
        <ele>254.41486769053</ele>
        <time>2018-11-02T09:52:26Z</time>
      </trkpt>
      <trkpt lat="43.57972" lon="5.28222">
        <ele>254.47422464731</ele>
        <time>2018-11-02T09:52:30Z</time>
      </trkpt>
      <trkpt lat="43.57967" lon="5.28219">
        <ele>254.53979644322</ele>
        <time>2018-11-02T09:52:34Z</time>
      </trkpt>
      <trkpt lat="43.57964" lon="5.28217">
        <ele>254.60807225313</ele>
        <time>2018-11-02T09:52:38Z</time>
      </trkpt>
      <trkpt lat="43.57961" lon="5.28215">
        <ele>254.67362441842</ele>
        <time>2018-11-02T09:52:42Z</time>
      </trkpt>
      <trkpt lat="43.57957" lon="5.28214">
        <ele>254.7358968011</ele>
        <time>2018-11-02T09:52:46Z</time>
      </trkpt>
      <trkpt lat="43.57952" lon="5.28213">
        <ele>254.80005982281</ele>
        <time>2018-11-02T09:52:50Z</time>
      </trkpt>
      <trkpt lat="43.57949" lon="5.28212">
        <ele>254.84863405271</ele>
        <time>2018-11-02T09:52:53Z</time>
      </trkpt>
      <trkpt lat="43.57944" lon="5.28211">
        <ele>254.92467562</ele>
        <time>2018-11-02T09:52:58Z</time>
      </trkpt>
      <trkpt lat="43.5794" lon="5.2821">
        <ele>254.98206156781</ele>
        <time>2018-11-02T09:53:02Z</time>
      </trkpt>
      <trkpt lat="43.57935" lon="5.28208">
        <ele>255.04833675455</ele>
        <time>2018-11-02T09:53:07Z</time>
      </trkpt>
      <trkpt lat="43.57931" lon="5.28207">
        <ele>255.10066949205</ele>
        <time>2018-11-02T09:53:11Z</time>
      </trkpt>
      <trkpt lat="43.57927" lon="5.28206">
        <ele>255.15430217434</ele>
        <time>2018-11-02T09:53:15Z</time>
      </trkpt>
      <trkpt lat="43.57923" lon="5.28205">
        <ele>255.22039810588</ele>
        <time>2018-11-02T09:53:20Z</time>
      </trkpt>
      <trkpt lat="43.5792" lon="5.28202">
        <ele>255.27033376727</ele>
        <time>2018-11-02T09:53:24Z</time>
      </trkpt>
      <trkpt lat="43.57915" lon="5.28198">
        <ele>255.33044974427</ele>
        <time>2018-11-02T09:53:29Z</time>
      </trkpt>
      <trkpt lat="43.57912" lon="5.28195">
        <ele>255.36389893385</ele>
        <time>2018-11-02T09:53:32Z</time>
      </trkpt>
      <trkpt lat="43.57907" lon="5.28193">
        <ele>255.40595568205</ele>
        <time>2018-11-02T09:53:36Z</time>
      </trkpt>
      <trkpt lat="43.57904" lon="5.28191">
        <ele>255.44575764449</ele>
        <time>2018-11-02T09:53:40Z</time>
      </trkpt>
      <trkpt lat="43.57901" lon="5.28188">
        <ele>255.48342377517</ele>
        <time>2018-11-02T09:53:44Z</time>
      </trkpt>
      <trkpt lat="43.57899" lon="5.28186">
        <ele>255.51058817323</ele>
        <time>2018-11-02T09:53:47Z</time>
      </trkpt>
      <trkpt lat="43.57895" lon="5.28182">
        <ele>255.54555155129</ele>
        <time>2018-11-02T09:53:51Z</time>
      </trkpt>
      <trkpt lat="43.57892" lon="5.28179">
        <ele>255.57987609558</ele>
        <time>2018-11-02T09:53:55Z</time>
      </trkpt>
      <trkpt lat="43.57889" lon="5.28176">
        <ele>255.61355071182</ele>
        <time>2018-11-02T09:53:59Z</time>
      </trkpt>
      <trkpt lat="43.57885" lon="5.2817">
        <ele>255.65561146695</ele>
        <time>2018-11-02T09:54:04Z</time>
      </trkpt>
      <trkpt lat="43.57882" lon="5.28167">
        <ele>255.68072381739</ele>
        <time>2018-11-02T09:54:07Z</time>
      </trkpt>
      <trkpt lat="43.5788" lon="5.28164">
        <ele>255.70498189764</ele>
        <time>2018-11-02T09:54:10Z</time>
      </trkpt>
      <trkpt lat="43.57877" lon="5.2816">
        <ele>255.73800899693</ele>
        <time>2018-11-02T09:54:14Z</time>
      </trkpt>
      <trkpt lat="43.57874" lon="5.28156">
        <ele>255.77453889814</ele>
        <time>2018-11-02T09:54:18Z</time>
      </trkpt>
      <trkpt lat="43.57871" lon="5.28151">
        <ele>255.82040917254</ele>
        <time>2018-11-02T09:54:23Z</time>
      </trkpt>
      <trkpt lat="43.57866" lon="5.2815">
        <ele>255.86392949917</ele>
        <time>2018-11-02T09:54:28Z</time>
      </trkpt>
      <trkpt lat="43.57864" lon="5.28148">
        <ele>255.89003312844</ele>
        <time>2018-11-02T09:54:31Z</time>
      </trkpt>
      <trkpt lat="43.5786" lon="5.28144">
        <ele>255.92330239035</ele>
        <time>2018-11-02T09:54:35Z</time>
      </trkpt>
      <trkpt lat="43.57857" lon="5.2814">
        <ele>255.95725774382</ele>
        <time>2018-11-02T09:54:39Z</time>
      </trkpt>
      <trkpt lat="43.57852" lon="5.28138">
        <ele>255.99542207236</ele>
        <time>2018-11-02T09:54:43Z</time>
      </trkpt>
      <trkpt lat="43.57848" lon="5.28134">
        <ele>256.03468299692</ele>
        <time>2018-11-02T09:54:47Z</time>
      </trkpt>
      <trkpt lat="43.57845" lon="5.28132">
        <ele>256.06612588711</ele>
        <time>2018-11-02T09:54:50Z</time>
      </trkpt>
      <trkpt lat="43.57841" lon="5.28128">
        <ele>256.1068954554</ele>
        <time>2018-11-02T09:54:54Z</time>
      </trkpt>
      <trkpt lat="43.57836" lon="5.28124">
        <ele>256.15497172372</ele>
        <time>2018-11-02T09:54:59Z</time>
      </trkpt>
      <trkpt lat="43.5783" lon="5.2812">
        <ele>256.20290612056</ele>
        <time>2018-11-02T09:55:04Z</time>
      </trkpt>
      <trkpt lat="43.57827" lon="5.28118">
        <ele>256.23081284925</ele>
        <time>2018-11-02T09:55:07Z</time>
      </trkpt>
      <trkpt lat="43.57825" lon="5.28117">
        <ele>256.25818400042</ele>
        <time>2018-11-02T09:55:10Z</time>
      </trkpt>
      <trkpt lat="43.57821" lon="5.28114">
        <ele>256.29297183078</ele>
        <time>2018-11-02T09:55:14Z</time>
      </trkpt>
      <trkpt lat="43.57816" lon="5.2811">
        <ele>256.33420802021</ele>
        <time>2018-11-02T09:55:19Z</time>
      </trkpt>
      <trkpt lat="43.57813" lon="5.28108">
        <ele>256.3594051634</ele>
        <time>2018-11-02T09:55:22Z</time>
      </trkpt>
      <trkpt lat="43.57809" lon="5.28104">
        <ele>256.40114247103</ele>
        <time>2018-11-02T09:55:27Z</time>
      </trkpt>
      <trkpt lat="43.57805" lon="5.28099">
        <ele>256.44355719904</ele>
        <time>2018-11-02T09:55:32Z</time>
      </trkpt>
      <trkpt lat="43.57801" lon="5.28095">
        <ele>256.47891479917</ele>
        <time>2018-11-02T09:55:36Z</time>
      </trkpt>
      <trkpt lat="43.57799" lon="5.28092">
        <ele>256.50526698248</ele>
        <time>2018-11-02T09:55:39Z</time>
      </trkpt>
      <trkpt lat="43.57795" lon="5.28088">
        <ele>256.5408324446</ele>
        <time>2018-11-02T09:55:43Z</time>
      </trkpt>
      <trkpt lat="43.57789" lon="5.28082">
        <ele>256.58807443545</ele>
        <time>2018-11-02T09:55:48Z</time>
      </trkpt>
      <trkpt lat="43.57785" lon="5.28078">
        <ele>256.63795460634</ele>
        <time>2018-11-02T09:55:53Z</time>
      </trkpt>
      <trkpt lat="43.57782" lon="5.28075">
        <ele>256.67901773134</ele>
        <time>2018-11-02T09:55:57Z</time>
      </trkpt>
      <trkpt lat="43.57778" lon="5.28071">
        <ele>256.72307994187</ele>
        <time>2018-11-02T09:56:01Z</time>
      </trkpt>
      <trkpt lat="43.57775" lon="5.28067">
        <ele>256.76771565342</ele>
        <time>2018-11-02T09:56:05Z</time>
      </trkpt>
      <trkpt lat="43.57769" lon="5.28062">
        <ele>256.83155780234</ele>
        <time>2018-11-02T09:56:10Z</time>
      </trkpt>
      <trkpt lat="43.57764" lon="5.28055">
        <ele>256.89497364704</ele>
        <time>2018-11-02T09:56:14Z</time>
      </trkpt>
      <trkpt lat="43.57761" lon="5.28052">
        <ele>256.96597033615</ele>
        <time>2018-11-02T09:56:18Z</time>
      </trkpt>
      <trkpt lat="43.57757" lon="5.28049">
        <ele>257.04013665818</ele>
        <time>2018-11-02T09:56:22Z</time>
      </trkpt>
      <trkpt lat="43.57753" lon="5.28047">
        <ele>257.09926844288</ele>
        <time>2018-11-02T09:56:25Z</time>
      </trkpt>
      <trkpt lat="43.57747" lon="5.28042">
        <ele>257.2108459174</ele>
        <time>2018-11-02T09:56:30Z</time>
      </trkpt>
      <trkpt lat="43.57744" lon="5.28039">
        <ele>257.28426403836</ele>
        <time>2018-11-02T09:56:33Z</time>
      </trkpt>
      <trkpt lat="43.5774" lon="5.28036">
        <ele>257.41256788759</ele>
        <time>2018-11-02T09:56:38Z</time>
      </trkpt>
      <trkpt lat="43.57737" lon="5.28034">
        <ele>257.50881764861</ele>
        <time>2018-11-02T09:56:42Z</time>
      </trkpt>
      <trkpt lat="43.57731" lon="5.28028">
        <ele>257.62280884876</ele>
        <time>2018-11-02T09:56:47Z</time>
      </trkpt>
      <trkpt lat="43.57726" lon="5.28022">
        <ele>257.72649435178</ele>
        <time>2018-11-02T09:56:52Z</time>
      </trkpt>
      <trkpt lat="43.57724" lon="5.28019">
        <ele>257.78418432118</ele>
        <time>2018-11-02T09:56:55Z</time>
      </trkpt>
      <trkpt lat="43.57721" lon="5.28016">
        <ele>257.86186168228</ele>
        <time>2018-11-02T09:56:59Z</time>
      </trkpt>
      <trkpt lat="43.57717" lon="5.28012">
        <ele>257.95708952444</ele>
        <time>2018-11-02T09:57:04Z</time>
      </trkpt>
      <trkpt lat="43.57714" lon="5.28009">
        <ele>258.03297372972</ele>
        <time>2018-11-02T09:57:08Z</time>
      </trkpt>
      <trkpt lat="43.57711" lon="5.28004">
        <ele>258.12278469817</ele>
        <time>2018-11-02T09:57:13Z</time>
      </trkpt>
      <trkpt lat="43.57708" lon="5.28001">
        <ele>258.17678502319</ele>
        <time>2018-11-02T09:57:16Z</time>
      </trkpt>
      <trkpt lat="43.57704" lon="5.27995">
        <ele>258.24595016398</ele>
        <time>2018-11-02T09:57:20Z</time>
      </trkpt>
      <trkpt lat="43.577" lon="5.2799">
        <ele>258.33230994737</ele>
        <time>2018-11-02T09:57:25Z</time>
      </trkpt>
      <trkpt lat="43.57696" lon="5.27984">
        <ele>258.40185391078</ele>
        <time>2018-11-02T09:57:29Z</time>
      </trkpt>
      <trkpt lat="43.57691" lon="5.2798">
        <ele>258.47024057537</ele>
        <time>2018-11-02T09:57:33Z</time>
      </trkpt>
      <trkpt lat="43.57687" lon="5.27976">
        <ele>258.5510901638</ele>
        <time>2018-11-02T09:57:38Z</time>
      </trkpt>
      <trkpt lat="43.57683" lon="5.27974">
        <ele>258.61278750676</ele>
        <time>2018-11-02T09:57:42Z</time>
      </trkpt>
      <trkpt lat="43.57679" lon="5.27972">
        <ele>258.68466512562</ele>
        <time>2018-11-02T09:57:47Z</time>
      </trkpt>
      <trkpt lat="43.57675" lon="5.27969">
        <ele>258.7383601732</ele>
        <time>2018-11-02T09:57:51Z</time>
      </trkpt>
      <trkpt lat="43.57671" lon="5.27966">
        <ele>258.79976594811</ele>
        <time>2018-11-02T09:57:56Z</time>
      </trkpt>
      <trkpt lat="43.57667" lon="5.27963">
        <ele>258.84950965301</ele>
        <time>2018-11-02T09:58:00Z</time>
      </trkpt>
      <trkpt lat="43.57663" lon="5.27959">
        <ele>258.8990471442</ele>
        <time>2018-11-02T09:58:04Z</time>
      </trkpt>
      <trkpt lat="43.57659" lon="5.27955">
        <ele>258.9567412154</ele>
        <time>2018-11-02T09:58:09Z</time>
      </trkpt>
      <trkpt lat="43.57655" lon="5.27951">
        <ele>259.00010789444</ele>
        <time>2018-11-02T09:58:13Z</time>
      </trkpt>
      <trkpt lat="43.57651" lon="5.27947">
        <ele>259.05261353715</ele>
        <time>2018-11-02T09:58:18Z</time>
      </trkpt>
      <trkpt lat="43.57648" lon="5.27946">
        <ele>259.08337784581</ele>
        <time>2018-11-02T09:58:21Z</time>
      </trkpt>
      <trkpt lat="43.57644" lon="5.27944">
        <ele>259.12328750294</ele>
        <time>2018-11-02T09:58:25Z</time>
      </trkpt>
      <trkpt lat="43.57642" lon="5.27942">
        <ele>259.15375651295</ele>
        <time>2018-11-02T09:58:28Z</time>
      </trkpt>
      <trkpt lat="43.57638" lon="5.27939">
        <ele>259.19809096925</ele>
        <time>2018-11-02T09:58:32Z</time>
      </trkpt>
      <trkpt lat="43.57633" lon="5.27937">
        <ele>259.25283960085</ele>
        <time>2018-11-02T09:58:37Z</time>
      </trkpt>
      <trkpt lat="43.57628" lon="5.27933">
        <ele>259.30629367588</ele>
        <time>2018-11-02T09:58:42Z</time>
      </trkpt>
      <trkpt lat="43.57623" lon="5.27931">
        <ele>259.35028870162</ele>
        <time>2018-11-02T09:58:46Z</time>
      </trkpt>
      <trkpt lat="43.57619" lon="5.2793">
        <ele>259.38399000537</ele>
        <time>2018-11-02T09:58:49Z</time>
      </trkpt>
      <trkpt lat="43.57615" lon="5.27929">
        <ele>259.42798014382</ele>
        <time>2018-11-02T09:58:53Z</time>
      </trkpt>
      <trkpt lat="43.57611" lon="5.27926">
        <ele>259.48191714604</ele>
        <time>2018-11-02T09:58:58Z</time>
      </trkpt>
      <trkpt lat="43.57606" lon="5.27923">
        <ele>259.53478039731</ele>
        <time>2018-11-02T09:59:03Z</time>
      </trkpt>
      <trkpt lat="43.57601" lon="5.2792">
        <ele>259.57711964147</ele>
        <time>2018-11-02T09:59:07Z</time>
      </trkpt>
      <trkpt lat="43.57597" lon="5.27917">
        <ele>259.62053489294</ele>
        <time>2018-11-02T09:59:11Z</time>
      </trkpt>
      <trkpt lat="43.57593" lon="5.27914">
        <ele>259.66454386097</ele>
        <time>2018-11-02T09:59:15Z</time>
      </trkpt>
      <trkpt lat="43.5759" lon="5.27913">
        <ele>259.70754746653</ele>
        <time>2018-11-02T09:59:19Z</time>
      </trkpt>
      <trkpt lat="43.57584" lon="5.2791">
        <ele>259.76395256228</ele>
        <time>2018-11-02T09:59:24Z</time>
      </trkpt>
      <trkpt lat="43.5758" lon="5.27907">
        <ele>259.81670361929</ele>
        <time>2018-11-02T09:59:28Z</time>
      </trkpt>
      <trkpt lat="43.57575" lon="5.27903">
        <ele>259.87008952822</ele>
        <time>2018-11-02T09:59:32Z</time>
      </trkpt>
      <trkpt lat="43.57571" lon="5.279">
        <ele>259.92550378328</ele>
        <time>2018-11-02T09:59:36Z</time>
      </trkpt>
      <trkpt lat="43.57567" lon="5.27897">
        <ele>259.98650248084</ele>
        <time>2018-11-02T09:59:40Z</time>
      </trkpt>
      <trkpt lat="43.57561" lon="5.27892">
        <ele>260.06672202741</ele>
        <time>2018-11-02T09:59:45Z</time>
      </trkpt>
      <trkpt lat="43.57558" lon="5.27889">
        <ele>260.13460654433</ele>
        <time>2018-11-02T09:59:49Z</time>
      </trkpt>
      <trkpt lat="43.57556" lon="5.27887">
        <ele>260.18400612226</ele>
        <time>2018-11-02T09:59:52Z</time>
      </trkpt>
      <trkpt lat="43.57551" lon="5.27884">
        <ele>260.24740055777</ele>
        <time>2018-11-02T09:59:56Z</time>
      </trkpt>
      <trkpt lat="43.57546" lon="5.2788">
        <ele>260.31273383986</ele>
        <time>2018-11-02T10:00:00Z</time>
      </trkpt>
      <trkpt lat="43.57541" lon="5.27877">
        <ele>260.39805785189</ele>
        <time>2018-11-02T10:00:05Z</time>
      </trkpt>
      <trkpt lat="43.57537" lon="5.27875">
        <ele>260.4695997476</ele>
        <time>2018-11-02T10:00:09Z</time>
      </trkpt>
      <trkpt lat="43.57534" lon="5.27874">
        <ele>260.52194121525</ele>
        <time>2018-11-02T10:00:12Z</time>
      </trkpt>
      <trkpt lat="43.5753" lon="5.27872">
        <ele>260.58751974106</ele>
        <time>2018-11-02T10:00:16Z</time>
      </trkpt>
      <trkpt lat="43.57523" lon="5.27869">
        <ele>260.66830205613</ele>
        <time>2018-11-02T10:00:21Z</time>
      </trkpt>
      <trkpt lat="43.57519" lon="5.27865">
        <ele>260.73316057307</ele>
        <time>2018-11-02T10:00:25Z</time>
      </trkpt>
      <trkpt lat="43.57513" lon="5.27862">
        <ele>260.81738636713</ele>
        <time>2018-11-02T10:00:30Z</time>
      </trkpt>
      <trkpt lat="43.57508" lon="5.27859">
        <ele>260.89256432172</ele>
        <time>2018-11-02T10:00:34Z</time>
      </trkpt>
      <trkpt lat="43.57503" lon="5.27855">
        <ele>260.97753747191</ele>
        <time>2018-11-02T10:00:38Z</time>
      </trkpt>
      <trkpt lat="43.57499" lon="5.27851">
        <ele>261.06598742757</ele>
        <time>2018-11-02T10:00:42Z</time>
      </trkpt>
      <trkpt lat="43.57495" lon="5.27847">
        <ele>261.15870140298</ele>
        <time>2018-11-02T10:00:46Z</time>
      </trkpt>
      <trkpt lat="43.57492" lon="5.27845">
        <ele>261.25736561528</ele>
        <time>2018-11-02T10:00:50Z</time>
      </trkpt>
      <trkpt lat="43.57488" lon="5.27844">
        <ele>261.36538723861</ele>
        <time>2018-11-02T10:00:54Z</time>
      </trkpt>
      <trkpt lat="43.57481" lon="5.27841">
        <ele>261.517929791</ele>
        <time>2018-11-02T10:00:59Z</time>
      </trkpt>
      <trkpt lat="43.57477" lon="5.27838">
        <ele>261.66960604793</ele>
        <time>2018-11-02T10:01:04Z</time>
      </trkpt>
      <trkpt lat="43.57475" lon="5.27835">
        <ele>261.78791438968</ele>
        <time>2018-11-02T10:01:08Z</time>
      </trkpt>
      <trkpt lat="43.57471" lon="5.27832">
        <ele>261.92773270434</ele>
        <time>2018-11-02T10:01:13Z</time>
      </trkpt>
      <trkpt lat="43.57465" lon="5.27828">
        <ele>262.05869381142</ele>
        <time>2018-11-02T10:01:18Z</time>
      </trkpt>
      <trkpt lat="43.5746" lon="5.27825">
        <ele>262.15923084437</ele>
        <time>2018-11-02T10:01:22Z</time>
      </trkpt>
      <trkpt lat="43.57456" lon="5.27822">
        <ele>262.28554464324</ele>
        <time>2018-11-02T10:01:27Z</time>
      </trkpt>
      <trkpt lat="43.57451" lon="5.2782">
        <ele>262.40571437348</ele>
        <time>2018-11-02T10:01:32Z</time>
      </trkpt>
      <trkpt lat="43.57448" lon="5.27819">
        <ele>262.4982414311</ele>
        <time>2018-11-02T10:01:36Z</time>
      </trkpt>
      <trkpt lat="43.57444" lon="5.27817">
        <ele>262.61371742211</ele>
        <time>2018-11-02T10:01:41Z</time>
      </trkpt>
      <trkpt lat="43.5744" lon="5.27815">
        <ele>262.70378791873</ele>
        <time>2018-11-02T10:01:45Z</time>
      </trkpt>
      <trkpt lat="43.57436" lon="5.27811">
        <ele>262.79437309137</ele>
        <time>2018-11-02T10:01:49Z</time>
      </trkpt>
      <trkpt lat="43.57433" lon="5.27808">
        <ele>262.86430307885</ele>
        <time>2018-11-02T10:01:52Z</time>
      </trkpt>
      <trkpt lat="43.57429" lon="5.27804">
        <ele>262.96248080343</ele>
        <time>2018-11-02T10:01:56Z</time>
      </trkpt>
      <trkpt lat="43.57423" lon="5.27799">
        <ele>263.08706805994</ele>
        <time>2018-11-02T10:02:01Z</time>
      </trkpt>
      <trkpt lat="43.57418" lon="5.27795">
        <ele>263.22117848328</ele>
        <time>2018-11-02T10:02:06Z</time>
      </trkpt>
      <trkpt lat="43.57413" lon="5.27791">
        <ele>263.32903588088</ele>
        <time>2018-11-02T10:02:10Z</time>
      </trkpt>
      <trkpt lat="43.57409" lon="5.27785">
        <ele>263.46284387224</ele>
        <time>2018-11-02T10:02:15Z</time>
      </trkpt>
      <trkpt lat="43.57405" lon="5.2778">
        <ele>263.5674953139</ele>
        <time>2018-11-02T10:02:19Z</time>
      </trkpt>
      <trkpt lat="43.57401" lon="5.27776">
        <ele>263.69899164822</ele>
        <time>2018-11-02T10:02:24Z</time>
      </trkpt>
      <trkpt lat="43.57397" lon="5.27773">
        <ele>263.80468194251</ele>
        <time>2018-11-02T10:02:28Z</time>
      </trkpt>
      <trkpt lat="43.57394" lon="5.27771">
        <ele>263.88621612073</ele>
        <time>2018-11-02T10:02:31Z</time>
      </trkpt>
      <trkpt lat="43.57389" lon="5.27769">
        <ele>264.0309040929</ele>
        <time>2018-11-02T10:02:36Z</time>
      </trkpt>
      <trkpt lat="43.57385" lon="5.27766">
        <ele>264.1503850582</ele>
        <time>2018-11-02T10:02:40Z</time>
      </trkpt>
      <trkpt lat="43.57381" lon="5.27763">
        <ele>264.27859444102</ele>
        <time>2018-11-02T10:02:44Z</time>
      </trkpt>
      <trkpt lat="43.57376" lon="5.27757">
        <ele>264.4535856103</ele>
        <time>2018-11-02T10:02:49Z</time>
      </trkpt>
      <trkpt lat="43.57373" lon="5.27752">
        <ele>264.55772199511</ele>
        <time>2018-11-02T10:02:52Z</time>
      </trkpt>
      <trkpt lat="43.57369" lon="5.27746">
        <ele>264.72534679806</ele>
        <time>2018-11-02T10:02:57Z</time>
      </trkpt>
      <trkpt lat="43.57365" lon="5.27742">
        <ele>264.82618224455</ele>
        <time>2018-11-02T10:03:00Z</time>
      </trkpt>
      <trkpt lat="43.57361" lon="5.27738">
        <ele>264.96963008155</ele>
        <time>2018-11-02T10:03:04Z</time>
      </trkpt>
      <trkpt lat="43.57358" lon="5.27735">
        <ele>265.1161512536</ele>
        <time>2018-11-02T10:03:08Z</time>
      </trkpt>
      <trkpt lat="43.57355" lon="5.27732">
        <ele>265.25988196648</ele>
        <time>2018-11-02T10:03:12Z</time>
      </trkpt>
      <trkpt lat="43.57352" lon="5.2773">
        <ele>265.36758052716</ele>
        <time>2018-11-02T10:03:15Z</time>
      </trkpt>
      <trkpt lat="43.57349" lon="5.27726">
        <ele>265.53809422741</ele>
        <time>2018-11-02T10:03:20Z</time>
      </trkpt>
      <trkpt lat="43.57347" lon="5.27724">
        <ele>265.63571858108</ele>
        <time>2018-11-02T10:03:23Z</time>
      </trkpt>
      <trkpt lat="43.57341" lon="5.27719">
        <ele>265.79412303755</ele>
        <time>2018-11-02T10:03:28Z</time>
      </trkpt>
      <trkpt lat="43.57337" lon="5.27715">
        <ele>265.95025757331</ele>
        <time>2018-11-02T10:03:33Z</time>
      </trkpt>
      <trkpt lat="43.57334" lon="5.27712">
        <ele>266.06968407521</ele>
        <time>2018-11-02T10:03:37Z</time>
      </trkpt>
      <trkpt lat="43.5733" lon="5.27707">
        <ele>266.2111992903</ele>
        <time>2018-11-02T10:03:42Z</time>
      </trkpt>
      <trkpt lat="43.57326" lon="5.27704">
        <ele>266.32642504356</ele>
        <time>2018-11-02T10:03:46Z</time>
      </trkpt>
      <trkpt lat="43.5732" lon="5.27697">
        <ele>266.47366721116</ele>
        <time>2018-11-02T10:03:51Z</time>
      </trkpt>
      <trkpt lat="43.57317" lon="5.27692">
        <ele>266.59660421716</ele>
        <time>2018-11-02T10:03:55Z</time>
      </trkpt>
      <trkpt lat="43.57313" lon="5.27687">
        <ele>266.72441562654</ele>
        <time>2018-11-02T10:03:59Z</time>
      </trkpt>
      <trkpt lat="43.57309" lon="5.27682">
        <ele>266.88962286167</ele>
        <time>2018-11-02T10:04:04Z</time>
      </trkpt>
      <trkpt lat="43.57306" lon="5.27678">
        <ele>266.98923936913</ele>
        <time>2018-11-02T10:04:07Z</time>
      </trkpt>
      <trkpt lat="43.57302" lon="5.27673">
        <ele>267.15312946131</ele>
        <time>2018-11-02T10:04:12Z</time>
      </trkpt>
      <trkpt lat="43.573" lon="5.2767">
        <ele>267.24738991589</ele>
        <time>2018-11-02T10:04:15Z</time>
      </trkpt>
      <trkpt lat="43.57298" lon="5.27667">
        <ele>267.36785538903</ele>
        <time>2018-11-02T10:04:19Z</time>
      </trkpt>
      <trkpt lat="43.57294" lon="5.27663">
        <ele>267.51126961568</ele>
        <time>2018-11-02T10:04:24Z</time>
      </trkpt>
      <trkpt lat="43.5729" lon="5.27659">
        <ele>267.64429759198</ele>
        <time>2018-11-02T10:04:29Z</time>
      </trkpt>
      <trkpt lat="43.57286" lon="5.27656">
        <ele>267.74519696764</ele>
        <time>2018-11-02T10:04:33Z</time>
      </trkpt>
      <trkpt lat="43.57282" lon="5.27652">
        <ele>267.86556012425</ele>
        <time>2018-11-02T10:04:38Z</time>
      </trkpt>
      <trkpt lat="43.57277" lon="5.27647">
        <ele>267.98461528055</ele>
        <time>2018-11-02T10:04:43Z</time>
      </trkpt>
      <trkpt lat="43.57274" lon="5.27644">
        <ele>268.07815362884</ele>
        <time>2018-11-02T10:04:47Z</time>
      </trkpt>
      <trkpt lat="43.5727" lon="5.27641">
        <ele>268.16917335822</ele>
        <time>2018-11-02T10:04:51Z</time>
      </trkpt>
      <trkpt lat="43.57266" lon="5.27638">
        <ele>268.25572988387</ele>
        <time>2018-11-02T10:04:55Z</time>
      </trkpt>
      <trkpt lat="43.57263" lon="5.27636">
        <ele>268.31839553178</ele>
        <time>2018-11-02T10:04:58Z</time>
      </trkpt>
      <trkpt lat="43.57258" lon="5.27633">
        <ele>268.39988438753</ele>
        <time>2018-11-02T10:05:02Z</time>
      </trkpt>
      <trkpt lat="43.57253" lon="5.2763">
        <ele>268.48492700459</ele>
        <time>2018-11-02T10:05:06Z</time>
      </trkpt>
      <trkpt lat="43.57249" lon="5.27625">
        <ele>268.56732550114</ele>
        <time>2018-11-02T10:05:10Z</time>
      </trkpt>
      <trkpt lat="43.57245" lon="5.27622">
        <ele>268.6506498255</ele>
        <time>2018-11-02T10:05:14Z</time>
      </trkpt>
      <trkpt lat="43.57241" lon="5.2762">
        <ele>268.7367918536</ele>
        <time>2018-11-02T10:05:18Z</time>
      </trkpt>
      <trkpt lat="43.57237" lon="5.27617">
        <ele>268.82074526884</ele>
        <time>2018-11-02T10:05:22Z</time>
      </trkpt>
      <trkpt lat="43.57233" lon="5.27614">
        <ele>268.90144956896</ele>
        <time>2018-11-02T10:05:26Z</time>
      </trkpt>
      <trkpt lat="43.57229" lon="5.27609">
        <ele>268.99909879256</ele>
        <time>2018-11-02T10:05:31Z</time>
      </trkpt>
      <trkpt lat="43.57225" lon="5.27605">
        <ele>269.07675147078</ele>
        <time>2018-11-02T10:05:35Z</time>
      </trkpt>
      <trkpt lat="43.57222" lon="5.276">
        <ele>269.15079239505</ele>
        <time>2018-11-02T10:05:39Z</time>
      </trkpt>
      <trkpt lat="43.5722" lon="5.27597">
        <ele>269.22084704589</ele>
        <time>2018-11-02T10:05:43Z</time>
      </trkpt>
      <trkpt lat="43.57216" lon="5.27593">
        <ele>269.28949453821</ele>
        <time>2018-11-02T10:05:47Z</time>
      </trkpt>
      <trkpt lat="43.57212" lon="5.27589">
        <ele>269.36170285368</ele>
        <time>2018-11-02T10:05:51Z</time>
      </trkpt>
      <trkpt lat="43.57208" lon="5.27584">
        <ele>269.45499418442</ele>
        <time>2018-11-02T10:05:56Z</time>
      </trkpt>
      <trkpt lat="43.57204" lon="5.2758">
        <ele>269.52927012885</ele>
        <time>2018-11-02T10:06:00Z</time>
      </trkpt>
      <trkpt lat="43.57202" lon="5.27575">
        <ele>269.60286270787</ele>
        <time>2018-11-02T10:06:04Z</time>
      </trkpt>
      <trkpt lat="43.57199" lon="5.2757">
        <ele>269.72192764178</ele>
        <time>2018-11-02T10:06:13Z</time>
      </trkpt>
      <trkpt lat="43.57197" lon="5.27567">
        <ele>269.83476680788</ele>
        <time>2018-11-02T10:06:19Z</time>
      </trkpt>
      <trkpt lat="43.57193" lon="5.27563">
        <ele>269.91210344172</ele>
        <time>2018-11-02T10:06:23Z</time>
      </trkpt>
      <trkpt lat="43.57189" lon="5.27558">
        <ele>269.99184262993</ele>
        <time>2018-11-02T10:06:27Z</time>
      </trkpt>
      <trkpt lat="43.57186" lon="5.27556">
        <ele>270.0539145259</ele>
        <time>2018-11-02T10:06:30Z</time>
      </trkpt>
      <trkpt lat="43.57183" lon="5.27553">
        <ele>270.13969128942</ele>
        <time>2018-11-02T10:06:34Z</time>
      </trkpt>
      <trkpt lat="43.57179" lon="5.2755">
        <ele>270.23010410552</ele>
        <time>2018-11-02T10:06:38Z</time>
      </trkpt>
      <trkpt lat="43.57175" lon="5.27547">
        <ele>270.32428968567</ele>
        <time>2018-11-02T10:06:42Z</time>
      </trkpt>
      <trkpt lat="43.57171" lon="5.27542">
        <ele>270.44448954503</ele>
        <time>2018-11-02T10:06:47Z</time>
      </trkpt>
      <trkpt lat="43.57167" lon="5.27537">
        <ele>270.56001087952</ele>
        <time>2018-11-02T10:06:52Z</time>
      </trkpt>
      <trkpt lat="43.57164" lon="5.27533">
        <ele>270.66819918876</ele>
        <time>2018-11-02T10:06:57Z</time>
      </trkpt>
      <trkpt lat="43.5716" lon="5.2753">
        <ele>270.7895569299</ele>
        <time>2018-11-02T10:07:03Z</time>
      </trkpt>
      <trkpt lat="43.57155" lon="5.27525">
        <ele>270.88339125012</ele>
        <time>2018-11-02T10:07:08Z</time>
      </trkpt>
      <trkpt lat="43.57153" lon="5.27522">
        <ele>270.98675283967</ele>
        <time>2018-11-02T10:07:15Z</time>
      </trkpt>
      <trkpt lat="43.5715" lon="5.27517">
        <ele>271.06149877148</ele>
        <time>2018-11-02T10:07:20Z</time>
      </trkpt>
      <trkpt lat="43.57147" lon="5.27513">
        <ele>271.14600933374</ele>
        <time>2018-11-02T10:07:26Z</time>
      </trkpt>
      <trkpt lat="43.57144" lon="5.2751">
        <ele>271.20069622347</ele>
        <time>2018-11-02T10:07:30Z</time>
      </trkpt>
      <trkpt lat="43.57142" lon="5.27506">
        <ele>271.25432043528</ele>
        <time>2018-11-02T10:07:34Z</time>
      </trkpt>
      <trkpt lat="43.5714" lon="5.27503">
        <ele>271.30748027581</ele>
        <time>2018-11-02T10:07:38Z</time>
      </trkpt>
      <trkpt lat="43.57136" lon="5.275">
        <ele>271.34617296464</ele>
        <time>2018-11-02T10:07:41Z</time>
      </trkpt>
      <trkpt lat="43.57133" lon="5.27496">
        <ele>271.3943476164</ele>
        <time>2018-11-02T10:07:45Z</time>
      </trkpt>
      <trkpt lat="43.57128" lon="5.27491">
        <ele>271.441385365</ele>
        <time>2018-11-02T10:07:49Z</time>
      </trkpt>
      <trkpt lat="43.57123" lon="5.27486">
        <ele>271.50205286667</ele>
        <time>2018-11-02T10:07:54Z</time>
      </trkpt>
      <trkpt lat="43.5712" lon="5.27483">
        <ele>271.56123067635</ele>
        <time>2018-11-02T10:07:59Z</time>
      </trkpt>
      <trkpt lat="43.57117" lon="5.2748">
        <ele>271.60278125966</ele>
        <time>2018-11-02T10:08:03Z</time>
      </trkpt>
      <trkpt lat="43.57115" lon="5.27476">
        <ele>271.64106417391</ele>
        <time>2018-11-02T10:08:07Z</time>
      </trkpt>
      <trkpt lat="43.57112" lon="5.27473">
        <ele>271.66954445338</ele>
        <time>2018-11-02T10:08:10Z</time>
      </trkpt>
      <trkpt lat="43.57109" lon="5.27468">
        <ele>271.71292615412</ele>
        <time>2018-11-02T10:08:15Z</time>
      </trkpt>
      <trkpt lat="43.57106" lon="5.27461">
        <ele>271.74901931475</ele>
        <time>2018-11-02T10:08:19Z</time>
      </trkpt>
      <trkpt lat="43.57104" lon="5.27454">
        <ele>271.78694766368</ele>
        <time>2018-11-02T10:08:23Z</time>
      </trkpt>
      <trkpt lat="43.57103" lon="5.2745">
        <ele>271.82361300292</ele>
        <time>2018-11-02T10:08:27Z</time>
      </trkpt>
      <trkpt lat="43.571" lon="5.27445">
        <ele>271.86391676243</ele>
        <time>2018-11-02T10:08:32Z</time>
      </trkpt>
      <trkpt lat="43.57098" lon="5.27441">
        <ele>271.89265511975</ele>
        <time>2018-11-02T10:08:36Z</time>
      </trkpt>
      <trkpt lat="43.57094" lon="5.27437">
        <ele>271.92320922481</ele>
        <time>2018-11-02T10:08:40Z</time>
      </trkpt>
      <trkpt lat="43.5709" lon="5.27433">
        <ele>271.9541236166</ele>
        <time>2018-11-02T10:08:44Z</time>
      </trkpt>
      <trkpt lat="43.57086" lon="5.27428">
        <ele>271.98500430119</ele>
        <time>2018-11-02T10:08:48Z</time>
      </trkpt>
      <trkpt lat="43.57082" lon="5.27423">
        <ele>272.01514444534</ele>
        <time>2018-11-02T10:08:52Z</time>
      </trkpt>
      <trkpt lat="43.57077" lon="5.27417">
        <ele>272.05397602907</ele>
        <time>2018-11-02T10:08:57Z</time>
      </trkpt>
      <trkpt lat="43.57074" lon="5.27414">
        <ele>272.08377373724</ele>
        <time>2018-11-02T10:09:01Z</time>
      </trkpt>
      <trkpt lat="43.5707" lon="5.27411">
        <ele>272.1127999391</ele>
        <time>2018-11-02T10:09:05Z</time>
      </trkpt>
      <trkpt lat="43.57067" lon="5.27408">
        <ele>272.1413649796</ele>
        <time>2018-11-02T10:09:09Z</time>
      </trkpt>
      <trkpt lat="43.57063" lon="5.27406">
        <ele>272.17459558043</ele>
        <time>2018-11-02T10:09:14Z</time>
      </trkpt>
      <trkpt lat="43.57059" lon="5.27404">
        <ele>272.20169769595</ele>
        <time>2018-11-02T10:09:18Z</time>
      </trkpt>
      <trkpt lat="43.57055" lon="5.27401">
        <ele>272.23905570762</ele>
        <time>2018-11-02T10:09:23Z</time>
      </trkpt>
      <trkpt lat="43.57052" lon="5.27397">
        <ele>272.27030213086</ele>
        <time>2018-11-02T10:09:28Z</time>
      </trkpt>
      <trkpt lat="43.57049" lon="5.27394">
        <ele>272.29350475785</ele>
        <time>2018-11-02T10:09:33Z</time>
      </trkpt>
      <trkpt lat="43.57045" lon="5.27391">
        <ele>272.30706014759</ele>
        <time>2018-11-02T10:09:36Z</time>
      </trkpt>
      <trkpt lat="43.57038" lon="5.27387">
        <ele>272.33335981445</ele>
        <time>2018-11-02T10:09:41Z</time>
      </trkpt>
      <trkpt lat="43.57033" lon="5.27384">
        <ele>272.35519498158</ele>
        <time>2018-11-02T10:09:45Z</time>
      </trkpt>
      <trkpt lat="43.57029" lon="5.2738">
        <ele>272.37466528002</ele>
        <time>2018-11-02T10:09:49Z</time>
      </trkpt>
      <trkpt lat="43.57023" lon="5.27376">
        <ele>272.39235523677</ele>
        <time>2018-11-02T10:09:54Z</time>
      </trkpt>
      <trkpt lat="43.57019" lon="5.27372">
        <ele>272.40134630242</ele>
        <time>2018-11-02T10:09:58Z</time>
      </trkpt>
      <trkpt lat="43.57016" lon="5.2737">
        <ele>272.40495387874</ele>
        <time>2018-11-02T10:10:01Z</time>
      </trkpt>
      <trkpt lat="43.57012" lon="5.27368">
        <ele>272.40696465563</ele>
        <time>2018-11-02T10:10:05Z</time>
      </trkpt>
      <trkpt lat="43.57006" lon="5.27366">
        <ele>272.40897738096</ele>
        <time>2018-11-02T10:10:09Z</time>
      </trkpt>
      <trkpt lat="43.57003" lon="5.27365">
        <ele>272.40979893932</ele>
        <time>2018-11-02T10:10:12Z</time>
      </trkpt>
      <trkpt lat="43.56998" lon="5.27361">
        <ele>272.40979212685</ele>
        <time>2018-11-02T10:10:17Z</time>
      </trkpt>
      <trkpt lat="43.56995" lon="5.27357">
        <ele>272.4105550521</ele>
        <time>2018-11-02T10:10:20Z</time>
      </trkpt>
      <trkpt lat="43.56991" lon="5.27353">
        <ele>272.41407942878</ele>
        <time>2018-11-02T10:10:24Z</time>
      </trkpt>
      <trkpt lat="43.56988" lon="5.2735">
        <ele>272.4182974626</ele>
        <time>2018-11-02T10:10:28Z</time>
      </trkpt>
      <trkpt lat="43.56985" lon="5.27347">
        <ele>272.42292667266</ele>
        <time>2018-11-02T10:10:33Z</time>
      </trkpt>
      <trkpt lat="43.5698" lon="5.27344">
        <ele>272.42970811975</ele>
        <time>2018-11-02T10:10:38Z</time>
      </trkpt>
      <trkpt lat="43.56976" lon="5.27341">
        <ele>272.43570986688</ele>
        <time>2018-11-02T10:10:43Z</time>
      </trkpt>
      <trkpt lat="43.56973" lon="5.27339">
        <ele>272.4428880661</ele>
        <time>2018-11-02T10:10:46Z</time>
      </trkpt>
      <trkpt lat="43.56968" lon="5.27336">
        <ele>272.45598768433</ele>
        <time>2018-11-02T10:10:50Z</time>
      </trkpt>
      <trkpt lat="43.56966" lon="5.27333">
        <ele>272.46869248545</ele>
        <time>2018-11-02T10:10:54Z</time>
      </trkpt>
      <trkpt lat="43.56962" lon="5.27331">
        <ele>272.48703117777</ele>
        <time>2018-11-02T10:10:59Z</time>
      </trkpt>
      <trkpt lat="43.56957" lon="5.27329">
        <ele>272.50392078256</ele>
        <time>2018-11-02T10:11:04Z</time>
      </trkpt>
      <trkpt lat="43.56952" lon="5.27325">
        <ele>272.50856213028</ele>
        <time>2018-11-02T10:11:07Z</time>
      </trkpt>
      <trkpt lat="43.56948" lon="5.27321">
        <ele>272.51057181812</ele>
        <time>2018-11-02T10:11:11Z</time>
      </trkpt>
      <trkpt lat="43.56943" lon="5.27316">
        <ele>272.504872109</ele>
        <time>2018-11-02T10:11:15Z</time>
      </trkpt>
      <trkpt lat="43.56939" lon="5.27314">
        <ele>272.49320189064</ele>
        <time>2018-11-02T10:11:19Z</time>
      </trkpt>
      <trkpt lat="43.56934" lon="5.27311">
        <ele>272.47554607857</ele>
        <time>2018-11-02T10:11:23Z</time>
      </trkpt>
      <trkpt lat="43.56927" lon="5.27308">
        <ele>272.44441794856</ele>
        <time>2018-11-02T10:11:28Z</time>
      </trkpt>
      <trkpt lat="43.56922" lon="5.27306">
        <ele>272.41558613246</ele>
        <time>2018-11-02T10:11:32Z</time>
      </trkpt>
      <trkpt lat="43.56917" lon="5.27303">
        <ele>272.3759043757</ele>
        <time>2018-11-02T10:11:37Z</time>
      </trkpt>
      <trkpt lat="43.56914" lon="5.27301">
        <ele>272.34018621492</ele>
        <time>2018-11-02T10:11:41Z</time>
      </trkpt>
      <trkpt lat="43.56912" lon="5.27298">
        <ele>272.3121198613</ele>
        <time>2018-11-02T10:11:44Z</time>
      </trkpt>
      <trkpt lat="43.56907" lon="5.27295">
        <ele>272.264231276</ele>
        <time>2018-11-02T10:11:49Z</time>
      </trkpt>
      <trkpt lat="43.56903" lon="5.27293">
        <ele>272.22561186008</ele>
        <time>2018-11-02T10:11:53Z</time>
      </trkpt>
      <trkpt lat="43.56899" lon="5.27291">
        <ele>272.19785383233</ele>
        <time>2018-11-02T10:11:56Z</time>
      </trkpt>
      <trkpt lat="43.56897" lon="5.27288">
        <ele>272.13263065217</ele>
        <time>2018-11-02T10:12:08Z</time>
      </trkpt>
      <trkpt lat="43.56894" lon="5.27292">
        <ele>272.05011673731</ele>
        <time>2018-11-02T10:12:44Z</time>
      </trkpt>
      <trkpt lat="43.56891" lon="5.27288">
        <ele>270.56654202684</ele>
        <time>2018-11-02T10:17:48Z</time>
      </trkpt>
      <trkpt lat="43.56889" lon="5.27284">
        <ele>270.36801582376</ele>
        <time>2018-11-02T10:17:55Z</time>
      </trkpt>
      <trkpt lat="43.56887" lon="5.2728">
        <ele>270.28699766917</ele>
        <time>2018-11-02T10:17:58Z</time>
      </trkpt>
      <trkpt lat="43.56883" lon="5.27275">
        <ele>270.15714783678</ele>
        <time>2018-11-02T10:18:03Z</time>
      </trkpt>
      <trkpt lat="43.56881" lon="5.27271">
        <ele>269.98819045935</ele>
        <time>2018-11-02T10:18:11Z</time>
      </trkpt>
      <trkpt lat="43.5688" lon="5.27263">
        <ele>269.87996544258</ele>
        <time>2018-11-02T10:18:16Z</time>
      </trkpt>
      <trkpt lat="43.56879" lon="5.27259">
        <ele>269.8180836874</ele>
        <time>2018-11-02T10:18:19Z</time>
      </trkpt>
      <trkpt lat="43.56876" lon="5.27255">
        <ele>269.70371089805</ele>
        <time>2018-11-02T10:18:25Z</time>
      </trkpt>
      <trkpt lat="43.56873" lon="5.27253">
        <ele>269.63269374634</ele>
        <time>2018-11-02T10:18:29Z</time>
      </trkpt>
      <trkpt lat="43.56868" lon="5.27251">
        <ele>269.55093204595</ele>
        <time>2018-11-02T10:18:34Z</time>
      </trkpt>
      <trkpt lat="43.56864" lon="5.27247">
        <ele>269.49132462115</ele>
        <time>2018-11-02T10:18:38Z</time>
      </trkpt>
      <trkpt lat="43.56861" lon="5.27242">
        <ele>269.43611390041</ele>
        <time>2018-11-02T10:18:44Z</time>
      </trkpt>
      <trkpt lat="43.56858" lon="5.27235">
        <ele>269.38704383681</ele>
        <time>2018-11-02T10:18:49Z</time>
      </trkpt>
      <trkpt lat="43.56855" lon="5.27229">
        <ele>269.34006838085</ele>
        <time>2018-11-02T10:18:53Z</time>
      </trkpt>
      <trkpt lat="43.56853" lon="5.27222">
        <ele>269.29145947012</ele>
        <time>2018-11-02T10:18:57Z</time>
      </trkpt>
      <trkpt lat="43.5685" lon="5.27216">
        <ele>269.23169675658</ele>
        <time>2018-11-02T10:19:02Z</time>
      </trkpt>
      <trkpt lat="43.56846" lon="5.27211">
        <ele>269.18190059183</ele>
        <time>2018-11-02T10:19:06Z</time>
      </trkpt>
      <trkpt lat="43.56842" lon="5.27207">
        <ele>269.1283860274</ele>
        <time>2018-11-02T10:19:10Z</time>
      </trkpt>
      <trkpt lat="43.56839" lon="5.27205">
        <ele>269.07230054065</ele>
        <time>2018-11-02T10:19:14Z</time>
      </trkpt>
      <trkpt lat="43.56835" lon="5.27202">
        <ele>269.00305448592</ele>
        <time>2018-11-02T10:19:19Z</time>
      </trkpt>
      <trkpt lat="43.56832" lon="5.27199">
        <ele>268.9328769493</ele>
        <time>2018-11-02T10:19:24Z</time>
      </trkpt>
      <trkpt lat="43.56829" lon="5.27196">
        <ele>268.87719079183</ele>
        <time>2018-11-02T10:19:28Z</time>
      </trkpt>
      <trkpt lat="43.56825" lon="5.27194">
        <ele>268.82241711638</ele>
        <time>2018-11-02T10:19:32Z</time>
      </trkpt>
      <trkpt lat="43.56821" lon="5.27193">
        <ele>268.75355270536</ele>
        <time>2018-11-02T10:19:37Z</time>
      </trkpt>
      <trkpt lat="43.56818" lon="5.27191">
        <ele>268.6992244059</ele>
        <time>2018-11-02T10:19:41Z</time>
      </trkpt>
      <trkpt lat="43.56815" lon="5.27189">
        <ele>268.65949607221</ele>
        <time>2018-11-02T10:19:44Z</time>
      </trkpt>
      <trkpt lat="43.56811" lon="5.27186">
        <ele>268.60827207171</ele>
        <time>2018-11-02T10:19:48Z</time>
      </trkpt>
      <trkpt lat="43.56809" lon="5.27183">
        <ele>268.56013289692</ele>
        <time>2018-11-02T10:19:52Z</time>
      </trkpt>
      <trkpt lat="43.56807" lon="5.27179">
        <ele>268.50889905168</ele>
        <time>2018-11-02T10:19:56Z</time>
      </trkpt>
      <trkpt lat="43.56805" lon="5.27175">
        <ele>268.46603419893</ele>
        <time>2018-11-02T10:19:59Z</time>
      </trkpt>
      <trkpt lat="43.56803" lon="5.27168">
        <ele>268.39067096052</ele>
        <time>2018-11-02T10:20:04Z</time>
      </trkpt>
      <trkpt lat="43.56802" lon="5.27163">
        <ele>268.34480721502</ele>
        <time>2018-11-02T10:20:07Z</time>
      </trkpt>
      <trkpt lat="43.56802" lon="5.27157">
        <ele>268.28363274154</ele>
        <time>2018-11-02T10:20:11Z</time>
      </trkpt>
      <trkpt lat="43.56803" lon="5.27148">
        <ele>268.20684666186</ele>
        <time>2018-11-02T10:20:16Z</time>
      </trkpt>
      <trkpt lat="43.56804" lon="5.27142">
        <ele>268.13486776684</ele>
        <time>2018-11-02T10:20:21Z</time>
      </trkpt>
      <trkpt lat="43.56805" lon="5.27135">
        <ele>268.07993632493</ele>
        <time>2018-11-02T10:20:25Z</time>
      </trkpt>
      <trkpt lat="43.56807" lon="5.27129">
        <ele>268.02507645269</ele>
        <time>2018-11-02T10:20:29Z</time>
      </trkpt>
      <trkpt lat="43.56808" lon="5.27124">
        <ele>267.95558832084</ele>
        <time>2018-11-02T10:20:34Z</time>
      </trkpt>
      <trkpt lat="43.5681" lon="5.27117">
        <ele>267.88755004195</ele>
        <time>2018-11-02T10:20:39Z</time>
      </trkpt>
      <trkpt lat="43.56811" lon="5.27111">
        <ele>267.8329470777</ele>
        <time>2018-11-02T10:20:43Z</time>
      </trkpt>
      <trkpt lat="43.56813" lon="5.27107">
        <ele>267.77898238186</ele>
        <time>2018-11-02T10:20:47Z</time>
      </trkpt>
      <trkpt lat="43.56815" lon="5.271">
        <ele>267.71018903795</ele>
        <time>2018-11-02T10:20:52Z</time>
      </trkpt>
      <trkpt lat="43.56816" lon="5.27095">
        <ele>267.61164178228</ele>
        <time>2018-11-02T10:20:59Z</time>
      </trkpt>
      <trkpt lat="43.56816" lon="5.27089">
        <ele>267.54439006155</ele>
        <time>2018-11-02T10:21:04Z</time>
      </trkpt>
      <trkpt lat="43.56814" lon="5.27082">
        <ele>267.49456282297</ele>
        <time>2018-11-02T10:21:08Z</time>
      </trkpt>
      <trkpt lat="43.56812" lon="5.27076">
        <ele>267.44992450935</ele>
        <time>2018-11-02T10:21:12Z</time>
      </trkpt>
      <trkpt lat="43.56812" lon="5.27071">
        <ele>267.39681161372</ele>
        <time>2018-11-02T10:21:17Z</time>
      </trkpt>
      <trkpt lat="43.56811" lon="5.27066">
        <ele>267.34424591579</ele>
        <time>2018-11-02T10:21:22Z</time>
      </trkpt>
      <trkpt lat="43.56812" lon="5.2706">
        <ele>267.29824174354</ele>
        <time>2018-11-02T10:21:27Z</time>
      </trkpt>
      <trkpt lat="43.56812" lon="5.27054">
        <ele>267.23707609206</ele>
        <time>2018-11-02T10:21:38Z</time>
      </trkpt>
      <trkpt lat="43.56812" lon="5.2705">
        <ele>267.19765745486</ele>
        <time>2018-11-02T10:21:41Z</time>
      </trkpt>
      <trkpt lat="43.56812" lon="5.27045">
        <ele>267.14517863294</ele>
        <time>2018-11-02T10:21:45Z</time>
      </trkpt>
      <trkpt lat="43.56813" lon="5.27038">
        <ele>267.08055423981</ele>
        <time>2018-11-02T10:21:50Z</time>
      </trkpt>
      <trkpt lat="43.56812" lon="5.27033">
        <ele>267.04272909984</ele>
        <time>2018-11-02T10:21:53Z</time>
      </trkpt>
      <trkpt lat="43.56813" lon="5.27025">
        <ele>266.98182750106</ele>
        <time>2018-11-02T10:21:58Z</time>
      </trkpt>
      <trkpt lat="43.56815" lon="5.27019">
        <ele>266.93337590189</ele>
        <time>2018-11-02T10:22:02Z</time>
      </trkpt>
      <trkpt lat="43.56816" lon="5.27012">
        <ele>266.88797412789</ele>
        <time>2018-11-02T10:22:06Z</time>
      </trkpt>
      <trkpt lat="43.56817" lon="5.27006">
        <ele>266.84444958656</ele>
        <time>2018-11-02T10:22:10Z</time>
      </trkpt>
      <trkpt lat="43.56819" lon="5.26998">
        <ele>266.79060728786</ele>
        <time>2018-11-02T10:22:15Z</time>
      </trkpt>
      <trkpt lat="43.5682" lon="5.26994">
        <ele>266.75893581029</ele>
        <time>2018-11-02T10:22:18Z</time>
      </trkpt>
      <trkpt lat="43.56821" lon="5.26988">
        <ele>266.71749416659</ele>
        <time>2018-11-02T10:22:22Z</time>
      </trkpt>
      <trkpt lat="43.56822" lon="5.26982">
        <ele>266.67694651076</ele>
        <time>2018-11-02T10:22:26Z</time>
      </trkpt>
      <trkpt lat="43.56823" lon="5.26974">
        <ele>266.62737233596</ele>
        <time>2018-11-02T10:22:31Z</time>
      </trkpt>
      <trkpt lat="43.56824" lon="5.26968">
        <ele>266.58682336718</ele>
        <time>2018-11-02T10:22:35Z</time>
      </trkpt>
      <trkpt lat="43.56825" lon="5.26964">
        <ele>266.55644132147</ele>
        <time>2018-11-02T10:22:38Z</time>
      </trkpt>
      <trkpt lat="43.56827" lon="5.26957">
        <ele>266.5170867442</ele>
        <time>2018-11-02T10:22:42Z</time>
      </trkpt>
      <trkpt lat="43.56828" lon="5.2695">
        <ele>266.47815081644</ele>
        <time>2018-11-02T10:22:46Z</time>
      </trkpt>
      <trkpt lat="43.56829" lon="5.26946">
        <ele>266.44900512984</ele>
        <time>2018-11-02T10:22:49Z</time>
      </trkpt>
      <trkpt lat="43.5683" lon="5.2694">
        <ele>266.40806200851</ele>
        <time>2018-11-02T10:22:53Z</time>
      </trkpt>
      <trkpt lat="43.56832" lon="5.26934">
        <ele>266.36536004434</ele>
        <time>2018-11-02T10:22:57Z</time>
      </trkpt>
      <trkpt lat="43.56833" lon="5.26928">
        <ele>266.32174476724</ele>
        <time>2018-11-02T10:23:01Z</time>
      </trkpt>
      <trkpt lat="43.56835" lon="5.26921">
        <ele>266.26279960885</ele>
        <time>2018-11-02T10:23:06Z</time>
      </trkpt>
      <trkpt lat="43.56837" lon="5.26916">
        <ele>266.21340709016</ele>
        <time>2018-11-02T10:23:10Z</time>
      </trkpt>
      <trkpt lat="43.56838" lon="5.26912">
        <ele>266.17737402131</ele>
        <time>2018-11-02T10:23:13Z</time>
      </trkpt>
      <trkpt lat="43.5684" lon="5.26906">
        <ele>266.13173476092</ele>
        <time>2018-11-02T10:23:17Z</time>
      </trkpt>
      <trkpt lat="43.56843" lon="5.26903">
        <ele>266.09864125478</ele>
        <time>2018-11-02T10:23:20Z</time>
      </trkpt>
      <trkpt lat="43.56844" lon="5.26899">
        <ele>266.04150021638</ele>
        <time>2018-11-02T10:23:25Z</time>
      </trkpt>
      <trkpt lat="43.56847" lon="5.26893">
        <ele>265.9800381905</ele>
        <time>2018-11-02T10:23:30Z</time>
      </trkpt>
      <trkpt lat="43.56848" lon="5.26889">
        <ele>265.94237867127</ele>
        <time>2018-11-02T10:23:33Z</time>
      </trkpt>
      <trkpt lat="43.56849" lon="5.26885">
        <ele>265.90583085191</ele>
        <time>2018-11-02T10:23:36Z</time>
      </trkpt>
      <trkpt lat="43.5685" lon="5.2688">
        <ele>265.86152052837</ele>
        <time>2018-11-02T10:23:40Z</time>
      </trkpt>
      <trkpt lat="43.56852" lon="5.26873">
        <ele>265.80960145779</ele>
        <time>2018-11-02T10:23:45Z</time>
      </trkpt>
      <trkpt lat="43.56855" lon="5.26868">
        <ele>265.76983298689</ele>
        <time>2018-11-02T10:23:49Z</time>
      </trkpt>
      <trkpt lat="43.56858" lon="5.26861">
        <ele>265.7258427232</ele>
        <time>2018-11-02T10:23:54Z</time>
      </trkpt>
      <trkpt lat="43.5686" lon="5.26857">
        <ele>265.70144258341</ele>
        <time>2018-11-02T10:23:57Z</time>
      </trkpt>
      <trkpt lat="43.56862" lon="5.26851">
        <ele>265.6695222316</ele>
        <time>2018-11-02T10:24:01Z</time>
      </trkpt>
      <trkpt lat="43.56865" lon="5.26846">
        <ele>265.63709920811</ele>
        <time>2018-11-02T10:24:05Z</time>
      </trkpt>
      <trkpt lat="43.56867" lon="5.26843">
        <ele>265.61211185254</ele>
        <time>2018-11-02T10:24:08Z</time>
      </trkpt>
      <trkpt lat="43.5687" lon="5.26837">
        <ele>265.57801680117</ele>
        <time>2018-11-02T10:24:12Z</time>
      </trkpt>
      <trkpt lat="43.56873" lon="5.26831">
        <ele>265.53557015558</ele>
        <time>2018-11-02T10:24:17Z</time>
      </trkpt>
      <trkpt lat="43.56875" lon="5.26827">
        <ele>265.50024704003</ele>
        <time>2018-11-02T10:24:21Z</time>
      </trkpt>
      <trkpt lat="43.56878" lon="5.26822">
        <ele>265.46449262948</ele>
        <time>2018-11-02T10:24:25Z</time>
      </trkpt>
      <trkpt lat="43.5688" lon="5.26815">
        <ele>265.41935463563</ele>
        <time>2018-11-02T10:24:30Z</time>
      </trkpt>
      <trkpt lat="43.56883" lon="5.26807">
        <ele>265.374966843</ele>
        <time>2018-11-02T10:24:35Z</time>
      </trkpt>
      <trkpt lat="43.56886" lon="5.26802">
        <ele>265.33936599286</ele>
        <time>2018-11-02T10:24:39Z</time>
      </trkpt>
      <trkpt lat="43.56889" lon="5.26794">
        <ele>265.29122031457</ele>
        <time>2018-11-02T10:24:44Z</time>
      </trkpt>
      <trkpt lat="43.56892" lon="5.26788">
        <ele>265.25064058734</ele>
        <time>2018-11-02T10:24:48Z</time>
      </trkpt>
      <trkpt lat="43.56894" lon="5.26784">
        <ele>265.21965007467</ele>
        <time>2018-11-02T10:24:51Z</time>
      </trkpt>
      <trkpt lat="43.56897" lon="5.26778">
        <ele>265.17964100569</ele>
        <time>2018-11-02T10:24:55Z</time>
      </trkpt>
      <trkpt lat="43.569" lon="5.2677">
        <ele>265.12820292197</ele>
        <time>2018-11-02T10:25:00Z</time>
      </trkpt>
      <trkpt lat="43.56903" lon="5.26763">
        <ele>265.07567319613</ele>
        <time>2018-11-02T10:25:05Z</time>
      </trkpt>
      <trkpt lat="43.56905" lon="5.26757">
        <ele>265.03546438264</ele>
        <time>2018-11-02T10:25:09Z</time>
      </trkpt>
      <trkpt lat="43.56907" lon="5.2675">
        <ele>264.98516798963</ele>
        <time>2018-11-02T10:25:14Z</time>
      </trkpt>
      <trkpt lat="43.56908" lon="5.26745">
        <ele>264.94469955341</ele>
        <time>2018-11-02T10:25:18Z</time>
      </trkpt>
      <trkpt lat="43.5691" lon="5.26741">
        <ele>264.91395229898</ele>
        <time>2018-11-02T10:25:21Z</time>
      </trkpt>
      <trkpt lat="43.56911" lon="5.26735">
        <ele>264.87086382917</ele>
        <time>2018-11-02T10:25:25Z</time>
      </trkpt>
      <trkpt lat="43.56912" lon="5.2673">
        <ele>264.82577005517</ele>
        <time>2018-11-02T10:25:29Z</time>
      </trkpt>
      <trkpt lat="43.56913" lon="5.26723">
        <ele>264.76685277287</ele>
        <time>2018-11-02T10:25:34Z</time>
      </trkpt>
      <trkpt lat="43.56915" lon="5.26716">
        <ele>264.71704491894</ele>
        <time>2018-11-02T10:25:38Z</time>
      </trkpt>
      <trkpt lat="43.56916" lon="5.2671">
        <ele>264.67825634978</ele>
        <time>2018-11-02T10:25:41Z</time>
      </trkpt>
      <trkpt lat="43.56917" lon="5.26703">
        <ele>264.62413603136</ele>
        <time>2018-11-02T10:25:45Z</time>
      </trkpt>
      <trkpt lat="43.56918" lon="5.26696">
        <ele>264.56748460005</ele>
        <time>2018-11-02T10:25:49Z</time>
      </trkpt>
      <trkpt lat="43.56921" lon="5.26689">
        <ele>264.49610769486</ele>
        <time>2018-11-02T10:25:54Z</time>
      </trkpt>
      <trkpt lat="43.56923" lon="5.26684">
        <ele>264.43978916129</ele>
        <time>2018-11-02T10:25:58Z</time>
      </trkpt>
      <trkpt lat="43.56925" lon="5.26676">
        <ele>264.36929376287</ele>
        <time>2018-11-02T10:26:03Z</time>
      </trkpt>
      <trkpt lat="43.56927" lon="5.26671">
        <ele>264.3125400152</ele>
        <time>2018-11-02T10:26:07Z</time>
      </trkpt>
      <trkpt lat="43.56927" lon="5.26666">
        <ele>264.26988731531</ele>
        <time>2018-11-02T10:26:10Z</time>
      </trkpt>
      <trkpt lat="43.56929" lon="5.26658">
        <ele>264.19976923348</ele>
        <time>2018-11-02T10:26:15Z</time>
      </trkpt>
      <trkpt lat="43.5693" lon="5.26653">
        <ele>264.15796202281</ele>
        <time>2018-11-02T10:26:18Z</time>
      </trkpt>
      <trkpt lat="43.5693" lon="5.26646">
        <ele>264.10302861879</ele>
        <time>2018-11-02T10:26:22Z</time>
      </trkpt>
      <trkpt lat="43.56931" lon="5.26641">
        <ele>264.06252288311</ele>
        <time>2018-11-02T10:26:25Z</time>
      </trkpt>
      <trkpt lat="43.56932" lon="5.26634">
        <ele>264.00889264457</ele>
        <time>2018-11-02T10:26:29Z</time>
      </trkpt>
      <trkpt lat="43.56934" lon="5.26626">
        <ele>263.94055760594</ele>
        <time>2018-11-02T10:26:34Z</time>
      </trkpt>
      <trkpt lat="43.56935" lon="5.2662">
        <ele>263.8987818606</ele>
        <time>2018-11-02T10:26:37Z</time>
      </trkpt>
      <trkpt lat="43.56935" lon="5.26614">
        <ele>263.84173462572</ele>
        <time>2018-11-02T10:26:41Z</time>
      </trkpt>
      <trkpt lat="43.56937" lon="5.26605">
        <ele>263.76616486424</ele>
        <time>2018-11-02T10:26:46Z</time>
      </trkpt>
      <trkpt lat="43.56937" lon="5.26599">
        <ele>263.7196253705</ele>
        <time>2018-11-02T10:26:49Z</time>
      </trkpt>
      <trkpt lat="43.56938" lon="5.26591">
        <ele>263.64084312995</ele>
        <time>2018-11-02T10:26:54Z</time>
      </trkpt>
      <trkpt lat="43.56939" lon="5.26584">
        <ele>263.57659438253</ele>
        <time>2018-11-02T10:26:58Z</time>
      </trkpt>
      <trkpt lat="43.56941" lon="5.26576">
        <ele>263.49820708407</ele>
        <time>2018-11-02T10:27:03Z</time>
      </trkpt>
      <trkpt lat="43.56942" lon="5.26571">
        <ele>263.43926762871</ele>
        <time>2018-11-02T10:27:07Z</time>
      </trkpt>
      <trkpt lat="43.56943" lon="5.26567">
        <ele>263.39643426385</ele>
        <time>2018-11-02T10:27:10Z</time>
      </trkpt>
      <trkpt lat="43.56945" lon="5.2656">
        <ele>263.34086219314</ele>
        <time>2018-11-02T10:27:14Z</time>
      </trkpt>
      <trkpt lat="43.56947" lon="5.26554">
        <ele>263.28757208842</ele>
        <time>2018-11-02T10:27:18Z</time>
      </trkpt>
      <trkpt lat="43.56948" lon="5.2655">
        <ele>263.23477733763</ele>
        <time>2018-11-02T10:27:22Z</time>
      </trkpt>
      <trkpt lat="43.5695" lon="5.26544">
        <ele>263.17070214165</ele>
        <time>2018-11-02T10:27:27Z</time>
      </trkpt>
      <trkpt lat="43.56951" lon="5.26539">
        <ele>263.13366867463</ele>
        <time>2018-11-02T10:27:30Z</time>
      </trkpt>
      <trkpt lat="43.56953" lon="5.26532">
        <ele>263.08449893391</ele>
        <time>2018-11-02T10:27:34Z</time>
      </trkpt>
      <trkpt lat="43.56955" lon="5.26526">
        <ele>263.03600501152</ele>
        <time>2018-11-02T10:27:38Z</time>
      </trkpt>
      <trkpt lat="43.56955" lon="5.26519">
        <ele>262.98746644085</ele>
        <time>2018-11-02T10:27:42Z</time>
      </trkpt>
      <trkpt lat="43.56957" lon="5.26511">
        <ele>262.9286121215</ele>
        <time>2018-11-02T10:27:47Z</time>
      </trkpt>
      <trkpt lat="43.56958" lon="5.26505">
        <ele>262.88344474881</ele>
        <time>2018-11-02T10:27:51Z</time>
      </trkpt>
      <trkpt lat="43.56959" lon="5.26499">
        <ele>262.83926878794</ele>
        <time>2018-11-02T10:27:55Z</time>
      </trkpt>
      <trkpt lat="43.5696" lon="5.26493">
        <ele>262.79305803245</ele>
        <time>2018-11-02T10:27:59Z</time>
      </trkpt>
      <trkpt lat="43.56961" lon="5.26486">
        <ele>262.74576525406</ele>
        <time>2018-11-02T10:28:03Z</time>
      </trkpt>
      <trkpt lat="43.56962" lon="5.26481">
        <ele>262.71015020367</ele>
        <time>2018-11-02T10:28:06Z</time>
      </trkpt>
      <trkpt lat="43.56963" lon="5.26475">
        <ele>262.66270244544</ele>
        <time>2018-11-02T10:28:10Z</time>
      </trkpt>
      <trkpt lat="43.56965" lon="5.26469">
        <ele>262.61404606264</ele>
        <time>2018-11-02T10:28:14Z</time>
      </trkpt>
      <trkpt lat="43.56969" lon="5.26467">
        <ele>262.49820019999</ele>
        <time>2018-11-02T10:28:23Z</time>
      </trkpt>
      <trkpt lat="43.56971" lon="5.26466">
        <ele>262.45451665585</ele>
        <time>2018-11-02T10:28:26Z</time>
      </trkpt>
      <trkpt lat="43.56976" lon="5.26463">
        <ele>262.3762994704</ele>
        <time>2018-11-02T10:28:31Z</time>
      </trkpt>
      <trkpt lat="43.5698" lon="5.26463">
        <ele>262.29617213859</ele>
        <time>2018-11-02T10:28:36Z</time>
      </trkpt>
      <trkpt lat="43.56984" lon="5.26462">
        <ele>262.23212174754</ele>
        <time>2018-11-02T10:28:40Z</time>
      </trkpt>
      <trkpt lat="43.5699" lon="5.2646">
        <ele>262.14957300927</ele>
        <time>2018-11-02T10:28:45Z</time>
      </trkpt>
      <trkpt lat="43.56994" lon="5.26458">
        <ele>262.05006725595</ele>
        <time>2018-11-02T10:28:51Z</time>
      </trkpt>
      <trkpt lat="43.56997" lon="5.2646">
        <ele>261.95301258145</ele>
        <time>2018-11-02T10:29:04Z</time>
      </trkpt>
      <trkpt lat="43.57001" lon="5.26462">
        <ele>261.84848653831</ele>
        <time>2018-11-02T10:29:09Z</time>
      </trkpt>
      <trkpt lat="43.57005" lon="5.26463">
        <ele>261.74758568417</ele>
        <time>2018-11-02T10:29:14Z</time>
      </trkpt>
      <trkpt lat="43.57009" lon="5.26463">
        <ele>261.66881873898</ele>
        <time>2018-11-02T10:29:18Z</time>
      </trkpt>
      <trkpt lat="43.57013" lon="5.26462">
        <ele>261.57329763609</ele>
        <time>2018-11-02T10:29:23Z</time>
      </trkpt>
      <trkpt lat="43.57017" lon="5.26462">
        <ele>261.49649439005</ele>
        <time>2018-11-02T10:29:27Z</time>
      </trkpt>
      <trkpt lat="43.57022" lon="5.26464">
        <ele>261.42058927508</ele>
        <time>2018-11-02T10:29:31Z</time>
      </trkpt>
      <trkpt lat="43.57028" lon="5.26465">
        <ele>261.32786924781</ele>
        <time>2018-11-02T10:29:36Z</time>
      </trkpt>
      <trkpt lat="43.57033" lon="5.26463">
        <ele>261.24043959146</ele>
        <time>2018-11-02T10:29:41Z</time>
      </trkpt>
      <trkpt lat="43.57037" lon="5.26462">
        <ele>261.15690777519</ele>
        <time>2018-11-02T10:29:46Z</time>
      </trkpt>
      <trkpt lat="43.5704" lon="5.2646">
        <ele>261.09241054652</ele>
        <time>2018-11-02T10:29:50Z</time>
      </trkpt>
      <trkpt lat="43.57043" lon="5.26458">
        <ele>261.02917227982</ele>
        <time>2018-11-02T10:29:54Z</time>
      </trkpt>
      <trkpt lat="43.57046" lon="5.26453">
        <ele>260.95188929025</ele>
        <time>2018-11-02T10:29:59Z</time>
      </trkpt>
      <trkpt lat="43.57048" lon="5.26449">
        <ele>260.8172311799</ele>
        <time>2018-11-02T10:30:11Z</time>
      </trkpt>
      <trkpt lat="43.57051" lon="5.26445">
        <ele>260.74460843669</ele>
        <time>2018-11-02T10:30:15Z</time>
      </trkpt>
      <trkpt lat="43.57051" lon="5.26441">
        <ele>260.68766969282</ele>
        <time>2018-11-02T10:30:18Z</time>
      </trkpt>
      <trkpt lat="43.57052" lon="5.26434">
        <ele>260.58645597463</ele>
        <time>2018-11-02T10:30:23Z</time>
      </trkpt>
      <trkpt lat="43.57053" lon="5.26431">
        <ele>260.5276921045</ele>
        <time>2018-11-02T10:30:26Z</time>
      </trkpt>
      <trkpt lat="43.57057" lon="5.26428">
        <ele>260.45062606562</ele>
        <time>2018-11-02T10:30:30Z</time>
      </trkpt>
      <trkpt lat="43.57059" lon="5.2643">
        <ele>260.16205425006</ele>
        <time>2018-11-02T10:31:12Z</time>
      </trkpt>
      <trkpt lat="43.57066" lon="5.26429">
        <ele>260.02134255562</ele>
        <time>2018-11-02T10:31:17Z</time>
      </trkpt>
      <trkpt lat="43.57069" lon="5.26427">
        <ele>259.91365121247</ele>
        <time>2018-11-02T10:31:21Z</time>
      </trkpt>
      <trkpt lat="43.57074" lon="5.26425">
        <ele>259.78058367893</ele>
        <time>2018-11-02T10:31:26Z</time>
      </trkpt>
      <trkpt lat="43.57077" lon="5.26422">
        <ele>259.60276460646</ele>
        <time>2018-11-02T10:31:33Z</time>
      </trkpt>
      <trkpt lat="43.5708" lon="5.2642">
        <ele>259.53065950876</ele>
        <time>2018-11-02T10:31:36Z</time>
      </trkpt>
      <trkpt lat="43.57085" lon="5.26418">
        <ele>259.41070501422</ele>
        <time>2018-11-02T10:31:41Z</time>
      </trkpt>
      <trkpt lat="43.57088" lon="5.26416">
        <ele>259.33913836127</ele>
        <time>2018-11-02T10:31:44Z</time>
      </trkpt>
      <trkpt lat="43.57093" lon="5.26414">
        <ele>259.2447351998</ele>
        <time>2018-11-02T10:31:48Z</time>
      </trkpt>
      <trkpt lat="43.57098" lon="5.26415">
        <ele>259.15106741983</ele>
        <time>2018-11-02T10:31:52Z</time>
      </trkpt>
      <trkpt lat="43.57103" lon="5.26413">
        <ele>259.03935135873</ele>
        <time>2018-11-02T10:31:57Z</time>
      </trkpt>
      <trkpt lat="43.57108" lon="5.26411">
        <ele>258.93193253157</ele>
        <time>2018-11-02T10:32:02Z</time>
      </trkpt>
      <trkpt lat="43.57112" lon="5.26408">
        <ele>258.83372056622</ele>
        <time>2018-11-02T10:32:07Z</time>
      </trkpt>
      <trkpt lat="43.57115" lon="5.26407">
        <ele>258.74419305315</ele>
        <time>2018-11-02T10:32:12Z</time>
      </trkpt>
      <trkpt lat="43.57119" lon="5.26405">
        <ele>258.59650984271</ele>
        <time>2018-11-02T10:32:23Z</time>
      </trkpt>
      <trkpt lat="43.57125" lon="5.26407">
        <ele>258.50820819157</ele>
        <time>2018-11-02T10:32:28Z</time>
      </trkpt>
      <trkpt lat="43.57129" lon="5.26406">
        <ele>258.44106896864</ele>
        <time>2018-11-02T10:32:32Z</time>
      </trkpt>
      <trkpt lat="43.57133" lon="5.26405">
        <ele>258.37810619333</ele>
        <time>2018-11-02T10:32:36Z</time>
      </trkpt>
      <trkpt lat="43.57138" lon="5.26403">
        <ele>258.31904816657</ele>
        <time>2018-11-02T10:32:40Z</time>
      </trkpt>
      <trkpt lat="43.57143" lon="5.26401">
        <ele>258.2491923005</ele>
        <time>2018-11-02T10:32:45Z</time>
      </trkpt>
      <trkpt lat="43.57147" lon="5.264">
        <ele>258.19474401112</ele>
        <time>2018-11-02T10:32:49Z</time>
      </trkpt>
      <trkpt lat="43.57151" lon="5.26398">
        <ele>258.14412403828</ele>
        <time>2018-11-02T10:32:53Z</time>
      </trkpt>
      <trkpt lat="43.57156" lon="5.26397">
        <ele>258.09755609497</ele>
        <time>2018-11-02T10:32:57Z</time>
      </trkpt>
      <trkpt lat="43.57159" lon="5.26397">
        <ele>258.06436523255</ele>
        <time>2018-11-02T10:33:00Z</time>
      </trkpt>
      <trkpt lat="43.57163" lon="5.26397">
        <ele>258.0219518025</ele>
        <time>2018-11-02T10:33:04Z</time>
      </trkpt>
      <trkpt lat="43.57168" lon="5.26395">
        <ele>257.98145891885</ele>
        <time>2018-11-02T10:33:08Z</time>
      </trkpt>
      <trkpt lat="43.5717" lon="5.26393">
        <ele>257.95196695674</ele>
        <time>2018-11-02T10:33:11Z</time>
      </trkpt>
      <trkpt lat="43.57174" lon="5.2639">
        <ele>257.91296995719</ele>
        <time>2018-11-02T10:33:15Z</time>
      </trkpt>
      <trkpt lat="43.5718" lon="5.26388">
        <ele>257.86743451963</ele>
        <time>2018-11-02T10:33:20Z</time>
      </trkpt>
      <trkpt lat="43.57184" lon="5.26386">
        <ele>257.83415090162</ele>
        <time>2018-11-02T10:33:24Z</time>
      </trkpt>
      <trkpt lat="43.57187" lon="5.26385">
        <ele>257.81212559141</ele>
        <time>2018-11-02T10:33:27Z</time>
      </trkpt>
      <trkpt lat="43.57191" lon="5.26382">
        <ele>257.77977027274</ele>
        <time>2018-11-02T10:33:32Z</time>
      </trkpt>
      <trkpt lat="43.57195" lon="5.26381">
        <ele>257.75002400268</ele>
        <time>2018-11-02T10:33:37Z</time>
      </trkpt>
      <trkpt lat="43.57197" lon="5.26381">
        <ele>257.73289306035</ele>
        <time>2018-11-02T10:33:40Z</time>
      </trkpt>
      <trkpt lat="43.57203" lon="5.2638">
        <ele>257.70583146974</ele>
        <time>2018-11-02T10:33:45Z</time>
      </trkpt>
      <trkpt lat="43.57208" lon="5.26379">
        <ele>257.68797857682</ele>
        <time>2018-11-02T10:33:49Z</time>
      </trkpt>
      <trkpt lat="43.57211" lon="5.26378">
        <ele>257.67798146694</ele>
        <time>2018-11-02T10:33:52Z</time>
      </trkpt>
      <trkpt lat="43.57216" lon="5.26376">
        <ele>257.66952969031</ele>
        <time>2018-11-02T10:33:56Z</time>
      </trkpt>
      <trkpt lat="43.57219" lon="5.26373">
        <ele>257.66591400505</ele>
        <time>2018-11-02T10:34:00Z</time>
      </trkpt>
      <trkpt lat="43.57223" lon="5.26372">
        <ele>257.66359934563</ele>
        <time>2018-11-02T10:34:05Z</time>
      </trkpt>
      <trkpt lat="43.57227" lon="5.2637">
        <ele>257.66513481611</ele>
        <time>2018-11-02T10:34:10Z</time>
      </trkpt>
      <trkpt lat="43.57231" lon="5.26371">
        <ele>257.66828201738</ele>
        <time>2018-11-02T10:34:14Z</time>
      </trkpt>
      <trkpt lat="43.57234" lon="5.2637">
        <ele>257.67539206241</ele>
        <time>2018-11-02T10:34:18Z</time>
      </trkpt>
      <trkpt lat="43.5724" lon="5.26369">
        <ele>257.69038817498</ele>
        <time>2018-11-02T10:34:22Z</time>
      </trkpt>
      <trkpt lat="43.57246" lon="5.26369">
        <ele>257.71691752515</ele>
        <time>2018-11-02T10:34:27Z</time>
      </trkpt>
      <trkpt lat="43.57248" lon="5.26368">
        <ele>257.73724513471</ele>
        <time>2018-11-02T10:34:30Z</time>
      </trkpt>
      <trkpt lat="43.57252" lon="5.26364">
        <ele>257.78099011532</ele>
        <time>2018-11-02T10:34:35Z</time>
      </trkpt>
      <trkpt lat="43.57255" lon="5.26361">
        <ele>257.81218360885</ele>
        <time>2018-11-02T10:34:38Z</time>
      </trkpt>
      <trkpt lat="43.57261" lon="5.26359">
        <ele>257.85656303754</ele>
        <time>2018-11-02T10:34:42Z</time>
      </trkpt>
      <trkpt lat="43.57265" lon="5.26357">
        <ele>257.89346002704</ele>
        <time>2018-11-02T10:34:45Z</time>
      </trkpt>
      <trkpt lat="43.57268" lon="5.26355">
        <ele>257.94248147087</ele>
        <time>2018-11-02T10:34:49Z</time>
      </trkpt>
      <trkpt lat="43.57272" lon="5.26353">
        <ele>257.9890098292</ele>
        <time>2018-11-02T10:34:53Z</time>
      </trkpt>
      <trkpt lat="43.57276" lon="5.26352">
        <ele>258.03392629491</ele>
        <time>2018-11-02T10:34:57Z</time>
      </trkpt>
      <trkpt lat="43.57279" lon="5.2635">
        <ele>258.06680829986</ele>
        <time>2018-11-02T10:35:00Z</time>
      </trkpt>
      <trkpt lat="43.57284" lon="5.2635">
        <ele>258.12414971465</ele>
        <time>2018-11-02T10:35:05Z</time>
      </trkpt>
      <trkpt lat="43.57288" lon="5.2635">
        <ele>258.16949745321</ele>
        <time>2018-11-02T10:35:09Z</time>
      </trkpt>
      <trkpt lat="43.57291" lon="5.26346">
        <ele>258.24873057909</ele>
        <time>2018-11-02T10:35:16Z</time>
      </trkpt>
      <trkpt lat="43.57296" lon="5.26343">
        <ele>258.3068830078</ele>
        <time>2018-11-02T10:35:21Z</time>
      </trkpt>
      <trkpt lat="43.573" lon="5.26343">
        <ele>258.35530702054</ele>
        <time>2018-11-02T10:35:25Z</time>
      </trkpt>
      <trkpt lat="43.57303" lon="5.26341">
        <ele>258.43378269743</ele>
        <time>2018-11-02T10:35:32Z</time>
      </trkpt>
      <trkpt lat="43.57307" lon="5.26339">
        <ele>258.47333416114</ele>
        <time>2018-11-02T10:35:36Z</time>
      </trkpt>
      <trkpt lat="43.57311" lon="5.26334">
        <ele>258.50924911701</ele>
        <time>2018-11-02T10:35:40Z</time>
      </trkpt>
      <trkpt lat="43.57315" lon="5.2633">
        <ele>258.54351985022</ele>
        <time>2018-11-02T10:35:44Z</time>
      </trkpt>
      <trkpt lat="43.57321" lon="5.26324">
        <ele>258.58531101399</ele>
        <time>2018-11-02T10:35:49Z</time>
      </trkpt>
      <trkpt lat="43.57324" lon="5.26321">
        <ele>258.61546657908</ele>
        <time>2018-11-02T10:35:53Z</time>
      </trkpt>
      <trkpt lat="43.57327" lon="5.26316">
        <ele>258.64846560366</ele>
        <time>2018-11-02T10:35:58Z</time>
      </trkpt>
      <trkpt lat="43.57331" lon="5.26313">
        <ele>258.67860307066</ele>
        <time>2018-11-02T10:36:03Z</time>
      </trkpt>
      <trkpt lat="43.57336" lon="5.26309">
        <ele>258.70123654942</ele>
        <time>2018-11-02T10:36:07Z</time>
      </trkpt>
      <trkpt lat="43.57341" lon="5.26306">
        <ele>258.7312286779</ele>
        <time>2018-11-02T10:36:12Z</time>
      </trkpt>
      <trkpt lat="43.57345" lon="5.26303">
        <ele>258.75603089752</ele>
        <time>2018-11-02T10:36:16Z</time>
      </trkpt>
      <trkpt lat="43.57349" lon="5.263">
        <ele>258.78130115512</ele>
        <time>2018-11-02T10:36:20Z</time>
      </trkpt>
      <trkpt lat="43.57353" lon="5.26298">
        <ele>258.80635972509</ele>
        <time>2018-11-02T10:36:24Z</time>
      </trkpt>
      <trkpt lat="43.57357" lon="5.26294">
        <ele>258.83007507424</ele>
        <time>2018-11-02T10:36:28Z</time>
      </trkpt>
      <trkpt lat="43.57363" lon="5.2629">
        <ele>258.85732883195</ele>
        <time>2018-11-02T10:36:33Z</time>
      </trkpt>
      <trkpt lat="43.57366" lon="5.26287">
        <ele>258.87856611073</ele>
        <time>2018-11-02T10:36:37Z</time>
      </trkpt>
      <trkpt lat="43.5737" lon="5.26283">
        <ele>258.89840489824</ele>
        <time>2018-11-02T10:36:41Z</time>
      </trkpt>
      <trkpt lat="43.57375" lon="5.2628">
        <ele>258.92339117524</ele>
        <time>2018-11-02T10:36:46Z</time>
      </trkpt>
      <trkpt lat="43.57379" lon="5.26276">
        <ele>258.94218459778</ele>
        <time>2018-11-02T10:36:50Z</time>
      </trkpt>
      <trkpt lat="43.57383" lon="5.26273">
        <ele>258.96054330402</ele>
        <time>2018-11-02T10:36:54Z</time>
      </trkpt>
      <trkpt lat="43.57386" lon="5.2627">
        <ele>258.97395341128</ele>
        <time>2018-11-02T10:36:57Z</time>
      </trkpt>
      <trkpt lat="43.57389" lon="5.26266">
        <ele>258.98954440824</ele>
        <time>2018-11-02T10:37:01Z</time>
      </trkpt>
      <trkpt lat="43.57394" lon="5.26262">
        <ele>259.0066090862</ele>
        <time>2018-11-02T10:37:06Z</time>
      </trkpt>
      <trkpt lat="43.57398" lon="5.26259">
        <ele>259.01873212347</ele>
        <time>2018-11-02T10:37:10Z</time>
      </trkpt>
      <trkpt lat="43.57401" lon="5.26255">
        <ele>259.02813528291</ele>
        <time>2018-11-02T10:37:14Z</time>
      </trkpt>
      <trkpt lat="43.57404" lon="5.26251">
        <ele>259.03377886331</ele>
        <time>2018-11-02T10:37:18Z</time>
      </trkpt>
      <trkpt lat="43.57407" lon="5.26248">
        <ele>259.03629815028</ele>
        <time>2018-11-02T10:37:21Z</time>
      </trkpt>
      <trkpt lat="43.5741" lon="5.26244">
        <ele>259.03874134116</ele>
        <time>2018-11-02T10:37:25Z</time>
      </trkpt>
      <trkpt lat="43.57415" lon="5.2624">
        <ele>259.03968119249</ele>
        <time>2018-11-02T10:37:30Z</time>
      </trkpt>
      <trkpt lat="43.57418" lon="5.26236">
        <ele>259.03887487731</ele>
        <time>2018-11-02T10:37:34Z</time>
      </trkpt>
      <trkpt lat="43.57423" lon="5.26232">
        <ele>259.03483738882</ele>
        <time>2018-11-02T10:37:39Z</time>
      </trkpt>
      <trkpt lat="43.57428" lon="5.26228">
        <ele>259.0313973</ele>
        <time>2018-11-02T10:37:44Z</time>
      </trkpt>
      <trkpt lat="43.57432" lon="5.26224">
        <ele>259.02871532045</ele>
        <time>2018-11-02T10:37:48Z</time>
      </trkpt>
      <trkpt lat="43.57434" lon="5.26221">
        <ele>259.02650674423</ele>
        <time>2018-11-02T10:37:51Z</time>
      </trkpt>
      <trkpt lat="43.57439" lon="5.26217">
        <ele>259.02218795344</ele>
        <time>2018-11-02T10:37:56Z</time>
      </trkpt>
      <trkpt lat="43.57442" lon="5.26215">
        <ele>259.01847642919</ele>
        <time>2018-11-02T10:38:00Z</time>
      </trkpt>
      <trkpt lat="43.57445" lon="5.26212">
        <ele>259.01583726279</ele>
        <time>2018-11-02T10:38:03Z</time>
      </trkpt>
      <trkpt lat="43.57449" lon="5.26209">
        <ele>259.01311758382</ele>
        <time>2018-11-02T10:38:07Z</time>
      </trkpt>
      <trkpt lat="43.57452" lon="5.26206">
        <ele>259.01344401205</ele>
        <time>2018-11-02T10:38:10Z</time>
      </trkpt>
      <trkpt lat="43.57456" lon="5.26202">
        <ele>259.01463758813</ele>
        <time>2018-11-02T10:38:14Z</time>
      </trkpt>
      <trkpt lat="43.57459" lon="5.26198">
        <ele>259.01833575102</ele>
        <time>2018-11-02T10:38:18Z</time>
      </trkpt>
      <trkpt lat="43.57463" lon="5.26198">
        <ele>259.02464391956</ele>
        <time>2018-11-02T10:38:24Z</time>
      </trkpt>
      <trkpt lat="43.57467" lon="5.26201">
        <ele>259.0266908409</ele>
        <time>2018-11-02T10:38:37Z</time>
      </trkpt>
      <trkpt lat="43.57467" lon="5.26207">
        <ele>259.00682081682</ele>
        <time>2018-11-02T10:39:45Z</time>
      </trkpt>
      <trkpt lat="43.57467" lon="5.26215">
        <ele>258.98562786066</ele>
        <time>2018-11-02T10:39:50Z</time>
      </trkpt>
      <trkpt lat="43.57467" lon="5.2622">
        <ele>258.96749166457</ele>
        <time>2018-11-02T10:39:54Z</time>
      </trkpt>
      <trkpt lat="43.57465" lon="5.26227">
        <ele>258.95043824904</ele>
        <time>2018-11-02T10:39:58Z</time>
      </trkpt>
      <trkpt lat="43.57463" lon="5.26233">
        <ele>258.92955570252</ele>
        <time>2018-11-02T10:40:03Z</time>
      </trkpt>
      <trkpt lat="43.57461" lon="5.26238">
        <ele>258.91065577702</ele>
        <time>2018-11-02T10:40:07Z</time>
      </trkpt>
      <trkpt lat="43.57459" lon="5.26243">
        <ele>258.88937009038</ele>
        <time>2018-11-02T10:40:11Z</time>
      </trkpt>
      <trkpt lat="43.57458" lon="5.26249">
        <ele>258.86632069664</ele>
        <time>2018-11-02T10:40:15Z</time>
      </trkpt>
      <trkpt lat="43.57457" lon="5.26253">
        <ele>258.84222968661</ele>
        <time>2018-11-02T10:40:19Z</time>
      </trkpt>
      <trkpt lat="43.57457" lon="5.26262">
        <ele>258.81494307519</ele>
        <time>2018-11-02T10:40:24Z</time>
      </trkpt>
      <trkpt lat="43.57456" lon="5.2627">
        <ele>258.7919333144</ele>
        <time>2018-11-02T10:40:29Z</time>
      </trkpt>
      <trkpt lat="43.57455" lon="5.26278">
        <ele>258.775306674</ele>
        <time>2018-11-02T10:40:34Z</time>
      </trkpt>
      <trkpt lat="43.57455" lon="5.26283">
        <ele>258.7657803664</ele>
        <time>2018-11-02T10:40:38Z</time>
      </trkpt>
      <trkpt lat="43.57454" lon="5.26288">
        <ele>258.75942022905</ele>
        <time>2018-11-02T10:40:42Z</time>
      </trkpt>
      <trkpt lat="43.57453" lon="5.26293">
        <ele>258.75485359576</ele>
        <time>2018-11-02T10:40:46Z</time>
      </trkpt>
      <trkpt lat="43.57452" lon="5.26299">
        <ele>258.75394380552</ele>
        <time>2018-11-02T10:40:51Z</time>
      </trkpt>
      <trkpt lat="43.57451" lon="5.26305">
        <ele>258.75759380257</ele>
        <time>2018-11-02T10:40:55Z</time>
      </trkpt>
      <trkpt lat="43.5745" lon="5.26311">
        <ele>258.76748663566</ele>
        <time>2018-11-02T10:41:00Z</time>
      </trkpt>
      <trkpt lat="43.57448" lon="5.26318">
        <ele>258.77998528802</ele>
        <time>2018-11-02T10:41:04Z</time>
      </trkpt>
      <trkpt lat="43.57448" lon="5.26325">
        <ele>258.80084888826</ele>
        <time>2018-11-02T10:41:09Z</time>
      </trkpt>
      <trkpt lat="43.57447" lon="5.26331">
        <ele>258.82366251063</ele>
        <time>2018-11-02T10:41:14Z</time>
      </trkpt>
      <trkpt lat="43.57445" lon="5.26337">
        <ele>258.84029321903</ele>
        <time>2018-11-02T10:41:18Z</time>
      </trkpt>
      <trkpt lat="43.57444" lon="5.26343">
        <ele>258.85995215497</ele>
        <time>2018-11-02T10:41:23Z</time>
      </trkpt>
      <trkpt lat="43.57444" lon="5.26348">
        <ele>258.8788435304</ele>
        <time>2018-11-02T10:41:28Z</time>
      </trkpt>
      <trkpt lat="43.57443" lon="5.26354">
        <ele>258.90070022775</ele>
        <time>2018-11-02T10:41:34Z</time>
      </trkpt>
      <trkpt lat="43.57442" lon="5.2636">
        <ele>258.91942516058</ele>
        <time>2018-11-02T10:41:40Z</time>
      </trkpt>
      <trkpt lat="43.57442" lon="5.26367">
        <ele>258.93283528045</ele>
        <time>2018-11-02T10:41:45Z</time>
      </trkpt>
      <trkpt lat="43.57443" lon="5.26372">
        <ele>258.94244034662</ele>
        <time>2018-11-02T10:41:49Z</time>
      </trkpt>
      <trkpt lat="43.57442" lon="5.26378">
        <ele>258.96292430632</ele>
        <time>2018-11-02T10:41:56Z</time>
      </trkpt>
      <trkpt lat="43.57441" lon="5.26384">
        <ele>258.98580559705</ele>
        <time>2018-11-02T10:42:02Z</time>
      </trkpt>
      <trkpt lat="43.57437" lon="5.26387">
        <ele>259.10621382529</ele>
        <time>2018-11-02T10:43:46Z</time>
      </trkpt>
      <trkpt lat="43.57437" lon="5.26393">
        <ele>259.15423828375</ele>
        <time>2018-11-02T10:43:53Z</time>
      </trkpt>
      <trkpt lat="43.57436" lon="5.26398">
        <ele>259.17930131583</ele>
        <time>2018-11-02T10:43:57Z</time>
      </trkpt>
      <trkpt lat="43.57436" lon="5.26403">
        <ele>259.20437364914</ele>
        <time>2018-11-02T10:44:01Z</time>
      </trkpt>
      <trkpt lat="43.57435" lon="5.26409">
        <ele>259.22901488614</ele>
        <time>2018-11-02T10:44:05Z</time>
      </trkpt>
      <trkpt lat="43.57435" lon="5.26416">
        <ele>259.26071980244</ele>
        <time>2018-11-02T10:44:10Z</time>
      </trkpt>
      <trkpt lat="43.57434" lon="5.26424">
        <ele>259.2957464785</ele>
        <time>2018-11-02T10:44:15Z</time>
      </trkpt>
      <trkpt lat="43.57434" lon="5.2643">
        <ele>259.32357815309</ele>
        <time>2018-11-02T10:44:19Z</time>
      </trkpt>
      <trkpt lat="43.57434" lon="5.26435">
        <ele>259.34797875143</ele>
        <time>2018-11-02T10:44:23Z</time>
      </trkpt>
      <trkpt lat="43.57433" lon="5.26441">
        <ele>259.37428243554</ele>
        <time>2018-11-02T10:44:28Z</time>
      </trkpt>
      <trkpt lat="43.57433" lon="5.26446">
        <ele>259.39683000035</ele>
        <time>2018-11-02T10:44:33Z</time>
      </trkpt>
      <trkpt lat="43.57434" lon="5.2645">
        <ele>259.40855554271</ele>
        <time>2018-11-02T10:44:36Z</time>
      </trkpt>
      <trkpt lat="43.57435" lon="5.26455">
        <ele>259.42142568522</ele>
        <time>2018-11-02T10:44:40Z</time>
      </trkpt>
      <trkpt lat="43.57436" lon="5.26459">
        <ele>259.42980408968</ele>
        <time>2018-11-02T10:44:43Z</time>
      </trkpt>
      <trkpt lat="43.57436" lon="5.26465">
        <ele>259.4427306905</ele>
        <time>2018-11-02T10:44:48Z</time>
      </trkpt>
      <trkpt lat="43.57436" lon="5.26471">
        <ele>259.45246826758</ele>
        <time>2018-11-02T10:44:53Z</time>
      </trkpt>
      <trkpt lat="43.57436" lon="5.26476">
        <ele>259.45776388112</ele>
        <time>2018-11-02T10:44:57Z</time>
      </trkpt>
      <trkpt lat="43.57437" lon="5.2648">
        <ele>259.46079670736</ele>
        <time>2018-11-02T10:45:00Z</time>
      </trkpt>
      <trkpt lat="43.57437" lon="5.26486">
        <ele>259.46415012253</ele>
        <time>2018-11-02T10:45:04Z</time>
      </trkpt>
      <trkpt lat="43.57438" lon="5.26492">
        <ele>259.4683982487</ele>
        <time>2018-11-02T10:45:08Z</time>
      </trkpt>
      <trkpt lat="43.57438" lon="5.26496">
        <ele>259.47286771677</ele>
        <time>2018-11-02T10:45:11Z</time>
      </trkpt>
      <trkpt lat="43.57439" lon="5.26502">
        <ele>259.47972625032</ele>
        <time>2018-11-02T10:45:16Z</time>
      </trkpt>
      <trkpt lat="43.57439" lon="5.26506">
        <ele>259.4852067653</ele>
        <time>2018-11-02T10:45:20Z</time>
      </trkpt>
      <trkpt lat="43.57439" lon="5.26511">
        <ele>259.49026355609</ele>
        <time>2018-11-02T10:45:24Z</time>
      </trkpt>
      <trkpt lat="43.57439" lon="5.26516">
        <ele>259.49378233052</ele>
        <time>2018-11-02T10:45:27Z</time>
      </trkpt>
      <trkpt lat="43.5744" lon="5.26523">
        <ele>259.50041897239</ele>
        <time>2018-11-02T10:45:32Z</time>
      </trkpt>
      <trkpt lat="43.5744" lon="5.2653">
        <ele>259.50479772497</ele>
        <time>2018-11-02T10:45:37Z</time>
      </trkpt>
      <trkpt lat="43.57441" lon="5.26536">
        <ele>259.5050748492</ele>
        <time>2018-11-02T10:45:42Z</time>
      </trkpt>
      <trkpt lat="43.57442" lon="5.26542">
        <ele>259.50420757013</ele>
        <time>2018-11-02T10:45:47Z</time>
      </trkpt>
      <trkpt lat="43.57442" lon="5.2655">
        <ele>259.50185670236</ele>
        <time>2018-11-02T10:45:52Z</time>
      </trkpt>
      <trkpt lat="43.57443" lon="5.26556">
        <ele>259.49661548023</ele>
        <time>2018-11-02T10:45:57Z</time>
      </trkpt>
      <trkpt lat="43.57445" lon="5.26561">
        <ele>259.4889038254</ele>
        <time>2018-11-02T10:46:01Z</time>
      </trkpt>
      <trkpt lat="43.57445" lon="5.26565">
        <ele>259.47802936629</ele>
        <time>2018-11-02T10:46:05Z</time>
      </trkpt>
      <trkpt lat="43.57446" lon="5.2657">
        <ele>259.46146859851</ele>
        <time>2018-11-02T10:46:10Z</time>
      </trkpt>
      <trkpt lat="43.57449" lon="5.26573">
        <ele>259.44191326032</ele>
        <time>2018-11-02T10:46:15Z</time>
      </trkpt>
      <trkpt lat="43.5745" lon="5.26578">
        <ele>259.42084955948</ele>
        <time>2018-11-02T10:46:20Z</time>
      </trkpt>
      <trkpt lat="43.57452" lon="5.26583">
        <ele>259.39870644176</ele>
        <time>2018-11-02T10:46:25Z</time>
      </trkpt>
      <trkpt lat="43.57453" lon="5.26587">
        <ele>259.37952019954</ele>
        <time>2018-11-02T10:46:29Z</time>
      </trkpt>
      <trkpt lat="43.57455" lon="5.26592">
        <ele>259.35231113361</ele>
        <time>2018-11-02T10:46:34Z</time>
      </trkpt>
      <trkpt lat="43.57457" lon="5.26598">
        <ele>259.32804802401</ele>
        <time>2018-11-02T10:46:38Z</time>
      </trkpt>
      <trkpt lat="43.57458" lon="5.26602">
        <ele>259.30801399921</ele>
        <time>2018-11-02T10:46:41Z</time>
      </trkpt>
      <trkpt lat="43.57459" lon="5.26608">
        <ele>259.2704538766</ele>
        <time>2018-11-02T10:46:46Z</time>
      </trkpt>
      <trkpt lat="43.5746" lon="5.26613">
        <ele>259.22890398134</ele>
        <time>2018-11-02T10:46:51Z</time>
      </trkpt>
      <trkpt lat="43.57462" lon="5.26619">
        <ele>259.18563157349</ele>
        <time>2018-11-02T10:46:56Z</time>
      </trkpt>
      <trkpt lat="43.57463" lon="5.26625">
        <ele>259.10949684124</ele>
        <time>2018-11-02T10:47:05Z</time>
      </trkpt>
      <trkpt lat="43.57462" lon="5.2663">
        <ele>259.04568829137</ele>
        <time>2018-11-02T10:47:15Z</time>
      </trkpt>
      <trkpt lat="43.57463" lon="5.26634">
        <ele>259.0200678544</ele>
        <time>2018-11-02T10:47:19Z</time>
      </trkpt>
      <trkpt lat="43.57465" lon="5.26639">
        <ele>258.97850816969</ele>
        <time>2018-11-02T10:47:25Z</time>
      </trkpt>
      <trkpt lat="43.57467" lon="5.26644">
        <ele>258.94783968905</ele>
        <time>2018-11-02T10:47:29Z</time>
      </trkpt>
      <trkpt lat="43.57468" lon="5.26649">
        <ele>258.89400133158</ele>
        <time>2018-11-02T10:47:35Z</time>
      </trkpt>
      <trkpt lat="43.5747" lon="5.26653">
        <ele>258.82114270453</ele>
        <time>2018-11-02T10:47:42Z</time>
      </trkpt>
      <trkpt lat="43.5747" lon="5.26657">
        <ele>258.7758802908</ele>
        <time>2018-11-02T10:47:46Z</time>
      </trkpt>
      <trkpt lat="43.5747" lon="5.26663">
        <ele>258.72542831976</ele>
        <time>2018-11-02T10:47:50Z</time>
      </trkpt>
      <trkpt lat="43.57471" lon="5.26668">
        <ele>258.65613735835</ele>
        <time>2018-11-02T10:47:55Z</time>
      </trkpt>
      <trkpt lat="43.57473" lon="5.26672">
        <ele>258.57278338109</ele>
        <time>2018-11-02T10:48:01Z</time>
      </trkpt>
      <trkpt lat="43.57474" lon="5.26678">
        <ele>258.47776755987</ele>
        <time>2018-11-02T10:48:08Z</time>
      </trkpt>
      <trkpt lat="43.57475" lon="5.26683">
        <ele>258.40590233503</ele>
        <time>2018-11-02T10:48:13Z</time>
      </trkpt>
      <trkpt lat="43.57475" lon="5.26689">
        <ele>258.34178880481</ele>
        <time>2018-11-02T10:48:18Z</time>
      </trkpt>
      <trkpt lat="43.57476" lon="5.26693">
        <ele>258.27676463306</ele>
        <time>2018-11-02T10:48:22Z</time>
      </trkpt>
      <trkpt lat="43.57477" lon="5.26698">
        <ele>258.21206148519</ele>
        <time>2018-11-02T10:48:26Z</time>
      </trkpt>
      <trkpt lat="43.57476" lon="5.26704">
        <ele>258.11899659233</ele>
        <time>2018-11-02T10:48:32Z</time>
      </trkpt>
      <trkpt lat="43.57476" lon="5.26709">
        <ele>258.0608340703</ele>
        <time>2018-11-02T10:48:36Z</time>
      </trkpt>
      <trkpt lat="43.57477" lon="5.26715">
        <ele>257.97904706313</ele>
        <time>2018-11-02T10:48:42Z</time>
      </trkpt>
      <trkpt lat="43.57477" lon="5.26721">
        <ele>257.85849150173</ele>
        <time>2018-11-02T10:48:51Z</time>
      </trkpt>
      <trkpt lat="43.57478" lon="5.26726">
        <ele>257.79078624251</ele>
        <time>2018-11-02T10:48:56Z</time>
      </trkpt>
      <trkpt lat="43.5748" lon="5.26731">
        <ele>257.7240030399</ele>
        <time>2018-11-02T10:49:01Z</time>
      </trkpt>
      <trkpt lat="43.5748" lon="5.26738">
        <ele>257.67391016035</ele>
        <time>2018-11-02T10:49:05Z</time>
      </trkpt>
      <trkpt lat="43.57481" lon="5.26744">
        <ele>257.61923772889</ele>
        <time>2018-11-02T10:49:10Z</time>
      </trkpt>
      <trkpt lat="43.57481" lon="5.26749">
        <ele>257.58041594372</ele>
        <time>2018-11-02T10:49:14Z</time>
      </trkpt>
      <trkpt lat="43.57481" lon="5.26755">
        <ele>257.54695405252</ele>
        <time>2018-11-02T10:49:18Z</time>
      </trkpt>
      <trkpt lat="43.57481" lon="5.26761">
        <ele>257.51113547183</ele>
        <time>2018-11-02T10:49:23Z</time>
      </trkpt>
      <trkpt lat="43.57482" lon="5.26766">
        <ele>257.46709454985</ele>
        <time>2018-11-02T10:49:30Z</time>
      </trkpt>
      <trkpt lat="43.57482" lon="5.26772">
        <ele>257.43689583335</ele>
        <time>2018-11-02T10:49:35Z</time>
      </trkpt>
      <trkpt lat="43.57483" lon="5.26777">
        <ele>257.41299648329</ele>
        <time>2018-11-02T10:49:39Z</time>
      </trkpt>
      <trkpt lat="43.57483" lon="5.26783">
        <ele>257.3844103865</ele>
        <time>2018-11-02T10:49:44Z</time>
      </trkpt>
      <trkpt lat="43.57484" lon="5.26788">
        <ele>257.35627508758</ele>
        <time>2018-11-02T10:49:49Z</time>
      </trkpt>
      <trkpt lat="43.57484" lon="5.26793">
        <ele>257.32950219694</ele>
        <time>2018-11-02T10:49:54Z</time>
      </trkpt>
      <trkpt lat="43.57484" lon="5.26798">
        <ele>257.30809567124</ele>
        <time>2018-11-02T10:49:59Z</time>
      </trkpt>
      <trkpt lat="43.57485" lon="5.26803">
        <ele>257.2899270982</ele>
        <time>2018-11-02T10:50:05Z</time>
      </trkpt>
      <trkpt lat="43.57486" lon="5.26808">
        <ele>257.28095651796</ele>
        <time>2018-11-02T10:50:11Z</time>
      </trkpt>
      <trkpt lat="43.57488" lon="5.26812">
        <ele>257.27740969881</ele>
        <time>2018-11-02T10:50:16Z</time>
      </trkpt>
      <trkpt lat="43.5749" lon="5.26816">
        <ele>257.27582502323</ele>
        <time>2018-11-02T10:50:21Z</time>
      </trkpt>
      <trkpt lat="43.57494" lon="5.26817">
        <ele>257.30774277909</ele>
        <time>2018-11-02T10:50:46Z</time>
      </trkpt>
      <trkpt lat="43.57498" lon="5.26816">
        <ele>257.3439938014</ele>
        <time>2018-11-02T10:50:54Z</time>
      </trkpt>
      <trkpt lat="43.57501" lon="5.26816">
        <ele>257.35744553978</ele>
        <time>2018-11-02T10:50:57Z</time>
      </trkpt>
      <trkpt lat="43.57506" lon="5.26817">
        <ele>257.38079212655</ele>
        <time>2018-11-02T10:51:01Z</time>
      </trkpt>
      <trkpt lat="43.57512" lon="5.26818">
        <ele>257.4076153532</ele>
        <time>2018-11-02T10:51:05Z</time>
      </trkpt>
      <trkpt lat="43.57517" lon="5.26819">
        <ele>257.44317522313</ele>
        <time>2018-11-02T10:51:10Z</time>
      </trkpt>
      <trkpt lat="43.57522" lon="5.2682">
        <ele>257.47319752981</ele>
        <time>2018-11-02T10:51:14Z</time>
      </trkpt>
      <trkpt lat="43.57526" lon="5.2682">
        <ele>257.50419227997</ele>
        <time>2018-11-02T10:51:18Z</time>
      </trkpt>
      <trkpt lat="43.5753" lon="5.26821">
        <ele>257.54852670311</ele>
        <time>2018-11-02T10:51:24Z</time>
      </trkpt>
      <trkpt lat="43.57536" lon="5.26822">
        <ele>257.58803269793</ele>
        <time>2018-11-02T10:51:29Z</time>
      </trkpt>
      <trkpt lat="43.57542" lon="5.26823">
        <ele>257.62395800182</ele>
        <time>2018-11-02T10:51:33Z</time>
      </trkpt>
      <trkpt lat="43.57546" lon="5.26824">
        <ele>257.66427394671</ele>
        <time>2018-11-02T10:51:37Z</time>
      </trkpt>
      <trkpt lat="43.57549" lon="5.26824">
        <ele>257.70650040549</ele>
        <time>2018-11-02T10:51:41Z</time>
      </trkpt>
      <trkpt lat="43.57553" lon="5.26824">
        <ele>257.77013075923</ele>
        <time>2018-11-02T10:51:47Z</time>
      </trkpt>
      <trkpt lat="43.57558" lon="5.26826">
        <ele>257.82116742615</ele>
        <time>2018-11-02T10:51:52Z</time>
      </trkpt>
      <trkpt lat="43.57561" lon="5.26827">
        <ele>257.86036696336</ele>
        <time>2018-11-02T10:51:56Z</time>
      </trkpt>
      <trkpt lat="43.57566" lon="5.26828">
        <ele>257.90686442757</ele>
        <time>2018-11-02T10:52:01Z</time>
      </trkpt>
      <trkpt lat="43.5757" lon="5.26829">
        <ele>257.97009141489</ele>
        <time>2018-11-02T10:52:08Z</time>
      </trkpt>
      <trkpt lat="43.57575" lon="5.2683">
        <ele>258.01482940965</ele>
        <time>2018-11-02T10:52:13Z</time>
      </trkpt>
      <trkpt lat="43.57579" lon="5.26831">
        <ele>258.04854292047</ele>
        <time>2018-11-02T10:52:17Z</time>
      </trkpt>
      <trkpt lat="43.57584" lon="5.26833">
        <ele>258.08776869023</ele>
        <time>2018-11-02T10:52:22Z</time>
      </trkpt>
      <trkpt lat="43.57589" lon="5.26835">
        <ele>258.11844737795</ele>
        <time>2018-11-02T10:52:26Z</time>
      </trkpt>
      <trkpt lat="43.57592" lon="5.26835">
        <ele>258.14074466731</ele>
        <time>2018-11-02T10:52:29Z</time>
      </trkpt>
      <trkpt lat="43.57596" lon="5.26836">
        <ele>258.1711847822</ele>
        <time>2018-11-02T10:52:33Z</time>
      </trkpt>
      <trkpt lat="43.57602" lon="5.26837">
        <ele>258.20968768564</ele>
        <time>2018-11-02T10:52:38Z</time>
      </trkpt>
      <trkpt lat="43.57609" lon="5.26839">
        <ele>258.24618374886</ele>
        <time>2018-11-02T10:52:42Z</time>
      </trkpt>
      <trkpt lat="43.57612" lon="5.2684">
        <ele>258.28316475861</ele>
        <time>2018-11-02T10:52:46Z</time>
      </trkpt>
      <trkpt lat="43.57617" lon="5.26841">
        <ele>258.32783133743</ele>
        <time>2018-11-02T10:52:51Z</time>
      </trkpt>
      <trkpt lat="43.57621" lon="5.26843">
        <ele>258.36178825722</ele>
        <time>2018-11-02T10:52:55Z</time>
      </trkpt>
      <trkpt lat="43.57625" lon="5.26844">
        <ele>258.3955289499</ele>
        <time>2018-11-02T10:52:59Z</time>
      </trkpt>
      <trkpt lat="43.57628" lon="5.26846">
        <ele>258.43023368799</ele>
        <time>2018-11-02T10:53:03Z</time>
      </trkpt>
      <trkpt lat="43.57633" lon="5.26848">
        <ele>258.4746957135</ele>
        <time>2018-11-02T10:53:08Z</time>
      </trkpt>
      <trkpt lat="43.57636" lon="5.26849">
        <ele>258.50168756401</ele>
        <time>2018-11-02T10:53:11Z</time>
      </trkpt>
      <trkpt lat="43.57639" lon="5.2685">
        <ele>258.52914813402</ele>
        <time>2018-11-02T10:53:14Z</time>
      </trkpt>
      <trkpt lat="43.57646" lon="5.26853">
        <ele>258.58257169567</ele>
        <time>2018-11-02T10:53:19Z</time>
      </trkpt>
      <trkpt lat="43.5765" lon="5.26856">
        <ele>258.64041229444</ele>
        <time>2018-11-02T10:53:24Z</time>
      </trkpt>
      <trkpt lat="43.57653" lon="5.26858">
        <ele>258.68841509669</ele>
        <time>2018-11-02T10:53:28Z</time>
      </trkpt>
      <trkpt lat="43.57656" lon="5.2686">
        <ele>258.73810051436</ele>
        <time>2018-11-02T10:53:32Z</time>
      </trkpt>
      <trkpt lat="43.57662" lon="5.26862">
        <ele>258.80356743674</ele>
        <time>2018-11-02T10:53:37Z</time>
      </trkpt>
      <trkpt lat="43.57666" lon="5.26864">
        <ele>258.85624198222</ele>
        <time>2018-11-02T10:53:41Z</time>
      </trkpt>
      <trkpt lat="43.57668" lon="5.26865">
        <ele>258.89640820813</ele>
        <time>2018-11-02T10:53:44Z</time>
      </trkpt>
      <trkpt lat="43.57673" lon="5.26867">
        <ele>258.96377645342</ele>
        <time>2018-11-02T10:53:49Z</time>
      </trkpt>
      <trkpt lat="43.57678" lon="5.26869">
        <ele>259.03181326905</ele>
        <time>2018-11-02T10:53:54Z</time>
      </trkpt>
      <trkpt lat="43.57683" lon="5.26872">
        <ele>259.09764228864</ele>
        <time>2018-11-02T10:53:59Z</time>
      </trkpt>
      <trkpt lat="43.57687" lon="5.26874">
        <ele>259.15114914934</ele>
        <time>2018-11-02T10:54:03Z</time>
      </trkpt>
      <trkpt lat="43.57691" lon="5.26877">
        <ele>259.20711162845</ele>
        <time>2018-11-02T10:54:07Z</time>
      </trkpt>
      <trkpt lat="43.57695" lon="5.26879">
        <ele>259.26545630117</ele>
        <time>2018-11-02T10:54:11Z</time>
      </trkpt>
      <trkpt lat="43.57701" lon="5.26882">
        <ele>259.33908645432</ele>
        <time>2018-11-02T10:54:16Z</time>
      </trkpt>
      <trkpt lat="43.57705" lon="5.26883">
        <ele>259.39611236783</ele>
        <time>2018-11-02T10:54:20Z</time>
      </trkpt>
      <trkpt lat="43.57709" lon="5.26885">
        <ele>259.46691098134</ele>
        <time>2018-11-02T10:54:25Z</time>
      </trkpt>
      <trkpt lat="43.57713" lon="5.26886">
        <ele>259.52663102573</ele>
        <time>2018-11-02T10:54:29Z</time>
      </trkpt>
      <trkpt lat="43.57718" lon="5.26888">
        <ele>259.59831654482</ele>
        <time>2018-11-02T10:54:34Z</time>
      </trkpt>
      <trkpt lat="43.57723" lon="5.26891">
        <ele>259.66731693026</ele>
        <time>2018-11-02T10:54:39Z</time>
      </trkpt>
      <trkpt lat="43.57727" lon="5.26891">
        <ele>259.70999614277</ele>
        <time>2018-11-02T10:54:42Z</time>
      </trkpt>
      <trkpt lat="43.57731" lon="5.26893">
        <ele>259.76698114907</ele>
        <time>2018-11-02T10:54:46Z</time>
      </trkpt>
      <trkpt lat="43.57733" lon="5.26895">
        <ele>259.80875717084</ele>
        <time>2018-11-02T10:54:49Z</time>
      </trkpt>
      <trkpt lat="43.57738" lon="5.26898">
        <ele>259.86871281204</ele>
        <time>2018-11-02T10:54:53Z</time>
      </trkpt>
      <trkpt lat="43.57742" lon="5.26901">
        <ele>259.94235462311</ele>
        <time>2018-11-02T10:54:58Z</time>
      </trkpt>
      <trkpt lat="43.57746" lon="5.26903">
        <ele>260.01865022698</ele>
        <time>2018-11-02T10:55:03Z</time>
      </trkpt>
      <trkpt lat="43.5775" lon="5.26904">
        <ele>260.07883658381</ele>
        <time>2018-11-02T10:55:07Z</time>
      </trkpt>
      <trkpt lat="43.57754" lon="5.26904">
        <ele>260.14919943658</ele>
        <time>2018-11-02T10:55:12Z</time>
      </trkpt>
      <trkpt lat="43.57758" lon="5.26904">
        <ele>260.21305774909</ele>
        <time>2018-11-02T10:55:17Z</time>
      </trkpt>
      <trkpt lat="43.57763" lon="5.26904">
        <ele>260.260391285</ele>
        <time>2018-11-02T10:55:21Z</time>
      </trkpt>
      <trkpt lat="43.57772" lon="5.26904">
        <ele>260.31846147028</ele>
        <time>2018-11-02T10:55:26Z</time>
      </trkpt>
      <trkpt lat="43.57776" lon="5.26903">
        <ele>260.3658308271</ele>
        <time>2018-11-02T10:55:30Z</time>
      </trkpt>
      <trkpt lat="43.57783" lon="5.26904">
        <ele>260.40503736855</ele>
        <time>2018-11-02T10:55:33Z</time>
      </trkpt>
      <trkpt lat="43.57786" lon="5.26904">
        <ele>260.45607471375</ele>
        <time>2018-11-02T10:55:37Z</time>
      </trkpt>
      <trkpt lat="43.5779" lon="5.26903">
        <ele>260.5061382983</ele>
        <time>2018-11-02T10:55:41Z</time>
      </trkpt>
      <trkpt lat="43.57794" lon="5.26902">
        <ele>260.55568897138</ele>
        <time>2018-11-02T10:55:45Z</time>
      </trkpt>
      <trkpt lat="43.57798" lon="5.26903">
        <ele>260.60300779159</ele>
        <time>2018-11-02T10:55:49Z</time>
      </trkpt>
      <trkpt lat="43.57803" lon="5.26905">
        <ele>260.64808753703</ele>
        <time>2018-11-02T10:55:53Z</time>
      </trkpt>
      <trkpt lat="43.57807" lon="5.26907">
        <ele>260.69159378293</ele>
        <time>2018-11-02T10:55:57Z</time>
      </trkpt>
      <trkpt lat="43.5781" lon="5.26909">
        <ele>260.73148585193</ele>
        <time>2018-11-02T10:56:01Z</time>
      </trkpt>
      <trkpt lat="43.57814" lon="5.26912">
        <ele>260.77269374716</ele>
        <time>2018-11-02T10:56:05Z</time>
      </trkpt>
      <trkpt lat="43.57819" lon="5.26914">
        <ele>260.81923442697</ele>
        <time>2018-11-02T10:56:09Z</time>
      </trkpt>
      <trkpt lat="43.57823" lon="5.26916">
        <ele>260.86861297706</ele>
        <time>2018-11-02T10:56:13Z</time>
      </trkpt>
      <trkpt lat="43.57826" lon="5.26921">
        <ele>260.93119513894</ele>
        <time>2018-11-02T10:56:18Z</time>
      </trkpt>
      <trkpt lat="43.57828" lon="5.26925">
        <ele>260.97126960058</ele>
        <time>2018-11-02T10:56:21Z</time>
      </trkpt>
      <trkpt lat="43.57831" lon="5.2693">
        <ele>261.02512905327</ele>
        <time>2018-11-02T10:56:25Z</time>
      </trkpt>
      <trkpt lat="43.57834" lon="5.26934">
        <ele>261.07807991458</ele>
        <time>2018-11-02T10:56:29Z</time>
      </trkpt>
      <trkpt lat="43.57836" lon="5.26938">
        <ele>261.14017233128</ele>
        <time>2018-11-02T10:56:34Z</time>
      </trkpt>
      <trkpt lat="43.57839" lon="5.2694">
        <ele>261.17435531219</ele>
        <time>2018-11-02T10:56:37Z</time>
      </trkpt>
      <trkpt lat="43.57844" lon="5.26943">
        <ele>261.21577444938</ele>
        <time>2018-11-02T10:56:41Z</time>
      </trkpt>
      <trkpt lat="43.57849" lon="5.26946">
        <ele>261.26412049109</ele>
        <time>2018-11-02T10:56:46Z</time>
      </trkpt>
      <trkpt lat="43.57853" lon="5.26948">
        <ele>261.30206820707</ele>
        <time>2018-11-02T10:56:50Z</time>
      </trkpt>
      <trkpt lat="43.57857" lon="5.2695">
        <ele>261.33873259687</ele>
        <time>2018-11-02T10:56:54Z</time>
      </trkpt>
      <trkpt lat="43.5786" lon="5.2695">
        <ele>261.37399274849</ele>
        <time>2018-11-02T10:56:58Z</time>
      </trkpt>
      <trkpt lat="43.57865" lon="5.26949">
        <ele>261.41805863569</ele>
        <time>2018-11-02T10:57:03Z</time>
      </trkpt>
      <trkpt lat="43.5787" lon="5.26949">
        <ele>261.4522130546</ele>
        <time>2018-11-02T10:57:07Z</time>
      </trkpt>
      <trkpt lat="43.57875" lon="5.26949">
        <ele>261.48515198149</ele>
        <time>2018-11-02T10:57:11Z</time>
      </trkpt>
      <trkpt lat="43.5788" lon="5.26948">
        <ele>261.5228673649</ele>
        <time>2018-11-02T10:57:16Z</time>
      </trkpt>
      <trkpt lat="43.57885" lon="5.26947">
        <ele>261.55068831139</ele>
        <time>2018-11-02T10:57:20Z</time>
      </trkpt>
      <trkpt lat="43.57889" lon="5.26946">
        <ele>261.57216146084</ele>
        <time>2018-11-02T10:57:23Z</time>
      </trkpt>
      <trkpt lat="43.57898" lon="5.26944">
        <ele>261.60865184259</ele>
        <time>2018-11-02T10:57:28Z</time>
      </trkpt>
      <trkpt lat="43.57904" lon="5.26943">
        <ele>261.63952669942</ele>
        <time>2018-11-02T10:57:32Z</time>
      </trkpt>
      <trkpt lat="43.57908" lon="5.26941">
        <ele>261.70158450647</ele>
        <time>2018-11-02T10:57:43Z</time>
      </trkpt>
      <trkpt lat="43.5791" lon="5.26938">
        <ele>261.72371457574</ele>
        <time>2018-11-02T10:57:47Z</time>
      </trkpt>
      <trkpt lat="43.57914" lon="5.26935">
        <ele>261.74700636856</ele>
        <time>2018-11-02T10:57:52Z</time>
      </trkpt>
      <trkpt lat="43.57917" lon="5.26932">
        <ele>261.76782575525</ele>
        <time>2018-11-02T10:57:57Z</time>
      </trkpt>
      <trkpt lat="43.57921" lon="5.26929">
        <ele>261.78773245744</ele>
        <time>2018-11-02T10:58:02Z</time>
      </trkpt>
      <trkpt lat="43.57924" lon="5.26927">
        <ele>261.81188105605</ele>
        <time>2018-11-02T10:58:08Z</time>
      </trkpt>
      <trkpt lat="43.57928" lon="5.26924">
        <ele>261.83142586114</ele>
        <time>2018-11-02T10:58:13Z</time>
      </trkpt>
      <trkpt lat="43.57932" lon="5.26923">
        <ele>261.85219756239</ele>
        <time>2018-11-02T10:58:19Z</time>
      </trkpt>
      <trkpt lat="43.57936" lon="5.26922">
        <ele>261.86418099431</ele>
        <time>2018-11-02T10:58:25Z</time>
      </trkpt>
      <trkpt lat="43.5794" lon="5.26922">
        <ele>261.8482239899</ele>
        <time>2018-11-02T10:58:52Z</time>
      </trkpt>
      <trkpt lat="43.57943" lon="5.26925">
        <ele>261.78722148935</ele>
        <time>2018-11-02T10:59:01Z</time>
      </trkpt>
      <trkpt lat="43.57946" lon="5.2693">
        <ele>261.72210596912</ele>
        <time>2018-11-02T10:59:21Z</time>
      </trkpt>
      <trkpt lat="43.57949" lon="5.26934">
        <ele>261.66692562401</ele>
        <time>2018-11-02T11:00:53Z</time>
      </trkpt>
      <trkpt lat="43.57954" lon="5.26934">
        <ele>261.64872401582</ele>
        <time>2018-11-02T11:01:01Z</time>
      </trkpt>
      <trkpt lat="43.57958" lon="5.26933">
        <ele>261.63797767512</ele>
        <time>2018-11-02T11:01:05Z</time>
      </trkpt>
      <trkpt lat="43.57963" lon="5.26931">
        <ele>261.63487879309</ele>
        <time>2018-11-02T11:01:10Z</time>
      </trkpt>
      <trkpt lat="43.57968" lon="5.26928">
        <ele>261.6331247582</ele>
        <time>2018-11-02T11:01:15Z</time>
      </trkpt>
      <trkpt lat="43.57972" lon="5.26927">
        <ele>261.63060615278</ele>
        <time>2018-11-02T11:01:20Z</time>
      </trkpt>
      <trkpt lat="43.57977" lon="5.26925">
        <ele>261.62563055571</ele>
        <time>2018-11-02T11:01:25Z</time>
      </trkpt>
      <trkpt lat="43.57983" lon="5.26921">
        <ele>261.61758208491</ele>
        <time>2018-11-02T11:01:30Z</time>
      </trkpt>
      <trkpt lat="43.57988" lon="5.26919">
        <ele>261.6079556473</ele>
        <time>2018-11-02T11:01:35Z</time>
      </trkpt>
      <trkpt lat="43.57991" lon="5.26918">
        <ele>261.60123994158</ele>
        <time>2018-11-02T11:01:38Z</time>
      </trkpt>
      <trkpt lat="43.57995" lon="5.26914">
        <ele>261.58975295567</ele>
        <time>2018-11-02T11:01:43Z</time>
      </trkpt>
      <trkpt lat="43.57999" lon="5.26911">
        <ele>261.581563176</ele>
        <time>2018-11-02T11:01:47Z</time>
      </trkpt>
      <trkpt lat="43.58004" lon="5.26909">
        <ele>261.5749845226</ele>
        <time>2018-11-02T11:01:51Z</time>
      </trkpt>
      <trkpt lat="43.58009" lon="5.26907">
        <ele>261.5663680269</ele>
        <time>2018-11-02T11:01:56Z</time>
      </trkpt>
      <trkpt lat="43.58014" lon="5.26905">
        <ele>261.55647106177</ele>
        <time>2018-11-02T11:02:01Z</time>
      </trkpt>
      <trkpt lat="43.58017" lon="5.26904">
        <ele>261.54940174909</ele>
        <time>2018-11-02T11:02:04Z</time>
      </trkpt>
      <trkpt lat="43.5802" lon="5.26902">
        <ele>261.53909074113</ele>
        <time>2018-11-02T11:02:08Z</time>
      </trkpt>
      <trkpt lat="43.58025" lon="5.26899">
        <ele>261.52733699673</ele>
        <time>2018-11-02T11:02:13Z</time>
      </trkpt>
      <trkpt lat="43.58031" lon="5.26897">
        <ele>261.52842606621</ele>
        <time>2018-11-02T11:02:18Z</time>
      </trkpt>
      <trkpt lat="43.58034" lon="5.26896">
        <ele>261.52937874358</ele>
        <time>2018-11-02T11:02:23Z</time>
      </trkpt>
      <trkpt lat="43.58038" lon="5.26896">
        <ele>261.53095624948</ele>
        <time>2018-11-02T11:02:29Z</time>
      </trkpt>
      <trkpt lat="43.58042" lon="5.26895">
        <ele>261.53042010923</ele>
        <time>2018-11-02T11:02:33Z</time>
      </trkpt>
      <trkpt lat="43.58046" lon="5.26895">
        <ele>261.52909101411</ele>
        <time>2018-11-02T11:02:38Z</time>
      </trkpt>
      <trkpt lat="43.58049" lon="5.26898">
        <ele>261.52048266121</ele>
        <time>2018-11-02T11:02:52Z</time>
      </trkpt>
      <trkpt lat="43.58053" lon="5.26897">
        <ele>261.50659955685</ele>
        <time>2018-11-02T11:02:58Z</time>
      </trkpt>
      <trkpt lat="43.58056" lon="5.26902">
        <ele>261.46540496927</ele>
        <time>2018-11-02T11:03:18Z</time>
      </trkpt>
      <trkpt lat="43.58059" lon="5.26906">
        <ele>261.3741264574</ele>
        <time>2018-11-02T11:04:13Z</time>
      </trkpt>
      <trkpt lat="43.58057" lon="5.26911">
        <ele>261.35585027914</ele>
        <time>2018-11-02T11:04:28Z</time>
      </trkpt>
      <trkpt lat="43.58056" lon="5.26905">
        <ele>261.3186977674</ele>
        <time>2018-11-02T11:05:50Z</time>
      </trkpt>
      <trkpt lat="43.58055" lon="5.26899">
        <ele>261.03626638729</ele>
        <time>2018-11-02T11:08:36Z</time>
      </trkpt>
      <trkpt lat="43.58057" lon="5.26894">
        <ele>260.93196773331</ele>
        <time>2018-11-02T11:08:53Z</time>
      </trkpt>
      <trkpt lat="43.58061" lon="5.26894">
        <ele>260.84900301754</ele>
        <time>2018-11-02T11:09:24Z</time>
      </trkpt>
      <trkpt lat="43.58061" lon="5.269">
        <ele>260.79064850856</ele>
        <time>2018-11-02T11:09:38Z</time>
      </trkpt>
      <trkpt lat="43.58059" lon="5.26905">
        <ele>260.73618572194</ele>
        <time>2018-11-02T11:09:45Z</time>
      </trkpt>
      <trkpt lat="43.58058" lon="5.26899">
        <ele>260.53879461532</ele>
        <time>2018-11-02T11:10:49Z</time>
      </trkpt>
      <trkpt lat="43.58053" lon="5.26899">
        <ele>260.48632052533</ele>
        <time>2018-11-02T11:10:56Z</time>
      </trkpt>
      <trkpt lat="43.58055" lon="5.26894">
        <ele>260.3279546934</ele>
        <time>2018-11-02T11:11:23Z</time>
      </trkpt>
      <trkpt lat="43.58057" lon="5.26899">
        <ele>260.1648151827</ele>
        <time>2018-11-02T11:11:45Z</time>
      </trkpt>
      <trkpt lat="43.58055" lon="5.26904">
        <ele>260.0267917411</ele>
        <time>2018-11-02T11:12:29Z</time>
      </trkpt>
      <trkpt lat="43.58058" lon="5.26901">
        <ele>259.96064522634</ele>
        <time>2018-11-02T11:13:05Z</time>
      </trkpt>
      <trkpt lat="43.58055" lon="5.26905">
        <ele>259.96217561189</ele>
        <time>2018-11-02T11:14:09Z</time>
      </trkpt>
      <trkpt lat="43.58052" lon="5.26909">
        <ele>259.92768941076</ele>
        <time>2018-11-02T11:15:43Z</time>
      </trkpt>
      <trkpt lat="43.58049" lon="5.26913">
        <ele>259.80410262352</ele>
        <time>2018-11-02T11:20:24Z</time>
      </trkpt>
      <trkpt lat="43.58046" lon="5.2691">
        <ele>259.80428722153</ele>
        <time>2018-11-02T11:20:39Z</time>
      </trkpt>
      <trkpt lat="43.58048" lon="5.26906">
        <ele>259.84717847195</ele>
        <time>2018-11-02T11:22:27Z</time>
      </trkpt>
      <trkpt lat="43.58052" lon="5.26908">
        <ele>260.14291267882</ele>
        <time>2018-11-02T11:25:34Z</time>
      </trkpt>
      <trkpt lat="43.58055" lon="5.26903">
        <ele>260.00913029968</ele>
        <time>2018-11-02T11:35:03Z</time>
      </trkpt>
      <trkpt lat="43.58053" lon="5.26908">
        <ele>260.03277292776</ele>
        <time>2018-11-02T11:35:45Z</time>
      </trkpt>
      <trkpt lat="43.58057" lon="5.26905">
        <ele>260.06848844252</ele>
        <time>2018-11-02T11:37:57Z</time>
      </trkpt>
      <trkpt lat="43.58054" lon="5.269">
        <ele>260.05346266751</ele>
        <time>2018-11-02T11:39:03Z</time>
      </trkpt>
      <trkpt lat="43.58053" lon="5.26906">
        <ele>259.82816581918</ele>
        <time>2018-11-02T11:41:12Z</time>
      </trkpt>
      <trkpt lat="43.58056" lon="5.2691">
        <ele>259.53195693582</ele>
        <time>2018-11-02T11:43:47Z</time>
      </trkpt>
      <trkpt lat="43.58058" lon="5.26905">
        <ele>259.4174737177</ele>
        <time>2018-11-02T11:45:09Z</time>
      </trkpt>
      <trkpt lat="43.58054" lon="5.26906">
        <ele>259.34617017909</ele>
        <time>2018-11-02T11:46:24Z</time>
      </trkpt>
      <trkpt lat="43.58055" lon="5.269">
        <ele>259.26421814191</ele>
        <time>2018-11-02T11:48:07Z</time>
      </trkpt>
      <trkpt lat="43.58056" lon="5.26906">
        <ele>259.23513539406</ele>
        <time>2018-11-02T11:49:08Z</time>
      </trkpt>
      <trkpt lat="43.5806" lon="5.26909">
        <ele>259.21803733266</ele>
        <time>2018-11-02T11:49:39Z</time>
      </trkpt>
      <trkpt lat="43.58063" lon="5.26912">
        <ele>259.17677986192</ele>
        <time>2018-11-02T11:50:28Z</time>
      </trkpt>
      <trkpt lat="43.58061" lon="5.26906">
        <ele>259.15800216265</ele>
        <time>2018-11-02T11:51:11Z</time>
      </trkpt>
      <trkpt lat="43.5806" lon="5.26902">
        <ele>259.15334480301</ele>
        <time>2018-11-02T11:51:35Z</time>
      </trkpt>
      <trkpt lat="43.58056" lon="5.26899">
        <ele>259.14875150093</ele>
        <time>2018-11-02T11:51:39Z</time>
      </trkpt>
      <trkpt lat="43.58053" lon="5.26896">
        <ele>259.14341610058</ele>
        <time>2018-11-02T11:51:42Z</time>
      </trkpt>
      <trkpt lat="43.5805" lon="5.26892">
        <ele>259.13450150203</ele>
        <time>2018-11-02T11:51:46Z</time>
      </trkpt>
      <trkpt lat="43.58049" lon="5.26886">
        <ele>259.12148530921</ele>
        <time>2018-11-02T11:51:51Z</time>
      </trkpt>
      <trkpt lat="43.5805" lon="5.2688">
        <ele>259.10010110765</ele>
        <time>2018-11-02T11:51:58Z</time>
      </trkpt>
      <trkpt lat="43.58053" lon="5.26876">
        <ele>259.07676052943</ele>
        <time>2018-11-02T11:52:06Z</time>
      </trkpt>
      <trkpt lat="43.58056" lon="5.26872">
        <ele>259.06553408311</ele>
        <time>2018-11-02T11:52:11Z</time>
      </trkpt>
      <trkpt lat="43.58058" lon="5.26868">
        <ele>259.05587817461</ele>
        <time>2018-11-02T11:52:15Z</time>
      </trkpt>
      <trkpt lat="43.58061" lon="5.26863">
        <ele>259.04519858871</ele>
        <time>2018-11-02T11:52:19Z</time>
      </trkpt>
      <trkpt lat="43.58063" lon="5.26858">
        <ele>259.03386988676</ele>
        <time>2018-11-02T11:52:23Z</time>
      </trkpt>
      <trkpt lat="43.58067" lon="5.26853">
        <ele>259.01821160241</ele>
        <time>2018-11-02T11:52:28Z</time>
      </trkpt>
      <trkpt lat="43.58069" lon="5.26848">
        <ele>259.00310294013</ele>
        <time>2018-11-02T11:52:32Z</time>
      </trkpt>
      <trkpt lat="43.58071" lon="5.26843">
        <ele>258.98530631686</ele>
        <time>2018-11-02T11:52:36Z</time>
      </trkpt>
      <trkpt lat="43.58076" lon="5.26837">
        <ele>258.96146259796</ele>
        <time>2018-11-02T11:52:41Z</time>
      </trkpt>
      <trkpt lat="43.58082" lon="5.26832">
        <ele>258.93652158569</ele>
        <time>2018-11-02T11:52:46Z</time>
      </trkpt>
      <trkpt lat="43.58086" lon="5.26829">
        <ele>258.91536506205</ele>
        <time>2018-11-02T11:52:50Z</time>
      </trkpt>
      <trkpt lat="43.5809" lon="5.26828">
        <ele>258.88821262604</ele>
        <time>2018-11-02T11:52:55Z</time>
      </trkpt>
      <trkpt lat="43.58094" lon="5.26828">
        <ele>258.86216477602</ele>
        <time>2018-11-02T11:53:00Z</time>
      </trkpt>
      <trkpt lat="43.58098" lon="5.2683">
        <ele>258.83754462956</ele>
        <time>2018-11-02T11:53:05Z</time>
      </trkpt>
      <trkpt lat="43.58102" lon="5.26833">
        <ele>258.81505568427</ele>
        <time>2018-11-02T11:53:10Z</time>
      </trkpt>
      <trkpt lat="43.58106" lon="5.26836">
        <ele>258.79499332878</ele>
        <time>2018-11-02T11:53:15Z</time>
      </trkpt>
      <trkpt lat="43.58109" lon="5.26839">
        <ele>258.77633173562</ele>
        <time>2018-11-02T11:53:20Z</time>
      </trkpt>
      <trkpt lat="43.58113" lon="5.26843">
        <ele>258.75929613358</ele>
        <time>2018-11-02T11:53:25Z</time>
      </trkpt>
      <trkpt lat="43.58116" lon="5.26846">
        <ele>258.74670880754</ele>
        <time>2018-11-02T11:53:29Z</time>
      </trkpt>
      <trkpt lat="43.58119" lon="5.2685">
        <ele>258.73539422372</ele>
        <time>2018-11-02T11:53:33Z</time>
      </trkpt>
      <trkpt lat="43.58123" lon="5.26854">
        <ele>258.72530798068</ele>
        <time>2018-11-02T11:53:37Z</time>
      </trkpt>
      <trkpt lat="43.58126" lon="5.26857">
        <ele>258.71634768399</ele>
        <time>2018-11-02T11:53:41Z</time>
      </trkpt>
      <trkpt lat="43.5813" lon="5.2686">
        <ele>258.70546489519</ele>
        <time>2018-11-02T11:53:46Z</time>
      </trkpt>
      <trkpt lat="43.58133" lon="5.2686">
        <ele>258.68254090981</ele>
        <time>2018-11-02T11:53:54Z</time>
      </trkpt>
      <trkpt lat="43.58137" lon="5.26859">
        <ele>258.6692148147</ele>
        <time>2018-11-02T11:54:04Z</time>
      </trkpt>
      <trkpt lat="43.5814" lon="5.26855">
        <ele>258.63516394703</ele>
        <time>2018-11-02T11:54:41Z</time>
      </trkpt>
      <trkpt lat="43.58142" lon="5.2685">
        <ele>258.60600426882</ele>
        <time>2018-11-02T11:54:48Z</time>
      </trkpt>
      <trkpt lat="43.58143" lon="5.26845">
        <ele>258.5831529961</ele>
        <time>2018-11-02T11:54:53Z</time>
      </trkpt>
      <trkpt lat="43.58144" lon="5.2684">
        <ele>258.56630620722</ele>
        <time>2018-11-02T11:54:57Z</time>
      </trkpt>
      <trkpt lat="43.58145" lon="5.26835">
        <ele>258.54971376329</ele>
        <time>2018-11-02T11:55:01Z</time>
      </trkpt>
      <trkpt lat="43.58147" lon="5.26827">
        <ele>258.52837833235</ele>
        <time>2018-11-02T11:55:06Z</time>
      </trkpt>
      <trkpt lat="43.58148" lon="5.2682">
        <ele>258.50682262553</ele>
        <time>2018-11-02T11:55:11Z</time>
      </trkpt>
      <trkpt lat="43.58151" lon="5.26813">
        <ele>258.48423375711</ele>
        <time>2018-11-02T11:55:16Z</time>
      </trkpt>
      <trkpt lat="43.58153" lon="5.2681">
        <ele>258.47046018351</ele>
        <time>2018-11-02T11:55:19Z</time>
      </trkpt>
      <trkpt lat="43.58155" lon="5.26805">
        <ele>258.45130940953</ele>
        <time>2018-11-02T11:55:23Z</time>
      </trkpt>
      <trkpt lat="43.58157" lon="5.268">
        <ele>258.43116143486</ele>
        <time>2018-11-02T11:55:27Z</time>
      </trkpt>
      <trkpt lat="43.5816" lon="5.26795">
        <ele>258.40287211734</ele>
        <time>2018-11-02T11:55:32Z</time>
      </trkpt>
      <trkpt lat="43.58163" lon="5.26789">
        <ele>258.37537533139</ele>
        <time>2018-11-02T11:55:37Z</time>
      </trkpt>
      <trkpt lat="43.58165" lon="5.26787">
        <ele>258.36004792616</ele>
        <time>2018-11-02T11:55:40Z</time>
      </trkpt>
      <trkpt lat="43.58167" lon="5.26781">
        <ele>258.34033351344</ele>
        <time>2018-11-02T11:55:44Z</time>
      </trkpt>
      <trkpt lat="43.58169" lon="5.26776">
        <ele>258.31763933724</ele>
        <time>2018-11-02T11:55:49Z</time>
      </trkpt>
      <trkpt lat="43.5817" lon="5.26772">
        <ele>258.30063873022</ele>
        <time>2018-11-02T11:55:53Z</time>
      </trkpt>
      <trkpt lat="43.58171" lon="5.26767">
        <ele>258.28797643989</ele>
        <time>2018-11-02T11:55:56Z</time>
      </trkpt>
      <trkpt lat="43.58172" lon="5.26762">
        <ele>258.26755997068</ele>
        <time>2018-11-02T11:56:01Z</time>
      </trkpt>
      <trkpt lat="43.58174" lon="5.26758">
        <ele>258.25143766792</ele>
        <time>2018-11-02T11:56:05Z</time>
      </trkpt>
      <trkpt lat="43.58177" lon="5.26752">
        <ele>258.23615254506</ele>
        <time>2018-11-02T11:56:09Z</time>
      </trkpt>
      <trkpt lat="43.58178" lon="5.26747">
        <ele>258.21957991469</ele>
        <time>2018-11-02T11:56:13Z</time>
      </trkpt>
      <trkpt lat="43.5818" lon="5.2674">
        <ele>258.19874409692</ele>
        <time>2018-11-02T11:56:18Z</time>
      </trkpt>
      <trkpt lat="43.58182" lon="5.26735">
        <ele>258.18180106322</ele>
        <time>2018-11-02T11:56:22Z</time>
      </trkpt>
      <trkpt lat="43.58183" lon="5.26729">
        <ele>258.16408307146</ele>
        <time>2018-11-02T11:56:26Z</time>
      </trkpt>
      <trkpt lat="43.58184" lon="5.26723">
        <ele>258.14529522622</ele>
        <time>2018-11-02T11:56:30Z</time>
      </trkpt>
      <trkpt lat="43.58186" lon="5.26718">
        <ele>258.13114553597</ele>
        <time>2018-11-02T11:56:33Z</time>
      </trkpt>
      <trkpt lat="43.58187" lon="5.26713">
        <ele>258.11124004956</ele>
        <time>2018-11-02T11:56:37Z</time>
      </trkpt>
      <trkpt lat="43.58188" lon="5.26707">
        <ele>258.08929140779</ele>
        <time>2018-11-02T11:56:41Z</time>
      </trkpt>
      <trkpt lat="43.5819" lon="5.26702">
        <ele>258.06581129888</ele>
        <time>2018-11-02T11:56:45Z</time>
      </trkpt>
      <trkpt lat="43.5819" lon="5.26697">
        <ele>258.03991437578</ele>
        <time>2018-11-02T11:56:49Z</time>
      </trkpt>
      <trkpt lat="43.5819" lon="5.26691">
        <ele>258.01186775491</ele>
        <time>2018-11-02T11:56:53Z</time>
      </trkpt>
      <trkpt lat="43.58191" lon="5.26686">
        <ele>257.98271392428</ele>
        <time>2018-11-02T11:56:57Z</time>
      </trkpt>
      <trkpt lat="43.58192" lon="5.26681">
        <ele>257.95318189598</ele>
        <time>2018-11-02T11:57:01Z</time>
      </trkpt>
      <trkpt lat="43.58192" lon="5.26676">
        <ele>257.92238346771</ele>
        <time>2018-11-02T11:57:05Z</time>
      </trkpt>
      <trkpt lat="43.58193" lon="5.26671">
        <ele>257.89064421538</ele>
        <time>2018-11-02T11:57:09Z</time>
      </trkpt>
      <trkpt lat="43.58195" lon="5.26665">
        <ele>257.85963612492</ele>
        <time>2018-11-02T11:57:13Z</time>
      </trkpt>
      <trkpt lat="43.58195" lon="5.26659">
        <ele>257.82279512698</ele>
        <time>2018-11-02T11:57:18Z</time>
      </trkpt>
      <trkpt lat="43.58194" lon="5.26653">
        <ele>257.77968052867</ele>
        <time>2018-11-02T11:57:27Z</time>
      </trkpt>
      <trkpt lat="43.58194" lon="5.26648">
        <ele>257.74062845331</ele>
        <time>2018-11-02T11:57:31Z</time>
      </trkpt>
      <trkpt lat="43.58193" lon="5.26643">
        <ele>257.70169605685</ele>
        <time>2018-11-02T11:57:35Z</time>
      </trkpt>
      <trkpt lat="43.58192" lon="5.26636">
        <ele>257.66075233413</ele>
        <time>2018-11-02T11:57:39Z</time>
      </trkpt>
      <trkpt lat="43.5819" lon="5.26631">
        <ele>257.60956912686</ele>
        <time>2018-11-02T11:57:44Z</time>
      </trkpt>
      <trkpt lat="43.58188" lon="5.26625">
        <ele>257.56280968566</ele>
        <time>2018-11-02T11:57:51Z</time>
      </trkpt>
      <trkpt lat="43.58186" lon="5.26621">
        <ele>257.49782253866</ele>
        <time>2018-11-02T11:57:57Z</time>
      </trkpt>
      <trkpt lat="43.58184" lon="5.26615">
        <ele>257.44647069304</ele>
        <time>2018-11-02T11:58:01Z</time>
      </trkpt>
      <trkpt lat="43.58182" lon="5.26609">
        <ele>257.39570564695</ele>
        <time>2018-11-02T11:58:05Z</time>
      </trkpt>
      <trkpt lat="43.5818" lon="5.26601">
        <ele>257.33041244689</ele>
        <time>2018-11-02T11:58:10Z</time>
      </trkpt>
      <trkpt lat="43.5818" lon="5.26593">
        <ele>257.27426732704</ele>
        <time>2018-11-02T11:58:14Z</time>
      </trkpt>
      <trkpt lat="43.58181" lon="5.26587">
        <ele>257.21355856211</ele>
        <time>2018-11-02T11:58:18Z</time>
      </trkpt>
      <trkpt lat="43.58182" lon="5.2658">
        <ele>257.14822373234</ele>
        <time>2018-11-02T11:58:22Z</time>
      </trkpt>
      <trkpt lat="43.58183" lon="5.26573">
        <ele>257.0789748573</ele>
        <time>2018-11-02T11:58:26Z</time>
      </trkpt>
      <trkpt lat="43.58184" lon="5.26568">
        <ele>257.02562519876</ele>
        <time>2018-11-02T11:58:29Z</time>
      </trkpt>
      <trkpt lat="43.58186" lon="5.26563">
        <ele>256.95215659649</ele>
        <time>2018-11-02T11:58:33Z</time>
      </trkpt>
      <trkpt lat="43.58189" lon="5.26557">
        <ele>256.85430899924</ele>
        <time>2018-11-02T11:58:38Z</time>
      </trkpt>
      <trkpt lat="43.58192" lon="5.26554">
        <ele>256.77204765731</ele>
        <time>2018-11-02T11:58:42Z</time>
      </trkpt>
      <trkpt lat="43.58196" lon="5.2655">
        <ele>256.6641569868</ele>
        <time>2018-11-02T11:58:47Z</time>
      </trkpt>
      <trkpt lat="43.58199" lon="5.26546">
        <ele>256.55323994834</ele>
        <time>2018-11-02T11:58:52Z</time>
      </trkpt>
      <trkpt lat="43.58203" lon="5.26544">
        <ele>256.46611740293</ele>
        <time>2018-11-02T11:58:56Z</time>
      </trkpt>
      <trkpt lat="43.58207" lon="5.26543">
        <ele>256.3796383266</ele>
        <time>2018-11-02T11:59:00Z</time>
      </trkpt>
      <trkpt lat="43.58211" lon="5.26543">
        <ele>256.29251191667</ele>
        <time>2018-11-02T11:59:04Z</time>
      </trkpt>
      <trkpt lat="43.58214" lon="5.26542">
        <ele>256.22647895124</ele>
        <time>2018-11-02T11:59:07Z</time>
      </trkpt>
      <trkpt lat="43.58218" lon="5.26541">
        <ele>256.13684649337</ele>
        <time>2018-11-02T11:59:11Z</time>
      </trkpt>
      <trkpt lat="43.58223" lon="5.26539">
        <ele>256.04662976277</ele>
        <time>2018-11-02T11:59:15Z</time>
      </trkpt>
      <trkpt lat="43.58228" lon="5.26537">
        <ele>255.95792792962</ele>
        <time>2018-11-02T11:59:19Z</time>
      </trkpt>
      <trkpt lat="43.58233" lon="5.26535">
        <ele>255.84858837302</ele>
        <time>2018-11-02T11:59:24Z</time>
      </trkpt>
      <trkpt lat="43.58238" lon="5.26532">
        <ele>255.75907539063</ele>
        <time>2018-11-02T11:59:28Z</time>
      </trkpt>
      <trkpt lat="43.58242" lon="5.2653">
        <ele>255.66982276661</ele>
        <time>2018-11-02T11:59:32Z</time>
      </trkpt>
      <trkpt lat="43.58246" lon="5.26529">
        <ele>255.57973907289</ele>
        <time>2018-11-02T11:59:36Z</time>
      </trkpt>
      <trkpt lat="43.5825" lon="5.26527">
        <ele>255.46132539389</ele>
        <time>2018-11-02T11:59:41Z</time>
      </trkpt>
      <trkpt lat="43.58253" lon="5.26525">
        <ele>255.36485581529</ele>
        <time>2018-11-02T11:59:45Z</time>
      </trkpt>
      <trkpt lat="43.58256" lon="5.26523">
        <ele>255.29193767924</ele>
        <time>2018-11-02T11:59:48Z</time>
      </trkpt>
      <trkpt lat="43.5826" lon="5.26521">
        <ele>255.19272257564</ele>
        <time>2018-11-02T11:59:52Z</time>
      </trkpt>
      <trkpt lat="43.58265" lon="5.2652">
        <ele>255.08974332818</ele>
        <time>2018-11-02T11:59:56Z</time>
      </trkpt>
      <trkpt lat="43.5827" lon="5.26519">
        <ele>254.95510335252</ele>
        <time>2018-11-02T12:00:01Z</time>
      </trkpt>
      <trkpt lat="43.58277" lon="5.26519">
        <ele>254.84416824078</ele>
        <time>2018-11-02T12:00:05Z</time>
      </trkpt>
      <trkpt lat="43.58281" lon="5.26518">
        <ele>254.70144096719</ele>
        <time>2018-11-02T12:00:10Z</time>
      </trkpt>
      <trkpt lat="43.58286" lon="5.26518">
        <ele>254.58650706935</ele>
        <time>2018-11-02T12:00:14Z</time>
      </trkpt>
      <trkpt lat="43.58291" lon="5.26517">
        <ele>254.47274731068</ele>
        <time>2018-11-02T12:00:18Z</time>
      </trkpt>
      <trkpt lat="43.58295" lon="5.26517">
        <ele>254.360212526</ele>
        <time>2018-11-02T12:00:22Z</time>
      </trkpt>
      <trkpt lat="43.583" lon="5.26517">
        <ele>254.21634357479</ele>
        <time>2018-11-02T12:00:27Z</time>
      </trkpt>
      <trkpt lat="43.58304" lon="5.26517">
        <ele>254.12704786585</ele>
        <time>2018-11-02T12:00:30Z</time>
      </trkpt>
      <trkpt lat="43.58309" lon="5.26517">
        <ele>254.00742631209</ele>
        <time>2018-11-02T12:00:34Z</time>
      </trkpt>
      <trkpt lat="43.58314" lon="5.26516">
        <ele>253.88817878555</ele>
        <time>2018-11-02T12:00:38Z</time>
      </trkpt>
      <trkpt lat="43.58316" lon="5.26515">
        <ele>253.79776534507</ele>
        <time>2018-11-02T12:00:41Z</time>
      </trkpt>
      <trkpt lat="43.58321" lon="5.26515">
        <ele>253.67551691764</ele>
        <time>2018-11-02T12:00:45Z</time>
      </trkpt>
      <trkpt lat="43.58325" lon="5.26514">
        <ele>253.51546831954</ele>
        <time>2018-11-02T12:00:50Z</time>
      </trkpt>
      <trkpt lat="43.58328" lon="5.26514">
        <ele>253.41419467973</ele>
        <time>2018-11-02T12:00:53Z</time>
      </trkpt>
      <trkpt lat="43.58332" lon="5.26514">
        <ele>253.27285489407</ele>
        <time>2018-11-02T12:00:57Z</time>
      </trkpt>
      <trkpt lat="43.58337" lon="5.26512">
        <ele>253.08771974734</ele>
        <time>2018-11-02T12:01:02Z</time>
      </trkpt>
      <trkpt lat="43.5834" lon="5.26511">
        <ele>252.97295701437</ele>
        <time>2018-11-02T12:01:05Z</time>
      </trkpt>
      <trkpt lat="43.58344" lon="5.26509">
        <ele>252.82079448874</ele>
        <time>2018-11-02T12:01:09Z</time>
      </trkpt>
      <trkpt lat="43.58348" lon="5.26508">
        <ele>252.66959521054</ele>
        <time>2018-11-02T12:01:13Z</time>
      </trkpt>
      <trkpt lat="43.58353" lon="5.26507">
        <ele>252.47501920124</ele>
        <time>2018-11-02T12:01:18Z</time>
      </trkpt>
      <trkpt lat="43.58358" lon="5.26506">
        <ele>252.31968946344</ele>
        <time>2018-11-02T12:01:22Z</time>
      </trkpt>
      <trkpt lat="43.58364" lon="5.26505">
        <ele>252.16835285627</ele>
        <time>2018-11-02T12:01:26Z</time>
      </trkpt>
      <trkpt lat="43.58368" lon="5.26505">
        <ele>252.01797241429</ele>
        <time>2018-11-02T12:01:30Z</time>
      </trkpt>
      <trkpt lat="43.58372" lon="5.26504">
        <ele>251.8671378183</ele>
        <time>2018-11-02T12:01:34Z</time>
      </trkpt>
      <trkpt lat="43.58378" lon="5.26504">
        <ele>251.67532496889</ele>
        <time>2018-11-02T12:01:39Z</time>
      </trkpt>
      <trkpt lat="43.58381" lon="5.26504">
        <ele>251.51873407371</ele>
        <time>2018-11-02T12:01:43Z</time>
      </trkpt>
      <trkpt lat="43.58387" lon="5.26502">
        <ele>251.3230511981</ele>
        <time>2018-11-02T12:01:48Z</time>
      </trkpt>
      <trkpt lat="43.58391" lon="5.26502">
        <ele>251.16781830592</ele>
        <time>2018-11-02T12:01:52Z</time>
      </trkpt>
      <trkpt lat="43.58396" lon="5.26501">
        <ele>251.01515354358</ele>
        <time>2018-11-02T12:01:56Z</time>
      </trkpt>
      <trkpt lat="43.584" lon="5.26501">
        <ele>250.86359294884</ele>
        <time>2018-11-02T12:02:00Z</time>
      </trkpt>
      <trkpt lat="43.58404" lon="5.26501">
        <ele>250.71187630983</ele>
        <time>2018-11-02T12:02:04Z</time>
      </trkpt>
      <trkpt lat="43.5841" lon="5.26502">
        <ele>250.52364025402</ele>
        <time>2018-11-02T12:02:09Z</time>
      </trkpt>
      <trkpt lat="43.58413" lon="5.26502">
        <ele>250.36862395575</ele>
        <time>2018-11-02T12:02:13Z</time>
      </trkpt>
      <trkpt lat="43.58417" lon="5.26502">
        <ele>250.2147582034</ele>
        <time>2018-11-02T12:02:17Z</time>
      </trkpt>
      <trkpt lat="43.58422" lon="5.26503">
        <ele>250.05872916625</ele>
        <time>2018-11-02T12:02:21Z</time>
      </trkpt>
      <trkpt lat="43.58426" lon="5.26504">
        <ele>249.86351745742</ele>
        <time>2018-11-02T12:02:26Z</time>
      </trkpt>
      <trkpt lat="43.5843" lon="5.26505">
        <ele>249.70872943147</ele>
        <time>2018-11-02T12:02:30Z</time>
      </trkpt>
      <trkpt lat="43.58435" lon="5.26508">
        <ele>249.51818039229</ele>
        <time>2018-11-02T12:02:35Z</time>
      </trkpt>
      <trkpt lat="43.5844" lon="5.26511">
        <ele>249.33477146745</ele>
        <time>2018-11-02T12:02:40Z</time>
      </trkpt>
      <trkpt lat="43.58443" lon="5.26513">
        <ele>249.2247486615</ele>
        <time>2018-11-02T12:02:43Z</time>
      </trkpt>
      <trkpt lat="43.58448" lon="5.26517">
        <ele>249.07746108268</ele>
        <time>2018-11-02T12:02:47Z</time>
      </trkpt>
      <trkpt lat="43.58453" lon="5.26521">
        <ele>248.8896488121</ele>
        <time>2018-11-02T12:02:52Z</time>
      </trkpt>
      <trkpt lat="43.58456" lon="5.26524">
        <ele>248.77572550288</ele>
        <time>2018-11-02T12:02:55Z</time>
      </trkpt>
      <trkpt lat="43.58459" lon="5.26526">
        <ele>248.62647592774</ele>
        <time>2018-11-02T12:02:59Z</time>
      </trkpt>
      <trkpt lat="43.58463" lon="5.26529">
        <ele>248.47724483278</ele>
        <time>2018-11-02T12:03:03Z</time>
      </trkpt>
      <trkpt lat="43.58468" lon="5.26529">
        <ele>248.32361710033</ele>
        <time>2018-11-02T12:03:07Z</time>
      </trkpt>
      <trkpt lat="43.58471" lon="5.26527">
        <ele>248.17037751122</ele>
        <time>2018-11-02T12:03:11Z</time>
      </trkpt>
      <trkpt lat="43.58475" lon="5.26525">
        <ele>247.98344159213</ele>
        <time>2018-11-02T12:03:16Z</time>
      </trkpt>
      <trkpt lat="43.58478" lon="5.26521">
        <ele>247.83820024208</ele>
        <time>2018-11-02T12:03:20Z</time>
      </trkpt>
      <trkpt lat="43.58482" lon="5.26514">
        <ele>247.66395725491</ele>
        <time>2018-11-02T12:03:25Z</time>
      </trkpt>
      <trkpt lat="43.58484" lon="5.26511">
        <ele>247.5624974086</ele>
        <time>2018-11-02T12:03:28Z</time>
      </trkpt>
      <trkpt lat="43.58488" lon="5.26506">
        <ele>247.42915036125</ele>
        <time>2018-11-02T12:03:32Z</time>
      </trkpt>
      <trkpt lat="43.58491" lon="5.26503">
        <ele>247.29697936375</ele>
        <time>2018-11-02T12:03:36Z</time>
      </trkpt>
      <trkpt lat="43.58497" lon="5.26497">
        <ele>247.13046580535</ele>
        <time>2018-11-02T12:03:41Z</time>
      </trkpt>
      <trkpt lat="43.58502" lon="5.26492">
        <ele>246.96159250144</ele>
        <time>2018-11-02T12:03:46Z</time>
      </trkpt>
      <trkpt lat="43.58505" lon="5.26489">
        <ele>246.82518379865</ele>
        <time>2018-11-02T12:03:50Z</time>
      </trkpt>
      <trkpt lat="43.58508" lon="5.26484">
        <ele>246.68676718479</ele>
        <time>2018-11-02T12:03:54Z</time>
      </trkpt>
      <trkpt lat="43.58511" lon="5.2648">
        <ele>246.55164271169</ele>
        <time>2018-11-02T12:03:58Z</time>
      </trkpt>
      <trkpt lat="43.58513" lon="5.26476">
        <ele>246.42121510736</ele>
        <time>2018-11-02T12:04:02Z</time>
      </trkpt>
      <trkpt lat="43.58516" lon="5.26472">
        <ele>246.26261605267</ele>
        <time>2018-11-02T12:04:08Z</time>
      </trkpt>
      <trkpt lat="43.58519" lon="5.26467">
        <ele>246.11278352021</ele>
        <time>2018-11-02T12:04:13Z</time>
      </trkpt>
      <trkpt lat="43.58521" lon="5.26462">
        <ele>245.99542563378</ele>
        <time>2018-11-02T12:04:17Z</time>
      </trkpt>
      <trkpt lat="43.58524" lon="5.26456">
        <ele>245.88185771924</ele>
        <time>2018-11-02T12:04:21Z</time>
      </trkpt>
      <trkpt lat="43.58526" lon="5.26451">
        <ele>245.77246793522</ele>
        <time>2018-11-02T12:04:25Z</time>
      </trkpt>
      <trkpt lat="43.58529" lon="5.26447">
        <ele>245.69196499217</ele>
        <time>2018-11-02T12:04:28Z</time>
      </trkpt>
      <trkpt lat="43.58534" lon="5.26442">
        <ele>245.5605455119</ele>
        <time>2018-11-02T12:04:33Z</time>
      </trkpt>
      <trkpt lat="43.58538" lon="5.26437">
        <ele>245.43377157059</ele>
        <time>2018-11-02T12:04:38Z</time>
      </trkpt>
      <trkpt lat="43.58541" lon="5.26432">
        <ele>245.3318854656</ele>
        <time>2018-11-02T12:04:42Z</time>
      </trkpt>
      <trkpt lat="43.58542" lon="5.2643">
        <ele>245.25749957395</ele>
        <time>2018-11-02T12:04:45Z</time>
      </trkpt>
      <trkpt lat="43.58545" lon="5.26425">
        <ele>245.1617432471</ele>
        <time>2018-11-02T12:04:49Z</time>
      </trkpt>
      <trkpt lat="43.58547" lon="5.2642">
        <ele>245.06807022955</ele>
        <time>2018-11-02T12:04:53Z</time>
      </trkpt>
      <trkpt lat="43.58549" lon="5.26415">
        <ele>244.9690194385</ele>
        <time>2018-11-02T12:04:57Z</time>
      </trkpt>
      <trkpt lat="43.58551" lon="5.26408">
        <ele>244.83917150077</ele>
        <time>2018-11-02T12:05:02Z</time>
      </trkpt>
      <trkpt lat="43.58553" lon="5.26403">
        <ele>244.6643618341</ele>
        <time>2018-11-02T12:05:08Z</time>
      </trkpt>
      <trkpt lat="43.58554" lon="5.26399">
        <ele>244.51266948112</ele>
        <time>2018-11-02T12:05:13Z</time>
      </trkpt>
      <trkpt lat="43.58556" lon="5.26393">
        <ele>244.36231775405</ele>
        <time>2018-11-02T12:05:18Z</time>
      </trkpt>
      <trkpt lat="43.5856" lon="5.26385">
        <ele>244.23410576496</ele>
        <time>2018-11-02T12:05:22Z</time>
      </trkpt>
      <trkpt lat="43.58564" lon="5.26378">
        <ele>244.10744688591</ele>
        <time>2018-11-02T12:05:26Z</time>
      </trkpt>
      <trkpt lat="43.58568" lon="5.26373">
        <ele>243.98433729837</ele>
        <time>2018-11-02T12:05:30Z</time>
      </trkpt>
      <trkpt lat="43.58572" lon="5.2637">
        <ele>243.29405787832</ele>
        <time>2018-11-02T12:06:21Z</time>
      </trkpt>
      <trkpt lat="43.58575" lon="5.26367">
        <ele>243.13528012316</ele>
        <time>2018-11-02T12:06:25Z</time>
      </trkpt>
      <trkpt lat="43.58577" lon="5.26362">
        <ele>242.98309175077</ele>
        <time>2018-11-02T12:06:29Z</time>
      </trkpt>
      <trkpt lat="43.58581" lon="5.26356">
        <ele>242.79708835613</ele>
        <time>2018-11-02T12:06:34Z</time>
      </trkpt>
      <trkpt lat="43.58584" lon="5.26352">
        <ele>242.68797809675</ele>
        <time>2018-11-02T12:06:37Z</time>
      </trkpt>
      <trkpt lat="43.58588" lon="5.26348">
        <ele>242.5447934799</ele>
        <time>2018-11-02T12:06:41Z</time>
      </trkpt>
      <trkpt lat="43.58591" lon="5.26345">
        <ele>242.40411764028</ele>
        <time>2018-11-02T12:06:45Z</time>
      </trkpt>
      <trkpt lat="43.58594" lon="5.26343">
        <ele>242.2360153941</ele>
        <time>2018-11-02T12:06:50Z</time>
      </trkpt>
      <trkpt lat="43.58598" lon="5.2634">
        <ele>242.07580007636</ele>
        <time>2018-11-02T12:06:55Z</time>
      </trkpt>
      <trkpt lat="43.58602" lon="5.26337">
        <ele>241.9512043641</ele>
        <time>2018-11-02T12:06:59Z</time>
      </trkpt>
      <trkpt lat="43.58606" lon="5.26335">
        <ele>241.83242395323</ele>
        <time>2018-11-02T12:07:03Z</time>
      </trkpt>
      <trkpt lat="43.5861" lon="5.26332">
        <ele>241.71885842783</ele>
        <time>2018-11-02T12:07:07Z</time>
      </trkpt>
      <trkpt lat="43.58614" lon="5.2633">
        <ele>241.60796109403</ele>
        <time>2018-11-02T12:07:11Z</time>
      </trkpt>
      <trkpt lat="43.58619" lon="5.26327">
        <ele>241.50207963586</ele>
        <time>2018-11-02T12:07:15Z</time>
      </trkpt>
      <trkpt lat="43.58622" lon="5.26325">
        <ele>241.40090360686</ele>
        <time>2018-11-02T12:07:19Z</time>
      </trkpt>
      <trkpt lat="43.58626" lon="5.26323">
        <ele>241.30318496181</ele>
        <time>2018-11-02T12:07:23Z</time>
      </trkpt>
      <trkpt lat="43.58629" lon="5.2632">
        <ele>241.2071912059</ele>
        <time>2018-11-02T12:07:27Z</time>
      </trkpt>
      <trkpt lat="43.58635" lon="5.26317">
        <ele>241.08998489788</ele>
        <time>2018-11-02T12:07:32Z</time>
      </trkpt>
      <trkpt lat="43.5864" lon="5.26313">
        <ele>240.97532564487</ele>
        <time>2018-11-02T12:07:37Z</time>
      </trkpt>
      <trkpt lat="43.58645" lon="5.26309">
        <ele>240.88576790334</ele>
        <time>2018-11-02T12:07:41Z</time>
      </trkpt>
      <trkpt lat="43.58648" lon="5.26306">
        <ele>240.77308071686</ele>
        <time>2018-11-02T12:07:46Z</time>
      </trkpt>
      <trkpt lat="43.58651" lon="5.26303">
        <ele>240.70532305567</ele>
        <time>2018-11-02T12:07:49Z</time>
      </trkpt>
      <trkpt lat="43.58656" lon="5.26299">
        <ele>240.5932782311</ele>
        <time>2018-11-02T12:07:54Z</time>
      </trkpt>
      <trkpt lat="43.5866" lon="5.26297">
        <ele>240.50442682722</ele>
        <time>2018-11-02T12:07:58Z</time>
      </trkpt>
      <trkpt lat="43.58666" lon="5.26294">
        <ele>240.39419983767</ele>
        <time>2018-11-02T12:08:03Z</time>
      </trkpt>
      <trkpt lat="43.5867" lon="5.26292">
        <ele>240.30614811905</ele>
        <time>2018-11-02T12:08:07Z</time>
      </trkpt>
      <trkpt lat="43.58675" lon="5.26291">
        <ele>240.2186874539</ele>
        <time>2018-11-02T12:08:11Z</time>
      </trkpt>
      <trkpt lat="43.58679" lon="5.26291">
        <ele>240.10805433712</ele>
        <time>2018-11-02T12:08:16Z</time>
      </trkpt>
      <trkpt lat="43.58683" lon="5.26292">
        <ele>240.01454806389</ele>
        <time>2018-11-02T12:08:20Z</time>
      </trkpt>
      <trkpt lat="43.58688" lon="5.26294">
        <ele>239.91150189417</ele>
        <time>2018-11-02T12:08:24Z</time>
      </trkpt>
      <trkpt lat="43.58693" lon="5.26296">
        <ele>239.80577079165</ele>
        <time>2018-11-02T12:08:28Z</time>
      </trkpt>
      <trkpt lat="43.58698" lon="5.26298">
        <ele>239.6945162577</ele>
        <time>2018-11-02T12:08:32Z</time>
      </trkpt>
      <trkpt lat="43.58703" lon="5.263">
        <ele>239.57837220105</ele>
        <time>2018-11-02T12:08:36Z</time>
      </trkpt>
      <trkpt lat="43.58707" lon="5.26302">
        <ele>239.45792945328</ele>
        <time>2018-11-02T12:08:40Z</time>
      </trkpt>
      <trkpt lat="43.58713" lon="5.26304">
        <ele>239.29851749607</ele>
        <time>2018-11-02T12:08:45Z</time>
      </trkpt>
      <trkpt lat="43.58718" lon="5.26305">
        <ele>239.16286894887</ele>
        <time>2018-11-02T12:08:49Z</time>
      </trkpt>
      <trkpt lat="43.58721" lon="5.26306">
        <ele>239.01776957868</ele>
        <time>2018-11-02T12:08:53Z</time>
      </trkpt>
      <trkpt lat="43.58726" lon="5.26308">
        <ele>238.83044082046</ele>
        <time>2018-11-02T12:08:58Z</time>
      </trkpt>
      <trkpt lat="43.58731" lon="5.26309">
        <ele>238.67566932563</ele>
        <time>2018-11-02T12:09:02Z</time>
      </trkpt>
      <trkpt lat="43.58737" lon="5.2631">
        <ele>238.51276749177</ele>
        <time>2018-11-02T12:09:06Z</time>
      </trkpt>
      <trkpt lat="43.58741" lon="5.26311">
        <ele>238.34420748782</ele>
        <time>2018-11-02T12:09:10Z</time>
      </trkpt>
      <trkpt lat="43.58746" lon="5.26312">
        <ele>238.17131780746</ele>
        <time>2018-11-02T12:09:14Z</time>
      </trkpt>
      <trkpt lat="43.58751" lon="5.26312">
        <ele>237.94551546483</ele>
        <time>2018-11-02T12:09:19Z</time>
      </trkpt>
      <trkpt lat="43.58758" lon="5.26314">
        <ele>237.70764656404</ele>
        <time>2018-11-02T12:09:24Z</time>
      </trkpt>
      <trkpt lat="43.58762" lon="5.26314">
        <ele>237.55947557825</ele>
        <time>2018-11-02T12:09:27Z</time>
      </trkpt>
      <trkpt lat="43.58767" lon="5.26314">
        <ele>237.36053660329</ele>
        <time>2018-11-02T12:09:31Z</time>
      </trkpt>
      <trkpt lat="43.58773" lon="5.26314">
        <ele>237.10962035182</ele>
        <time>2018-11-02T12:09:36Z</time>
      </trkpt>
      <trkpt lat="43.58777" lon="5.26315">
        <ele>236.84854221671</ele>
        <time>2018-11-02T12:09:41Z</time>
      </trkpt>
      <trkpt lat="43.58781" lon="5.26315">
        <ele>236.5820944303</ele>
        <time>2018-11-02T12:09:46Z</time>
      </trkpt>
      <trkpt lat="43.58785" lon="5.26313">
        <ele>236.32073952129</ele>
        <time>2018-11-02T12:09:51Z</time>
      </trkpt>
      <trkpt lat="43.5879" lon="5.26311">
        <ele>236.06869608914</ele>
        <time>2018-11-02T12:09:56Z</time>
      </trkpt>
      <trkpt lat="43.58794" lon="5.26308">
        <ele>235.86997445418</ele>
        <time>2018-11-02T12:10:00Z</time>
      </trkpt>
      <trkpt lat="43.58798" lon="5.26307">
        <ele>235.67630737443</ele>
        <time>2018-11-02T12:10:04Z</time>
      </trkpt>
      <trkpt lat="43.58801" lon="5.26307">
        <ele>235.53515953892</ele>
        <time>2018-11-02T12:10:07Z</time>
      </trkpt>
      <trkpt lat="43.58806" lon="5.2631">
        <ele>235.29768047333</ele>
        <time>2018-11-02T12:10:12Z</time>
      </trkpt>
      <trkpt lat="43.58809" lon="5.26315">
        <ele>235.11137093634</ele>
        <time>2018-11-02T12:10:16Z</time>
      </trkpt>
      <trkpt lat="43.58811" lon="5.26321">
        <ele>234.92548153286</ele>
        <time>2018-11-02T12:10:20Z</time>
      </trkpt>
      <trkpt lat="43.58814" lon="5.26325">
        <ele>234.63994837796</ele>
        <time>2018-11-02T12:10:26Z</time>
      </trkpt>
      <trkpt lat="43.58817" lon="5.26327">
        <ele>234.40254807162</ele>
        <time>2018-11-02T12:10:31Z</time>
      </trkpt>
      <trkpt lat="43.5882" lon="5.26329">
        <ele>234.21291165553</ele>
        <time>2018-11-02T12:10:35Z</time>
      </trkpt>
      <trkpt lat="43.58825" lon="5.26332">
        <ele>234.01760059844</ele>
        <time>2018-11-02T12:10:39Z</time>
      </trkpt>
      <trkpt lat="43.5883" lon="5.26334">
        <ele>233.81793325538</ele>
        <time>2018-11-02T12:10:43Z</time>
      </trkpt>
      <trkpt lat="43.58835" lon="5.26337">
        <ele>233.61968495071</ele>
        <time>2018-11-02T12:10:47Z</time>
      </trkpt>
      <trkpt lat="43.5884" lon="5.26339">
        <ele>233.36954556943</ele>
        <time>2018-11-02T12:10:52Z</time>
      </trkpt>
      <trkpt lat="43.58844" lon="5.26339">
        <ele>233.17296447395</ele>
        <time>2018-11-02T12:10:56Z</time>
      </trkpt>
      <trkpt lat="43.58849" lon="5.26339">
        <ele>232.97747438373</ele>
        <time>2018-11-02T12:11:00Z</time>
      </trkpt>
      <trkpt lat="43.58855" lon="5.26339">
        <ele>232.7815499143</ele>
        <time>2018-11-02T12:11:04Z</time>
      </trkpt>
      <trkpt lat="43.5886" lon="5.26337">
        <ele>232.53978581051</ele>
        <time>2018-11-02T12:11:09Z</time>
      </trkpt>
      <trkpt lat="43.58863" lon="5.26336">
        <ele>232.30776150113</ele>
        <time>2018-11-02T12:11:14Z</time>
      </trkpt>
      <trkpt lat="43.58868" lon="5.26336">
        <ele>232.08426747889</ele>
        <time>2018-11-02T12:11:19Z</time>
      </trkpt>
      <trkpt lat="43.58872" lon="5.26335">
        <ele>231.95073487953</ele>
        <time>2018-11-02T12:11:22Z</time>
      </trkpt>
      <trkpt lat="43.58877" lon="5.26333">
        <ele>231.77547017406</ele>
        <time>2018-11-02T12:11:26Z</time>
      </trkpt>
      <trkpt lat="43.58881" lon="5.26333">
        <ele>231.604917433</ele>
        <time>2018-11-02T12:11:30Z</time>
      </trkpt>
      <trkpt lat="43.58887" lon="5.26336">
        <ele>231.39760775618</ele>
        <time>2018-11-02T12:11:35Z</time>
      </trkpt>
      <trkpt lat="43.58889" lon="5.2634">
        <ele>231.23026955199</ele>
        <time>2018-11-02T12:11:39Z</time>
      </trkpt>
      <trkpt lat="43.58892" lon="5.26345">
        <ele>231.02909002337</ele>
        <time>2018-11-02T12:11:44Z</time>
      </trkpt>
      <trkpt lat="43.58894" lon="5.26347">
        <ele>230.9138309748</ele>
        <time>2018-11-02T12:11:47Z</time>
      </trkpt>
      <trkpt lat="43.58897" lon="5.26351">
        <ele>230.76644009502</ele>
        <time>2018-11-02T12:11:51Z</time>
      </trkpt>
      <trkpt lat="43.589" lon="5.26355">
        <ele>230.65936447098</ele>
        <time>2018-11-02T12:11:54Z</time>
      </trkpt>
      <trkpt lat="43.58904" lon="5.26359">
        <ele>230.48613394608</ele>
        <time>2018-11-02T12:11:59Z</time>
      </trkpt>
      <trkpt lat="43.58908" lon="5.26362">
        <ele>230.35278407843</ele>
        <time>2018-11-02T12:12:03Z</time>
      </trkpt>
      <trkpt lat="43.58913" lon="5.26365">
        <ele>230.21633321176</ele>
        <time>2018-11-02T12:12:07Z</time>
      </trkpt>
      <trkpt lat="43.58918" lon="5.26368">
        <ele>230.07391566473</ele>
        <time>2018-11-02T12:12:11Z</time>
      </trkpt>
      <trkpt lat="43.58923" lon="5.2637">
        <ele>229.92628887339</ele>
        <time>2018-11-02T12:12:15Z</time>
      </trkpt>
      <trkpt lat="43.58926" lon="5.2637">
        <ele>229.80830848208</ele>
        <time>2018-11-02T12:12:18Z</time>
      </trkpt>
      <trkpt lat="43.58933" lon="5.26372">
        <ele>229.6041168694</ele>
        <time>2018-11-02T12:12:23Z</time>
      </trkpt>
      <trkpt lat="43.58937" lon="5.26373">
        <ele>229.4396557758</ele>
        <time>2018-11-02T12:12:27Z</time>
      </trkpt>
      <trkpt lat="43.58941" lon="5.26374">
        <ele>229.27437954237</ele>
        <time>2018-11-02T12:12:31Z</time>
      </trkpt>
      <trkpt lat="43.58946" lon="5.26374">
        <ele>229.06856947383</ele>
        <time>2018-11-02T12:12:36Z</time>
      </trkpt>
      <trkpt lat="43.5895" lon="5.26375">
        <ele>228.90584904412</ele>
        <time>2018-11-02T12:12:40Z</time>
      </trkpt>
      <trkpt lat="43.58954" lon="5.26376">
        <ele>228.78756645811</ele>
        <time>2018-11-02T12:12:43Z</time>
      </trkpt>
      <trkpt lat="43.58961" lon="5.26378">
        <ele>228.59339405812</ele>
        <time>2018-11-02T12:12:48Z</time>
      </trkpt>
      <trkpt lat="43.58966" lon="5.26379">
        <ele>228.44259408736</ele>
        <time>2018-11-02T12:12:52Z</time>
      </trkpt>
      <trkpt lat="43.58971" lon="5.2638">
        <ele>228.2641925319</ele>
        <time>2018-11-02T12:12:57Z</time>
      </trkpt>
      <trkpt lat="43.58977" lon="5.26381">
        <ele>228.12573705579</ele>
        <time>2018-11-02T12:13:01Z</time>
      </trkpt>
      <trkpt lat="43.58982" lon="5.26382">
        <ele>227.96281134099</ele>
        <time>2018-11-02T12:13:06Z</time>
      </trkpt>
      <trkpt lat="43.58987" lon="5.26384">
        <ele>227.84015491057</ele>
        <time>2018-11-02T12:13:10Z</time>
      </trkpt>
      <trkpt lat="43.58991" lon="5.26385">
        <ele>227.72221094762</ele>
        <time>2018-11-02T12:13:14Z</time>
      </trkpt>
      <trkpt lat="43.58994" lon="5.26386">
        <ele>227.63328186655</ele>
        <time>2018-11-02T12:13:17Z</time>
      </trkpt>
      <trkpt lat="43.58998" lon="5.26389">
        <ele>227.43401508686</ele>
        <time>2018-11-02T12:13:24Z</time>
      </trkpt>
      <trkpt lat="43.59001" lon="5.26391">
        <ele>227.29807032733</ele>
        <time>2018-11-02T12:13:29Z</time>
      </trkpt>
      <trkpt lat="43.59005" lon="5.26393">
        <ele>227.16436844503</ele>
        <time>2018-11-02T12:13:34Z</time>
      </trkpt>
      <trkpt lat="43.59009" lon="5.26394">
        <ele>227.0559919213</ele>
        <time>2018-11-02T12:13:38Z</time>
      </trkpt>
      <trkpt lat="43.59012" lon="5.26395">
        <ele>226.91667454959</ele>
        <time>2018-11-02T12:13:43Z</time>
      </trkpt>
      <trkpt lat="43.59017" lon="5.26396">
        <ele>226.77928558032</ele>
        <time>2018-11-02T12:13:48Z</time>
      </trkpt>
      <trkpt lat="43.59021" lon="5.26397">
        <ele>226.63520491884</ele>
        <time>2018-11-02T12:13:53Z</time>
      </trkpt>
      <trkpt lat="43.59026" lon="5.26396">
        <ele>226.51422376523</ele>
        <time>2018-11-02T12:13:57Z</time>
      </trkpt>
      <trkpt lat="43.59032" lon="5.26396">
        <ele>226.35940776414</ele>
        <time>2018-11-02T12:14:02Z</time>
      </trkpt>
      <trkpt lat="43.59036" lon="5.26397">
        <ele>226.23503788859</ele>
        <time>2018-11-02T12:14:06Z</time>
      </trkpt>
      <trkpt lat="43.5904" lon="5.26398">
        <ele>226.11461308705</ele>
        <time>2018-11-02T12:14:10Z</time>
      </trkpt>
      <trkpt lat="43.59043" lon="5.26398">
        <ele>225.99195774809</ele>
        <time>2018-11-02T12:14:14Z</time>
      </trkpt>
      <trkpt lat="43.59047" lon="5.26398">
        <ele>225.86733054328</ele>
        <time>2018-11-02T12:14:18Z</time>
      </trkpt>
      <trkpt lat="43.59051" lon="5.26398">
        <ele>225.7718831454</ele>
        <time>2018-11-02T12:14:21Z</time>
      </trkpt>
      <trkpt lat="43.59058" lon="5.264">
        <ele>225.60542426529</ele>
        <time>2018-11-02T12:14:26Z</time>
      </trkpt>
      <trkpt lat="43.59062" lon="5.26401">
        <ele>225.4688986108</ele>
        <time>2018-11-02T12:14:30Z</time>
      </trkpt>
      <trkpt lat="43.59065" lon="5.26403">
        <ele>225.33386130297</ele>
        <time>2018-11-02T12:14:34Z</time>
      </trkpt>
      <trkpt lat="43.59069" lon="5.26403">
        <ele>225.19953986316</ele>
        <time>2018-11-02T12:14:38Z</time>
      </trkpt>
      <trkpt lat="43.59073" lon="5.26404">
        <ele>225.00367666069</ele>
        <time>2018-11-02T12:14:44Z</time>
      </trkpt>
      <trkpt lat="43.59077" lon="5.26401">
        <ele>224.75099607723</ele>
        <time>2018-11-02T12:14:52Z</time>
      </trkpt>
      <trkpt lat="43.59077" lon="5.26395">
        <ele>224.63435077159</ele>
        <time>2018-11-02T12:14:56Z</time>
      </trkpt>
      <trkpt lat="43.59077" lon="5.26388">
        <ele>224.52039240454</ele>
        <time>2018-11-02T12:15:00Z</time>
      </trkpt>
      <trkpt lat="43.59078" lon="5.26379">
        <ele>224.38020110728</ele>
        <time>2018-11-02T12:15:05Z</time>
      </trkpt>
      <trkpt lat="43.59079" lon="5.26372">
        <ele>224.26923240312</ele>
        <time>2018-11-02T12:15:09Z</time>
      </trkpt>
      <trkpt lat="43.59079" lon="5.26367">
        <ele>223.92918711227</ele>
        <time>2018-11-02T12:15:21Z</time>
      </trkpt>
      <trkpt lat="43.59078" lon="5.26361">
        <ele>223.81440531269</ele>
        <time>2018-11-02T12:15:25Z</time>
      </trkpt>
      <trkpt lat="43.59078" lon="5.26357">
        <ele>223.72421925578</ele>
        <time>2018-11-02T12:15:28Z</time>
      </trkpt>
      <trkpt lat="43.5908" lon="5.26351">
        <ele>223.6061670504</ele>
        <time>2018-11-02T12:15:32Z</time>
      </trkpt>
      <trkpt lat="43.59081" lon="5.26346">
        <ele>223.51534171749</ele>
        <time>2018-11-02T12:15:35Z</time>
      </trkpt>
      <trkpt lat="43.59085" lon="5.26341">
        <ele>223.36901877404</ele>
        <time>2018-11-02T12:15:40Z</time>
      </trkpt>
      <trkpt lat="43.59088" lon="5.26336">
        <ele>223.25817396823</ele>
        <time>2018-11-02T12:15:44Z</time>
      </trkpt>
      <trkpt lat="43.59091" lon="5.26332">
        <ele>223.17710657768</ele>
        <time>2018-11-02T12:15:47Z</time>
      </trkpt>
      <trkpt lat="43.59093" lon="5.26329">
        <ele>223.0984248959</ele>
        <time>2018-11-02T12:15:50Z</time>
      </trkpt>
      <trkpt lat="43.59096" lon="5.26327">
        <ele>222.99633561123</ele>
        <time>2018-11-02T12:15:54Z</time>
      </trkpt>
      <trkpt lat="43.591" lon="5.2633">
        <ele>222.76816550276</ele>
        <time>2018-11-02T12:16:05Z</time>
      </trkpt>
      <trkpt lat="43.59104" lon="5.26333">
        <ele>222.67292001912</ele>
        <time>2018-11-02T12:16:09Z</time>
      </trkpt>
      <trkpt lat="43.59109" lon="5.26336">
        <ele>222.55085394645</ele>
        <time>2018-11-02T12:16:14Z</time>
      </trkpt>
      <trkpt lat="43.59113" lon="5.26339">
        <ele>222.42649807673</ele>
        <time>2018-11-02T12:16:19Z</time>
      </trkpt>
      <trkpt lat="43.59117" lon="5.26341">
        <ele>222.32478582524</ele>
        <time>2018-11-02T12:16:23Z</time>
      </trkpt>
      <trkpt lat="43.5912" lon="5.26342">
        <ele>222.21949565582</ele>
        <time>2018-11-02T12:16:27Z</time>
      </trkpt>
      <trkpt lat="43.59123" lon="5.26344">
        <ele>222.11046971015</ele>
        <time>2018-11-02T12:16:31Z</time>
      </trkpt>
      <trkpt lat="43.59128" lon="5.26348">
        <ele>221.97118972019</ele>
        <time>2018-11-02T12:16:36Z</time>
      </trkpt>
      <trkpt lat="43.59131" lon="5.26353">
        <ele>221.89512488632</ele>
        <time>2018-11-02T12:16:44Z</time>
      </trkpt>
      <trkpt lat="43.59134" lon="5.26356">
        <ele>221.20598452666</ele>
        <time>2018-11-02T12:17:45Z</time>
      </trkpt>
      <trkpt lat="43.59138" lon="5.26357">
        <ele>221.03017271244</ele>
        <time>2018-11-02T12:17:49Z</time>
      </trkpt>
      <trkpt lat="43.59142" lon="5.26356">
        <ele>220.86525089011</ele>
        <time>2018-11-02T12:17:53Z</time>
      </trkpt>
      <trkpt lat="43.59145" lon="5.26353">
        <ele>220.71144025519</ele>
        <time>2018-11-02T12:17:57Z</time>
      </trkpt>
      <trkpt lat="43.59148" lon="5.26349">
        <ele>220.53416744091</ele>
        <time>2018-11-02T12:18:02Z</time>
      </trkpt>
      <trkpt lat="43.5915" lon="5.26346">
        <ele>220.40209881717</ele>
        <time>2018-11-02T12:18:06Z</time>
      </trkpt>
      <trkpt lat="43.59154" lon="5.26343">
        <ele>220.24513884315</ele>
        <time>2018-11-02T12:18:11Z</time>
      </trkpt>
      <trkpt lat="43.59158" lon="5.26343">
        <ele>220.09507318924</ele>
        <time>2018-11-02T12:18:16Z</time>
      </trkpt>
      <trkpt lat="43.59163" lon="5.26344">
        <ele>219.9526006439</ele>
        <time>2018-11-02T12:18:21Z</time>
      </trkpt>
      <trkpt lat="43.59166" lon="5.26348">
        <ele>219.82356299291</ele>
        <time>2018-11-02T12:18:26Z</time>
      </trkpt>
      <trkpt lat="43.59169" lon="5.26351">
        <ele>219.72969776013</ele>
        <time>2018-11-02T12:18:30Z</time>
      </trkpt>
      <trkpt lat="43.59173" lon="5.26355">
        <ele>219.62028877731</ele>
        <time>2018-11-02T12:18:35Z</time>
      </trkpt>
      <trkpt lat="43.59175" lon="5.26359">
        <ele>219.53647528262</ele>
        <time>2018-11-02T12:18:39Z</time>
      </trkpt>
      <trkpt lat="43.59178" lon="5.26362">
        <ele>219.45579258402</ele>
        <time>2018-11-02T12:18:43Z</time>
      </trkpt>
      <trkpt lat="43.59182" lon="5.26366">
        <ele>219.35849126224</ele>
        <time>2018-11-02T12:18:48Z</time>
      </trkpt>
      <trkpt lat="43.59185" lon="5.26369">
        <ele>219.28473585882</ele>
        <time>2018-11-02T12:18:52Z</time>
      </trkpt>
      <trkpt lat="43.59191" lon="5.26373">
        <ele>219.19724561836</ele>
        <time>2018-11-02T12:18:57Z</time>
      </trkpt>
      <trkpt lat="43.59196" lon="5.26376">
        <ele>219.11241620102</ele>
        <time>2018-11-02T12:19:02Z</time>
      </trkpt>
      <trkpt lat="43.59199" lon="5.2638">
        <ele>219.04590756614</ele>
        <time>2018-11-02T12:19:06Z</time>
      </trkpt>
      <trkpt lat="43.59202" lon="5.26383">
        <ele>218.97942929211</ele>
        <time>2018-11-02T12:19:10Z</time>
      </trkpt>
      <trkpt lat="43.59207" lon="5.26386">
        <ele>218.89621907923</ele>
        <time>2018-11-02T12:19:15Z</time>
      </trkpt>
      <trkpt lat="43.59212" lon="5.2639">
        <ele>218.83170124148</ele>
        <time>2018-11-02T12:19:19Z</time>
      </trkpt>
      <trkpt lat="43.59217" lon="5.26394">
        <ele>218.75067357872</ele>
        <time>2018-11-02T12:19:24Z</time>
      </trkpt>
      <trkpt lat="43.59221" lon="5.26399">
        <ele>218.68336619013</ele>
        <time>2018-11-02T12:19:28Z</time>
      </trkpt>
      <trkpt lat="43.59224" lon="5.26402">
        <ele>218.63236637829</ele>
        <time>2018-11-02T12:19:31Z</time>
      </trkpt>
      <trkpt lat="43.59228" lon="5.26408">
        <ele>218.5490114638</ele>
        <time>2018-11-02T12:19:36Z</time>
      </trkpt>
      <trkpt lat="43.59231" lon="5.26413">
        <ele>218.48409044181</ele>
        <time>2018-11-02T12:19:40Z</time>
      </trkpt>
      <trkpt lat="43.59234" lon="5.2642">
        <ele>218.40825089723</ele>
        <time>2018-11-02T12:19:45Z</time>
      </trkpt>
      <trkpt lat="43.59237" lon="5.26426">
        <ele>218.34093312716</ele>
        <time>2018-11-02T12:19:50Z</time>
      </trkpt>
      <trkpt lat="43.59238" lon="5.26432">
        <ele>218.28119048306</ele>
        <time>2018-11-02T12:19:55Z</time>
      </trkpt>
      <trkpt lat="43.5924" lon="5.26436">
        <ele>218.23749330248</ele>
        <time>2018-11-02T12:19:59Z</time>
      </trkpt>
      <trkpt lat="43.59243" lon="5.2644">
        <ele>218.20588880687</ele>
        <time>2018-11-02T12:20:02Z</time>
      </trkpt>
      <trkpt lat="43.59245" lon="5.26447">
        <ele>218.16315089414</ele>
        <time>2018-11-02T12:20:06Z</time>
      </trkpt>
      <trkpt lat="43.59246" lon="5.26454">
        <ele>218.12167434291</ele>
        <time>2018-11-02T12:20:10Z</time>
      </trkpt>
      <trkpt lat="43.59248" lon="5.26458">
        <ele>218.09246152147</ele>
        <time>2018-11-02T12:20:13Z</time>
      </trkpt>
      <trkpt lat="43.59249" lon="5.26464">
        <ele>218.05600256273</ele>
        <time>2018-11-02T12:20:17Z</time>
      </trkpt>
      <trkpt lat="43.5925" lon="5.26469">
        <ele>218.02365561707</ele>
        <time>2018-11-02T12:20:21Z</time>
      </trkpt>
      <trkpt lat="43.59254" lon="5.26477">
        <ele>217.98786323885</ele>
        <time>2018-11-02T12:20:26Z</time>
      </trkpt>
      <trkpt lat="43.59256" lon="5.26481">
        <ele>217.9622061841</ele>
        <time>2018-11-02T12:20:30Z</time>
      </trkpt>
      <trkpt lat="43.5926" lon="5.26486">
        <ele>217.9289765582</ele>
        <time>2018-11-02T12:20:35Z</time>
      </trkpt>
      <trkpt lat="43.59263" lon="5.26489">
        <ele>217.90020522545</ele>
        <time>2018-11-02T12:20:39Z</time>
      </trkpt>
      <trkpt lat="43.59266" lon="5.26492">
        <ele>217.8686243681</ele>
        <time>2018-11-02T12:20:43Z</time>
      </trkpt>
      <trkpt lat="43.5927" lon="5.26497">
        <ele>217.82339064201</ele>
        <time>2018-11-02T12:20:48Z</time>
      </trkpt>
      <trkpt lat="43.59273" lon="5.26503">
        <ele>217.77469613047</ele>
        <time>2018-11-02T12:20:53Z</time>
      </trkpt>
      <trkpt lat="43.59275" lon="5.26509">
        <ele>217.72591427042</ele>
        <time>2018-11-02T12:20:58Z</time>
      </trkpt>
      <trkpt lat="43.59278" lon="5.26514">
        <ele>217.68727066661</ele>
        <time>2018-11-02T12:21:02Z</time>
      </trkpt>
      <trkpt lat="43.5928" lon="5.26519">
        <ele>217.65110114508</ele>
        <time>2018-11-02T12:21:06Z</time>
      </trkpt>
      <trkpt lat="43.59283" lon="5.26524">
        <ele>217.61742948926</ele>
        <time>2018-11-02T12:21:10Z</time>
      </trkpt>
      <trkpt lat="43.59286" lon="5.26532">
        <ele>217.57820270735</ele>
        <time>2018-11-02T12:21:15Z</time>
      </trkpt>
      <trkpt lat="43.59287" lon="5.26537">
        <ele>217.5489193277</ele>
        <time>2018-11-02T12:21:19Z</time>
      </trkpt>
      <trkpt lat="43.59289" lon="5.26542">
        <ele>217.51555250518</ele>
        <time>2018-11-02T12:21:24Z</time>
      </trkpt>
      <trkpt lat="43.59292" lon="5.26547">
        <ele>217.48474864243</ele>
        <time>2018-11-02T12:21:29Z</time>
      </trkpt>
      <trkpt lat="43.59294" lon="5.26553">
        <ele>217.45679145457</ele>
        <time>2018-11-02T12:21:34Z</time>
      </trkpt>
      <trkpt lat="43.59295" lon="5.26559">
        <ele>217.43396046697</ele>
        <time>2018-11-02T12:21:38Z</time>
      </trkpt>
      <trkpt lat="43.59296" lon="5.26563">
        <ele>217.41529958711</ele>
        <time>2018-11-02T12:21:41Z</time>
      </trkpt>
      <trkpt lat="43.59298" lon="5.26571">
        <ele>217.38170043148</ele>
        <time>2018-11-02T12:21:46Z</time>
      </trkpt>
      <trkpt lat="43.59298" lon="5.26577">
        <ele>217.35535075879</ele>
        <time>2018-11-02T12:21:50Z</time>
      </trkpt>
      <trkpt lat="43.59298" lon="5.26583">
        <ele>217.33062203</ele>
        <time>2018-11-02T12:21:54Z</time>
      </trkpt>
      <trkpt lat="43.59298" lon="5.26589">
        <ele>217.30773719257</ele>
        <time>2018-11-02T12:21:58Z</time>
      </trkpt>
      <trkpt lat="43.593" lon="5.26595">
        <ele>217.28270630454</ele>
        <time>2018-11-02T12:22:03Z</time>
      </trkpt>
      <trkpt lat="43.59301" lon="5.266">
        <ele>217.26499039626</ele>
        <time>2018-11-02T12:22:07Z</time>
      </trkpt>
      <trkpt lat="43.59303" lon="5.26604">
        <ele>217.2539696165</ele>
        <time>2018-11-02T12:22:10Z</time>
      </trkpt>
      <trkpt lat="43.59306" lon="5.2661">
        <ele>217.24285663769</ele>
        <time>2018-11-02T12:22:14Z</time>
      </trkpt>
      <trkpt lat="43.59308" lon="5.26614">
        <ele>217.23387491266</ele>
        <time>2018-11-02T12:22:18Z</time>
      </trkpt>
      <trkpt lat="43.5931" lon="5.26619">
        <ele>217.22154661623</ele>
        <time>2018-11-02T12:22:22Z</time>
      </trkpt>
      <trkpt lat="43.59311" lon="5.26623">
        <ele>217.20721094766</ele>
        <time>2018-11-02T12:22:26Z</time>
      </trkpt>
      <trkpt lat="43.59313" lon="5.26628">
        <ele>217.1850088974</ele>
        <time>2018-11-02T12:22:32Z</time>
      </trkpt>
      <trkpt lat="43.59315" lon="5.26633">
        <ele>217.17058881942</ele>
        <time>2018-11-02T12:22:36Z</time>
      </trkpt>
      <trkpt lat="43.59317" lon="5.26639">
        <ele>217.15527575726</ele>
        <time>2018-11-02T12:22:40Z</time>
      </trkpt>
      <trkpt lat="43.59321" lon="5.26644">
        <ele>217.13933358847</ele>
        <time>2018-11-02T12:22:44Z</time>
      </trkpt>
      <trkpt lat="43.59324" lon="5.26646">
        <ele>217.12751262815</ele>
        <time>2018-11-02T12:22:47Z</time>
      </trkpt>
      <trkpt lat="43.59328" lon="5.26651">
        <ele>217.10951726956</ele>
        <time>2018-11-02T12:22:51Z</time>
      </trkpt>
      <trkpt lat="43.59331" lon="5.26657">
        <ele>217.08126652068</ele>
        <time>2018-11-02T12:22:56Z</time>
      </trkpt>
      <trkpt lat="43.59333" lon="5.26662">
        <ele>217.05531029441</ele>
        <time>2018-11-02T12:23:00Z</time>
      </trkpt>
      <trkpt lat="43.59336" lon="5.26668">
        <ele>217.0270003783</ele>
        <time>2018-11-02T12:23:04Z</time>
      </trkpt>
      <trkpt lat="43.5934" lon="5.26675">
        <ele>216.9893835547</ele>
        <time>2018-11-02T12:23:09Z</time>
      </trkpt>
      <trkpt lat="43.59343" lon="5.26681">
        <ele>216.9517050758</ele>
        <time>2018-11-02T12:23:14Z</time>
      </trkpt>
      <trkpt lat="43.59345" lon="5.26687">
        <ele>216.92386640165</ele>
        <time>2018-11-02T12:23:18Z</time>
      </trkpt>
      <trkpt lat="43.59349" lon="5.26695">
        <ele>216.88910286843</ele>
        <time>2018-11-02T12:23:23Z</time>
      </trkpt>
      <trkpt lat="43.5935" lon="5.26698">
        <ele>216.8687997337</ele>
        <time>2018-11-02T12:23:26Z</time>
      </trkpt>
      <trkpt lat="43.59352" lon="5.26704">
        <ele>216.84196618197</ele>
        <time>2018-11-02T12:23:30Z</time>
      </trkpt>
      <trkpt lat="43.59353" lon="5.26708">
        <ele>216.81747690225</ele>
        <time>2018-11-02T12:23:34Z</time>
      </trkpt>
      <trkpt lat="43.59355" lon="5.26712">
        <ele>216.80135945026</ele>
        <time>2018-11-02T12:23:37Z</time>
      </trkpt>
      <trkpt lat="43.59357" lon="5.26718">
        <ele>216.78286358769</ele>
        <time>2018-11-02T12:23:41Z</time>
      </trkpt>
      <trkpt lat="43.59359" lon="5.26722">
        <ele>216.76916514093</ele>
        <time>2018-11-02T12:23:44Z</time>
      </trkpt>
      <trkpt lat="43.59362" lon="5.2673">
        <ele>216.74442852302</ele>
        <time>2018-11-02T12:23:49Z</time>
      </trkpt>
      <trkpt lat="43.59364" lon="5.26737">
        <ele>216.71880687157</ele>
        <time>2018-11-02T12:23:54Z</time>
      </trkpt>
      <trkpt lat="43.59366" lon="5.26743">
        <ele>216.69824401776</ele>
        <time>2018-11-02T12:23:58Z</time>
      </trkpt>
      <trkpt lat="43.59367" lon="5.26748">
        <ele>216.67627690523</ele>
        <time>2018-11-02T12:24:02Z</time>
      </trkpt>
      <trkpt lat="43.59369" lon="5.26754">
        <ele>216.65163996238</ele>
        <time>2018-11-02T12:24:06Z</time>
      </trkpt>
      <trkpt lat="43.59371" lon="5.26759">
        <ele>216.62420333969</ele>
        <time>2018-11-02T12:24:10Z</time>
      </trkpt>
      <trkpt lat="43.59373" lon="5.26767">
        <ele>216.58764555824</ele>
        <time>2018-11-02T12:24:15Z</time>
      </trkpt>
      <trkpt lat="43.59376" lon="5.26773">
        <ele>216.55609193539</ele>
        <time>2018-11-02T12:24:19Z</time>
      </trkpt>
      <trkpt lat="43.59379" lon="5.2678">
        <ele>216.51688949224</ele>
        <time>2018-11-02T12:24:24Z</time>
      </trkpt>
      <trkpt lat="43.59381" lon="5.26784">
        <ele>216.49288220832</ele>
        <time>2018-11-02T12:24:27Z</time>
      </trkpt>
      <trkpt lat="43.59383" lon="5.26792">
        <ele>216.45191344888</ele>
        <time>2018-11-02T12:24:32Z</time>
      </trkpt>
      <trkpt lat="43.59385" lon="5.26798">
        <ele>216.41832534657</ele>
        <time>2018-11-02T12:24:36Z</time>
      </trkpt>
      <trkpt lat="43.59388" lon="5.26805">
        <ele>216.38330686174</ele>
        <time>2018-11-02T12:24:40Z</time>
      </trkpt>
      <trkpt lat="43.59391" lon="5.2681">
        <ele>216.34663941374</ele>
        <time>2018-11-02T12:24:44Z</time>
      </trkpt>
      <trkpt lat="43.59394" lon="5.26816">
        <ele>216.29796129604</ele>
        <time>2018-11-02T12:24:49Z</time>
      </trkpt>
      <trkpt lat="43.59397" lon="5.26821">
        <ele>216.25724341027</ele>
        <time>2018-11-02T12:24:53Z</time>
      </trkpt>
      <trkpt lat="43.594" lon="5.26827">
        <ele>216.21599392648</ele>
        <time>2018-11-02T12:24:57Z</time>
      </trkpt>
      <trkpt lat="43.59403" lon="5.26833">
        <ele>216.17494270792</ele>
        <time>2018-11-02T12:25:01Z</time>
      </trkpt>
      <trkpt lat="43.59406" lon="5.2684">
        <ele>216.12328405159</ele>
        <time>2018-11-02T12:25:06Z</time>
      </trkpt>
      <trkpt lat="43.59408" lon="5.26844">
        <ele>216.09227309135</ele>
        <time>2018-11-02T12:25:09Z</time>
      </trkpt>
      <trkpt lat="43.59411" lon="5.2685">
        <ele>216.03903320764</ele>
        <time>2018-11-02T12:25:14Z</time>
      </trkpt>
      <trkpt lat="43.59414" lon="5.26856">
        <ele>215.99682854354</ele>
        <time>2018-11-02T12:25:18Z</time>
      </trkpt>
      <trkpt lat="43.59413" lon="5.26861">
        <ele>215.9552926606</ele>
        <time>2018-11-02T12:25:22Z</time>
      </trkpt>
      <trkpt lat="43.59408" lon="5.26866">
        <ele>215.90380282631</ele>
        <time>2018-11-02T12:25:27Z</time>
      </trkpt>
      <trkpt lat="43.59405" lon="5.26869">
        <ele>215.87416195706</ele>
        <time>2018-11-02T12:25:30Z</time>
      </trkpt>
      <trkpt lat="43.59401" lon="5.26874">
        <ele>215.82802806468</ele>
        <time>2018-11-02T12:25:35Z</time>
      </trkpt>
      <trkpt lat="43.59398" lon="5.26877">
        <ele>215.79265058944</ele>
        <time>2018-11-02T12:25:39Z</time>
      </trkpt>
      <trkpt lat="43.59396" lon="5.2688">
        <ele>215.76631601777</ele>
        <time>2018-11-02T12:25:42Z</time>
      </trkpt>
      <trkpt lat="43.59392" lon="5.26884">
        <ele>215.73254469426</ele>
        <time>2018-11-02T12:25:46Z</time>
      </trkpt>
      <trkpt lat="43.5939" lon="5.26891">
        <ele>215.70152779585</ele>
        <time>2018-11-02T12:25:50Z</time>
      </trkpt>
      <trkpt lat="43.59389" lon="5.26899">
        <ele>215.66477310832</ele>
        <time>2018-11-02T12:25:55Z</time>
      </trkpt>
      <trkpt lat="43.59388" lon="5.26907">
        <ele>215.63030483906</ele>
        <time>2018-11-02T12:26:00Z</time>
      </trkpt>
      <trkpt lat="43.59388" lon="5.26911">
        <ele>215.60241338833</ele>
        <time>2018-11-02T12:26:04Z</time>
      </trkpt>
      <trkpt lat="43.59389" lon="5.26915">
        <ele>215.57237139835</ele>
        <time>2018-11-02T12:26:08Z</time>
      </trkpt>
      <trkpt lat="43.59393" lon="5.26921">
        <ele>215.52933491263</ele>
        <time>2018-11-02T12:26:13Z</time>
      </trkpt>
      <trkpt lat="43.59397" lon="5.26927">
        <ele>215.49072669145</ele>
        <time>2018-11-02T12:26:17Z</time>
      </trkpt>
      <trkpt lat="43.59402" lon="5.26932">
        <ele>215.44181406475</ele>
        <time>2018-11-02T12:26:22Z</time>
      </trkpt>
      <trkpt lat="43.59404" lon="5.26938">
        <ele>215.40457749377</ele>
        <time>2018-11-02T12:26:26Z</time>
      </trkpt>
      <trkpt lat="43.59402" lon="5.2695">
        <ele>215.36227999633</ele>
        <time>2018-11-02T12:26:31Z</time>
      </trkpt>
      <trkpt lat="43.59405" lon="5.2695">
        <ele>215.32378691358</ele>
        <time>2018-11-02T12:26:37Z</time>
      </trkpt>
      <trkpt lat="43.59412" lon="5.26947">
        <ele>215.30261507557</ele>
        <time>2018-11-02T12:26:40Z</time>
      </trkpt>
      <trkpt lat="43.59428" lon="5.26953">
        <ele>215.27315206735</ele>
        <time>2018-11-02T12:26:45Z</time>
      </trkpt>
      <trkpt lat="43.5943" lon="5.26957">
        <ele>215.24497408768</ele>
        <time>2018-11-02T12:26:50Z</time>
      </trkpt>
      <trkpt lat="43.59433" lon="5.26961">
        <ele>215.2207888756</ele>
        <time>2018-11-02T12:26:54Z</time>
      </trkpt>
      <trkpt lat="43.59437" lon="5.26965">
        <ele>215.19570218129</ele>
        <time>2018-11-02T12:26:59Z</time>
      </trkpt>
      <trkpt lat="43.59439" lon="5.26969">
        <ele>215.17484884882</ele>
        <time>2018-11-02T12:27:03Z</time>
      </trkpt>
      <trkpt lat="43.59443" lon="5.26974">
        <ele>215.15469523633</ele>
        <time>2018-11-02T12:27:07Z</time>
      </trkpt>
      <trkpt lat="43.59445" lon="5.26975">
        <ele>215.14085603439</ele>
        <time>2018-11-02T12:27:10Z</time>
      </trkpt>
      <trkpt lat="43.59448" lon="5.26978">
        <ele>215.11159218462</ele>
        <time>2018-11-02T12:27:16Z</time>
      </trkpt>
      <trkpt lat="43.59451" lon="5.26983">
        <ele>215.0893379271</ele>
        <time>2018-11-02T12:27:20Z</time>
      </trkpt>
      <trkpt lat="43.59454" lon="5.26988">
        <ele>215.06323512344</ele>
        <time>2018-11-02T12:27:24Z</time>
      </trkpt>
      <trkpt lat="43.59459" lon="5.26991">
        <ele>215.02724421263</ele>
        <time>2018-11-02T12:27:29Z</time>
      </trkpt>
      <trkpt lat="43.59467" lon="5.26992">
        <ele>214.98997859882</ele>
        <time>2018-11-02T12:27:34Z</time>
      </trkpt>
      <trkpt lat="43.59471" lon="5.26989">
        <ele>214.9569170161</ele>
        <time>2018-11-02T12:27:38Z</time>
      </trkpt>
      <trkpt lat="43.59473" lon="5.26983">
        <ele>214.91476599282</ele>
        <time>2018-11-02T12:27:43Z</time>
      </trkpt>
      <trkpt lat="43.59475" lon="5.26978">
        <ele>214.88291714526</ele>
        <time>2018-11-02T12:27:47Z</time>
      </trkpt>
      <trkpt lat="43.59477" lon="5.26972">
        <ele>214.85164958815</ele>
        <time>2018-11-02T12:27:51Z</time>
      </trkpt>
      <trkpt lat="43.59479" lon="5.26967">
        <ele>214.82044138077</ele>
        <time>2018-11-02T12:27:55Z</time>
      </trkpt>
      <trkpt lat="43.59481" lon="5.26961">
        <ele>214.78908880234</ele>
        <time>2018-11-02T12:27:59Z</time>
      </trkpt>
      <trkpt lat="43.59483" lon="5.26956">
        <ele>214.75676370371</ele>
        <time>2018-11-02T12:28:03Z</time>
      </trkpt>
      <trkpt lat="43.59486" lon="5.2695">
        <ele>214.71623744302</ele>
        <time>2018-11-02T12:28:08Z</time>
      </trkpt>
      <trkpt lat="43.59488" lon="5.26945">
        <ele>214.68506942717</ele>
        <time>2018-11-02T12:28:12Z</time>
      </trkpt>
      <trkpt lat="43.5949" lon="5.2694">
        <ele>214.6546732388</ele>
        <time>2018-11-02T12:28:16Z</time>
      </trkpt>
      <trkpt lat="43.59493" lon="5.26935">
        <ele>214.62576014228</ele>
        <time>2018-11-02T12:28:20Z</time>
      </trkpt>
      <trkpt lat="43.59495" lon="5.26932">
        <ele>214.60548697735</ele>
        <time>2018-11-02T12:28:23Z</time>
      </trkpt>
      <trkpt lat="43.59498" lon="5.26927">
        <ele>214.57936021481</ele>
        <time>2018-11-02T12:28:27Z</time>
      </trkpt>
      <trkpt lat="43.59501" lon="5.26922">
        <ele>214.55340953477</ele>
        <time>2018-11-02T12:28:31Z</time>
      </trkpt>
      <trkpt lat="43.59504" lon="5.26916">
        <ele>214.52029330005</ele>
        <time>2018-11-02T12:28:36Z</time>
      </trkpt>
      <trkpt lat="43.59506" lon="5.26911">
        <ele>214.49366340885</ele>
        <time>2018-11-02T12:28:40Z</time>
      </trkpt>
      <trkpt lat="43.59509" lon="5.26904">
        <ele>214.45994598662</ele>
        <time>2018-11-02T12:28:45Z</time>
      </trkpt>
      <trkpt lat="43.59512" lon="5.26899">
        <ele>214.43190690841</ele>
        <time>2018-11-02T12:28:49Z</time>
      </trkpt>
      <trkpt lat="43.59514" lon="5.26895">
        <ele>214.4099196091</ele>
        <time>2018-11-02T12:28:52Z</time>
      </trkpt>
      <trkpt lat="43.59517" lon="5.26889">
        <ele>214.37202790348</ele>
        <time>2018-11-02T12:28:57Z</time>
      </trkpt>
      <trkpt lat="43.59519" lon="5.26883">
        <ele>214.33370807478</ele>
        <time>2018-11-02T12:29:02Z</time>
      </trkpt>
      <trkpt lat="43.59521" lon="5.2688">
        <ele>214.3102433663</ele>
        <time>2018-11-02T12:29:05Z</time>
      </trkpt>
      <trkpt lat="43.59524" lon="5.26873">
        <ele>214.26995045497</ele>
        <time>2018-11-02T12:29:10Z</time>
      </trkpt>
      <trkpt lat="43.59526" lon="5.26869">
        <ele>214.23713004788</ele>
        <time>2018-11-02T12:29:14Z</time>
      </trkpt>
      <trkpt lat="43.59529" lon="5.26863">
        <ele>214.19546553086</ele>
        <time>2018-11-02T12:29:19Z</time>
      </trkpt>
      <trkpt lat="43.59532" lon="5.26858">
        <ele>214.16176730462</ele>
        <time>2018-11-02T12:29:23Z</time>
      </trkpt>
      <trkpt lat="43.59534" lon="5.26854">
        <ele>214.12734832655</ele>
        <time>2018-11-02T12:29:27Z</time>
      </trkpt>
      <trkpt lat="43.59537" lon="5.26848">
        <ele>214.08269526052</ele>
        <time>2018-11-02T12:29:32Z</time>
      </trkpt>
      <trkpt lat="43.59539" lon="5.26844">
        <ele>214.05508695184</ele>
        <time>2018-11-02T12:29:35Z</time>
      </trkpt>
      <trkpt lat="43.59541" lon="5.26838">
        <ele>214.00698042398</ele>
        <time>2018-11-02T12:29:40Z</time>
      </trkpt>
      <trkpt lat="43.59543" lon="5.26833">
        <ele>213.968586856</ele>
        <time>2018-11-02T12:29:44Z</time>
      </trkpt>
      <trkpt lat="43.59546" lon="5.26828">
        <ele>213.91916025092</ele>
        <time>2018-11-02T12:29:49Z</time>
      </trkpt>
      <trkpt lat="43.59548" lon="5.26823">
        <ele>213.87957613973</ele>
        <time>2018-11-02T12:29:53Z</time>
      </trkpt>
      <trkpt lat="43.59549" lon="5.2682">
        <ele>213.84988351038</ele>
        <time>2018-11-02T12:29:56Z</time>
      </trkpt>
      <trkpt lat="43.59551" lon="5.26815">
        <ele>213.81975293565</ele>
        <time>2018-11-02T12:29:59Z</time>
      </trkpt>
      <trkpt lat="43.59553" lon="5.2681">
        <ele>213.77911862329</ele>
        <time>2018-11-02T12:30:03Z</time>
      </trkpt>
      <trkpt lat="43.59556" lon="5.26804">
        <ele>213.72807317342</ele>
        <time>2018-11-02T12:30:08Z</time>
      </trkpt>
      <trkpt lat="43.59559" lon="5.26798">
        <ele>213.68656752113</ele>
        <time>2018-11-02T12:30:12Z</time>
      </trkpt>
      <trkpt lat="43.5956" lon="5.26793">
        <ele>213.6461653176</ele>
        <time>2018-11-02T12:30:16Z</time>
      </trkpt>
      <trkpt lat="43.59561" lon="5.26788">
        <ele>213.60644999901</ele>
        <time>2018-11-02T12:30:20Z</time>
      </trkpt>
      <trkpt lat="43.59561" lon="5.26782">
        <ele>213.56743408621</ele>
        <time>2018-11-02T12:30:24Z</time>
      </trkpt>
      <trkpt lat="43.59561" lon="5.26777">
        <ele>213.53806853995</ele>
        <time>2018-11-02T12:30:27Z</time>
      </trkpt>
      <trkpt lat="43.59561" lon="5.26771">
        <ele>213.49916767245</ele>
        <time>2018-11-02T12:30:31Z</time>
      </trkpt>
      <trkpt lat="43.59561" lon="5.26765">
        <ele>213.4700951783</ele>
        <time>2018-11-02T12:30:34Z</time>
      </trkpt>
      <trkpt lat="43.5956" lon="5.26759">
        <ele>213.4318956313</ele>
        <time>2018-11-02T12:30:38Z</time>
      </trkpt>
      <trkpt lat="43.59559" lon="5.26753">
        <ele>213.39464551988</ele>
        <time>2018-11-02T12:30:42Z</time>
      </trkpt>
      <trkpt lat="43.59559" lon="5.26746">
        <ele>213.35829979858</ele>
        <time>2018-11-02T12:30:46Z</time>
      </trkpt>
      <trkpt lat="43.59558" lon="5.26739">
        <ele>213.32268161186</ele>
        <time>2018-11-02T12:30:50Z</time>
      </trkpt>
      <trkpt lat="43.59556" lon="5.26729">
        <ele>213.27798705826</ele>
        <time>2018-11-02T12:30:55Z</time>
      </trkpt>
      <trkpt lat="43.59555" lon="5.26723">
        <ele>213.22965253754</ele>
        <time>2018-11-02T12:31:00Z</time>
      </trkpt>
      <trkpt lat="43.59556" lon="5.26718">
        <ele>213.18749641031</ele>
        <time>2018-11-02T12:31:04Z</time>
      </trkpt>
      <trkpt lat="43.59559" lon="5.26712">
        <ele>213.14646217238</ele>
        <time>2018-11-02T12:31:08Z</time>
      </trkpt>
      <trkpt lat="43.59562" lon="5.26706">
        <ele>213.09679036307</ele>
        <time>2018-11-02T12:31:13Z</time>
      </trkpt>
      <trkpt lat="43.59564" lon="5.26702">
        <ele>213.05599327933</ele>
        <time>2018-11-02T12:31:17Z</time>
      </trkpt>
      <trkpt lat="43.59567" lon="5.26698">
        <ele>213.00662073923</ele>
        <time>2018-11-02T12:31:22Z</time>
      </trkpt>
      <trkpt lat="43.59569" lon="5.26693">
        <ele>212.95978895848</ele>
        <time>2018-11-02T12:31:27Z</time>
      </trkpt>
      <trkpt lat="43.59571" lon="5.26688">
        <ele>212.9232475528</ele>
        <time>2018-11-02T12:31:31Z</time>
      </trkpt>
      <trkpt lat="43.59575" lon="5.26682">
        <ele>212.87736723804</ele>
        <time>2018-11-02T12:31:36Z</time>
      </trkpt>
      <trkpt lat="43.59577" lon="5.26678">
        <ele>212.84849981737</ele>
        <time>2018-11-02T12:31:39Z</time>
      </trkpt>
      <trkpt lat="43.5958" lon="5.26672">
        <ele>212.79798149079</ele>
        <time>2018-11-02T12:31:44Z</time>
      </trkpt>
      <trkpt lat="43.59583" lon="5.26667">
        <ele>212.74683593038</ele>
        <time>2018-11-02T12:31:49Z</time>
      </trkpt>
      <trkpt lat="43.59585" lon="5.26664">
        <ele>212.71639926613</ele>
        <time>2018-11-02T12:31:52Z</time>
      </trkpt>
      <trkpt lat="43.59588" lon="5.2666">
        <ele>212.67617205366</ele>
        <time>2018-11-02T12:31:56Z</time>
      </trkpt>
      <trkpt lat="43.59591" lon="5.26655">
        <ele>212.62903781614</ele>
        <time>2018-11-02T12:32:01Z</time>
      </trkpt>
      <trkpt lat="43.59593" lon="5.26652">
        <ele>212.60231838872</ele>
        <time>2018-11-02T12:32:04Z</time>
      </trkpt>
      <trkpt lat="43.59596" lon="5.26646">
        <ele>212.56021554341</ele>
        <time>2018-11-02T12:32:09Z</time>
      </trkpt>
      <trkpt lat="43.59598" lon="5.26641">
        <ele>212.52809807726</ele>
        <time>2018-11-02T12:32:13Z</time>
      </trkpt>
      <trkpt lat="43.59602" lon="5.26636">
        <ele>212.48943802275</ele>
        <time>2018-11-02T12:32:18Z</time>
      </trkpt>
      <trkpt lat="43.59605" lon="5.26631">
        <ele>212.4592461184</ele>
        <time>2018-11-02T12:32:22Z</time>
      </trkpt>
      <trkpt lat="43.59608" lon="5.26627">
        <ele>212.42836836032</ele>
        <time>2018-11-02T12:32:26Z</time>
      </trkpt>
      <trkpt lat="43.59612" lon="5.26624">
        <ele>212.39583407192</ele>
        <time>2018-11-02T12:32:30Z</time>
      </trkpt>
      <trkpt lat="43.59617" lon="5.26621">
        <ele>212.35514242511</ele>
        <time>2018-11-02T12:32:35Z</time>
      </trkpt>
      <trkpt lat="43.59621" lon="5.26618">
        <ele>212.32166569791</ele>
        <time>2018-11-02T12:32:39Z</time>
      </trkpt>
      <trkpt lat="43.59624" lon="5.26618">
        <ele>212.29624406283</ele>
        <time>2018-11-02T12:32:42Z</time>
      </trkpt>
      <trkpt lat="43.59629" lon="5.26617">
        <ele>212.25569499877</ele>
        <time>2018-11-02T12:32:47Z</time>
      </trkpt>
      <trkpt lat="43.59633" lon="5.26616">
        <ele>212.23377276176</ele>
        <time>2018-11-02T12:32:50Z</time>
      </trkpt>
      <trkpt lat="43.59635" lon="5.26612">
        <ele>212.20527288192</ele>
        <time>2018-11-02T12:32:54Z</time>
      </trkpt>
      <trkpt lat="43.59638" lon="5.26607">
        <ele>212.1764822843</ele>
        <time>2018-11-02T12:32:58Z</time>
      </trkpt>
      <trkpt lat="43.5964" lon="5.26602">
        <ele>212.14770567583</ele>
        <time>2018-11-02T12:33:02Z</time>
      </trkpt>
      <trkpt lat="43.59642" lon="5.26594">
        <ele>212.11120212195</ele>
        <time>2018-11-02T12:33:07Z</time>
      </trkpt>
      <trkpt lat="43.59643" lon="5.26588">
        <ele>212.08236580919</ele>
        <time>2018-11-02T12:33:11Z</time>
      </trkpt>
      <trkpt lat="43.59644" lon="5.2658">
        <ele>212.05306725403</ele>
        <time>2018-11-02T12:33:16Z</time>
      </trkpt>
      <trkpt lat="43.59647" lon="5.26575">
        <ele>212.03430960459</ele>
        <time>2018-11-02T12:33:20Z</time>
      </trkpt>
      <trkpt lat="43.59649" lon="5.26568">
        <ele>212.01135774337</ele>
        <time>2018-11-02T12:33:25Z</time>
      </trkpt>
      <trkpt lat="43.59652" lon="5.26562">
        <ele>211.99326715732</ele>
        <time>2018-11-02T12:33:29Z</time>
      </trkpt>
      <trkpt lat="43.59656" lon="5.26557">
        <ele>211.97453973778</ele>
        <time>2018-11-02T12:33:33Z</time>
      </trkpt>
      <trkpt lat="43.59659" lon="5.26552">
        <ele>211.95425390774</ele>
        <time>2018-11-02T12:33:37Z</time>
      </trkpt>
      <trkpt lat="43.59662" lon="5.26545">
        <ele>211.92507271417</ele>
        <time>2018-11-02T12:33:42Z</time>
      </trkpt>
      <trkpt lat="43.59664" lon="5.2654">
        <ele>211.89890434724</ele>
        <time>2018-11-02T12:33:46Z</time>
      </trkpt>
      <trkpt lat="43.59667" lon="5.26533">
        <ele>211.86314977141</ele>
        <time>2018-11-02T12:33:51Z</time>
      </trkpt>
      <trkpt lat="43.5967" lon="5.26528">
        <ele>211.83303380427</ele>
        <time>2018-11-02T12:33:55Z</time>
      </trkpt>
      <trkpt lat="43.59673" lon="5.26524">
        <ele>211.80170456061</ele>
        <time>2018-11-02T12:33:59Z</time>
      </trkpt>
      <trkpt lat="43.59675" lon="5.26521">
        <ele>211.77939187452</ele>
        <time>2018-11-02T12:34:02Z</time>
      </trkpt>
      <trkpt lat="43.59677" lon="5.26518">
        <ele>211.75718765323</ele>
        <time>2018-11-02T12:34:05Z</time>
      </trkpt>
      <trkpt lat="43.5968" lon="5.26513">
        <ele>211.72882385116</ele>
        <time>2018-11-02T12:34:09Z</time>
      </trkpt>
      <trkpt lat="43.59682" lon="5.26509">
        <ele>211.70242569969</ele>
        <time>2018-11-02T12:34:13Z</time>
      </trkpt>
      <trkpt lat="43.59686" lon="5.26505">
        <ele>211.67768436131</ele>
        <time>2018-11-02T12:34:17Z</time>
      </trkpt>
      <trkpt lat="43.59691" lon="5.265">
        <ele>211.65157769261</ele>
        <time>2018-11-02T12:34:22Z</time>
      </trkpt>
      <trkpt lat="43.59695" lon="5.26498">
        <ele>211.63127720738</ele>
        <time>2018-11-02T12:34:26Z</time>
      </trkpt>
      <trkpt lat="43.59698" lon="5.26494">
        <ele>211.61014617205</ele>
        <time>2018-11-02T12:34:30Z</time>
      </trkpt>
      <trkpt lat="43.59704" lon="5.26488">
        <ele>211.58521989498</ele>
        <time>2018-11-02T12:34:35Z</time>
      </trkpt>
      <trkpt lat="43.59707" lon="5.26484">
        <ele>211.56628811603</ele>
        <time>2018-11-02T12:34:39Z</time>
      </trkpt>
      <trkpt lat="43.59712" lon="5.2648">
        <ele>211.54049101378</ele>
        <time>2018-11-02T12:34:44Z</time>
      </trkpt>
      <trkpt lat="43.59717" lon="5.26477">
        <ele>211.51828429497</ele>
        <time>2018-11-02T12:34:48Z</time>
      </trkpt>
      <trkpt lat="43.59722" lon="5.26472">
        <ele>211.49041594254</ele>
        <time>2018-11-02T12:34:53Z</time>
      </trkpt>
      <trkpt lat="43.59726" lon="5.2647">
        <ele>211.46664135845</ele>
        <time>2018-11-02T12:34:57Z</time>
      </trkpt>
      <trkpt lat="43.59729" lon="5.26468">
        <ele>211.44746834388</ele>
        <time>2018-11-02T12:35:00Z</time>
      </trkpt>
      <trkpt lat="43.59732" lon="5.26465">
        <ele>211.4262037125</ele>
        <time>2018-11-02T12:35:03Z</time>
      </trkpt>
      <trkpt lat="43.59736" lon="5.26462">
        <ele>211.38852469104</ele>
        <time>2018-11-02T12:35:08Z</time>
      </trkpt>
      <trkpt lat="43.59741" lon="5.26459">
        <ele>211.35581854143</ele>
        <time>2018-11-02T12:35:12Z</time>
      </trkpt>
      <trkpt lat="43.59747" lon="5.26456">
        <ele>211.30940126733</ele>
        <time>2018-11-02T12:35:17Z</time>
      </trkpt>
      <trkpt lat="43.59752" lon="5.26454">
        <ele>211.2670523755</ele>
        <time>2018-11-02T12:35:21Z</time>
      </trkpt>
      <trkpt lat="43.59758" lon="5.26452">
        <ele>211.20681446189</ele>
        <time>2018-11-02T12:35:26Z</time>
      </trkpt>
      <trkpt lat="43.59761" lon="5.26449">
        <ele>211.15583670364</ele>
        <time>2018-11-02T12:35:30Z</time>
      </trkpt>
      <trkpt lat="43.59765" lon="5.26448">
        <ele>211.10552325873</ele>
        <time>2018-11-02T12:35:34Z</time>
      </trkpt>
      <trkpt lat="43.59769" lon="5.26448">
        <ele>211.05811273455</ele>
        <time>2018-11-02T12:35:38Z</time>
      </trkpt>
      <trkpt lat="43.59775" lon="5.26449">
        <ele>211.01929429778</ele>
        <time>2018-11-02T12:35:42Z</time>
      </trkpt>
      <trkpt lat="43.5978" lon="5.26451">
        <ele>210.98996397628</ele>
        <time>2018-11-02T12:35:46Z</time>
      </trkpt>
      <trkpt lat="43.59785" lon="5.26451">
        <ele>210.96097223692</ele>
        <time>2018-11-02T12:35:51Z</time>
      </trkpt>
      <trkpt lat="43.59787" lon="5.2645">
        <ele>210.94415271008</ele>
        <time>2018-11-02T12:35:54Z</time>
      </trkpt>
      <trkpt lat="43.59794" lon="5.26449">
        <ele>210.91204034397</ele>
        <time>2018-11-02T12:35:59Z</time>
      </trkpt>
      <trkpt lat="43.59799" lon="5.2645">
        <ele>210.87497527435</ele>
        <time>2018-11-02T12:36:04Z</time>
      </trkpt>
      <trkpt lat="43.59803" lon="5.26452">
        <ele>210.8502352475</ele>
        <time>2018-11-02T12:36:07Z</time>
      </trkpt>
      <trkpt lat="43.59807" lon="5.26457">
        <ele>210.80988006481</ele>
        <time>2018-11-02T12:36:12Z</time>
      </trkpt>
      <trkpt lat="43.59811" lon="5.26459">
        <ele>210.78541329003</ele>
        <time>2018-11-02T12:36:15Z</time>
      </trkpt>
      <trkpt lat="43.59816" lon="5.26462">
        <ele>210.75349014404</ele>
        <time>2018-11-02T12:36:19Z</time>
      </trkpt>
      <trkpt lat="43.59822" lon="5.26465">
        <ele>210.71598258279</ele>
        <time>2018-11-02T12:36:24Z</time>
      </trkpt>
      <trkpt lat="43.59827" lon="5.26467">
        <ele>210.68787521119</ele>
        <time>2018-11-02T12:36:28Z</time>
      </trkpt>
      <trkpt lat="43.59831" lon="5.2647">
        <ele>210.64725093293</ele>
        <time>2018-11-02T12:36:33Z</time>
      </trkpt>
      <trkpt lat="43.59835" lon="5.26472">
        <ele>210.61110002726</ele>
        <time>2018-11-02T12:36:37Z</time>
      </trkpt>
      <trkpt lat="43.59839" lon="5.26474">
        <ele>210.57206397331</ele>
        <time>2018-11-02T12:36:41Z</time>
      </trkpt>
      <trkpt lat="43.59843" lon="5.26476">
        <ele>210.51482944427</ele>
        <time>2018-11-02T12:36:47Z</time>
      </trkpt>
      <trkpt lat="43.59846" lon="5.26478">
        <ele>210.45472427504</ele>
        <time>2018-11-02T12:36:56Z</time>
      </trkpt>
      <trkpt lat="43.5985" lon="5.26478">
        <ele>210.43183239348</ele>
        <time>2018-11-02T12:36:59Z</time>
      </trkpt>
      <trkpt lat="43.59854" lon="5.26479">
        <ele>210.38850598644</ele>
        <time>2018-11-02T12:37:05Z</time>
      </trkpt>
      <trkpt lat="43.59858" lon="5.26478">
        <ele>210.35353969301</ele>
        <time>2018-11-02T12:37:10Z</time>
      </trkpt>
      <trkpt lat="43.59861" lon="5.26479">
        <ele>210.31939211994</ele>
        <time>2018-11-02T12:37:15Z</time>
      </trkpt>
      <trkpt lat="43.59864" lon="5.26481">
        <ele>210.29446094691</ele>
        <time>2018-11-02T12:37:19Z</time>
      </trkpt>
      <trkpt lat="43.59871" lon="5.26485">
        <ele>210.26734981871</ele>
        <time>2018-11-02T12:37:24Z</time>
      </trkpt>
      <trkpt lat="43.59874" lon="5.26489">
        <ele>210.24746795884</ele>
        <time>2018-11-02T12:37:28Z</time>
      </trkpt>
      <trkpt lat="43.59878" lon="5.26492">
        <ele>210.22732789352</ele>
        <time>2018-11-02T12:37:32Z</time>
      </trkpt>
      <trkpt lat="43.59881" lon="5.26496">
        <ele>210.21260248275</ele>
        <time>2018-11-02T12:37:35Z</time>
      </trkpt>
      <trkpt lat="43.59882" lon="5.26501">
        <ele>210.19408620533</ele>
        <time>2018-11-02T12:37:39Z</time>
      </trkpt>
      <trkpt lat="43.59884" lon="5.26505">
        <ele>210.1691901615</ele>
        <time>2018-11-02T12:37:44Z</time>
      </trkpt>
      <trkpt lat="43.59886" lon="5.26512">
        <ele>210.14652186064</ele>
        <time>2018-11-02T12:37:48Z</time>
      </trkpt>
      <trkpt lat="43.59887" lon="5.26519">
        <ele>210.13525661175</ele>
        <time>2018-11-02T12:37:52Z</time>
      </trkpt>
      <trkpt lat="43.59889" lon="5.26526">
        <ele>210.13324622638</ele>
        <time>2018-11-02T12:37:57Z</time>
      </trkpt>
      <trkpt lat="43.59892" lon="5.26529">
        <ele>210.13557465186</ele>
        <time>2018-11-02T12:38:02Z</time>
      </trkpt>
      <trkpt lat="43.59892" lon="5.26535">
        <ele>210.1423249043</ele>
        <time>2018-11-02T12:38:10Z</time>
      </trkpt>
      <trkpt lat="43.59894" lon="5.26541">
        <ele>210.14290811337</ele>
        <time>2018-11-02T12:38:15Z</time>
      </trkpt>
      <trkpt lat="43.59896" lon="5.26546">
        <ele>210.13974169299</ele>
        <time>2018-11-02T12:38:19Z</time>
      </trkpt>
      <trkpt lat="43.59897" lon="5.26551">
        <ele>210.13475375751</ele>
        <time>2018-11-02T12:38:23Z</time>
      </trkpt>
      <trkpt lat="43.599" lon="5.26557">
        <ele>210.12630965546</ele>
        <time>2018-11-02T12:38:28Z</time>
      </trkpt>
      <trkpt lat="43.59903" lon="5.26563">
        <ele>210.11367036081</ele>
        <time>2018-11-02T12:38:33Z</time>
      </trkpt>
      <trkpt lat="43.59904" lon="5.26567">
        <ele>210.10506205633</ele>
        <time>2018-11-02T12:38:36Z</time>
      </trkpt>
      <trkpt lat="43.59905" lon="5.26572">
        <ele>210.09308468017</ele>
        <time>2018-11-02T12:38:40Z</time>
      </trkpt>
      <trkpt lat="43.59907" lon="5.26577">
        <ele>210.08170919856</ele>
        <time>2018-11-02T12:38:44Z</time>
      </trkpt>
      <trkpt lat="43.59908" lon="5.26582">
        <ele>210.07158529516</ele>
        <time>2018-11-02T12:38:48Z</time>
      </trkpt>
      <trkpt lat="43.59909" lon="5.26586">
        <ele>210.06600311575</ele>
        <time>2018-11-02T12:38:51Z</time>
      </trkpt>
      <trkpt lat="43.59913" lon="5.26591">
        <ele>210.05885608295</ele>
        <time>2018-11-02T12:38:56Z</time>
      </trkpt>
      <trkpt lat="43.59916" lon="5.26596">
        <ele>210.05399603468</ele>
        <time>2018-11-02T12:39:00Z</time>
      </trkpt>
      <trkpt lat="43.59918" lon="5.26599">
        <ele>210.04987889035</ele>
        <time>2018-11-02T12:39:04Z</time>
      </trkpt>
      <trkpt lat="43.59922" lon="5.26603">
        <ele>210.047603643</ele>
        <time>2018-11-02T12:39:09Z</time>
      </trkpt>
      <trkpt lat="43.59925" lon="5.26606">
        <ele>210.04894381051</ele>
        <time>2018-11-02T12:39:13Z</time>
      </trkpt>
      <trkpt lat="43.59929" lon="5.2661">
        <ele>210.05547208336</ele>
        <time>2018-11-02T12:39:17Z</time>
      </trkpt>
      <trkpt lat="43.59933" lon="5.26614">
        <ele>210.06696436108</ele>
        <time>2018-11-02T12:39:21Z</time>
      </trkpt>
      <trkpt lat="43.59937" lon="5.26617">
        <ele>210.07973102388</ele>
        <time>2018-11-02T12:39:25Z</time>
      </trkpt>
      <trkpt lat="43.59939" lon="5.26621">
        <ele>210.09544454685</ele>
        <time>2018-11-02T12:39:29Z</time>
      </trkpt>
      <trkpt lat="43.59942" lon="5.26626">
        <ele>210.11670385753</ele>
        <time>2018-11-02T12:39:34Z</time>
      </trkpt>
      <trkpt lat="43.59944" lon="5.2663">
        <ele>210.13068112045</ele>
        <time>2018-11-02T12:39:37Z</time>
      </trkpt>
      <trkpt lat="43.59948" lon="5.26634">
        <ele>210.15077198262</ele>
        <time>2018-11-02T12:39:41Z</time>
      </trkpt>
      <trkpt lat="43.59951" lon="5.26637">
        <ele>210.16992490987</ele>
        <time>2018-11-02T12:39:45Z</time>
      </trkpt>
      <trkpt lat="43.59955" lon="5.2664">
        <ele>210.18723080388</ele>
        <time>2018-11-02T12:39:49Z</time>
      </trkpt>
      <trkpt lat="43.59959" lon="5.26643">
        <ele>210.19881778823</ele>
        <time>2018-11-02T12:39:52Z</time>
      </trkpt>
      <trkpt lat="43.59962" lon="5.26646">
        <ele>210.21293584542</ele>
        <time>2018-11-02T12:39:56Z</time>
      </trkpt>
      <trkpt lat="43.59964" lon="5.26653">
        <ele>210.22774250958</ele>
        <time>2018-11-02T12:40:01Z</time>
      </trkpt>
      <trkpt lat="43.59965" lon="5.2666">
        <ele>210.23842752193</ele>
        <time>2018-11-02T12:40:06Z</time>
      </trkpt>
      <trkpt lat="43.59966" lon="5.26664">
        <ele>210.24307925999</ele>
        <time>2018-11-02T12:40:09Z</time>
      </trkpt>
      <trkpt lat="43.59969" lon="5.26668">
        <ele>210.25101607475</ele>
        <time>2018-11-02T12:40:14Z</time>
      </trkpt>
      <trkpt lat="43.59971" lon="5.2667">
        <ele>210.2603868777</ele>
        <time>2018-11-02T12:40:19Z</time>
      </trkpt>
      <trkpt lat="43.59976" lon="5.2667">
        <ele>210.26960974136</ele>
        <time>2018-11-02T12:40:23Z</time>
      </trkpt>
      <trkpt lat="43.5998" lon="5.26671">
        <ele>210.27707802164</ele>
        <time>2018-11-02T12:40:27Z</time>
      </trkpt>
      <trkpt lat="43.59986" lon="5.26672">
        <ele>210.29156040519</ele>
        <time>2018-11-02T12:40:32Z</time>
      </trkpt>
      <trkpt lat="43.5999" lon="5.26672">
        <ele>210.30682755392</ele>
        <time>2018-11-02T12:40:37Z</time>
      </trkpt>
      <trkpt lat="43.59995" lon="5.26675">
        <ele>210.32110319939</ele>
        <time>2018-11-02T12:40:42Z</time>
      </trkpt>
      <trkpt lat="43.59997" lon="5.26677">
        <ele>210.32910716787</ele>
        <time>2018-11-02T12:40:45Z</time>
      </trkpt>
      <trkpt lat="43.60003" lon="5.26681">
        <ele>210.34307684779</ele>
        <time>2018-11-02T12:40:50Z</time>
      </trkpt>
      <trkpt lat="43.60006" lon="5.26684">
        <ele>210.3549221934</ele>
        <time>2018-11-02T12:40:54Z</time>
      </trkpt>
      <trkpt lat="43.6001" lon="5.26686">
        <ele>210.36599226054</ele>
        <time>2018-11-02T12:40:58Z</time>
      </trkpt>
      <trkpt lat="43.60013" lon="5.26688">
        <ele>210.37638626173</ele>
        <time>2018-11-02T12:41:03Z</time>
      </trkpt>
      <trkpt lat="43.60016" lon="5.26689">
        <ele>210.38305868019</ele>
        <time>2018-11-02T12:41:07Z</time>
      </trkpt>
      <trkpt lat="43.60021" lon="5.26692">
        <ele>210.39187532214</ele>
        <time>2018-11-02T12:41:12Z</time>
      </trkpt>
      <trkpt lat="43.60027" lon="5.26694">
        <ele>210.39950227931</ele>
        <time>2018-11-02T12:41:16Z</time>
      </trkpt>
      <trkpt lat="43.60033" lon="5.26697">
        <ele>210.41013727566</ele>
        <time>2018-11-02T12:41:21Z</time>
      </trkpt>
      <trkpt lat="43.60037" lon="5.26699">
        <ele>210.41937833355</ele>
        <time>2018-11-02T12:41:25Z</time>
      </trkpt>
      <trkpt lat="43.60042" lon="5.267">
        <ele>210.43149809949</ele>
        <time>2018-11-02T12:41:30Z</time>
      </trkpt>
      <trkpt lat="43.60046" lon="5.26702">
        <ele>210.44420561296</ele>
        <time>2018-11-02T12:41:35Z</time>
      </trkpt>
      <trkpt lat="43.6005" lon="5.26705">
        <ele>210.45699338319</ele>
        <time>2018-11-02T12:41:40Z</time>
      </trkpt>
      <trkpt lat="43.60054" lon="5.26709">
        <ele>210.46774220842</ele>
        <time>2018-11-02T12:41:44Z</time>
      </trkpt>
      <trkpt lat="43.60057" lon="5.26711">
        <ele>210.47757158817</ele>
        <time>2018-11-02T12:41:48Z</time>
      </trkpt>
      <trkpt lat="43.6006" lon="5.26713">
        <ele>210.48554422811</ele>
        <time>2018-11-02T12:41:52Z</time>
      </trkpt>
      <trkpt lat="43.60066" lon="5.26716">
        <ele>210.496871369</ele>
        <time>2018-11-02T12:41:57Z</time>
      </trkpt>
      <trkpt lat="43.6007" lon="5.26718">
        <ele>210.50693429643</ele>
        <time>2018-11-02T12:42:01Z</time>
      </trkpt>
      <trkpt lat="43.60075" lon="5.26722">
        <ele>210.52106806335</ele>
        <time>2018-11-02T12:42:06Z</time>
      </trkpt>
      <trkpt lat="43.60079" lon="5.26724">
        <ele>210.53433381441</ele>
        <time>2018-11-02T12:42:10Z</time>
      </trkpt>
      <trkpt lat="43.60085" lon="5.26728">
        <ele>210.55555392499</ele>
        <time>2018-11-02T12:42:15Z</time>
      </trkpt>
      <trkpt lat="43.60092" lon="5.26731">
        <ele>210.58196138487</ele>
        <time>2018-11-02T12:42:20Z</time>
      </trkpt>
      <trkpt lat="43.60096" lon="5.26733">
        <ele>210.60509758469</ele>
        <time>2018-11-02T12:42:24Z</time>
      </trkpt>
      <trkpt lat="43.601" lon="5.26734">
        <ele>210.69585163257</ele>
        <time>2018-11-02T12:43:06Z</time>
      </trkpt>
      <trkpt lat="43.60104" lon="5.26735">
        <ele>210.75131315237</ele>
        <time>2018-11-02T12:43:11Z</time>
      </trkpt>
      <trkpt lat="43.60108" lon="5.26737">
        <ele>210.79080252857</ele>
        <time>2018-11-02T12:43:15Z</time>
      </trkpt>
      <trkpt lat="43.60111" lon="5.26739">
        <ele>210.83637723102</ele>
        <time>2018-11-02T12:43:20Z</time>
      </trkpt>
      <trkpt lat="43.60115" lon="5.26741">
        <ele>210.88570618552</ele>
        <time>2018-11-02T12:43:26Z</time>
      </trkpt>
      <trkpt lat="43.60119" lon="5.26744">
        <ele>210.92393426621</ele>
        <time>2018-11-02T12:43:31Z</time>
      </trkpt>
      <trkpt lat="43.60122" lon="5.26747">
        <ele>210.95991841774</ele>
        <time>2018-11-02T12:43:46Z</time>
      </trkpt>
      <trkpt lat="43.60126" lon="5.26751">
        <ele>211.00766440937</ele>
        <time>2018-11-02T12:43:54Z</time>
      </trkpt>
      <trkpt lat="43.60129" lon="5.26753">
        <ele>211.02083954831</ele>
        <time>2018-11-02T12:43:57Z</time>
      </trkpt>
      <trkpt lat="43.60134" lon="5.26756">
        <ele>211.03661653208</ele>
        <time>2018-11-02T12:44:02Z</time>
      </trkpt>
      <trkpt lat="43.60137" lon="5.26758">
        <ele>211.04369520291</ele>
        <time>2018-11-02T12:44:05Z</time>
      </trkpt>
      <trkpt lat="43.6014" lon="5.2676">
        <ele>211.05133851175</ele>
        <time>2018-11-02T12:44:09Z</time>
      </trkpt>
      <trkpt lat="43.60143" lon="5.26763">
        <ele>211.05528059797</ele>
        <time>2018-11-02T12:44:12Z</time>
      </trkpt>
      <trkpt lat="43.60145" lon="5.26766">
        <ele>211.05796003485</ele>
        <time>2018-11-02T12:44:15Z</time>
      </trkpt>
      <trkpt lat="43.60147" lon="5.26771">
        <ele>211.05917317988</ele>
        <time>2018-11-02T12:44:19Z</time>
      </trkpt>
      <trkpt lat="43.60148" lon="5.26777">
        <ele>211.05796176745</ele>
        <time>2018-11-02T12:44:24Z</time>
      </trkpt>
      <trkpt lat="43.60146" lon="5.26784">
        <ele>211.05955641401</ele>
        <time>2018-11-02T12:44:29Z</time>
      </trkpt>
      <trkpt lat="43.60146" lon="5.26788">
        <ele>211.06187097497</ele>
        <time>2018-11-02T12:44:32Z</time>
      </trkpt>
      <trkpt lat="43.60146" lon="5.26794">
        <ele>211.06854246206</ele>
        <time>2018-11-02T12:44:36Z</time>
      </trkpt>
      <trkpt lat="43.60148" lon="5.268">
        <ele>211.11372341559</ele>
        <time>2018-11-02T12:44:57Z</time>
      </trkpt>
      <trkpt lat="43.60151" lon="5.26804">
        <ele>211.17305507915</ele>
        <time>2018-11-02T12:45:36Z</time>
      </trkpt>
      <trkpt lat="43.60155" lon="5.26806">
        <ele>211.22377040797</ele>
        <time>2018-11-02T12:45:46Z</time>
      </trkpt>
      <trkpt lat="43.60158" lon="5.26809">
        <ele>211.24003341842</ele>
        <time>2018-11-02T12:45:49Z</time>
      </trkpt>
      <trkpt lat="43.6016" lon="5.26814">
        <ele>211.26596035472</ele>
        <time>2018-11-02T12:45:54Z</time>
      </trkpt>
      <trkpt lat="43.60163" lon="5.26817">
        <ele>211.28519427502</ele>
        <time>2018-11-02T12:45:58Z</time>
      </trkpt>
      <trkpt lat="43.60169" lon="5.26821">
        <ele>211.31039749093</ele>
        <time>2018-11-02T12:46:03Z</time>
      </trkpt>
      <trkpt lat="43.60173" lon="5.26823">
        <ele>211.32967420766</ele>
        <time>2018-11-02T12:46:07Z</time>
      </trkpt>
      <trkpt lat="43.60176" lon="5.26827">
        <ele>211.35191926277</ele>
        <time>2018-11-02T12:46:12Z</time>
      </trkpt>
      <trkpt lat="43.60179" lon="5.26832">
        <ele>211.36970873367</ele>
        <time>2018-11-02T12:46:16Z</time>
      </trkpt>
      <trkpt lat="43.60182" lon="5.26836">
        <ele>211.38559157773</ele>
        <time>2018-11-02T12:46:20Z</time>
      </trkpt>
      <trkpt lat="43.60184" lon="5.26839">
        <ele>211.39963973297</ele>
        <time>2018-11-02T12:46:24Z</time>
      </trkpt>
      <trkpt lat="43.60189" lon="5.26843">
        <ele>211.4151288072</ele>
        <time>2018-11-02T12:46:29Z</time>
      </trkpt>
      <trkpt lat="43.60191" lon="5.26845">
        <ele>211.42317194526</ele>
        <time>2018-11-02T12:46:32Z</time>
      </trkpt>
      <trkpt lat="43.60195" lon="5.26846">
        <ele>211.43477562256</ele>
        <time>2018-11-02T12:46:36Z</time>
      </trkpt>
      <trkpt lat="43.60199" lon="5.26846">
        <ele>211.44659195968</ele>
        <time>2018-11-02T12:46:40Z</time>
      </trkpt>
      <trkpt lat="43.60204" lon="5.26844">
        <ele>211.46561038021</ele>
        <time>2018-11-02T12:46:45Z</time>
      </trkpt>
      <trkpt lat="43.60209" lon="5.26845">
        <ele>211.48503861878</ele>
        <time>2018-11-02T12:46:49Z</time>
      </trkpt>
      <trkpt lat="43.60213" lon="5.26846">
        <ele>211.5002688827</ele>
        <time>2018-11-02T12:46:52Z</time>
      </trkpt>
      <trkpt lat="43.60218" lon="5.26848">
        <ele>211.52452822303</ele>
        <time>2018-11-02T12:46:57Z</time>
      </trkpt>
      <trkpt lat="43.60222" lon="5.26849">
        <ele>211.54301319085</ele>
        <time>2018-11-02T12:47:01Z</time>
      </trkpt>
      <trkpt lat="43.60227" lon="5.26849">
        <ele>211.56032082363</ele>
        <time>2018-11-02T12:47:05Z</time>
      </trkpt>
      <trkpt lat="43.60233" lon="5.2685">
        <ele>211.5831693595</ele>
        <time>2018-11-02T12:47:10Z</time>
      </trkpt>
      <trkpt lat="43.60239" lon="5.26851">
        <ele>211.60497614394</ele>
        <time>2018-11-02T12:47:15Z</time>
      </trkpt>
      <trkpt lat="43.60243" lon="5.26852">
        <ele>211.61999380211</ele>
        <time>2018-11-02T12:47:19Z</time>
      </trkpt>
      <trkpt lat="43.60249" lon="5.26855">
        <ele>211.63909484052</ele>
        <time>2018-11-02T12:47:24Z</time>
      </trkpt>
      <trkpt lat="43.60255" lon="5.26857">
        <ele>211.66149837278</ele>
        <time>2018-11-02T12:47:29Z</time>
      </trkpt>
      <trkpt lat="43.60259" lon="5.26858">
        <ele>211.68090355928</ele>
        <time>2018-11-02T12:47:33Z</time>
      </trkpt>
      <trkpt lat="43.60263" lon="5.26859">
        <ele>211.71123064555</ele>
        <time>2018-11-02T12:47:39Z</time>
      </trkpt>
      <trkpt lat="43.60267" lon="5.26861">
        <ele>211.73518468511</ele>
        <time>2018-11-02T12:47:44Z</time>
      </trkpt>
      <trkpt lat="43.60271" lon="5.26863">
        <ele>211.75214163836</ele>
        <time>2018-11-02T12:47:48Z</time>
      </trkpt>
      <trkpt lat="43.60276" lon="5.26865">
        <ele>211.76823501858</ele>
        <time>2018-11-02T12:47:52Z</time>
      </trkpt>
      <trkpt lat="43.60283" lon="5.26868">
        <ele>211.79023885809</ele>
        <time>2018-11-02T12:47:57Z</time>
      </trkpt>
      <trkpt lat="43.60287" lon="5.2687">
        <ele>211.80922725511</ele>
        <time>2018-11-02T12:48:01Z</time>
      </trkpt>
      <trkpt lat="43.60292" lon="5.26871">
        <ele>211.82868826805</ele>
        <time>2018-11-02T12:48:05Z</time>
      </trkpt>
      <trkpt lat="43.60295" lon="5.26871">
        <ele>211.84713956036</ele>
        <time>2018-11-02T12:48:09Z</time>
      </trkpt>
      <trkpt lat="43.603" lon="5.26871">
        <ele>211.86796410613</ele>
        <time>2018-11-02T12:48:14Z</time>
      </trkpt>
      <trkpt lat="43.60303" lon="5.26871">
        <ele>211.8810141911</ele>
        <time>2018-11-02T12:48:17Z</time>
      </trkpt>
      <trkpt lat="43.60309" lon="5.26873">
        <ele>211.90623457219</ele>
        <time>2018-11-02T12:48:22Z</time>
      </trkpt>
      <trkpt lat="43.60312" lon="5.26874">
        <ele>211.9279824392</ele>
        <time>2018-11-02T12:48:26Z</time>
      </trkpt>
      <trkpt lat="43.60314" lon="5.26875">
        <ele>211.94274255314</ele>
        <time>2018-11-02T12:48:29Z</time>
      </trkpt>
      <trkpt lat="43.60319" lon="5.26876">
        <ele>211.96271856673</ele>
        <time>2018-11-02T12:48:33Z</time>
      </trkpt>
      <trkpt lat="43.60327" lon="5.26877">
        <ele>211.99131379116</ele>
        <time>2018-11-02T12:48:38Z</time>
      </trkpt>
      <trkpt lat="43.60332" lon="5.26879">
        <ele>212.01438081928</ele>
        <time>2018-11-02T12:48:42Z</time>
      </trkpt>
      <trkpt lat="43.60339" lon="5.26881">
        <ele>212.03493592835</ele>
        <time>2018-11-02T12:48:47Z</time>
      </trkpt>
      <trkpt lat="43.60343" lon="5.26883">
        <ele>212.04473780799</ele>
        <time>2018-11-02T12:48:50Z</time>
      </trkpt>
      <trkpt lat="43.60347" lon="5.26887">
        <ele>212.05675770823</ele>
        <time>2018-11-02T12:48:54Z</time>
      </trkpt>
      <trkpt lat="43.60349" lon="5.26891">
        <ele>212.06990000911</ele>
        <time>2018-11-02T12:48:59Z</time>
      </trkpt>
      <trkpt lat="43.60352" lon="5.26894">
        <ele>212.08005711417</ele>
        <time>2018-11-02T12:49:03Z</time>
      </trkpt>
      <trkpt lat="43.60354" lon="5.26897">
        <ele>212.09008912441</ele>
        <time>2018-11-02T12:49:07Z</time>
      </trkpt>
      <trkpt lat="43.60356" lon="5.269">
        <ele>212.09564334826</ele>
        <time>2018-11-02T12:49:11Z</time>
      </trkpt>
      <trkpt lat="43.60359" lon="5.26907">
        <ele>212.09782357812</ele>
        <time>2018-11-02T12:49:16Z</time>
      </trkpt>
      <trkpt lat="43.6036" lon="5.26912">
        <ele>212.09528192219</ele>
        <time>2018-11-02T12:49:21Z</time>
      </trkpt>
      <trkpt lat="43.60362" lon="5.26918">
        <ele>212.09312673172</ele>
        <time>2018-11-02T12:49:25Z</time>
      </trkpt>
      <trkpt lat="43.60364" lon="5.26922">
        <ele>212.0918310514</ele>
        <time>2018-11-02T12:49:29Z</time>
      </trkpt>
      <trkpt lat="43.60366" lon="5.26928">
        <ele>212.09114031027</ele>
        <time>2018-11-02T12:49:33Z</time>
      </trkpt>
      <trkpt lat="43.60368" lon="5.26933">
        <ele>212.09330596966</ele>
        <time>2018-11-02T12:49:38Z</time>
      </trkpt>
      <trkpt lat="43.60372" lon="5.26938">
        <ele>212.10183795112</ele>
        <time>2018-11-02T12:49:43Z</time>
      </trkpt>
      <trkpt lat="43.60377" lon="5.26942">
        <ele>212.11605854854</ele>
        <time>2018-11-02T12:49:47Z</time>
      </trkpt>
      <trkpt lat="43.6038" lon="5.26945">
        <ele>212.13290494732</ele>
        <time>2018-11-02T12:49:51Z</time>
      </trkpt>
      <trkpt lat="43.60382" lon="5.26949">
        <ele>212.14807655771</ele>
        <time>2018-11-02T12:49:54Z</time>
      </trkpt>
      <trkpt lat="43.60385" lon="5.26956">
        <ele>212.17813823562</ele>
        <time>2018-11-02T12:49:59Z</time>
      </trkpt>
      <trkpt lat="43.60388" lon="5.26961">
        <ele>212.20303047903</ele>
        <time>2018-11-02T12:50:03Z</time>
      </trkpt>
      <trkpt lat="43.60392" lon="5.26967">
        <ele>212.23044263633</ele>
        <time>2018-11-02T12:50:07Z</time>
      </trkpt>
      <trkpt lat="43.60395" lon="5.26972">
        <ele>212.26103400662</ele>
        <time>2018-11-02T12:50:11Z</time>
      </trkpt>
      <trkpt lat="43.60397" lon="5.26975">
        <ele>212.28576228077</ele>
        <time>2018-11-02T12:50:14Z</time>
      </trkpt>
      <trkpt lat="43.604" lon="5.26979">
        <ele>212.3215889515</ele>
        <time>2018-11-02T12:50:18Z</time>
      </trkpt>
      <trkpt lat="43.60404" lon="5.26985">
        <ele>212.36836770277</ele>
        <time>2018-11-02T12:50:23Z</time>
      </trkpt>
      <trkpt lat="43.60406" lon="5.26989">
        <ele>212.39842927442</ele>
        <time>2018-11-02T12:50:26Z</time>
      </trkpt>
      <trkpt lat="43.60409" lon="5.26993">
        <ele>212.44283301945</ele>
        <time>2018-11-02T12:50:30Z</time>
      </trkpt>
      <trkpt lat="43.60411" lon="5.26998">
        <ele>212.47701187672</ele>
        <time>2018-11-02T12:50:33Z</time>
      </trkpt>
      <trkpt lat="43.60414" lon="5.27005">
        <ele>212.53451738409</ele>
        <time>2018-11-02T12:50:38Z</time>
      </trkpt>
      <trkpt lat="43.60416" lon="5.2701">
        <ele>212.57985045945</ele>
        <time>2018-11-02T12:50:42Z</time>
      </trkpt>
      <trkpt lat="43.60419" lon="5.27017">
        <ele>212.63572874635</ele>
        <time>2018-11-02T12:50:47Z</time>
      </trkpt>
      <trkpt lat="43.60422" lon="5.27023">
        <ele>212.68282145898</ele>
        <time>2018-11-02T12:50:51Z</time>
      </trkpt>
      <trkpt lat="43.60425" lon="5.27028">
        <ele>212.73158276479</ele>
        <time>2018-11-02T12:50:55Z</time>
      </trkpt>
      <trkpt lat="43.60428" lon="5.27033">
        <ele>212.78567573884</ele>
        <time>2018-11-02T12:50:59Z</time>
      </trkpt>
      <trkpt lat="43.60431" lon="5.27036">
        <ele>212.84143867452</ele>
        <time>2018-11-02T12:51:03Z</time>
      </trkpt>
      <trkpt lat="43.60436" lon="5.27039">
        <ele>212.90998904342</ele>
        <time>2018-11-02T12:51:08Z</time>
      </trkpt>
      <trkpt lat="43.6044" lon="5.27042">
        <ele>212.94981111529</ele>
        <time>2018-11-02T12:51:11Z</time>
      </trkpt>
      <trkpt lat="43.60445" lon="5.27045">
        <ele>213.00097467237</ele>
        <time>2018-11-02T12:51:15Z</time>
      </trkpt>
      <trkpt lat="43.6045" lon="5.27047">
        <ele>213.04982210405</ele>
        <time>2018-11-02T12:51:19Z</time>
      </trkpt>
      <trkpt lat="43.60455" lon="5.2705">
        <ele>213.09685520424</ele>
        <time>2018-11-02T12:51:23Z</time>
      </trkpt>
      <trkpt lat="43.60459" lon="5.27053">
        <ele>213.13976197808</ele>
        <time>2018-11-02T12:51:27Z</time>
      </trkpt>
      <trkpt lat="43.60463" lon="5.27055">
        <ele>213.16909314232</ele>
        <time>2018-11-02T12:51:30Z</time>
      </trkpt>
      <trkpt lat="43.60467" lon="5.27059">
        <ele>213.20617526386</ele>
        <time>2018-11-02T12:51:34Z</time>
      </trkpt>
      <trkpt lat="43.6047" lon="5.27061">
        <ele>213.24149727471</ele>
        <time>2018-11-02T12:51:38Z</time>
      </trkpt>
      <trkpt lat="43.60475" lon="5.27064">
        <ele>213.28381051814</ele>
        <time>2018-11-02T12:51:43Z</time>
      </trkpt>
      <trkpt lat="43.6048" lon="5.27067">
        <ele>213.31565358415</ele>
        <time>2018-11-02T12:51:47Z</time>
      </trkpt>
      <trkpt lat="43.60485" lon="5.2707">
        <ele>213.34490421361</ele>
        <time>2018-11-02T12:51:51Z</time>
      </trkpt>
      <trkpt lat="43.60489" lon="5.27075">
        <ele>213.37577976977</ele>
        <time>2018-11-02T12:51:56Z</time>
      </trkpt>
      <trkpt lat="43.60493" lon="5.27078">
        <ele>213.41678878172</ele>
        <time>2018-11-02T12:52:04Z</time>
      </trkpt>
      <trkpt lat="43.60496" lon="5.27083">
        <ele>213.43390130041</ele>
        <time>2018-11-02T12:52:08Z</time>
      </trkpt>
      <trkpt lat="43.60499" lon="5.27085">
        <ele>213.44609786732</ele>
        <time>2018-11-02T12:52:11Z</time>
      </trkpt>
      <trkpt lat="43.60503" lon="5.2709">
        <ele>213.46236674349</ele>
        <time>2018-11-02T12:52:16Z</time>
      </trkpt>
      <trkpt lat="43.60506" lon="5.27094">
        <ele>213.47522921449</ele>
        <time>2018-11-02T12:52:21Z</time>
      </trkpt>
      <trkpt lat="43.6051" lon="5.27098">
        <ele>213.48443270288</ele>
        <time>2018-11-02T12:52:26Z</time>
      </trkpt>
      <trkpt lat="43.60514" lon="5.27104">
        <ele>213.49155754523</ele>
        <time>2018-11-02T12:52:31Z</time>
      </trkpt>
      <trkpt lat="43.60517" lon="5.27108">
        <ele>213.49688188098</ele>
        <time>2018-11-02T12:52:34Z</time>
      </trkpt>
      <trkpt lat="43.60522" lon="5.27113">
        <ele>213.50476639985</ele>
        <time>2018-11-02T12:52:38Z</time>
      </trkpt>
      <trkpt lat="43.60524" lon="5.27116">
        <ele>213.51001650215</ele>
        <time>2018-11-02T12:52:41Z</time>
      </trkpt>
      <trkpt lat="43.60526" lon="5.27121">
        <ele>213.51814574694</ele>
        <time>2018-11-02T12:52:46Z</time>
      </trkpt>
      <trkpt lat="43.60527" lon="5.27126">
        <ele>213.52444831691</ele>
        <time>2018-11-02T12:52:50Z</time>
      </trkpt>
      <trkpt lat="43.60527" lon="5.27131">
        <ele>213.53132749972</ele>
        <time>2018-11-02T12:52:54Z</time>
      </trkpt>
      <trkpt lat="43.60529" lon="5.27135">
        <ele>213.53750295345</ele>
        <time>2018-11-02T12:52:58Z</time>
      </trkpt>
      <trkpt lat="43.60533" lon="5.2714">
        <ele>213.54298960205</ele>
        <time>2018-11-02T12:53:03Z</time>
      </trkpt>
      <trkpt lat="43.60536" lon="5.27146">
        <ele>213.54497100792</ele>
        <time>2018-11-02T12:53:07Z</time>
      </trkpt>
      <trkpt lat="43.60544" lon="5.27151">
        <ele>213.54453839252</ele>
        <time>2018-11-02T12:53:12Z</time>
      </trkpt>
      <trkpt lat="43.60548" lon="5.27152">
        <ele>213.54357229073</ele>
        <time>2018-11-02T12:53:15Z</time>
      </trkpt>
      <trkpt lat="43.60552" lon="5.27154">
        <ele>213.54229722078</ele>
        <time>2018-11-02T12:53:19Z</time>
      </trkpt>
      <trkpt lat="43.60557" lon="5.27156">
        <ele>213.54319596101</ele>
        <time>2018-11-02T12:53:23Z</time>
      </trkpt>
      <trkpt lat="43.6056" lon="5.27158">
        <ele>213.54660610437</ele>
        <time>2018-11-02T12:53:26Z</time>
      </trkpt>
      <trkpt lat="43.60566" lon="5.27161">
        <ele>213.55488988669</ele>
        <time>2018-11-02T12:53:31Z</time>
      </trkpt>
      <trkpt lat="43.60571" lon="5.27164">
        <ele>213.562285565</ele>
        <time>2018-11-02T12:53:35Z</time>
      </trkpt>
      <trkpt lat="43.60574" lon="5.27167">
        <ele>213.57264588424</ele>
        <time>2018-11-02T12:53:40Z</time>
      </trkpt>
      <trkpt lat="43.60578" lon="5.27171">
        <ele>213.58268256053</ele>
        <time>2018-11-02T12:53:45Z</time>
      </trkpt>
      <trkpt lat="43.60583" lon="5.27174">
        <ele>213.58919636825</ele>
        <time>2018-11-02T12:53:49Z</time>
      </trkpt>
      <trkpt lat="43.60587" lon="5.27179">
        <ele>213.59565291962</ele>
        <time>2018-11-02T12:53:54Z</time>
      </trkpt>
      <trkpt lat="43.60591" lon="5.27183">
        <ele>213.5992593945</ele>
        <time>2018-11-02T12:53:58Z</time>
      </trkpt>
      <trkpt lat="43.60595" lon="5.27187">
        <ele>213.60068834571</ele>
        <time>2018-11-02T12:54:02Z</time>
      </trkpt>
      <trkpt lat="43.60599" lon="5.27192">
        <ele>213.59877086717</ele>
        <time>2018-11-02T12:54:06Z</time>
      </trkpt>
      <trkpt lat="43.60602" lon="5.27196">
        <ele>213.59437680272</ele>
        <time>2018-11-02T12:54:10Z</time>
      </trkpt>
      <trkpt lat="43.60606" lon="5.27201">
        <ele>213.58482651636</ele>
        <time>2018-11-02T12:54:15Z</time>
      </trkpt>
      <trkpt lat="43.60608" lon="5.27206">
        <ele>213.57527840873</ele>
        <time>2018-11-02T12:54:19Z</time>
      </trkpt>
      <trkpt lat="43.6061" lon="5.27211">
        <ele>213.56498999486</ele>
        <time>2018-11-02T12:54:23Z</time>
      </trkpt>
      <trkpt lat="43.60611" lon="5.27217">
        <ele>213.55197671476</ele>
        <time>2018-11-02T12:54:28Z</time>
      </trkpt>
      <trkpt lat="43.60612" lon="5.27222">
        <ele>213.53682035804</ele>
        <time>2018-11-02T12:54:34Z</time>
      </trkpt>
      <trkpt lat="43.60613" lon="5.27229">
        <ele>213.52849352892</ele>
        <time>2018-11-02T12:54:38Z</time>
      </trkpt>
      <trkpt lat="43.60614" lon="5.27236">
        <ele>213.52265263578</ele>
        <time>2018-11-02T12:54:43Z</time>
      </trkpt>
      <trkpt lat="43.60615" lon="5.2724">
        <ele>213.5208675656</ele>
        <time>2018-11-02T12:54:46Z</time>
      </trkpt>
      <trkpt lat="43.60616" lon="5.27246">
        <ele>213.52188338114</ele>
        <time>2018-11-02T12:54:50Z</time>
      </trkpt>
      <trkpt lat="43.60618" lon="5.27251">
        <ele>213.52298525518</ele>
        <time>2018-11-02T12:54:54Z</time>
      </trkpt>
      <trkpt lat="43.6062" lon="5.27257">
        <ele>213.52253216191</ele>
        <time>2018-11-02T12:54:59Z</time>
      </trkpt>
      <trkpt lat="43.60621" lon="5.27264">
        <ele>213.52214358204</ele>
        <time>2018-11-02T12:55:03Z</time>
      </trkpt>
      <trkpt lat="43.60623" lon="5.27271">
        <ele>213.51819714311</ele>
        <time>2018-11-02T12:55:08Z</time>
      </trkpt>
      <trkpt lat="43.60624" lon="5.27277">
        <ele>213.51181604663</ele>
        <time>2018-11-02T12:55:12Z</time>
      </trkpt>
      <trkpt lat="43.60625" lon="5.27284">
        <ele>213.50572902682</ele>
        <time>2018-11-02T12:55:16Z</time>
      </trkpt>
      <trkpt lat="43.60626" lon="5.27291">
        <ele>213.49892109886</ele>
        <time>2018-11-02T12:55:20Z</time>
      </trkpt>
      <trkpt lat="43.60628" lon="5.27296">
        <ele>213.48961696275</ele>
        <time>2018-11-02T12:55:24Z</time>
      </trkpt>
      <trkpt lat="43.60631" lon="5.27301">
        <ele>213.47448509651</ele>
        <time>2018-11-02T12:55:29Z</time>
      </trkpt>
      <trkpt lat="43.60633" lon="5.27306">
        <ele>213.45927595812</ele>
        <time>2018-11-02T12:55:33Z</time>
      </trkpt>
      <trkpt lat="43.60635" lon="5.27309">
        <ele>213.44086397618</ele>
        <time>2018-11-02T12:55:37Z</time>
      </trkpt>
      <trkpt lat="43.60638" lon="5.27313">
        <ele>213.41352116444</ele>
        <time>2018-11-02T12:55:42Z</time>
      </trkpt>
      <trkpt lat="43.60641" lon="5.27317">
        <ele>213.38654386277</ele>
        <time>2018-11-02T12:55:46Z</time>
      </trkpt>
      <trkpt lat="43.60646" lon="5.27323">
        <ele>213.34889148424</ele>
        <time>2018-11-02T12:55:51Z</time>
      </trkpt>
      <trkpt lat="43.60649" lon="5.27327">
        <ele>213.30843023079</ele>
        <time>2018-11-02T12:55:56Z</time>
      </trkpt>
      <trkpt lat="43.6065" lon="5.27331">
        <ele>213.28344172611</ele>
        <time>2018-11-02T12:55:59Z</time>
      </trkpt>
      <trkpt lat="43.60653" lon="5.27337">
        <ele>213.24141542491</ele>
        <time>2018-11-02T12:56:04Z</time>
      </trkpt>
      <trkpt lat="43.60657" lon="5.27343">
        <ele>213.20988226544</ele>
        <time>2018-11-02T12:56:08Z</time>
      </trkpt>
      <trkpt lat="43.6066" lon="5.27349">
        <ele>213.17839447862</ele>
        <time>2018-11-02T12:56:12Z</time>
      </trkpt>
      <trkpt lat="43.60664" lon="5.27355">
        <ele>213.13764827234</ele>
        <time>2018-11-02T12:56:17Z</time>
      </trkpt>
      <trkpt lat="43.60667" lon="5.2736">
        <ele>213.10284243095</ele>
        <time>2018-11-02T12:56:21Z</time>
      </trkpt>
      <trkpt lat="43.60669" lon="5.27364">
        <ele>213.06602167847</ele>
        <time>2018-11-02T12:56:25Z</time>
      </trkpt>
      <trkpt lat="43.60671" lon="5.27369">
        <ele>213.01909478369</ele>
        <time>2018-11-02T12:56:30Z</time>
      </trkpt>
      <trkpt lat="43.60673" lon="5.27375">
        <ele>212.9767272017</ele>
        <time>2018-11-02T12:56:35Z</time>
      </trkpt>
      <trkpt lat="43.60676" lon="5.2738">
        <ele>212.9465501361</ele>
        <time>2018-11-02T12:56:39Z</time>
      </trkpt>
      <trkpt lat="43.60678" lon="5.27383">
        <ele>212.92357548332</ele>
        <time>2018-11-02T12:56:42Z</time>
      </trkpt>
      <trkpt lat="43.6068" lon="5.27389">
        <ele>212.88430883407</ele>
        <time>2018-11-02T12:56:47Z</time>
      </trkpt>
      <trkpt lat="43.60682" lon="5.27394">
        <ele>212.84412724753</ele>
        <time>2018-11-02T12:56:52Z</time>
      </trkpt>
      <trkpt lat="43.60684" lon="5.27397">
        <ele>212.81199691708</ele>
        <time>2018-11-02T12:56:56Z</time>
      </trkpt>
      <trkpt lat="43.60685" lon="5.27402">
        <ele>212.78084792481</ele>
        <time>2018-11-02T12:57:00Z</time>
      </trkpt>
      <trkpt lat="43.60686" lon="5.27408">
        <ele>212.7448541147</ele>
        <time>2018-11-02T12:57:05Z</time>
      </trkpt>
      <trkpt lat="43.60687" lon="5.27415">
        <ele>212.70822289949</ele>
        <time>2018-11-02T12:57:10Z</time>
      </trkpt>
      <trkpt lat="43.60688" lon="5.2742">
        <ele>212.67829434783</ele>
        <time>2018-11-02T12:57:14Z</time>
      </trkpt>
      <trkpt lat="43.60689" lon="5.27424">
        <ele>212.64762338108</ele>
        <time>2018-11-02T12:57:18Z</time>
      </trkpt>
      <trkpt lat="43.6069" lon="5.2743">
        <ele>212.61532095373</ele>
        <time>2018-11-02T12:57:22Z</time>
      </trkpt>
      <trkpt lat="43.60692" lon="5.27436">
        <ele>212.58044285384</ele>
        <time>2018-11-02T12:57:26Z</time>
      </trkpt>
      <trkpt lat="43.60694" lon="5.27443">
        <ele>212.53487848371</ele>
        <time>2018-11-02T12:57:31Z</time>
      </trkpt>
      <trkpt lat="43.60697" lon="5.27448">
        <ele>212.48650834212</ele>
        <time>2018-11-02T12:57:36Z</time>
      </trkpt>
      <trkpt lat="43.60699" lon="5.27452">
        <ele>212.44143577744</ele>
        <time>2018-11-02T12:57:40Z</time>
      </trkpt>
      <trkpt lat="43.60702" lon="5.27457">
        <ele>212.37660618425</ele>
        <time>2018-11-02T12:57:45Z</time>
      </trkpt>
      <trkpt lat="43.60704" lon="5.2746">
        <ele>212.3187487466</ele>
        <time>2018-11-02T12:57:49Z</time>
      </trkpt>
      <trkpt lat="43.60706" lon="5.27465">
        <ele>212.25839587555</ele>
        <time>2018-11-02T12:57:53Z</time>
      </trkpt>
      <trkpt lat="43.60707" lon="5.27469">
        <ele>212.19852716143</ele>
        <time>2018-11-02T12:57:57Z</time>
      </trkpt>
      <trkpt lat="43.60708" lon="5.27475">
        <ele>212.11111671907</ele>
        <time>2018-11-02T12:58:03Z</time>
      </trkpt>
      <trkpt lat="43.60711" lon="5.27479">
        <ele>212.03472574288</ele>
        <time>2018-11-02T12:58:08Z</time>
      </trkpt>
      <trkpt lat="43.60713" lon="5.27484">
        <ele>211.95329318671</ele>
        <time>2018-11-02T12:58:13Z</time>
      </trkpt>
      <trkpt lat="43.60714" lon="5.27489">
        <ele>211.88397419852</ele>
        <time>2018-11-02T12:58:17Z</time>
      </trkpt>
      <trkpt lat="43.60717" lon="5.27493">
        <ele>211.80515056966</ele>
        <time>2018-11-02T12:58:21Z</time>
      </trkpt>
      <trkpt lat="43.60719" lon="5.27496">
        <ele>211.70269890908</ele>
        <time>2018-11-02T12:58:26Z</time>
      </trkpt>
      <trkpt lat="43.60723" lon="5.27501">
        <ele>211.59411630958</ele>
        <time>2018-11-02T12:58:31Z</time>
      </trkpt>
      <trkpt lat="43.60725" lon="5.27505">
        <ele>211.52726552903</ele>
        <time>2018-11-02T12:58:34Z</time>
      </trkpt>
      <trkpt lat="43.6073" lon="5.27513">
        <ele>211.41001874284</ele>
        <time>2018-11-02T12:58:39Z</time>
      </trkpt>
      <trkpt lat="43.60734" lon="5.2752">
        <ele>211.30893428121</ele>
        <time>2018-11-02T12:58:43Z</time>
      </trkpt>
      <trkpt lat="43.60738" lon="5.27526">
        <ele>211.20303127622</ele>
        <time>2018-11-02T12:58:47Z</time>
      </trkpt>
      <trkpt lat="43.60741" lon="5.27532">
        <ele>211.09653163839</ele>
        <time>2018-11-02T12:58:51Z</time>
      </trkpt>
      <trkpt lat="43.60743" lon="5.27537">
        <ele>210.96573964408</ele>
        <time>2018-11-02T12:58:56Z</time>
      </trkpt>
      <trkpt lat="43.60746" lon="5.27541">
        <ele>210.86185710808</ele>
        <time>2018-11-02T12:59:00Z</time>
      </trkpt>
      <trkpt lat="43.60748" lon="5.27544">
        <ele>210.75744293334</ele>
        <time>2018-11-02T12:59:04Z</time>
      </trkpt>
      <trkpt lat="43.6075" lon="5.27548">
        <ele>210.65257764506</ele>
        <time>2018-11-02T12:59:08Z</time>
      </trkpt>
      <trkpt lat="43.60752" lon="5.27551">
        <ele>210.57302150227</ele>
        <time>2018-11-02T12:59:11Z</time>
      </trkpt>
      <trkpt lat="43.60755" lon="5.27555">
        <ele>210.49267711149</ele>
        <time>2018-11-02T12:59:14Z</time>
      </trkpt>
      <trkpt lat="43.60757" lon="5.2756">
        <ele>210.35629929478</ele>
        <time>2018-11-02T12:59:19Z</time>
      </trkpt>
      <trkpt lat="43.6076" lon="5.27564">
        <ele>210.24160165671</ele>
        <time>2018-11-02T12:59:23Z</time>
      </trkpt>
      <trkpt lat="43.60764" lon="5.27568">
        <ele>210.12649170155</ele>
        <time>2018-11-02T12:59:27Z</time>
      </trkpt>
      <trkpt lat="43.60766" lon="5.27572">
        <ele>210.01122751328</ele>
        <time>2018-11-02T12:59:31Z</time>
      </trkpt>
      <trkpt lat="43.6077" lon="5.2758">
        <ele>209.86173560829</ele>
        <time>2018-11-02T12:59:36Z</time>
      </trkpt>
      <trkpt lat="43.60771" lon="5.27585">
        <ele>209.74337264218</ele>
        <time>2018-11-02T12:59:40Z</time>
      </trkpt>
      <trkpt lat="43.60774" lon="5.27591">
        <ele>209.59527480414</ele>
        <time>2018-11-02T12:59:45Z</time>
      </trkpt>
      <trkpt lat="43.60776" lon="5.27596">
        <ele>209.50571387127</ele>
        <time>2018-11-02T12:59:48Z</time>
      </trkpt>
      <trkpt lat="43.60778" lon="5.27601">
        <ele>209.38610604366</ele>
        <time>2018-11-02T12:59:52Z</time>
      </trkpt>
      <trkpt lat="43.60782" lon="5.27607">
        <ele>209.23150771945</ele>
        <time>2018-11-02T12:59:57Z</time>
      </trkpt>
      <trkpt lat="43.60784" lon="5.27612">
        <ele>209.10707815031</ele>
        <time>2018-11-02T13:00:01Z</time>
      </trkpt>
      <trkpt lat="43.60786" lon="5.27616">
        <ele>209.01156687263</ele>
        <time>2018-11-02T13:00:04Z</time>
      </trkpt>
      <trkpt lat="43.60788" lon="5.27624">
        <ele>208.8832493924</ele>
        <time>2018-11-02T13:00:08Z</time>
      </trkpt>
      <trkpt lat="43.60791" lon="5.2763">
        <ele>208.75652239192</ele>
        <time>2018-11-02T13:00:12Z</time>
      </trkpt>
      <trkpt lat="43.60793" lon="5.27634">
        <ele>208.6622209594</ele>
        <time>2018-11-02T13:00:15Z</time>
      </trkpt>
      <trkpt lat="43.60796" lon="5.27643">
        <ele>208.50730407897</ele>
        <time>2018-11-02T13:00:20Z</time>
      </trkpt>
      <trkpt lat="43.60799" lon="5.27654">
        <ele>208.35350346727</ele>
        <time>2018-11-02T13:00:25Z</time>
      </trkpt>
      <trkpt lat="43.608" lon="5.27661">
        <ele>208.26067123618</ele>
        <time>2018-11-02T13:00:28Z</time>
      </trkpt>
      <trkpt lat="43.60803" lon="5.2767">
        <ele>208.1051842438</ele>
        <time>2018-11-02T13:00:33Z</time>
      </trkpt>
      <trkpt lat="43.60804" lon="5.27675">
        <ele>208.01001368676</ele>
        <time>2018-11-02T13:00:36Z</time>
      </trkpt>
      <trkpt lat="43.60805" lon="5.27681">
        <ele>207.88273404372</ele>
        <time>2018-11-02T13:00:40Z</time>
      </trkpt>
      <trkpt lat="43.60806" lon="5.27687">
        <ele>207.72577392299</ele>
        <time>2018-11-02T13:00:45Z</time>
      </trkpt>
      <trkpt lat="43.60806" lon="5.27691">
        <ele>207.6006281054</ele>
        <time>2018-11-02T13:00:49Z</time>
      </trkpt>
      <trkpt lat="43.60805" lon="5.27697">
        <ele>207.44498959823</ele>
        <time>2018-11-02T13:00:54Z</time>
      </trkpt>
      <trkpt lat="43.60804" lon="5.27703">
        <ele>207.29418422015</ele>
        <time>2018-11-02T13:00:59Z</time>
      </trkpt>
      <trkpt lat="43.60805" lon="5.27709">
        <ele>207.14322952368</ele>
        <time>2018-11-02T13:01:04Z</time>
      </trkpt>
      <trkpt lat="43.60806" lon="5.27714">
        <ele>207.02316830503</ele>
        <time>2018-11-02T13:01:08Z</time>
      </trkpt>
      <trkpt lat="43.60807" lon="5.27718">
        <ele>206.93477270373</ele>
        <time>2018-11-02T13:01:11Z</time>
      </trkpt>
      <trkpt lat="43.60807" lon="5.27724">
        <ele>206.81926319622</ele>
        <time>2018-11-02T13:01:15Z</time>
      </trkpt>
      <trkpt lat="43.60808" lon="5.27731">
        <ele>206.70467111481</ele>
        <time>2018-11-02T13:01:19Z</time>
      </trkpt>
      <trkpt lat="43.6081" lon="5.27735">
        <ele>206.59298721309</ele>
        <time>2018-11-02T13:01:23Z</time>
      </trkpt>
      <trkpt lat="43.60811" lon="5.27742">
        <ele>206.48545620819</ele>
        <time>2018-11-02T13:01:27Z</time>
      </trkpt>
      <trkpt lat="43.60813" lon="5.27748">
        <ele>206.35790685969</ele>
        <time>2018-11-02T13:01:32Z</time>
      </trkpt>
      <trkpt lat="43.60816" lon="5.27753">
        <ele>206.23417887629</ele>
        <time>2018-11-02T13:01:37Z</time>
      </trkpt>
      <trkpt lat="43.60818" lon="5.27756">
        <ele>206.16170310759</ele>
        <time>2018-11-02T13:01:40Z</time>
      </trkpt>
      <trkpt lat="43.6082" lon="5.2776">
        <ele>206.06768713643</ele>
        <time>2018-11-02T13:01:44Z</time>
      </trkpt>
      <trkpt lat="43.60824" lon="5.27762">
        <ele>205.95321475142</ele>
        <time>2018-11-02T13:01:49Z</time>
      </trkpt>
      <trkpt lat="43.60827" lon="5.27759">
        <ele>205.85762711885</ele>
        <time>2018-11-02T13:01:54Z</time>
      </trkpt>
      <trkpt lat="43.60834" lon="5.27769">
        <ele>205.73077411982</ele>
        <time>2018-11-02T13:01:59Z</time>
      </trkpt>
      <trkpt lat="43.60839" lon="5.27775">
        <ele>205.62622052251</ele>
        <time>2018-11-02T13:02:03Z</time>
      </trkpt>
      <trkpt lat="43.60841" lon="5.2778">
        <ele>205.49490143019</ele>
        <time>2018-11-02T13:02:08Z</time>
      </trkpt>
      <trkpt lat="43.60843" lon="5.27786">
        <ele>205.33737053346</ele>
        <time>2018-11-02T13:02:14Z</time>
      </trkpt>
      <trkpt lat="43.60844" lon="5.27791">
        <ele>205.14374592498</ele>
        <time>2018-11-02T13:02:21Z</time>
      </trkpt>
      <trkpt lat="43.60847" lon="5.27794">
        <ele>204.98556229879</ele>
        <time>2018-11-02T13:02:26Z</time>
      </trkpt>
      <trkpt lat="43.60851" lon="5.27799">
        <ele>204.81364025192</ele>
        <time>2018-11-02T13:02:31Z</time>
      </trkpt>
      <trkpt lat="43.60855" lon="5.27806">
        <ele>204.63288410658</ele>
        <time>2018-11-02T13:02:36Z</time>
      </trkpt>
      <trkpt lat="43.60858" lon="5.27811">
        <ele>204.48036469762</ele>
        <time>2018-11-02T13:02:40Z</time>
      </trkpt>
      <trkpt lat="43.60862" lon="5.27815">
        <ele>204.32238668829</ele>
        <time>2018-11-02T13:02:44Z</time>
      </trkpt>
      <trkpt lat="43.60865" lon="5.2782">
        <ele>204.15736129035</ele>
        <time>2018-11-02T13:02:48Z</time>
      </trkpt>
      <trkpt lat="43.60871" lon="5.27826">
        <ele>203.98739264999</ele>
        <time>2018-11-02T13:02:52Z</time>
      </trkpt>
      <trkpt lat="43.60874" lon="5.27831">
        <ele>203.81883028614</ele>
        <time>2018-11-02T13:02:56Z</time>
      </trkpt>
      <trkpt lat="43.60878" lon="5.27838">
        <ele>203.65313313291</ele>
        <time>2018-11-02T13:03:00Z</time>
      </trkpt>
      <trkpt lat="43.60883" lon="5.27845">
        <ele>203.48803405244</ele>
        <time>2018-11-02T13:03:04Z</time>
      </trkpt>
      <trkpt lat="43.60885" lon="5.27851">
        <ele>203.32781985517</ele>
        <time>2018-11-02T13:03:08Z</time>
      </trkpt>
      <trkpt lat="43.60888" lon="5.27857">
        <ele>203.13158665083</ele>
        <time>2018-11-02T13:03:13Z</time>
      </trkpt>
      <trkpt lat="43.60891" lon="5.27863">
        <ele>202.93624084297</ele>
        <time>2018-11-02T13:03:18Z</time>
      </trkpt>
      <trkpt lat="43.60893" lon="5.27867">
        <ele>202.78287590572</ele>
        <time>2018-11-02T13:03:22Z</time>
      </trkpt>
      <trkpt lat="43.60896" lon="5.27872">
        <ele>202.5994036858</ele>
        <time>2018-11-02T13:03:27Z</time>
      </trkpt>
      <trkpt lat="43.60897" lon="5.27878">
        <ele>202.45777985671</ele>
        <time>2018-11-02T13:03:31Z</time>
      </trkpt>
      <trkpt lat="43.60898" lon="5.27884">
        <ele>202.28170036386</ele>
        <time>2018-11-02T13:03:36Z</time>
      </trkpt>
      <trkpt lat="43.60901" lon="5.2789">
        <ele>202.10516069546</ele>
        <time>2018-11-02T13:03:41Z</time>
      </trkpt>
      <trkpt lat="43.60903" lon="5.27893">
        <ele>201.99960021237</ele>
        <time>2018-11-02T13:03:44Z</time>
      </trkpt>
      <trkpt lat="43.60904" lon="5.27896">
        <ele>201.89369292476</ele>
        <time>2018-11-02T13:03:47Z</time>
      </trkpt>
      <trkpt lat="43.60907" lon="5.27902">
        <ele>201.7162667513</ele>
        <time>2018-11-02T13:03:52Z</time>
      </trkpt>
      <trkpt lat="43.60909" lon="5.27906">
        <ele>201.58009129316</ele>
        <time>2018-11-02T13:03:56Z</time>
      </trkpt>
      <trkpt lat="43.60911" lon="5.27911">
        <ele>201.40934876826</ele>
        <time>2018-11-02T13:04:01Z</time>
      </trkpt>
      <trkpt lat="43.6091" lon="5.27916">
        <ele>199.85138560257</ele>
        <time>2018-11-02T13:06:50Z</time>
      </trkpt>
      <trkpt lat="43.60909" lon="5.27924">
        <ele>199.66151760258</ele>
        <time>2018-11-02T13:06:54Z</time>
      </trkpt>
      <trkpt lat="43.60908" lon="5.2793">
        <ele>199.48097290479</ele>
        <time>2018-11-02T13:06:58Z</time>
      </trkpt>
      <trkpt lat="43.60908" lon="5.27936">
        <ele>199.31090591132</ele>
        <time>2018-11-02T13:07:02Z</time>
      </trkpt>
      <trkpt lat="43.60908" lon="5.27941">
        <ele>199.15143822996</ele>
        <time>2018-11-02T13:07:06Z</time>
      </trkpt>
      <trkpt lat="43.60908" lon="5.27947">
        <ele>199.00066172362</ele>
        <time>2018-11-02T13:07:10Z</time>
      </trkpt>
      <trkpt lat="43.60908" lon="5.27952">
        <ele>198.85821518797</ele>
        <time>2018-11-02T13:07:14Z</time>
      </trkpt>
      <trkpt lat="43.6091" lon="5.27957">
        <ele>198.62497326217</ele>
        <time>2018-11-02T13:07:21Z</time>
      </trkpt>
      <trkpt lat="43.60913" lon="5.27962">
        <ele>198.37917197225</ele>
        <time>2018-11-02T13:07:29Z</time>
      </trkpt>
      <trkpt lat="43.60914" lon="5.27967">
        <ele>198.23473518282</ele>
        <time>2018-11-02T13:07:34Z</time>
      </trkpt>
      <trkpt lat="43.60915" lon="5.27973">
        <ele>198.12195168752</ele>
        <time>2018-11-02T13:07:38Z</time>
      </trkpt>
      <trkpt lat="43.60914" lon="5.27978">
        <ele>197.80300584671</ele>
        <time>2018-11-02T13:07:53Z</time>
      </trkpt>
      <trkpt lat="43.60913" lon="5.27983">
        <ele>197.70867787527</ele>
        <time>2018-11-02T13:07:57Z</time>
      </trkpt>
      <trkpt lat="43.60911" lon="5.27988">
        <ele>197.61851585319</ele>
        <time>2018-11-02T13:08:01Z</time>
      </trkpt>
      <trkpt lat="43.6091" lon="5.27994">
        <ele>197.55519759222</ele>
        <time>2018-11-02T13:08:04Z</time>
      </trkpt>
      <trkpt lat="43.60911" lon="5.28001">
        <ele>197.45473749513</ele>
        <time>2018-11-02T13:08:09Z</time>
      </trkpt>
      <trkpt lat="43.60912" lon="5.28006">
        <ele>197.37790229053</ele>
        <time>2018-11-02T13:08:13Z</time>
      </trkpt>
      <trkpt lat="43.60913" lon="5.28012">
        <ele>197.28692464764</ele>
        <time>2018-11-02T13:08:18Z</time>
      </trkpt>
      <trkpt lat="43.60914" lon="5.28017">
        <ele>197.21750925281</ele>
        <time>2018-11-02T13:08:22Z</time>
      </trkpt>
      <trkpt lat="43.60917" lon="5.28022">
        <ele>197.13314840696</ele>
        <time>2018-11-02T13:08:27Z</time>
      </trkpt>
      <trkpt lat="43.6092" lon="5.28028">
        <ele>197.04707086751</ele>
        <time>2018-11-02T13:08:32Z</time>
      </trkpt>
      <trkpt lat="43.60922" lon="5.28034">
        <ele>196.95980538211</ele>
        <time>2018-11-02T13:08:37Z</time>
      </trkpt>
      <trkpt lat="43.60923" lon="5.28039">
        <ele>196.88829282665</ele>
        <time>2018-11-02T13:08:41Z</time>
      </trkpt>
      <trkpt lat="43.60925" lon="5.28044">
        <ele>196.81793489236</ele>
        <time>2018-11-02T13:08:45Z</time>
      </trkpt>
      <trkpt lat="43.60926" lon="5.2805">
        <ele>196.7483881703</ele>
        <time>2018-11-02T13:08:49Z</time>
      </trkpt>
      <trkpt lat="43.60928" lon="5.28056">
        <ele>196.66497484309</ele>
        <time>2018-11-02T13:08:54Z</time>
      </trkpt>
      <trkpt lat="43.60929" lon="5.28062">
        <ele>196.56792580815</ele>
        <time>2018-11-02T13:09:03Z</time>
      </trkpt>
      <trkpt lat="43.60928" lon="5.28066">
        <ele>196.4022601133</ele>
        <time>2018-11-02T13:09:23Z</time>
      </trkpt>
      <trkpt lat="43.6093" lon="5.28074">
        <ele>196.32690233169</ele>
        <time>2018-11-02T13:09:28Z</time>
      </trkpt>
      <trkpt lat="43.60932" lon="5.28077">
        <ele>196.25074071148</ele>
        <time>2018-11-02T13:09:34Z</time>
      </trkpt>
      <trkpt lat="43.60935" lon="5.28083">
        <ele>196.17448567461</ele>
        <time>2018-11-02T13:09:39Z</time>
      </trkpt>
      <trkpt lat="43.60937" lon="5.28091">
        <ele>196.10119684961</ele>
        <time>2018-11-02T13:09:44Z</time>
      </trkpt>
      <trkpt lat="43.60939" lon="5.28096">
        <ele>196.04369004056</ele>
        <time>2018-11-02T13:09:48Z</time>
      </trkpt>
      <trkpt lat="43.60941" lon="5.28103">
        <ele>195.97369220309</ele>
        <time>2018-11-02T13:09:53Z</time>
      </trkpt>
      <trkpt lat="43.60942" lon="5.28109">
        <ele>195.91910807845</ele>
        <time>2018-11-02T13:09:57Z</time>
      </trkpt>
      <trkpt lat="43.60943" lon="5.28113">
        <ele>195.87804418715</ele>
        <time>2018-11-02T13:10:00Z</time>
      </trkpt>
      <trkpt lat="43.60945" lon="5.28121">
        <ele>195.81027975768</ele>
        <time>2018-11-02T13:10:05Z</time>
      </trkpt>
      <trkpt lat="43.60947" lon="5.28127">
        <ele>195.75781200169</ele>
        <time>2018-11-02T13:10:09Z</time>
      </trkpt>
      <trkpt lat="43.60949" lon="5.28133">
        <ele>195.69470025236</ele>
        <time>2018-11-02T13:10:14Z</time>
      </trkpt>
      <trkpt lat="43.60952" lon="5.28137">
        <ele>195.64434893507</ele>
        <time>2018-11-02T13:10:18Z</time>
      </trkpt>
      <trkpt lat="43.60955" lon="5.28143">
        <ele>195.58266856661</ele>
        <time>2018-11-02T13:10:23Z</time>
      </trkpt>
      <trkpt lat="43.60957" lon="5.28146">
        <ele>195.5344865382</ele>
        <time>2018-11-02T13:10:27Z</time>
      </trkpt>
      <trkpt lat="43.6096" lon="5.28152">
        <ele>195.47290554866</ele>
        <time>2018-11-02T13:10:32Z</time>
      </trkpt>
      <trkpt lat="43.60964" lon="5.28157">
        <ele>195.41944713741</ele>
        <time>2018-11-02T13:10:36Z</time>
      </trkpt>
      <trkpt lat="43.60968" lon="5.28163">
        <ele>195.36264754096</ele>
        <time>2018-11-02T13:10:40Z</time>
      </trkpt>
      <trkpt lat="43.60971" lon="5.28171">
        <ele>195.28857509059</ele>
        <time>2018-11-02T13:10:45Z</time>
      </trkpt>
      <trkpt lat="43.60974" lon="5.28178">
        <ele>195.23110287564</ele>
        <time>2018-11-02T13:10:49Z</time>
      </trkpt>
      <trkpt lat="43.60976" lon="5.28182">
        <ele>195.19015584666</ele>
        <time>2018-11-02T13:10:52Z</time>
      </trkpt>
      <trkpt lat="43.60978" lon="5.28188">
        <ele>195.13860113614</ele>
        <time>2018-11-02T13:10:56Z</time>
      </trkpt>
      <trkpt lat="43.6098" lon="5.28195">
        <ele>195.07818995882</ele>
        <time>2018-11-02T13:11:01Z</time>
      </trkpt>
      <trkpt lat="43.6098" lon="5.282">
        <ele>195.04535744297</ele>
        <time>2018-11-02T13:11:04Z</time>
      </trkpt>
      <trkpt lat="43.6098" lon="5.2821">
        <ele>194.9982309667</ele>
        <time>2018-11-02T13:11:09Z</time>
      </trkpt>
      <trkpt lat="43.60981" lon="5.28217">
        <ele>194.95805872331</ele>
        <time>2018-11-02T13:11:14Z</time>
      </trkpt>
      <trkpt lat="43.60982" lon="5.28223">
        <ele>194.92860355687</ele>
        <time>2018-11-02T13:11:18Z</time>
      </trkpt>
      <trkpt lat="43.60983" lon="5.2823">
        <ele>194.90256576748</ele>
        <time>2018-11-02T13:11:22Z</time>
      </trkpt>
      <trkpt lat="43.60982" lon="5.28237">
        <ele>194.87969784827</ele>
        <time>2018-11-02T13:11:26Z</time>
      </trkpt>
      <trkpt lat="43.60981" lon="5.28243">
        <ele>194.85841741977</ele>
        <time>2018-11-02T13:11:30Z</time>
      </trkpt>
      <trkpt lat="43.60982" lon="5.28249">
        <ele>194.83588286967</ele>
        <time>2018-11-02T13:11:35Z</time>
      </trkpt>
      <trkpt lat="43.60982" lon="5.28254">
        <ele>194.82246257539</ele>
        <time>2018-11-02T13:11:39Z</time>
      </trkpt>
      <trkpt lat="43.60983" lon="5.28259">
        <ele>194.81423747569</ele>
        <time>2018-11-02T13:11:43Z</time>
      </trkpt>
      <trkpt lat="43.60984" lon="5.28265">
        <ele>194.81004131136</ele>
        <time>2018-11-02T13:11:48Z</time>
      </trkpt>
      <trkpt lat="43.60984" lon="5.28269">
        <ele>194.81026793716</ele>
        <time>2018-11-02T13:11:52Z</time>
      </trkpt>
      <trkpt lat="43.60985" lon="5.28275">
        <ele>194.81732092003</ele>
        <time>2018-11-02T13:11:58Z</time>
      </trkpt>
      <trkpt lat="43.60985" lon="5.2828">
        <ele>194.82385776586</ele>
        <time>2018-11-02T13:12:02Z</time>
      </trkpt>
      <trkpt lat="43.60986" lon="5.28287">
        <ele>194.83744854451</ele>
        <time>2018-11-02T13:12:07Z</time>
      </trkpt>
      <trkpt lat="43.60986" lon="5.28292">
        <ele>194.85458342855</ele>
        <time>2018-11-02T13:12:11Z</time>
      </trkpt>
      <trkpt lat="43.60986" lon="5.28297">
        <ele>194.87707595609</ele>
        <time>2018-11-02T13:12:15Z</time>
      </trkpt>
      <trkpt lat="43.60986" lon="5.28302">
        <ele>194.91143462008</ele>
        <time>2018-11-02T13:12:20Z</time>
      </trkpt>
      <trkpt lat="43.60985" lon="5.28308">
        <ele>194.9516238196</ele>
        <time>2018-11-02T13:12:25Z</time>
      </trkpt>
      <trkpt lat="43.60986" lon="5.28312">
        <ele>194.98523703595</ele>
        <time>2018-11-02T13:12:29Z</time>
      </trkpt>
      <trkpt lat="43.60987" lon="5.28318">
        <ele>195.02542619094</ele>
        <time>2018-11-02T13:12:34Z</time>
      </trkpt>
      <trkpt lat="43.60988" lon="5.28325">
        <ele>195.06599518593</ele>
        <time>2018-11-02T13:12:39Z</time>
      </trkpt>
      <trkpt lat="43.60988" lon="5.2833">
        <ele>195.08992697206</ele>
        <time>2018-11-02T13:12:42Z</time>
      </trkpt>
      <trkpt lat="43.60988" lon="5.28335">
        <ele>195.1210243652</ele>
        <time>2018-11-02T13:12:46Z</time>
      </trkpt>
      <trkpt lat="43.60987" lon="5.28341">
        <ele>195.16278590067</ele>
        <time>2018-11-02T13:12:51Z</time>
      </trkpt>
      <trkpt lat="43.60987" lon="5.28348">
        <ele>195.20896212948</ele>
        <time>2018-11-02T13:12:56Z</time>
      </trkpt>
      <trkpt lat="43.60987" lon="5.28354">
        <ele>195.26043730936</ele>
        <time>2018-11-02T13:13:01Z</time>
      </trkpt>
      <trkpt lat="43.60987" lon="5.28359">
        <ele>195.32758341906</ele>
        <time>2018-11-02T13:13:07Z</time>
      </trkpt>
      <trkpt lat="43.60988" lon="5.28365">
        <ele>195.37403845998</ele>
        <time>2018-11-02T13:13:11Z</time>
      </trkpt>
      <trkpt lat="43.60988" lon="5.28371">
        <ele>195.43465429578</ele>
        <time>2018-11-02T13:13:16Z</time>
      </trkpt>
      <trkpt lat="43.60989" lon="5.28375">
        <ele>195.49982374815</ele>
        <time>2018-11-02T13:13:21Z</time>
      </trkpt>
      <trkpt lat="43.60991" lon="5.2838">
        <ele>195.55287250289</ele>
        <time>2018-11-02T13:13:25Z</time>
      </trkpt>
      <trkpt lat="43.60995" lon="5.28387">
        <ele>195.61986234201</ele>
        <time>2018-11-02T13:13:30Z</time>
      </trkpt>
      <trkpt lat="43.60997" lon="5.28392">
        <ele>195.67610822068</ele>
        <time>2018-11-02T13:13:34Z</time>
      </trkpt>
      <trkpt lat="43.60999" lon="5.28396">
        <ele>195.7346736021</ele>
        <time>2018-11-02T13:13:38Z</time>
      </trkpt>
      <trkpt lat="43.61001" lon="5.28401">
        <ele>195.79438714045</ele>
        <time>2018-11-02T13:13:42Z</time>
      </trkpt>
      <trkpt lat="43.61003" lon="5.28405">
        <ele>195.87074002077</ele>
        <time>2018-11-02T13:13:47Z</time>
      </trkpt>
      <trkpt lat="43.61003" lon="5.28413">
        <ele>195.95349241856</ele>
        <time>2018-11-02T13:13:52Z</time>
      </trkpt>
      <trkpt lat="43.61004" lon="5.28417">
        <ele>196.02303901102</ele>
        <time>2018-11-02T13:13:56Z</time>
      </trkpt>
      <trkpt lat="43.61006" lon="5.28421">
        <ele>196.07976109236</ele>
        <time>2018-11-02T13:13:59Z</time>
      </trkpt>
      <trkpt lat="43.61007" lon="5.28427">
        <ele>196.16387858288</ele>
        <time>2018-11-02T13:14:03Z</time>
      </trkpt>
      <trkpt lat="43.61009" lon="5.28435">
        <ele>196.28171495111</ele>
        <time>2018-11-02T13:14:08Z</time>
      </trkpt>
      <trkpt lat="43.61011" lon="5.2844">
        <ele>196.38340553822</ele>
        <time>2018-11-02T13:14:12Z</time>
      </trkpt>
      <trkpt lat="43.61013" lon="5.28445">
        <ele>196.491968915</ele>
        <time>2018-11-02T13:14:16Z</time>
      </trkpt>
      <trkpt lat="43.61015" lon="5.2845">
        <ele>196.60854848825</ele>
        <time>2018-11-02T13:14:20Z</time>
      </trkpt>
      <trkpt lat="43.61017" lon="5.28455">
        <ele>196.73183046577</ele>
        <time>2018-11-02T13:14:24Z</time>
      </trkpt>
      <trkpt lat="43.61019" lon="5.2846">
        <ele>196.8594880222</ele>
        <time>2018-11-02T13:14:28Z</time>
      </trkpt>
      <trkpt lat="43.61022" lon="5.28466">
        <ele>197.01884770856</ele>
        <time>2018-11-02T13:14:33Z</time>
      </trkpt>
      <trkpt lat="43.61024" lon="5.28471">
        <ele>197.14473607594</ele>
        <time>2018-11-02T13:14:37Z</time>
      </trkpt>
      <trkpt lat="43.61027" lon="5.28478">
        <ele>197.30113426557</ele>
        <time>2018-11-02T13:14:42Z</time>
      </trkpt>
      <trkpt lat="43.61029" lon="5.28483">
        <ele>197.42638587334</ele>
        <time>2018-11-02T13:14:46Z</time>
      </trkpt>
      <trkpt lat="43.61031" lon="5.28488">
        <ele>197.54831770273</ele>
        <time>2018-11-02T13:14:50Z</time>
      </trkpt>
      <trkpt lat="43.61033" lon="5.28493">
        <ele>197.66804451482</ele>
        <time>2018-11-02T13:14:54Z</time>
      </trkpt>
      <trkpt lat="43.61035" lon="5.28499">
        <ele>197.78726362317</ele>
        <time>2018-11-02T13:14:58Z</time>
      </trkpt>
      <trkpt lat="43.61037" lon="5.28503">
        <ele>197.87739708709</ele>
        <time>2018-11-02T13:15:01Z</time>
      </trkpt>
      <trkpt lat="43.6104" lon="5.28509">
        <ele>197.99684504601</ele>
        <time>2018-11-02T13:15:05Z</time>
      </trkpt>
      <trkpt lat="43.61043" lon="5.28516">
        <ele>198.14677165934</ele>
        <time>2018-11-02T13:15:10Z</time>
      </trkpt>
      <trkpt lat="43.61044" lon="5.28521">
        <ele>198.26712008126</ele>
        <time>2018-11-02T13:15:14Z</time>
      </trkpt>
      <trkpt lat="43.61046" lon="5.28526">
        <ele>198.38710008666</ele>
        <time>2018-11-02T13:15:18Z</time>
      </trkpt>
      <trkpt lat="43.61048" lon="5.2853">
        <ele>198.50654722609</ele>
        <time>2018-11-02T13:15:22Z</time>
      </trkpt>
      <trkpt lat="43.61051" lon="5.28535">
        <ele>198.62762044773</ele>
        <time>2018-11-02T13:15:26Z</time>
      </trkpt>
      <trkpt lat="43.61052" lon="5.2854">
        <ele>198.78239499752</ele>
        <time>2018-11-02T13:15:31Z</time>
      </trkpt>
      <trkpt lat="43.61055" lon="5.28546">
        <ele>198.97595438122</ele>
        <time>2018-11-02T13:15:40Z</time>
      </trkpt>
      <trkpt lat="43.61057" lon="5.28551">
        <ele>199.09465017318</ele>
        <time>2018-11-02T13:15:44Z</time>
      </trkpt>
      <trkpt lat="43.61059" lon="5.28557">
        <ele>199.20905534875</ele>
        <time>2018-11-02T13:15:48Z</time>
      </trkpt>
      <trkpt lat="43.61062" lon="5.28565">
        <ele>199.35007293397</ele>
        <time>2018-11-02T13:15:53Z</time>
      </trkpt>
      <trkpt lat="43.61064" lon="5.28569">
        <ele>199.4638435526</ele>
        <time>2018-11-02T13:15:57Z</time>
      </trkpt>
      <trkpt lat="43.61067" lon="5.28573">
        <ele>199.60852438401</ele>
        <time>2018-11-02T13:16:02Z</time>
      </trkpt>
      <trkpt lat="43.61072" lon="5.28577">
        <ele>199.75148894174</ele>
        <time>2018-11-02T13:16:07Z</time>
      </trkpt>
      <trkpt lat="43.61074" lon="5.28581">
        <ele>199.86312740973</ele>
        <time>2018-11-02T13:16:11Z</time>
      </trkpt>
      <trkpt lat="43.61077" lon="5.28585">
        <ele>200.0189701089</ele>
        <time>2018-11-02T13:16:17Z</time>
      </trkpt>
      <trkpt lat="43.61079" lon="5.28588">
        <ele>200.09370043834</ele>
        <time>2018-11-02T13:16:20Z</time>
      </trkpt>
      <trkpt lat="43.61083" lon="5.28591">
        <ele>200.16948945421</ele>
        <time>2018-11-02T13:16:23Z</time>
      </trkpt>
      <trkpt lat="43.61087" lon="5.28592">
        <ele>200.27105165513</ele>
        <time>2018-11-02T13:16:28Z</time>
      </trkpt>
      <trkpt lat="43.61092" lon="5.28592">
        <ele>200.4935073267</ele>
        <time>2018-11-02T13:16:55Z</time>
      </trkpt>
      <trkpt lat="43.61096" lon="5.28594">
        <ele>200.53069831989</ele>
        <time>2018-11-02T13:16:59Z</time>
      </trkpt>
      <trkpt lat="43.611" lon="5.28599">
        <ele>200.66859589461</ele>
        <time>2018-11-02T13:17:04Z</time>
      </trkpt>
      <trkpt lat="43.61103" lon="5.28603">
        <ele>200.7964775495</ele>
        <time>2018-11-02T13:17:09Z</time>
      </trkpt>
      <trkpt lat="43.61108" lon="5.28607">
        <ele>200.89318019292</ele>
        <time>2018-11-02T13:17:13Z</time>
      </trkpt>
      <trkpt lat="43.61112" lon="5.28613">
        <ele>200.98482598579</ele>
        <time>2018-11-02T13:17:17Z</time>
      </trkpt>
      <trkpt lat="43.61115" lon="5.28616">
        <ele>201.13472389847</ele>
        <time>2018-11-02T13:17:29Z</time>
      </trkpt>
      <trkpt lat="43.61118" lon="5.2862">
        <ele>201.32641434771</ele>
        <time>2018-11-02T13:17:40Z</time>
      </trkpt>
      <trkpt lat="43.61121" lon="5.28624">
        <ele>201.45580309203</ele>
        <time>2018-11-02T13:17:46Z</time>
      </trkpt>
      <trkpt lat="43.61124" lon="5.28626">
        <ele>201.51723482538</ele>
        <time>2018-11-02T13:17:49Z</time>
      </trkpt>
      <trkpt lat="43.61127" lon="5.28631">
        <ele>201.5993346487</ele>
        <time>2018-11-02T13:17:53Z</time>
      </trkpt>
      <trkpt lat="43.6113" lon="5.28636">
        <ele>201.68445665301</ele>
        <time>2018-11-02T13:17:57Z</time>
      </trkpt>
      <trkpt lat="43.61132" lon="5.2864">
        <ele>201.77118405352</ele>
        <time>2018-11-02T13:18:01Z</time>
      </trkpt>
      <trkpt lat="43.61136" lon="5.28642">
        <ele>201.85731035823</ele>
        <time>2018-11-02T13:18:05Z</time>
      </trkpt>
      <trkpt lat="43.6114" lon="5.28645">
        <ele>201.94406397729</ele>
        <time>2018-11-02T13:18:09Z</time>
      </trkpt>
      <trkpt lat="43.61143" lon="5.28648">
        <ele>202.04896699105</ele>
        <time>2018-11-02T13:18:14Z</time>
      </trkpt>
      <trkpt lat="43.61146" lon="5.28652">
        <ele>202.14931658168</ele>
        <time>2018-11-02T13:18:19Z</time>
      </trkpt>
      <trkpt lat="43.61148" lon="5.28658">
        <ele>202.2264265142</ele>
        <time>2018-11-02T13:18:23Z</time>
      </trkpt>
      <trkpt lat="43.61148" lon="5.28665">
        <ele>202.28341846438</ele>
        <time>2018-11-02T13:18:26Z</time>
      </trkpt>
      <trkpt lat="43.61148" lon="5.28673">
        <ele>202.37960551554</ele>
        <time>2018-11-02T13:18:31Z</time>
      </trkpt>
      <trkpt lat="43.61148" lon="5.28678">
        <ele>202.45557537027</ele>
        <time>2018-11-02T13:18:40Z</time>
      </trkpt>
      <trkpt lat="43.61148" lon="5.28683">
        <ele>202.52681582916</ele>
        <time>2018-11-02T13:18:47Z</time>
      </trkpt>
      <trkpt lat="43.61148" lon="5.28686">
        <ele>202.57458273549</ele>
        <time>2018-11-02T13:18:51Z</time>
      </trkpt>
      <trkpt lat="43.6115" lon="5.28693">
        <ele>202.66059760499</ele>
        <time>2018-11-02T13:18:55Z</time>
      </trkpt>
      <trkpt lat="43.61151" lon="5.28698">
        <ele>202.78034812562</ele>
        <time>2018-11-02T13:19:01Z</time>
      </trkpt>
      <trkpt lat="43.61152" lon="5.28704">
        <ele>202.94428323599</ele>
        <time>2018-11-02T13:19:10Z</time>
      </trkpt>
      <trkpt lat="43.61154" lon="5.28708">
        <ele>203.04643463436</ele>
        <time>2018-11-02T13:19:16Z</time>
      </trkpt>
      <trkpt lat="43.61156" lon="5.28711">
        <ele>203.09601386293</ele>
        <time>2018-11-02T13:19:19Z</time>
      </trkpt>
      <trkpt lat="43.61158" lon="5.28715">
        <ele>203.17966557517</ele>
        <time>2018-11-02T13:19:24Z</time>
      </trkpt>
      <trkpt lat="43.61158" lon="5.28721">
        <ele>203.24619564798</ele>
        <time>2018-11-02T13:19:28Z</time>
      </trkpt>
      <trkpt lat="43.6116" lon="5.28731">
        <ele>203.31537945008</ele>
        <time>2018-11-02T13:19:32Z</time>
      </trkpt>
      <trkpt lat="43.61161" lon="5.28739">
        <ele>203.40790516921</ele>
        <time>2018-11-02T13:19:37Z</time>
      </trkpt>
      <trkpt lat="43.61161" lon="5.28744">
        <ele>203.46689522504</ele>
        <time>2018-11-02T13:19:40Z</time>
      </trkpt>
      <trkpt lat="43.61163" lon="5.28751">
        <ele>203.57075675871</ele>
        <time>2018-11-02T13:19:45Z</time>
      </trkpt>
      <trkpt lat="43.61164" lon="5.28755">
        <ele>203.7133351647</ele>
        <time>2018-11-02T13:19:52Z</time>
      </trkpt>
      <trkpt lat="43.61164" lon="5.2876">
        <ele>203.79078833012</ele>
        <time>2018-11-02T13:19:56Z</time>
      </trkpt>
      <trkpt lat="43.61165" lon="5.28768">
        <ele>203.88666301398</ele>
        <time>2018-11-02T13:20:01Z</time>
      </trkpt>
      <trkpt lat="43.61166" lon="5.28774">
        <ele>203.98040233425</ele>
        <time>2018-11-02T13:20:06Z</time>
      </trkpt>
      <trkpt lat="43.61169" lon="5.28779">
        <ele>204.07427478852</ele>
        <time>2018-11-02T13:20:11Z</time>
      </trkpt>
      <trkpt lat="43.61171" lon="5.28782">
        <ele>204.14930089502</ele>
        <time>2018-11-02T13:20:15Z</time>
      </trkpt>
      <trkpt lat="43.61174" lon="5.28789">
        <ele>204.24490629679</ele>
        <time>2018-11-02T13:20:20Z</time>
      </trkpt>
      <trkpt lat="43.61176" lon="5.28793">
        <ele>204.30124321364</ele>
        <time>2018-11-02T13:20:23Z</time>
      </trkpt>
      <trkpt lat="43.61177" lon="5.28798">
        <ele>204.35818354454</ele>
        <time>2018-11-02T13:20:26Z</time>
      </trkpt>
      <trkpt lat="43.61179" lon="5.28803">
        <ele>204.45145856116</ele>
        <time>2018-11-02T13:20:31Z</time>
      </trkpt>
      <trkpt lat="43.6118" lon="5.28808">
        <ele>204.52544145552</ele>
        <time>2018-11-02T13:20:35Z</time>
      </trkpt>
      <trkpt lat="43.61181" lon="5.28813">
        <ele>204.59884256266</ele>
        <time>2018-11-02T13:20:39Z</time>
      </trkpt>
      <trkpt lat="43.61182" lon="5.28819">
        <ele>204.66773192286</ele>
        <time>2018-11-02T13:20:43Z</time>
      </trkpt>
      <trkpt lat="43.61182" lon="5.28823">
        <ele>204.71699363114</ele>
        <time>2018-11-02T13:20:46Z</time>
      </trkpt>
      <trkpt lat="43.61182" lon="5.28829">
        <ele>204.78001175463</ele>
        <time>2018-11-02T13:20:50Z</time>
      </trkpt>
      <trkpt lat="43.61184" lon="5.28834">
        <ele>204.85598111634</ele>
        <time>2018-11-02T13:20:55Z</time>
      </trkpt>
      <trkpt lat="43.61186" lon="5.28838">
        <ele>204.89993123314</ele>
        <time>2018-11-02T13:20:58Z</time>
      </trkpt>
      <trkpt lat="43.61188" lon="5.28844">
        <ele>204.95694674368</ele>
        <time>2018-11-02T13:21:02Z</time>
      </trkpt>
      <trkpt lat="43.61191" lon="5.28849">
        <ele>205.0118677988</ele>
        <time>2018-11-02T13:21:06Z</time>
      </trkpt>
      <trkpt lat="43.61194" lon="5.28854">
        <ele>205.07650420407</ele>
        <time>2018-11-02T13:21:11Z</time>
      </trkpt>
      <trkpt lat="43.61197" lon="5.28858">
        <ele>205.12763689409</ele>
        <time>2018-11-02T13:21:15Z</time>
      </trkpt>
      <trkpt lat="43.61201" lon="5.28865">
        <ele>205.19135238778</ele>
        <time>2018-11-02T13:21:20Z</time>
      </trkpt>
      <trkpt lat="43.61204" lon="5.28871">
        <ele>205.24041758227</ele>
        <time>2018-11-02T13:21:24Z</time>
      </trkpt>
      <trkpt lat="43.61205" lon="5.28876">
        <ele>205.2901379614</ele>
        <time>2018-11-02T13:21:28Z</time>
      </trkpt>
      <trkpt lat="43.61208" lon="5.28882">
        <ele>205.35394935438</ele>
        <time>2018-11-02T13:21:33Z</time>
      </trkpt>
      <trkpt lat="43.61211" lon="5.28888">
        <ele>205.41562884507</ele>
        <time>2018-11-02T13:21:38Z</time>
      </trkpt>
      <trkpt lat="43.61212" lon="5.28892">
        <ele>205.45171488031</ele>
        <time>2018-11-02T13:21:41Z</time>
      </trkpt>
      <trkpt lat="43.61214" lon="5.28895">
        <ele>205.48830558104</ele>
        <time>2018-11-02T13:21:44Z</time>
      </trkpt>
      <trkpt lat="43.61217" lon="5.28899">
        <ele>205.53829828785</ele>
        <time>2018-11-02T13:21:48Z</time>
      </trkpt>
      <trkpt lat="43.61219" lon="5.28904">
        <ele>205.59236819018</ele>
        <time>2018-11-02T13:21:52Z</time>
      </trkpt>
      <trkpt lat="43.61223" lon="5.28907">
        <ele>205.65032509642</ele>
        <time>2018-11-02T13:21:56Z</time>
      </trkpt>
      <trkpt lat="43.61229" lon="5.28916">
        <ele>205.72810117776</ele>
        <time>2018-11-02T13:22:01Z</time>
      </trkpt>
      <trkpt lat="43.61232" lon="5.28923">
        <ele>205.77933382565</ele>
        <time>2018-11-02T13:22:04Z</time>
      </trkpt>
      <trkpt lat="43.61235" lon="5.28931">
        <ele>205.84907377887</ele>
        <time>2018-11-02T13:22:08Z</time>
      </trkpt>
      <trkpt lat="43.61235" lon="5.28937">
        <ele>205.96700278819</ele>
        <time>2018-11-02T13:22:15Z</time>
      </trkpt>
      <trkpt lat="43.61234" lon="5.28944">
        <ele>206.04812436657</ele>
        <time>2018-11-02T13:22:20Z</time>
      </trkpt>
      <trkpt lat="43.61234" lon="5.28951">
        <ele>206.11354117115</ele>
        <time>2018-11-02T13:22:24Z</time>
      </trkpt>
      <trkpt lat="43.61234" lon="5.28964">
        <ele>206.20293463686</ele>
        <time>2018-11-02T13:22:29Z</time>
      </trkpt>
      <trkpt lat="43.61235" lon="5.28968">
        <ele>206.2945869327</ele>
        <time>2018-11-02T13:22:34Z</time>
      </trkpt>
      <trkpt lat="43.61236" lon="5.28975">
        <ele>206.36863791949</ele>
        <time>2018-11-02T13:22:38Z</time>
      </trkpt>
      <trkpt lat="43.61237" lon="5.28982">
        <ele>206.4471321165</ele>
        <time>2018-11-02T13:22:42Z</time>
      </trkpt>
      <trkpt lat="43.61237" lon="5.28988">
        <ele>206.54226875663</ele>
        <time>2018-11-02T13:22:47Z</time>
      </trkpt>
      <trkpt lat="43.61239" lon="5.28994">
        <ele>206.61430738754</ele>
        <time>2018-11-02T13:22:51Z</time>
      </trkpt>
      <trkpt lat="43.61241" lon="5.28997">
        <ele>206.68603988726</ele>
        <time>2018-11-02T13:22:55Z</time>
      </trkpt>
      <trkpt lat="43.61243" lon="5.29001">
        <ele>206.77302420967</ele>
        <time>2018-11-02T13:23:00Z</time>
      </trkpt>
      <trkpt lat="43.61245" lon="5.29005">
        <ele>206.85620814801</ele>
        <time>2018-11-02T13:23:05Z</time>
      </trkpt>
      <trkpt lat="43.61249" lon="5.29015">
        <ele>206.93952042101</ele>
        <time>2018-11-02T13:23:10Z</time>
      </trkpt>
      <trkpt lat="43.61252" lon="5.29023">
        <ele>207.01903882463</ele>
        <time>2018-11-02T13:23:15Z</time>
      </trkpt>
      <trkpt lat="43.61256" lon="5.29029">
        <ele>207.07978206515</ele>
        <time>2018-11-02T13:23:19Z</time>
      </trkpt>
      <trkpt lat="43.61259" lon="5.29034">
        <ele>207.13875896107</ele>
        <time>2018-11-02T13:23:23Z</time>
      </trkpt>
      <trkpt lat="43.6126" lon="5.29037">
        <ele>207.18057616436</ele>
        <time>2018-11-02T13:23:26Z</time>
      </trkpt>
      <trkpt lat="43.61264" lon="5.29045">
        <ele>207.23776495981</ele>
        <time>2018-11-02T13:23:30Z</time>
      </trkpt>
      <trkpt lat="43.61267" lon="5.29051">
        <ele>207.29653422635</ele>
        <time>2018-11-02T13:23:34Z</time>
      </trkpt>
      <trkpt lat="43.61272" lon="5.29056">
        <ele>207.37337460415</ele>
        <time>2018-11-02T13:23:39Z</time>
      </trkpt>
      <trkpt lat="43.61276" lon="5.2906">
        <ele>207.43550205336</ele>
        <time>2018-11-02T13:23:43Z</time>
      </trkpt>
      <trkpt lat="43.61278" lon="5.29065">
        <ele>207.48250307239</ele>
        <time>2018-11-02T13:23:47Z</time>
      </trkpt>
      <trkpt lat="43.61281" lon="5.29071">
        <ele>207.54424611173</ele>
        <time>2018-11-02T13:23:51Z</time>
      </trkpt>
      <trkpt lat="43.61284" lon="5.29077">
        <ele>207.60660627491</ele>
        <time>2018-11-02T13:23:55Z</time>
      </trkpt>
      <trkpt lat="43.61288" lon="5.29085">
        <ele>207.66723897512</ele>
        <time>2018-11-02T13:23:59Z</time>
      </trkpt>
      <trkpt lat="43.6129" lon="5.2909">
        <ele>207.70943749875</ele>
        <time>2018-11-02T13:24:02Z</time>
      </trkpt>
      <trkpt lat="43.61292" lon="5.29093">
        <ele>207.74937614012</ele>
        <time>2018-11-02T13:24:06Z</time>
      </trkpt>
      <trkpt lat="43.61295" lon="5.29099">
        <ele>207.80102527131</ele>
        <time>2018-11-02T13:24:10Z</time>
      </trkpt>
      <trkpt lat="43.61301" lon="5.29107">
        <ele>207.86779069742</ele>
        <time>2018-11-02T13:24:15Z</time>
      </trkpt>
      <trkpt lat="43.61307" lon="5.29113">
        <ele>207.93332320792</ele>
        <time>2018-11-02T13:24:20Z</time>
      </trkpt>
      <trkpt lat="43.61311" lon="5.29116">
        <ele>207.98236880587</ele>
        <time>2018-11-02T13:24:24Z</time>
      </trkpt>
      <trkpt lat="43.61312" lon="5.29123">
        <ele>208.02878917394</ele>
        <time>2018-11-02T13:24:28Z</time>
      </trkpt>
      <trkpt lat="43.61313" lon="5.29127">
        <ele>208.07402761945</ele>
        <time>2018-11-02T13:24:32Z</time>
      </trkpt>
      <trkpt lat="43.61315" lon="5.29133">
        <ele>208.11830979524</ele>
        <time>2018-11-02T13:24:36Z</time>
      </trkpt>
      <trkpt lat="43.61318" lon="5.29137">
        <ele>208.16335607536</ele>
        <time>2018-11-02T13:24:40Z</time>
      </trkpt>
      <trkpt lat="43.61322" lon="5.29144">
        <ele>208.20765388939</ele>
        <time>2018-11-02T13:24:44Z</time>
      </trkpt>
      <trkpt lat="43.61323" lon="5.29148">
        <ele>208.24099928703</ele>
        <time>2018-11-02T13:24:47Z</time>
      </trkpt>
      <trkpt lat="43.61326" lon="5.29153">
        <ele>208.29516564514</ele>
        <time>2018-11-02T13:24:52Z</time>
      </trkpt>
      <trkpt lat="43.61329" lon="5.29164">
        <ele>208.35558322018</ele>
        <time>2018-11-02T13:24:57Z</time>
      </trkpt>
      <trkpt lat="43.61329" lon="5.29169">
        <ele>208.39863465478</ele>
        <time>2018-11-02T13:25:00Z</time>
      </trkpt>
      <trkpt lat="43.61329" lon="5.29175">
        <ele>208.45952892559</ele>
        <time>2018-11-02T13:25:04Z</time>
      </trkpt>
      <trkpt lat="43.61328" lon="5.29181">
        <ele>208.51245187702</ele>
        <time>2018-11-02T13:25:09Z</time>
      </trkpt>
      <trkpt lat="43.61328" lon="5.29181">
        <ele>208.53179371979</ele>
        <time>2018-11-02T13:25:11Z</time>
      </trkpt>
      <trkpt lat="43.61328" lon="5.29181">
        <ele>208.53179371979</ele>
        <time>2018-11-02T13:25:13Z</time>
      </trkpt>
    </trkseg>
  </trk>
</gpx>